<?xml version="1.0" encoding="UTF-8" standalone="no" ?>
<gpx xmlns="http://www.topografix.com/GPX/1/1" xmlns:xsi="http://www.w3.org/2001/XMLSchema-instance" xsi:schemaLocation="http://www.topografix.com/GPX/1/1 http://www.topografix.com/GPX/1/1/gpx.xsd" version="1.1" creator="VisuGPX - https://www.visugpx.com">
  <metadata>
    <name>Balade du 09 octobre 2011</name>
    <desc><![CDATA[Temps couvert et venté]]></desc>
  </metadata>
  <trk>
    <name><![CDATA[2011-10-09 15:12]]></name>
    <trkseg>
      <trkpt lat="43.62397" lon="3.83802">
        <ele>79.45</ele>
        <time>2011-10-09T13:12:39Z</time>
      </trkpt>
      <trkpt lat="43.624" lon="3.83803">
        <ele>77.52</ele>
        <time>2011-10-09T13:12:53Z</time>
      </trkpt>
      <trkpt lat="43.62404" lon="3.83804">
        <ele>78</ele>
        <time>2011-10-09T13:12:55Z</time>
      </trkpt>
      <trkpt lat="43.62414" lon="3.83797">
        <ele>78.97</ele>
        <time>2011-10-09T13:12:59Z</time>
      </trkpt>
      <trkpt lat="43.6242" lon="3.83783">
        <ele>80.41</ele>
        <time>2011-10-09T13:13:02Z</time>
      </trkpt>
      <trkpt lat="43.6242" lon="3.83776">
        <ele>80.41</ele>
        <time>2011-10-09T13:13:03Z</time>
      </trkpt>
      <trkpt lat="43.62418" lon="3.83769">
        <ele>80.41</ele>
        <time>2011-10-09T13:13:04Z</time>
      </trkpt>
      <trkpt lat="43.62416" lon="3.8376">
        <ele>80.41</ele>
        <time>2011-10-09T13:13:05Z</time>
      </trkpt>
      <trkpt lat="43.62415" lon="3.83752">
        <ele>80.41</ele>
        <time>2011-10-09T13:13:06Z</time>
      </trkpt>
      <trkpt lat="43.62407" lon="3.83711">
        <ele>80.41</ele>
        <time>2011-10-09T13:13:11Z</time>
      </trkpt>
      <trkpt lat="43.62408" lon="3.83704">
        <ele>80.89</ele>
        <time>2011-10-09T13:13:12Z</time>
      </trkpt>
      <trkpt lat="43.6241" lon="3.83699">
        <ele>80.89</ele>
        <time>2011-10-09T13:13:13Z</time>
      </trkpt>
      <trkpt lat="43.62413" lon="3.83693">
        <ele>80.41</ele>
        <time>2011-10-09T13:13:14Z</time>
      </trkpt>
      <trkpt lat="43.62418" lon="3.83687">
        <ele>80.41</ele>
        <time>2011-10-09T13:13:15Z</time>
      </trkpt>
      <trkpt lat="43.62422" lon="3.83682">
        <ele>79.93</ele>
        <time>2011-10-09T13:13:16Z</time>
      </trkpt>
      <trkpt lat="43.62428" lon="3.83678">
        <ele>79.93</ele>
        <time>2011-10-09T13:13:17Z</time>
      </trkpt>
      <trkpt lat="43.62434" lon="3.83675">
        <ele>79.93</ele>
        <time>2011-10-09T13:13:18Z</time>
      </trkpt>
      <trkpt lat="43.62442" lon="3.83674">
        <ele>80.41</ele>
        <time>2011-10-09T13:13:19Z</time>
      </trkpt>
      <trkpt lat="43.62446" lon="3.83674">
        <ele>80.41</ele>
        <time>2011-10-09T13:13:20Z</time>
      </trkpt>
      <trkpt lat="43.6245" lon="3.83674">
        <ele>80.89</ele>
        <time>2011-10-09T13:13:21Z</time>
      </trkpt>
      <trkpt lat="43.62457" lon="3.83676">
        <ele>81.37</ele>
        <time>2011-10-09T13:13:25Z</time>
      </trkpt>
      <trkpt lat="43.6246" lon="3.83677">
        <ele>81.85</ele>
        <time>2011-10-09T13:13:26Z</time>
      </trkpt>
      <trkpt lat="43.62471" lon="3.83686">
        <ele>81.85</ele>
        <time>2011-10-09T13:13:28Z</time>
      </trkpt>
      <trkpt lat="43.62479" lon="3.8369">
        <ele>81.85</ele>
        <time>2011-10-09T13:13:29Z</time>
      </trkpt>
      <trkpt lat="43.62487" lon="3.83693">
        <ele>81.85</ele>
        <time>2011-10-09T13:13:30Z</time>
      </trkpt>
      <trkpt lat="43.62495" lon="3.83693">
        <ele>81.85</ele>
        <time>2011-10-09T13:13:31Z</time>
      </trkpt>
      <trkpt lat="43.62505" lon="3.83692">
        <ele>81.85</ele>
        <time>2011-10-09T13:13:32Z</time>
      </trkpt>
      <trkpt lat="43.62513" lon="3.83688">
        <ele>81.85</ele>
        <time>2011-10-09T13:13:33Z</time>
      </trkpt>
      <trkpt lat="43.62521" lon="3.83682">
        <ele>81.85</ele>
        <time>2011-10-09T13:13:34Z</time>
      </trkpt>
      <trkpt lat="43.62526" lon="3.83673">
        <ele>81.85</ele>
        <time>2011-10-09T13:13:35Z</time>
      </trkpt>
      <trkpt lat="43.62532" lon="3.83663">
        <ele>81.37</ele>
        <time>2011-10-09T13:13:36Z</time>
      </trkpt>
      <trkpt lat="43.62535" lon="3.8365">
        <ele>82.33</ele>
        <time>2011-10-09T13:13:37Z</time>
      </trkpt>
      <trkpt lat="43.62537" lon="3.83636">
        <ele>82.33</ele>
        <time>2011-10-09T13:13:38Z</time>
      </trkpt>
      <trkpt lat="43.62539" lon="3.83623">
        <ele>82.33</ele>
        <time>2011-10-09T13:13:39Z</time>
      </trkpt>
      <trkpt lat="43.62546" lon="3.8358">
        <ele>81.37</ele>
        <time>2011-10-09T13:13:43Z</time>
      </trkpt>
      <trkpt lat="43.62538" lon="3.83569">
        <ele>80.89</ele>
        <time>2011-10-09T13:13:44Z</time>
      </trkpt>
      <trkpt lat="43.6253" lon="3.83556">
        <ele>80.89</ele>
        <time>2011-10-09T13:13:45Z</time>
      </trkpt>
      <trkpt lat="43.62519" lon="3.83541">
        <ele>81.37</ele>
        <time>2011-10-09T13:13:46Z</time>
      </trkpt>
      <trkpt lat="43.62512" lon="3.83526">
        <ele>81.37</ele>
        <time>2011-10-09T13:13:47Z</time>
      </trkpt>
      <trkpt lat="43.62425" lon="3.83413">
        <ele>83.29</ele>
        <time>2011-10-09T13:13:55Z</time>
      </trkpt>
      <trkpt lat="43.62412" lon="3.83404">
        <ele>83.29</ele>
        <time>2011-10-09T13:13:56Z</time>
      </trkpt>
      <trkpt lat="43.62398" lon="3.83396">
        <ele>83.29</ele>
        <time>2011-10-09T13:13:57Z</time>
      </trkpt>
      <trkpt lat="43.62385" lon="3.83389">
        <ele>83.29</ele>
        <time>2011-10-09T13:13:58Z</time>
      </trkpt>
      <trkpt lat="43.62346" lon="3.83361">
        <ele>83.77</ele>
        <time>2011-10-09T13:14:02Z</time>
      </trkpt>
      <trkpt lat="43.6234" lon="3.8335">
        <ele>83.77</ele>
        <time>2011-10-09T13:14:03Z</time>
      </trkpt>
      <trkpt lat="43.62341" lon="3.83338">
        <ele>84.25</ele>
        <time>2011-10-09T13:14:04Z</time>
      </trkpt>
      <trkpt lat="43.62333" lon="3.83327">
        <ele>83.77</ele>
        <time>2011-10-09T13:14:05Z</time>
      </trkpt>
      <trkpt lat="43.62325" lon="3.83316">
        <ele>83.77</ele>
        <time>2011-10-09T13:14:06Z</time>
      </trkpt>
      <trkpt lat="43.62318" lon="3.83304">
        <ele>83.77</ele>
        <time>2011-10-09T13:14:07Z</time>
      </trkpt>
      <trkpt lat="43.62312" lon="3.8329">
        <ele>83.77</ele>
        <time>2011-10-09T13:14:08Z</time>
      </trkpt>
      <trkpt lat="43.62308" lon="3.83274">
        <ele>83.77</ele>
        <time>2011-10-09T13:14:09Z</time>
      </trkpt>
      <trkpt lat="43.62307" lon="3.83257">
        <ele>83.29</ele>
        <time>2011-10-09T13:14:10Z</time>
      </trkpt>
      <trkpt lat="43.62307" lon="3.83239">
        <ele>82.81</ele>
        <time>2011-10-09T13:14:11Z</time>
      </trkpt>
      <trkpt lat="43.62307" lon="3.83219">
        <ele>82.81</ele>
        <time>2011-10-09T13:14:12Z</time>
      </trkpt>
      <trkpt lat="43.62309" lon="3.832">
        <ele>82.33</ele>
        <time>2011-10-09T13:14:13Z</time>
      </trkpt>
      <trkpt lat="43.62313" lon="3.8318">
        <ele>81.85</ele>
        <time>2011-10-09T13:14:14Z</time>
      </trkpt>
      <trkpt lat="43.62318" lon="3.83162">
        <ele>81.85</ele>
        <time>2011-10-09T13:14:15Z</time>
      </trkpt>
      <trkpt lat="43.62323" lon="3.83143">
        <ele>81.37</ele>
        <time>2011-10-09T13:14:16Z</time>
      </trkpt>
      <trkpt lat="43.62399" lon="3.82911">
        <ele>78</ele>
        <time>2011-10-09T13:14:28Z</time>
      </trkpt>
      <trkpt lat="43.62478" lon="3.82733">
        <ele>74.64</ele>
        <time>2011-10-09T13:14:38Z</time>
      </trkpt>
      <trkpt lat="43.6248" lon="3.82717">
        <ele>74.16</ele>
        <time>2011-10-09T13:14:39Z</time>
      </trkpt>
      <trkpt lat="43.62481" lon="3.82702">
        <ele>73.68</ele>
        <time>2011-10-09T13:14:40Z</time>
      </trkpt>
      <trkpt lat="43.62485" lon="3.82662">
        <ele>72.72</ele>
        <time>2011-10-09T13:14:43Z</time>
      </trkpt>
      <trkpt lat="43.62486" lon="3.82651">
        <ele>72.24</ele>
        <time>2011-10-09T13:14:44Z</time>
      </trkpt>
      <trkpt lat="43.62486" lon="3.8264">
        <ele>71.76</ele>
        <time>2011-10-09T13:14:45Z</time>
      </trkpt>
      <trkpt lat="43.62482" lon="3.82631">
        <ele>71.76</ele>
        <time>2011-10-09T13:14:46Z</time>
      </trkpt>
      <trkpt lat="43.62476" lon="3.82622">
        <ele>71.27</ele>
        <time>2011-10-09T13:14:47Z</time>
      </trkpt>
      <trkpt lat="43.62468" lon="3.82614">
        <ele>71.27</ele>
        <time>2011-10-09T13:14:48Z</time>
      </trkpt>
      <trkpt lat="43.6246" lon="3.82603">
        <ele>70.79</ele>
        <time>2011-10-09T13:14:49Z</time>
      </trkpt>
      <trkpt lat="43.62453" lon="3.82588">
        <ele>70.31</ele>
        <time>2011-10-09T13:14:50Z</time>
      </trkpt>
      <trkpt lat="43.62446" lon="3.82572">
        <ele>70.31</ele>
        <time>2011-10-09T13:14:51Z</time>
      </trkpt>
      <trkpt lat="43.6243" lon="3.82536">
        <ele>69.83</ele>
        <time>2011-10-09T13:14:53Z</time>
      </trkpt>
      <trkpt lat="43.62421" lon="3.8252">
        <ele>69.83</ele>
        <time>2011-10-09T13:14:54Z</time>
      </trkpt>
      <trkpt lat="43.62277" lon="3.82317">
        <ele>63.1</ele>
        <time>2011-10-09T13:15:07Z</time>
      </trkpt>
      <trkpt lat="43.6223" lon="3.8227">
        <ele>61.18</ele>
        <time>2011-10-09T13:15:12Z</time>
      </trkpt>
      <trkpt lat="43.62215" lon="3.82254">
        <ele>60.22</ele>
        <time>2011-10-09T13:15:14Z</time>
      </trkpt>
      <trkpt lat="43.62205" lon="3.82254">
        <ele>59.74</ele>
        <time>2011-10-09T13:15:15Z</time>
      </trkpt>
      <trkpt lat="43.62194" lon="3.82258">
        <ele>59.74</ele>
        <time>2011-10-09T13:15:16Z</time>
      </trkpt>
      <trkpt lat="43.62184" lon="3.82262">
        <ele>59.26</ele>
        <time>2011-10-09T13:15:17Z</time>
      </trkpt>
      <trkpt lat="43.62173" lon="3.82266">
        <ele>59.26</ele>
        <time>2011-10-09T13:15:18Z</time>
      </trkpt>
      <trkpt lat="43.6216" lon="3.82267">
        <ele>59.74</ele>
        <time>2011-10-09T13:15:19Z</time>
      </trkpt>
      <trkpt lat="43.62147" lon="3.82267">
        <ele>59.74</ele>
        <time>2011-10-09T13:15:20Z</time>
      </trkpt>
      <trkpt lat="43.62134" lon="3.82265">
        <ele>60.22</ele>
        <time>2011-10-09T13:15:21Z</time>
      </trkpt>
      <trkpt lat="43.62009" lon="3.82224">
        <ele>61.66</ele>
        <time>2011-10-09T13:15:29Z</time>
      </trkpt>
      <trkpt lat="43.61847" lon="3.82109">
        <ele>58.78</ele>
        <time>2011-10-09T13:15:39Z</time>
      </trkpt>
      <trkpt lat="43.61702" lon="3.82013">
        <ele>59.74</ele>
        <time>2011-10-09T13:15:48Z</time>
      </trkpt>
      <trkpt lat="43.61684" lon="3.8201">
        <ele>59.74</ele>
        <time>2011-10-09T13:15:49Z</time>
      </trkpt>
      <trkpt lat="43.61665" lon="3.82011">
        <ele>59.74</ele>
        <time>2011-10-09T13:15:50Z</time>
      </trkpt>
      <trkpt lat="43.61647" lon="3.82015">
        <ele>59.74</ele>
        <time>2011-10-09T13:15:51Z</time>
      </trkpt>
      <trkpt lat="43.61629" lon="3.82023">
        <ele>59.74</ele>
        <time>2011-10-09T13:15:52Z</time>
      </trkpt>
      <trkpt lat="43.61611" lon="3.82033">
        <ele>60.22</ele>
        <time>2011-10-09T13:15:53Z</time>
      </trkpt>
      <trkpt lat="43.61594" lon="3.82044">
        <ele>60.22</ele>
        <time>2011-10-09T13:15:54Z</time>
      </trkpt>
      <trkpt lat="43.61331" lon="3.82232">
        <ele>55.41</ele>
        <time>2011-10-09T13:16:09Z</time>
      </trkpt>
      <trkpt lat="43.61262" lon="3.82275">
        <ele>53.49</ele>
        <time>2011-10-09T13:16:14Z</time>
      </trkpt>
      <trkpt lat="43.61246" lon="3.82278">
        <ele>52.53</ele>
        <time>2011-10-09T13:16:15Z</time>
      </trkpt>
      <trkpt lat="43.6123" lon="3.82278">
        <ele>51.57</ele>
        <time>2011-10-09T13:16:16Z</time>
      </trkpt>
      <trkpt lat="43.61213" lon="3.82276">
        <ele>51.09</ele>
        <time>2011-10-09T13:16:17Z</time>
      </trkpt>
      <trkpt lat="43.61195" lon="3.82271">
        <ele>50.61</ele>
        <time>2011-10-09T13:16:18Z</time>
      </trkpt>
      <trkpt lat="43.61177" lon="3.82266">
        <ele>50.61</ele>
        <time>2011-10-09T13:16:19Z</time>
      </trkpt>
      <trkpt lat="43.61019" lon="3.82243">
        <ele>49.65</ele>
        <time>2011-10-09T13:16:27Z</time>
      </trkpt>
      <trkpt lat="43.60898" lon="3.82177">
        <ele>47.72</ele>
        <time>2011-10-09T13:16:33Z</time>
      </trkpt>
      <trkpt lat="43.60773" lon="3.82033">
        <ele>45.8</ele>
        <time>2011-10-09T13:16:40Z</time>
      </trkpt>
      <trkpt lat="43.60643" lon="3.81785">
        <ele>41.95</ele>
        <time>2011-10-09T13:16:49Z</time>
      </trkpt>
      <trkpt lat="43.60536" lon="3.81522">
        <ele>41.95</ele>
        <time>2011-10-09T13:16:58Z</time>
      </trkpt>
      <trkpt lat="43.60534" lon="3.81325">
        <ele>40.99</ele>
        <time>2011-10-09T13:17:04Z</time>
      </trkpt>
      <trkpt lat="43.60594" lon="3.81146">
        <ele>42.44</ele>
        <time>2011-10-09T13:17:10Z</time>
      </trkpt>
      <trkpt lat="43.60726" lon="3.80908">
        <ele>43.4</ele>
        <time>2011-10-09T13:17:19Z</time>
      </trkpt>
      <trkpt lat="43.60807" lon="3.80686">
        <ele>43.4</ele>
        <time>2011-10-09T13:17:27Z</time>
      </trkpt>
      <trkpt lat="43.60904" lon="3.80521">
        <ele>45.32</ele>
        <time>2011-10-09T13:17:34Z</time>
      </trkpt>
      <trkpt lat="43.61054" lon="3.80343">
        <ele>50.61</ele>
        <time>2011-10-09T13:17:43Z</time>
      </trkpt>
      <trkpt lat="43.61097" lon="3.80288">
        <ele>53.01</ele>
        <time>2011-10-09T13:17:47Z</time>
      </trkpt>
      <trkpt lat="43.61106" lon="3.80285">
        <ele>53.49</ele>
        <time>2011-10-09T13:17:48Z</time>
      </trkpt>
      <trkpt lat="43.61115" lon="3.80286">
        <ele>53.97</ele>
        <time>2011-10-09T13:17:49Z</time>
      </trkpt>
      <trkpt lat="43.61123" lon="3.80291">
        <ele>54.45</ele>
        <time>2011-10-09T13:17:50Z</time>
      </trkpt>
      <trkpt lat="43.61129" lon="3.803">
        <ele>54.93</ele>
        <time>2011-10-09T13:17:51Z</time>
      </trkpt>
      <trkpt lat="43.61133" lon="3.80313">
        <ele>55.41</ele>
        <time>2011-10-09T13:17:52Z</time>
      </trkpt>
      <trkpt lat="43.61132" lon="3.80325">
        <ele>55.41</ele>
        <time>2011-10-09T13:17:53Z</time>
      </trkpt>
      <trkpt lat="43.61129" lon="3.80336">
        <ele>55.89</ele>
        <time>2011-10-09T13:17:54Z</time>
      </trkpt>
      <trkpt lat="43.61122" lon="3.80346">
        <ele>55.89</ele>
        <time>2011-10-09T13:17:55Z</time>
      </trkpt>
      <trkpt lat="43.61113" lon="3.80353">
        <ele>55.89</ele>
        <time>2011-10-09T13:17:56Z</time>
      </trkpt>
      <trkpt lat="43.61102" lon="3.80359">
        <ele>55.89</ele>
        <time>2011-10-09T13:17:57Z</time>
      </trkpt>
      <trkpt lat="43.61091" lon="3.80365">
        <ele>55.89</ele>
        <time>2011-10-09T13:17:58Z</time>
      </trkpt>
      <trkpt lat="43.61071" lon="3.80376">
        <ele>56.37</ele>
        <time>2011-10-09T13:18:00Z</time>
      </trkpt>
      <trkpt lat="43.61064" lon="3.80376">
        <ele>56.37</ele>
        <time>2011-10-09T13:18:01Z</time>
      </trkpt>
      <trkpt lat="43.61059" lon="3.80375">
        <ele>56.37</ele>
        <time>2011-10-09T13:18:02Z</time>
      </trkpt>
      <trkpt lat="43.61056" lon="3.80374">
        <ele>56.86</ele>
        <time>2011-10-09T13:18:03Z</time>
      </trkpt>
      <trkpt lat="43.61053" lon="3.80371">
        <ele>57.34</ele>
        <time>2011-10-09T13:18:07Z</time>
      </trkpt>
      <trkpt lat="43.61051" lon="3.80367">
        <ele>56.86</ele>
        <time>2011-10-09T13:18:08Z</time>
      </trkpt>
      <trkpt lat="43.61048" lon="3.80359">
        <ele>56.86</ele>
        <time>2011-10-09T13:18:09Z</time>
      </trkpt>
      <trkpt lat="43.61018" lon="3.80259">
        <ele>54.93</ele>
        <time>2011-10-09T13:18:16Z</time>
      </trkpt>
      <trkpt lat="43.60981" lon="3.80083">
        <ele>53.49</ele>
        <time>2011-10-09T13:18:26Z</time>
      </trkpt>
      <trkpt lat="43.60939" lon="3.79869">
        <ele>55.89</ele>
        <time>2011-10-09T13:18:37Z</time>
      </trkpt>
      <trkpt lat="43.60886" lon="3.79623">
        <ele>62.14</ele>
        <time>2011-10-09T13:18:48Z</time>
      </trkpt>
      <trkpt lat="43.60851" lon="3.79414">
        <ele>67.91</ele>
        <time>2011-10-09T13:18:57Z</time>
      </trkpt>
      <trkpt lat="43.60849" lon="3.79183">
        <ele>77.52</ele>
        <time>2011-10-09T13:19:07Z</time>
      </trkpt>
      <trkpt lat="43.60877" lon="3.79003">
        <ele>84.73</ele>
        <time>2011-10-09T13:19:17Z</time>
      </trkpt>
      <trkpt lat="43.60889" lon="3.78933">
        <ele>85.21</ele>
        <time>2011-10-09T13:19:24Z</time>
      </trkpt>
      <trkpt lat="43.60892" lon="3.78926">
        <ele>85.21</ele>
        <time>2011-10-09T13:19:25Z</time>
      </trkpt>
      <trkpt lat="43.60895" lon="3.7892">
        <ele>85.21</ele>
        <time>2011-10-09T13:19:26Z</time>
      </trkpt>
      <trkpt lat="43.60899" lon="3.78915">
        <ele>85.21</ele>
        <time>2011-10-09T13:19:27Z</time>
      </trkpt>
      <trkpt lat="43.60903" lon="3.78912">
        <ele>85.69</ele>
        <time>2011-10-09T13:19:28Z</time>
      </trkpt>
      <trkpt lat="43.60908" lon="3.7891">
        <ele>85.69</ele>
        <time>2011-10-09T13:19:29Z</time>
      </trkpt>
      <trkpt lat="43.60912" lon="3.78906">
        <ele>85.21</ele>
        <time>2011-10-09T13:19:30Z</time>
      </trkpt>
      <trkpt lat="43.60914" lon="3.789">
        <ele>85.21</ele>
        <time>2011-10-09T13:19:31Z</time>
      </trkpt>
      <trkpt lat="43.60915" lon="3.78892">
        <ele>85.21</ele>
        <time>2011-10-09T13:19:32Z</time>
      </trkpt>
      <trkpt lat="43.60914" lon="3.78885">
        <ele>84.73</ele>
        <time>2011-10-09T13:19:33Z</time>
      </trkpt>
      <trkpt lat="43.60912" lon="3.78876">
        <ele>84.73</ele>
        <time>2011-10-09T13:19:34Z</time>
      </trkpt>
      <trkpt lat="43.60911" lon="3.78868">
        <ele>84.73</ele>
        <time>2011-10-09T13:19:35Z</time>
      </trkpt>
      <trkpt lat="43.6091" lon="3.78858">
        <ele>84.25</ele>
        <time>2011-10-09T13:19:36Z</time>
      </trkpt>
      <trkpt lat="43.60911" lon="3.78849">
        <ele>83.77</ele>
        <time>2011-10-09T13:19:37Z</time>
      </trkpt>
      <trkpt lat="43.60912" lon="3.78841">
        <ele>83.77</ele>
        <time>2011-10-09T13:19:38Z</time>
      </trkpt>
      <trkpt lat="43.60915" lon="3.78832">
        <ele>83.29</ele>
        <time>2011-10-09T13:19:39Z</time>
      </trkpt>
      <trkpt lat="43.60919" lon="3.78824">
        <ele>83.29</ele>
        <time>2011-10-09T13:19:40Z</time>
      </trkpt>
      <trkpt lat="43.60924" lon="3.78815">
        <ele>83.29</ele>
        <time>2011-10-09T13:19:41Z</time>
      </trkpt>
      <trkpt lat="43.60992" lon="3.78708">
        <ele>78.48</ele>
        <time>2011-10-09T13:19:52Z</time>
      </trkpt>
      <trkpt lat="43.61033" lon="3.78632">
        <ele>77.04</ele>
        <time>2011-10-09T13:20:00Z</time>
      </trkpt>
      <trkpt lat="43.61036" lon="3.78621">
        <ele>77.04</ele>
        <time>2011-10-09T13:20:01Z</time>
      </trkpt>
      <trkpt lat="43.61037" lon="3.78609">
        <ele>77.04</ele>
        <time>2011-10-09T13:20:02Z</time>
      </trkpt>
      <trkpt lat="43.61049" lon="3.78499">
        <ele>78</ele>
        <time>2011-10-09T13:20:12Z</time>
      </trkpt>
      <trkpt lat="43.61074" lon="3.78392">
        <ele>77.52</ele>
        <time>2011-10-09T13:20:23Z</time>
      </trkpt>
      <trkpt lat="43.61078" lon="3.78372">
        <ele>77.04</ele>
        <time>2011-10-09T13:20:25Z</time>
      </trkpt>
      <trkpt lat="43.61078" lon="3.78362">
        <ele>76.56</ele>
        <time>2011-10-09T13:20:26Z</time>
      </trkpt>
      <trkpt lat="43.61078" lon="3.78354">
        <ele>76.08</ele>
        <time>2011-10-09T13:20:27Z</time>
      </trkpt>
      <trkpt lat="43.61073" lon="3.78314">
        <ele>75.6</ele>
        <time>2011-10-09T13:20:32Z</time>
      </trkpt>
      <trkpt lat="43.61071" lon="3.78298">
        <ele>75.6</ele>
        <time>2011-10-09T13:20:34Z</time>
      </trkpt>
      <trkpt lat="43.61069" lon="3.7829">
        <ele>75.6</ele>
        <time>2011-10-09T13:20:35Z</time>
      </trkpt>
      <trkpt lat="43.61066" lon="3.78244">
        <ele>76.56</ele>
        <time>2011-10-09T13:20:41Z</time>
      </trkpt>
      <trkpt lat="43.61065" lon="3.7821">
        <ele>78.48</ele>
        <time>2011-10-09T13:20:45Z</time>
      </trkpt>
      <trkpt lat="43.61063" lon="3.78204">
        <ele>78.97</ele>
        <time>2011-10-09T13:20:46Z</time>
      </trkpt>
      <trkpt lat="43.61054" lon="3.78182">
        <ele>84.73</ele>
        <time>2011-10-09T13:20:50Z</time>
      </trkpt>
      <trkpt lat="43.61047" lon="3.78169">
        <ele>86.18</ele>
        <time>2011-10-09T13:20:52Z</time>
      </trkpt>
      <trkpt lat="43.61045" lon="3.78162">
        <ele>86.18</ele>
        <time>2011-10-09T13:20:53Z</time>
      </trkpt>
      <trkpt lat="43.61044" lon="3.78154">
        <ele>87.14</ele>
        <time>2011-10-09T13:20:54Z</time>
      </trkpt>
      <trkpt lat="43.61044" lon="3.78146">
        <ele>87.14</ele>
        <time>2011-10-09T13:20:55Z</time>
      </trkpt>
      <trkpt lat="43.61044" lon="3.78136">
        <ele>87.14</ele>
        <time>2011-10-09T13:20:56Z</time>
      </trkpt>
      <trkpt lat="43.6105" lon="3.78026">
        <ele>90.98</ele>
        <time>2011-10-09T13:21:08Z</time>
      </trkpt>
      <trkpt lat="43.61076" lon="3.77916">
        <ele>91.46</ele>
        <time>2011-10-09T13:21:20Z</time>
      </trkpt>
      <trkpt lat="43.61083" lon="3.77902">
        <ele>91.46</ele>
        <time>2011-10-09T13:21:22Z</time>
      </trkpt>
      <trkpt lat="43.611" lon="3.77877">
        <ele>90.98</ele>
        <time>2011-10-09T13:21:29Z</time>
      </trkpt>
      <trkpt lat="43.61103" lon="3.77871">
        <ele>90.98</ele>
        <time>2011-10-09T13:21:30Z</time>
      </trkpt>
      <trkpt lat="43.6111" lon="3.77853">
        <ele>90.98</ele>
        <time>2011-10-09T13:21:32Z</time>
      </trkpt>
      <trkpt lat="43.61162" lon="3.77752">
        <ele>92.42</ele>
        <time>2011-10-09T13:21:40Z</time>
      </trkpt>
      <trkpt lat="43.61192" lon="3.77688">
        <ele>93.39</ele>
        <time>2011-10-09T13:21:46Z</time>
      </trkpt>
      <trkpt lat="43.612" lon="3.77666">
        <ele>93.87</ele>
        <time>2011-10-09T13:21:48Z</time>
      </trkpt>
      <trkpt lat="43.61205" lon="3.77654">
        <ele>93.87</ele>
        <time>2011-10-09T13:21:49Z</time>
      </trkpt>
      <trkpt lat="43.61242" lon="3.77576">
        <ele>95.79</ele>
        <time>2011-10-09T13:21:58Z</time>
      </trkpt>
      <trkpt lat="43.61246" lon="3.77567">
        <ele>95.79</ele>
        <time>2011-10-09T13:22:04Z</time>
      </trkpt>
      <trkpt lat="43.61246" lon="3.7756">
        <ele>95.79</ele>
        <time>2011-10-09T13:22:05Z</time>
      </trkpt>
      <trkpt lat="43.61245" lon="3.77551">
        <ele>95.79</ele>
        <time>2011-10-09T13:22:06Z</time>
      </trkpt>
      <trkpt lat="43.61243" lon="3.77542">
        <ele>95.79</ele>
        <time>2011-10-09T13:22:07Z</time>
      </trkpt>
      <trkpt lat="43.61241" lon="3.77533">
        <ele>95.79</ele>
        <time>2011-10-09T13:22:08Z</time>
      </trkpt>
      <trkpt lat="43.61238" lon="3.77525">
        <ele>95.79</ele>
        <time>2011-10-09T13:22:09Z</time>
      </trkpt>
      <trkpt lat="43.61235" lon="3.77517">
        <ele>95.31</ele>
        <time>2011-10-09T13:22:10Z</time>
      </trkpt>
      <trkpt lat="43.61227" lon="3.77494">
        <ele>94.83</ele>
        <time>2011-10-09T13:22:13Z</time>
      </trkpt>
      <trkpt lat="43.61225" lon="3.77484">
        <ele>94.35</ele>
        <time>2011-10-09T13:22:14Z</time>
      </trkpt>
      <trkpt lat="43.61209" lon="3.77413">
        <ele>92.42</ele>
        <time>2011-10-09T13:22:20Z</time>
      </trkpt>
      <trkpt lat="43.61207" lon="3.774">
        <ele>91.94</ele>
        <time>2011-10-09T13:22:21Z</time>
      </trkpt>
      <trkpt lat="43.61181" lon="3.77275">
        <ele>87.62</ele>
        <time>2011-10-09T13:22:30Z</time>
      </trkpt>
      <trkpt lat="43.61175" lon="3.77262">
        <ele>87.14</ele>
        <time>2011-10-09T13:22:31Z</time>
      </trkpt>
      <trkpt lat="43.61169" lon="3.77251">
        <ele>86.66</ele>
        <time>2011-10-09T13:22:32Z</time>
      </trkpt>
      <trkpt lat="43.61113" lon="3.77159">
        <ele>83.77</ele>
        <time>2011-10-09T13:22:40Z</time>
      </trkpt>
      <trkpt lat="43.61027" lon="3.77049">
        <ele>78.48</ele>
        <time>2011-10-09T13:22:47Z</time>
      </trkpt>
      <trkpt lat="43.60924" lon="3.76952">
        <ele>71.27</ele>
        <time>2011-10-09T13:22:55Z</time>
      </trkpt>
      <trkpt lat="43.60916" lon="3.76949">
        <ele>69.83</ele>
        <time>2011-10-09T13:22:56Z</time>
      </trkpt>
      <trkpt lat="43.60907" lon="3.76946">
        <ele>68.87</ele>
        <time>2011-10-09T13:22:57Z</time>
      </trkpt>
      <trkpt lat="43.60867" lon="3.76934">
        <ele>66.95</ele>
        <time>2011-10-09T13:23:01Z</time>
      </trkpt>
      <trkpt lat="43.60858" lon="3.76927">
        <ele>66.47</ele>
        <time>2011-10-09T13:23:02Z</time>
      </trkpt>
      <trkpt lat="43.60849" lon="3.76918">
        <ele>65.99</ele>
        <time>2011-10-09T13:23:03Z</time>
      </trkpt>
      <trkpt lat="43.60841" lon="3.76905">
        <ele>65.51</ele>
        <time>2011-10-09T13:23:04Z</time>
      </trkpt>
      <trkpt lat="43.60834" lon="3.76889">
        <ele>65.51</ele>
        <time>2011-10-09T13:23:05Z</time>
      </trkpt>
      <trkpt lat="43.60827" lon="3.76871">
        <ele>65.03</ele>
        <time>2011-10-09T13:23:06Z</time>
      </trkpt>
      <trkpt lat="43.60809" lon="3.76815">
        <ele>64.55</ele>
        <time>2011-10-09T13:23:09Z</time>
      </trkpt>
      <trkpt lat="43.60805" lon="3.76794">
        <ele>65.03</ele>
        <time>2011-10-09T13:23:10Z</time>
      </trkpt>
      <trkpt lat="43.60792" lon="3.76702">
        <ele>65.99</ele>
        <time>2011-10-09T13:23:14Z</time>
      </trkpt>
      <trkpt lat="43.60792" lon="3.76677">
        <ele>66.47</ele>
        <time>2011-10-09T13:23:15Z</time>
      </trkpt>
      <trkpt lat="43.60807" lon="3.76496">
        <ele>68.39</ele>
        <time>2011-10-09T13:23:22Z</time>
      </trkpt>
      <trkpt lat="43.60812" lon="3.76473">
        <ele>68.87</ele>
        <time>2011-10-09T13:23:23Z</time>
      </trkpt>
      <trkpt lat="43.6082" lon="3.7645">
        <ele>68.87</ele>
        <time>2011-10-09T13:23:24Z</time>
      </trkpt>
      <trkpt lat="43.60834" lon="3.76403">
        <ele>68.87</ele>
        <time>2011-10-09T13:23:26Z</time>
      </trkpt>
      <trkpt lat="43.60837" lon="3.76379">
        <ele>68.87</ele>
        <time>2011-10-09T13:23:27Z</time>
      </trkpt>
      <trkpt lat="43.60838" lon="3.76354">
        <ele>68.87</ele>
        <time>2011-10-09T13:23:28Z</time>
      </trkpt>
      <trkpt lat="43.60833" lon="3.76252">
        <ele>69.83</ele>
        <time>2011-10-09T13:23:32Z</time>
      </trkpt>
      <trkpt lat="43.60827" lon="3.76227">
        <ele>69.83</ele>
        <time>2011-10-09T13:23:33Z</time>
      </trkpt>
      <trkpt lat="43.60819" lon="3.76202">
        <ele>70.31</ele>
        <time>2011-10-09T13:23:34Z</time>
      </trkpt>
      <trkpt lat="43.60804" lon="3.76151">
        <ele>71.27</ele>
        <time>2011-10-09T13:23:36Z</time>
      </trkpt>
      <trkpt lat="43.60799" lon="3.76124">
        <ele>72.24</ele>
        <time>2011-10-09T13:23:37Z</time>
      </trkpt>
      <trkpt lat="43.60796" lon="3.76097">
        <ele>72.72</ele>
        <time>2011-10-09T13:23:38Z</time>
      </trkpt>
      <trkpt lat="43.60796" lon="3.76068">
        <ele>74.16</ele>
        <time>2011-10-09T13:23:39Z</time>
      </trkpt>
      <trkpt lat="43.60797" lon="3.76039">
        <ele>75.6</ele>
        <time>2011-10-09T13:23:40Z</time>
      </trkpt>
      <trkpt lat="43.6078" lon="3.75874">
        <ele>79.93</ele>
        <time>2011-10-09T13:23:46Z</time>
      </trkpt>
      <trkpt lat="43.60769" lon="3.75852">
        <ele>80.89</ele>
        <time>2011-10-09T13:23:47Z</time>
      </trkpt>
      <trkpt lat="43.60756" lon="3.75831">
        <ele>81.37</ele>
        <time>2011-10-09T13:23:48Z</time>
      </trkpt>
      <trkpt lat="43.60694" lon="3.75741">
        <ele>85.69</ele>
        <time>2011-10-09T13:23:53Z</time>
      </trkpt>
      <trkpt lat="43.60687" lon="3.75721">
        <ele>86.18</ele>
        <time>2011-10-09T13:23:54Z</time>
      </trkpt>
      <trkpt lat="43.60683" lon="3.75699">
        <ele>87.14</ele>
        <time>2011-10-09T13:23:55Z</time>
      </trkpt>
      <trkpt lat="43.60684" lon="3.75674">
        <ele>87.62</ele>
        <time>2011-10-09T13:23:56Z</time>
      </trkpt>
      <trkpt lat="43.60685" lon="3.75648">
        <ele>88.1</ele>
        <time>2011-10-09T13:23:57Z</time>
      </trkpt>
      <trkpt lat="43.60686" lon="3.75619">
        <ele>88.58</ele>
        <time>2011-10-09T13:23:58Z</time>
      </trkpt>
      <trkpt lat="43.60684" lon="3.75536">
        <ele>89.54</ele>
        <time>2011-10-09T13:24:01Z</time>
      </trkpt>
      <trkpt lat="43.60679" lon="3.75508">
        <ele>90.02</ele>
        <time>2011-10-09T13:24:02Z</time>
      </trkpt>
      <trkpt lat="43.60615" lon="3.75284">
        <ele>91.46</ele>
        <time>2011-10-09T13:24:10Z</time>
      </trkpt>
      <trkpt lat="43.60599" lon="3.75244">
        <ele>92.42</ele>
        <time>2011-10-09T13:24:12Z</time>
      </trkpt>
      <trkpt lat="43.60587" lon="3.75232">
        <ele>92.42</ele>
        <time>2011-10-09T13:24:13Z</time>
      </trkpt>
      <trkpt lat="43.60574" lon="3.75222">
        <ele>92.9</ele>
        <time>2011-10-09T13:24:14Z</time>
      </trkpt>
      <trkpt lat="43.60558" lon="3.75214">
        <ele>93.39</ele>
        <time>2011-10-09T13:24:15Z</time>
      </trkpt>
      <trkpt lat="43.60543" lon="3.75208">
        <ele>94.35</ele>
        <time>2011-10-09T13:24:16Z</time>
      </trkpt>
      <trkpt lat="43.60529" lon="3.75201">
        <ele>95.31</ele>
        <time>2011-10-09T13:24:17Z</time>
      </trkpt>
      <trkpt lat="43.60517" lon="3.75193">
        <ele>95.79</ele>
        <time>2011-10-09T13:24:18Z</time>
      </trkpt>
      <trkpt lat="43.60507" lon="3.75179">
        <ele>96.75</ele>
        <time>2011-10-09T13:24:19Z</time>
      </trkpt>
      <trkpt lat="43.60499" lon="3.75159">
        <ele>97.71</ele>
        <time>2011-10-09T13:24:20Z</time>
      </trkpt>
      <trkpt lat="43.60492" lon="3.75137">
        <ele>99.15</ele>
        <time>2011-10-09T13:24:21Z</time>
      </trkpt>
      <trkpt lat="43.60485" lon="3.75112">
        <ele>100.11</ele>
        <time>2011-10-09T13:24:22Z</time>
      </trkpt>
      <trkpt lat="43.60478" lon="3.75084">
        <ele>101.08</ele>
        <time>2011-10-09T13:24:23Z</time>
      </trkpt>
      <trkpt lat="43.60428" lon="3.74891">
        <ele>105.88</ele>
        <time>2011-10-09T13:24:30Z</time>
      </trkpt>
      <trkpt lat="43.60425" lon="3.74868">
        <ele>105.88</ele>
        <time>2011-10-09T13:24:31Z</time>
      </trkpt>
      <trkpt lat="43.60427" lon="3.74845">
        <ele>106.36</ele>
        <time>2011-10-09T13:24:32Z</time>
      </trkpt>
      <trkpt lat="43.60431" lon="3.74821">
        <ele>106.84</ele>
        <time>2011-10-09T13:24:33Z</time>
      </trkpt>
      <trkpt lat="43.60435" lon="3.74769">
        <ele>106.84</ele>
        <time>2011-10-09T13:24:35Z</time>
      </trkpt>
      <trkpt lat="43.60434" lon="3.74742">
        <ele>106.36</ele>
        <time>2011-10-09T13:24:36Z</time>
      </trkpt>
      <trkpt lat="43.6043" lon="3.74714">
        <ele>106.36</ele>
        <time>2011-10-09T13:24:37Z</time>
      </trkpt>
      <trkpt lat="43.60421" lon="3.74496">
        <ele>108.77</ele>
        <time>2011-10-09T13:24:44Z</time>
      </trkpt>
      <trkpt lat="43.6042" lon="3.74355">
        <ele>113.09</ele>
        <time>2011-10-09T13:24:50Z</time>
      </trkpt>
      <trkpt lat="43.60426" lon="3.74135">
        <ele>114.05</ele>
        <time>2011-10-09T13:25:03Z</time>
      </trkpt>
      <trkpt lat="43.6043" lon="3.73993">
        <ele>118.38</ele>
        <time>2011-10-09T13:25:12Z</time>
      </trkpt>
      <trkpt lat="43.60432" lon="3.73981">
        <ele>118.86</ele>
        <time>2011-10-09T13:25:13Z</time>
      </trkpt>
      <trkpt lat="43.60438" lon="3.73959">
        <ele>120.3</ele>
        <time>2011-10-09T13:25:15Z</time>
      </trkpt>
      <trkpt lat="43.60443" lon="3.73946">
        <ele>120.78</ele>
        <time>2011-10-09T13:25:16Z</time>
      </trkpt>
      <trkpt lat="43.60456" lon="3.73918">
        <ele>122.71</ele>
        <time>2011-10-09T13:25:18Z</time>
      </trkpt>
      <trkpt lat="43.60471" lon="3.73894">
        <ele>123.67</ele>
        <time>2011-10-09T13:25:20Z</time>
      </trkpt>
      <trkpt lat="43.60476" lon="3.73881">
        <ele>124.63</ele>
        <time>2011-10-09T13:25:21Z</time>
      </trkpt>
      <trkpt lat="43.6048" lon="3.73866">
        <ele>125.11</ele>
        <time>2011-10-09T13:25:22Z</time>
      </trkpt>
      <trkpt lat="43.60483" lon="3.7385">
        <ele>125.59</ele>
        <time>2011-10-09T13:25:23Z</time>
      </trkpt>
      <trkpt lat="43.60485" lon="3.73833">
        <ele>126.55</ele>
        <time>2011-10-09T13:25:24Z</time>
      </trkpt>
      <trkpt lat="43.60503" lon="3.7368">
        <ele>135.68</ele>
        <time>2011-10-09T13:25:35Z</time>
      </trkpt>
      <trkpt lat="43.60502" lon="3.7367">
        <ele>137.61</ele>
        <time>2011-10-09T13:25:41Z</time>
      </trkpt>
      <trkpt lat="43.60501" lon="3.73665">
        <ele>138.09</ele>
        <time>2011-10-09T13:25:42Z</time>
      </trkpt>
      <trkpt lat="43.60501" lon="3.73656">
        <ele>138.57</ele>
        <time>2011-10-09T13:25:43Z</time>
      </trkpt>
      <trkpt lat="43.60501" lon="3.73645">
        <ele>139.53</ele>
        <time>2011-10-09T13:25:44Z</time>
      </trkpt>
      <trkpt lat="43.60501" lon="3.73633">
        <ele>140.01</ele>
        <time>2011-10-09T13:25:45Z</time>
      </trkpt>
      <trkpt lat="43.60502" lon="3.73621">
        <ele>140.49</ele>
        <time>2011-10-09T13:25:46Z</time>
      </trkpt>
      <trkpt lat="43.60507" lon="3.73552">
        <ele>143.37</ele>
        <time>2011-10-09T13:25:53Z</time>
      </trkpt>
      <trkpt lat="43.60507" lon="3.73539">
        <ele>143.85</ele>
        <time>2011-10-09T13:25:59Z</time>
      </trkpt>
      <trkpt lat="43.60526" lon="3.73453">
        <ele>142.89</ele>
        <time>2011-10-09T13:26:06Z</time>
      </trkpt>
      <trkpt lat="43.60532" lon="3.73447">
        <ele>142.89</ele>
        <time>2011-10-09T13:26:07Z</time>
      </trkpt>
      <trkpt lat="43.60538" lon="3.73444">
        <ele>142.89</ele>
        <time>2011-10-09T13:26:08Z</time>
      </trkpt>
      <trkpt lat="43.60547" lon="3.73444">
        <ele>143.37</ele>
        <time>2011-10-09T13:26:09Z</time>
      </trkpt>
      <trkpt lat="43.60558" lon="3.73447">
        <ele>143.85</ele>
        <time>2011-10-09T13:26:10Z</time>
      </trkpt>
      <trkpt lat="43.60572" lon="3.73452">
        <ele>144.82</ele>
        <time>2011-10-09T13:26:11Z</time>
      </trkpt>
      <trkpt lat="43.60617" lon="3.73461">
        <ele>146.26</ele>
        <time>2011-10-09T13:26:15Z</time>
      </trkpt>
      <trkpt lat="43.60625" lon="3.73458">
        <ele>146.74</ele>
        <time>2011-10-09T13:26:16Z</time>
      </trkpt>
      <trkpt lat="43.60632" lon="3.73452">
        <ele>147.22</ele>
        <time>2011-10-09T13:26:17Z</time>
      </trkpt>
      <trkpt lat="43.60638" lon="3.73442">
        <ele>146.26</ele>
        <time>2011-10-09T13:26:18Z</time>
      </trkpt>
      <trkpt lat="43.60642" lon="3.73429">
        <ele>146.26</ele>
        <time>2011-10-09T13:26:19Z</time>
      </trkpt>
      <trkpt lat="43.60645" lon="3.73416">
        <ele>146.26</ele>
        <time>2011-10-09T13:26:20Z</time>
      </trkpt>
      <trkpt lat="43.60662" lon="3.73338">
        <ele>147.22</ele>
        <time>2011-10-09T13:26:26Z</time>
      </trkpt>
      <trkpt lat="43.60703" lon="3.73172">
        <ele>152.51</ele>
        <time>2011-10-09T13:26:34Z</time>
      </trkpt>
      <trkpt lat="43.60722" lon="3.73014">
        <ele>157.79</ele>
        <time>2011-10-09T13:26:40Z</time>
      </trkpt>
      <trkpt lat="43.60733" lon="3.72885">
        <ele>162.6</ele>
        <time>2011-10-09T13:26:45Z</time>
      </trkpt>
      <trkpt lat="43.60739" lon="3.7286">
        <ele>163.56</ele>
        <time>2011-10-09T13:26:46Z</time>
      </trkpt>
      <trkpt lat="43.60774" lon="3.72652">
        <ele>170.29</ele>
        <time>2011-10-09T13:26:54Z</time>
      </trkpt>
      <trkpt lat="43.60773" lon="3.72628">
        <ele>171.25</ele>
        <time>2011-10-09T13:26:55Z</time>
      </trkpt>
      <trkpt lat="43.60771" lon="3.72605">
        <ele>172.21</ele>
        <time>2011-10-09T13:26:56Z</time>
      </trkpt>
      <trkpt lat="43.60767" lon="3.72583">
        <ele>172.69</ele>
        <time>2011-10-09T13:26:57Z</time>
      </trkpt>
      <trkpt lat="43.6076" lon="3.72561">
        <ele>173.66</ele>
        <time>2011-10-09T13:26:58Z</time>
      </trkpt>
      <trkpt lat="43.60752" lon="3.72537">
        <ele>174.14</ele>
        <time>2011-10-09T13:26:59Z</time>
      </trkpt>
      <trkpt lat="43.60742" lon="3.72511">
        <ele>175.1</ele>
        <time>2011-10-09T13:27:00Z</time>
      </trkpt>
      <trkpt lat="43.60708" lon="3.72376">
        <ele>178.94</ele>
        <time>2011-10-09T13:27:05Z</time>
      </trkpt>
      <trkpt lat="43.60707" lon="3.72352">
        <ele>179.9</ele>
        <time>2011-10-09T13:27:06Z</time>
      </trkpt>
      <trkpt lat="43.60708" lon="3.72329">
        <ele>180.87</ele>
        <time>2011-10-09T13:27:07Z</time>
      </trkpt>
      <trkpt lat="43.60711" lon="3.72307">
        <ele>181.83</ele>
        <time>2011-10-09T13:27:08Z</time>
      </trkpt>
      <trkpt lat="43.60715" lon="3.72286">
        <ele>182.31</ele>
        <time>2011-10-09T13:27:09Z</time>
      </trkpt>
      <trkpt lat="43.6072" lon="3.72268">
        <ele>183.27</ele>
        <time>2011-10-09T13:27:10Z</time>
      </trkpt>
      <trkpt lat="43.60726" lon="3.72252">
        <ele>184.23</ele>
        <time>2011-10-09T13:27:11Z</time>
      </trkpt>
      <trkpt lat="43.60735" lon="3.72238">
        <ele>185.19</ele>
        <time>2011-10-09T13:27:12Z</time>
      </trkpt>
      <trkpt lat="43.60746" lon="3.72225">
        <ele>186.15</ele>
        <time>2011-10-09T13:27:13Z</time>
      </trkpt>
      <trkpt lat="43.60759" lon="3.72213">
        <ele>187.11</ele>
        <time>2011-10-09T13:27:14Z</time>
      </trkpt>
      <trkpt lat="43.60774" lon="3.72204">
        <ele>187.59</ele>
        <time>2011-10-09T13:27:15Z</time>
      </trkpt>
      <trkpt lat="43.60788" lon="3.72198">
        <ele>188.56</ele>
        <time>2011-10-09T13:27:16Z</time>
      </trkpt>
      <trkpt lat="43.60802" lon="3.72195">
        <ele>189.04</ele>
        <time>2011-10-09T13:27:17Z</time>
      </trkpt>
      <trkpt lat="43.60815" lon="3.72196">
        <ele>189.52</ele>
        <time>2011-10-09T13:27:18Z</time>
      </trkpt>
      <trkpt lat="43.60829" lon="3.72205">
        <ele>190</ele>
        <time>2011-10-09T13:27:19Z</time>
      </trkpt>
      <trkpt lat="43.60843" lon="3.72217">
        <ele>190.96</ele>
        <time>2011-10-09T13:27:20Z</time>
      </trkpt>
      <trkpt lat="43.60857" lon="3.72232">
        <ele>191.92</ele>
        <time>2011-10-09T13:27:21Z</time>
      </trkpt>
      <trkpt lat="43.60868" lon="3.72248">
        <ele>192.4</ele>
        <time>2011-10-09T13:27:22Z</time>
      </trkpt>
      <trkpt lat="43.60879" lon="3.72262">
        <ele>192.88</ele>
        <time>2011-10-09T13:27:23Z</time>
      </trkpt>
      <trkpt lat="43.60891" lon="3.72271">
        <ele>193.36</ele>
        <time>2011-10-09T13:27:24Z</time>
      </trkpt>
      <trkpt lat="43.60904" lon="3.72275">
        <ele>194.32</ele>
        <time>2011-10-09T13:27:25Z</time>
      </trkpt>
      <trkpt lat="43.60919" lon="3.72274">
        <ele>195.28</ele>
        <time>2011-10-09T13:27:26Z</time>
      </trkpt>
      <trkpt lat="43.60932" lon="3.72269">
        <ele>195.28</ele>
        <time>2011-10-09T13:27:27Z</time>
      </trkpt>
      <trkpt lat="43.60944" lon="3.72261">
        <ele>195.77</ele>
        <time>2011-10-09T13:27:28Z</time>
      </trkpt>
      <trkpt lat="43.60955" lon="3.72251">
        <ele>196.73</ele>
        <time>2011-10-09T13:27:29Z</time>
      </trkpt>
      <trkpt lat="43.60964" lon="3.72236">
        <ele>198.17</ele>
        <time>2011-10-09T13:27:30Z</time>
      </trkpt>
      <trkpt lat="43.60969" lon="3.72216">
        <ele>199.13</ele>
        <time>2011-10-09T13:27:31Z</time>
      </trkpt>
      <trkpt lat="43.60974" lon="3.72193">
        <ele>198.65</ele>
        <time>2011-10-09T13:27:32Z</time>
      </trkpt>
      <trkpt lat="43.60979" lon="3.72167">
        <ele>198.65</ele>
        <time>2011-10-09T13:27:33Z</time>
      </trkpt>
      <trkpt lat="43.61014" lon="3.71986">
        <ele>200.57</ele>
        <time>2011-10-09T13:27:39Z</time>
      </trkpt>
      <trkpt lat="43.61017" lon="3.71874">
        <ele>202.01</ele>
        <time>2011-10-09T13:27:43Z</time>
      </trkpt>
      <trkpt lat="43.61015" lon="3.71848">
        <ele>202.49</ele>
        <time>2011-10-09T13:27:44Z</time>
      </trkpt>
      <trkpt lat="43.61011" lon="3.71781">
        <ele>202.98</ele>
        <time>2011-10-09T13:27:47Z</time>
      </trkpt>
      <trkpt lat="43.61012" lon="3.7176">
        <ele>202.98</ele>
        <time>2011-10-09T13:27:48Z</time>
      </trkpt>
      <trkpt lat="43.61016" lon="3.71738">
        <ele>202.49</ele>
        <time>2011-10-09T13:27:49Z</time>
      </trkpt>
      <trkpt lat="43.61037" lon="3.71656">
        <ele>201.05</ele>
        <time>2011-10-09T13:27:53Z</time>
      </trkpt>
      <trkpt lat="43.61045" lon="3.71642">
        <ele>200.57</ele>
        <time>2011-10-09T13:27:54Z</time>
      </trkpt>
      <trkpt lat="43.61055" lon="3.71632">
        <ele>200.09</ele>
        <time>2011-10-09T13:27:55Z</time>
      </trkpt>
      <trkpt lat="43.61068" lon="3.71625">
        <ele>200.09</ele>
        <time>2011-10-09T13:27:56Z</time>
      </trkpt>
      <trkpt lat="43.61081" lon="3.71618">
        <ele>200.09</ele>
        <time>2011-10-09T13:27:57Z</time>
      </trkpt>
      <trkpt lat="43.61093" lon="3.71608">
        <ele>199.61</ele>
        <time>2011-10-09T13:27:58Z</time>
      </trkpt>
      <trkpt lat="43.61104" lon="3.71595">
        <ele>199.61</ele>
        <time>2011-10-09T13:27:59Z</time>
      </trkpt>
      <trkpt lat="43.61116" lon="3.71576">
        <ele>199.61</ele>
        <time>2011-10-09T13:28:00Z</time>
      </trkpt>
      <trkpt lat="43.61127" lon="3.71554">
        <ele>199.61</ele>
        <time>2011-10-09T13:28:01Z</time>
      </trkpt>
      <trkpt lat="43.61136" lon="3.7153">
        <ele>199.13</ele>
        <time>2011-10-09T13:28:02Z</time>
      </trkpt>
      <trkpt lat="43.61145" lon="3.71503">
        <ele>199.13</ele>
        <time>2011-10-09T13:28:03Z</time>
      </trkpt>
      <trkpt lat="43.61152" lon="3.71475">
        <ele>198.65</ele>
        <time>2011-10-09T13:28:04Z</time>
      </trkpt>
      <trkpt lat="43.61196" lon="3.71311">
        <ele>197.21</ele>
        <time>2011-10-09T13:28:11Z</time>
      </trkpt>
      <trkpt lat="43.61203" lon="3.71294">
        <ele>197.21</ele>
        <time>2011-10-09T13:28:12Z</time>
      </trkpt>
      <trkpt lat="43.61211" lon="3.71278">
        <ele>197.21</ele>
        <time>2011-10-09T13:28:13Z</time>
      </trkpt>
      <trkpt lat="43.61223" lon="3.71262">
        <ele>196.73</ele>
        <time>2011-10-09T13:28:14Z</time>
      </trkpt>
      <trkpt lat="43.61237" lon="3.71246">
        <ele>196.73</ele>
        <time>2011-10-09T13:28:15Z</time>
      </trkpt>
      <trkpt lat="43.61251" lon="3.7123">
        <ele>196.25</ele>
        <time>2011-10-09T13:28:16Z</time>
      </trkpt>
      <trkpt lat="43.61382" lon="3.71093">
        <ele>193.84</ele>
        <time>2011-10-09T13:28:26Z</time>
      </trkpt>
      <trkpt lat="43.61396" lon="3.71081">
        <ele>193.84</ele>
        <time>2011-10-09T13:28:27Z</time>
      </trkpt>
      <trkpt lat="43.61411" lon="3.7107">
        <ele>193.84</ele>
        <time>2011-10-09T13:28:28Z</time>
      </trkpt>
      <trkpt lat="43.61542" lon="3.70995">
        <ele>191.92</ele>
        <time>2011-10-09T13:28:36Z</time>
      </trkpt>
      <trkpt lat="43.61651" lon="3.70936">
        <ele>187.11</ele>
        <time>2011-10-09T13:28:41Z</time>
      </trkpt>
      <trkpt lat="43.61705" lon="3.70911">
        <ele>184.71</ele>
        <time>2011-10-09T13:28:44Z</time>
      </trkpt>
      <trkpt lat="43.61723" lon="3.70909">
        <ele>184.23</ele>
        <time>2011-10-09T13:28:45Z</time>
      </trkpt>
      <trkpt lat="43.61743" lon="3.7091">
        <ele>183.27</ele>
        <time>2011-10-09T13:28:46Z</time>
      </trkpt>
      <trkpt lat="43.61897" lon="3.70937">
        <ele>177.5</ele>
        <time>2011-10-09T13:28:53Z</time>
      </trkpt>
      <trkpt lat="43.62032" lon="3.70919">
        <ele>172.21</ele>
        <time>2011-10-09T13:28:59Z</time>
      </trkpt>
      <trkpt lat="43.62124" lon="3.70878">
        <ele>167.41</ele>
        <time>2011-10-09T13:29:04Z</time>
      </trkpt>
      <trkpt lat="43.62141" lon="3.70861">
        <ele>166.45</ele>
        <time>2011-10-09T13:29:05Z</time>
      </trkpt>
      <trkpt lat="43.62156" lon="3.70839">
        <ele>165.48</ele>
        <time>2011-10-09T13:29:06Z</time>
      </trkpt>
      <trkpt lat="43.62171" lon="3.70816">
        <ele>164.52</ele>
        <time>2011-10-09T13:29:07Z</time>
      </trkpt>
      <trkpt lat="43.62186" lon="3.70791">
        <ele>163.56</ele>
        <time>2011-10-09T13:29:08Z</time>
      </trkpt>
      <trkpt lat="43.62316" lon="3.70584">
        <ele>159.24</ele>
        <time>2011-10-09T13:29:17Z</time>
      </trkpt>
      <trkpt lat="43.62331" lon="3.70574">
        <ele>159.24</ele>
        <time>2011-10-09T13:29:18Z</time>
      </trkpt>
      <trkpt lat="43.62348" lon="3.70565">
        <ele>158.75</ele>
        <time>2011-10-09T13:29:19Z</time>
      </trkpt>
      <trkpt lat="43.62366" lon="3.70559">
        <ele>158.27</ele>
        <time>2011-10-09T13:29:20Z</time>
      </trkpt>
      <trkpt lat="43.62386" lon="3.70554">
        <ele>158.27</ele>
        <time>2011-10-09T13:29:21Z</time>
      </trkpt>
      <trkpt lat="43.62564" lon="3.7052">
        <ele>156.83</ele>
        <time>2011-10-09T13:29:29Z</time>
      </trkpt>
      <trkpt lat="43.62714" lon="3.70445">
        <ele>154.91</ele>
        <time>2011-10-09T13:29:36Z</time>
      </trkpt>
      <trkpt lat="43.62888" lon="3.7034">
        <ele>151.06</ele>
        <time>2011-10-09T13:29:45Z</time>
      </trkpt>
      <trkpt lat="43.63018" lon="3.70308">
        <ele>142.41</ele>
        <time>2011-10-09T13:29:52Z</time>
      </trkpt>
      <trkpt lat="43.6311" lon="3.70307">
        <ele>139.53</ele>
        <time>2011-10-09T13:29:59Z</time>
      </trkpt>
      <trkpt lat="43.63128" lon="3.70302">
        <ele>139.53</ele>
        <time>2011-10-09T13:30:04Z</time>
      </trkpt>
      <trkpt lat="43.63129" lon="3.70298">
        <ele>139.05</ele>
        <time>2011-10-09T13:30:05Z</time>
      </trkpt>
      <trkpt lat="43.63127" lon="3.7029">
        <ele>138.09</ele>
        <time>2011-10-09T13:30:06Z</time>
      </trkpt>
      <trkpt lat="43.63125" lon="3.70279">
        <ele>137.13</ele>
        <time>2011-10-09T13:30:07Z</time>
      </trkpt>
      <trkpt lat="43.63121" lon="3.70264">
        <ele>136.64</ele>
        <time>2011-10-09T13:30:08Z</time>
      </trkpt>
      <trkpt lat="43.63116" lon="3.70247">
        <ele>136.64</ele>
        <time>2011-10-09T13:30:09Z</time>
      </trkpt>
      <trkpt lat="43.63111" lon="3.70227">
        <ele>136.64</ele>
        <time>2011-10-09T13:30:10Z</time>
      </trkpt>
      <trkpt lat="43.6307" lon="3.70062">
        <ele>136.16</ele>
        <time>2011-10-09T13:30:16Z</time>
      </trkpt>
      <trkpt lat="43.62996" lon="3.69746">
        <ele>136.16</ele>
        <time>2011-10-09T13:30:26Z</time>
      </trkpt>
      <trkpt lat="43.62989" lon="3.6969">
        <ele>136.16</ele>
        <time>2011-10-09T13:30:28Z</time>
      </trkpt>
      <trkpt lat="43.6299" lon="3.6966">
        <ele>135.68</ele>
        <time>2011-10-09T13:30:29Z</time>
      </trkpt>
      <trkpt lat="43.62993" lon="3.6963">
        <ele>135.2</ele>
        <time>2011-10-09T13:30:30Z</time>
      </trkpt>
      <trkpt lat="43.62998" lon="3.696">
        <ele>134.72</ele>
        <time>2011-10-09T13:30:31Z</time>
      </trkpt>
      <trkpt lat="43.63005" lon="3.69571">
        <ele>134.24</ele>
        <time>2011-10-09T13:30:32Z</time>
      </trkpt>
      <trkpt lat="43.63014" lon="3.69542">
        <ele>133.76</ele>
        <time>2011-10-09T13:30:33Z</time>
      </trkpt>
      <trkpt lat="43.63039" lon="3.69449">
        <ele>132.8</ele>
        <time>2011-10-09T13:30:37Z</time>
      </trkpt>
      <trkpt lat="43.63042" lon="3.69432">
        <ele>132.8</ele>
        <time>2011-10-09T13:30:38Z</time>
      </trkpt>
      <trkpt lat="43.63046" lon="3.69402">
        <ele>132.8</ele>
        <time>2011-10-09T13:30:40Z</time>
      </trkpt>
      <trkpt lat="43.6305" lon="3.69387">
        <ele>132.8</ele>
        <time>2011-10-09T13:30:41Z</time>
      </trkpt>
      <trkpt lat="43.63056" lon="3.69374">
        <ele>132.8</ele>
        <time>2011-10-09T13:30:42Z</time>
      </trkpt>
      <trkpt lat="43.63065" lon="3.69363">
        <ele>132.8</ele>
        <time>2011-10-09T13:30:43Z</time>
      </trkpt>
      <trkpt lat="43.63074" lon="3.69354">
        <ele>132.8</ele>
        <time>2011-10-09T13:30:44Z</time>
      </trkpt>
      <trkpt lat="43.63084" lon="3.69349">
        <ele>132.8</ele>
        <time>2011-10-09T13:30:45Z</time>
      </trkpt>
      <trkpt lat="43.63097" lon="3.69347">
        <ele>133.28</ele>
        <time>2011-10-09T13:30:46Z</time>
      </trkpt>
      <trkpt lat="43.63112" lon="3.69346">
        <ele>132.8</ele>
        <time>2011-10-09T13:30:47Z</time>
      </trkpt>
      <trkpt lat="43.63232" lon="3.69322">
        <ele>131.84</ele>
        <time>2011-10-09T13:30:53Z</time>
      </trkpt>
      <trkpt lat="43.63409" lon="3.69288">
        <ele>129.43</ele>
        <time>2011-10-09T13:31:02Z</time>
      </trkpt>
      <trkpt lat="43.63441" lon="3.69287">
        <ele>129.43</ele>
        <time>2011-10-09T13:31:04Z</time>
      </trkpt>
      <trkpt lat="43.63457" lon="3.6929">
        <ele>128.95</ele>
        <time>2011-10-09T13:31:05Z</time>
      </trkpt>
      <trkpt lat="43.63474" lon="3.69296">
        <ele>129.43</ele>
        <time>2011-10-09T13:31:06Z</time>
      </trkpt>
      <trkpt lat="43.63491" lon="3.69305">
        <ele>129.43</ele>
        <time>2011-10-09T13:31:07Z</time>
      </trkpt>
      <trkpt lat="43.63508" lon="3.69318">
        <ele>129.43</ele>
        <time>2011-10-09T13:31:08Z</time>
      </trkpt>
      <trkpt lat="43.63525" lon="3.69333">
        <ele>129.43</ele>
        <time>2011-10-09T13:31:09Z</time>
      </trkpt>
      <trkpt lat="43.63543" lon="3.69348">
        <ele>129.43</ele>
        <time>2011-10-09T13:31:10Z</time>
      </trkpt>
      <trkpt lat="43.6367" lon="3.69422">
        <ele>125.59</ele>
        <time>2011-10-09T13:31:16Z</time>
      </trkpt>
      <trkpt lat="43.63906" lon="3.69514">
        <ele>127.51</ele>
        <time>2011-10-09T13:31:25Z</time>
      </trkpt>
      <trkpt lat="43.6398" lon="3.6953">
        <ele>126.55</ele>
        <time>2011-10-09T13:31:28Z</time>
      </trkpt>
      <trkpt lat="43.64004" lon="3.6953">
        <ele>127.03</ele>
        <time>2011-10-09T13:31:29Z</time>
      </trkpt>
      <trkpt lat="43.64165" lon="3.69552">
        <ele>126.07</ele>
        <time>2011-10-09T13:31:36Z</time>
      </trkpt>
      <trkpt lat="43.64269" lon="3.69593">
        <ele>122.22</ele>
        <time>2011-10-09T13:31:42Z</time>
      </trkpt>
      <trkpt lat="43.64288" lon="3.69601">
        <ele>121.26</ele>
        <time>2011-10-09T13:31:44Z</time>
      </trkpt>
      <trkpt lat="43.64294" lon="3.69607">
        <ele>120.78</ele>
        <time>2011-10-09T13:31:45Z</time>
      </trkpt>
      <trkpt lat="43.643" lon="3.69612">
        <ele>120.78</ele>
        <time>2011-10-09T13:31:46Z</time>
      </trkpt>
      <trkpt lat="43.64304" lon="3.69613">
        <ele>120.78</ele>
        <time>2011-10-09T13:31:47Z</time>
      </trkpt>
      <trkpt lat="43.64311" lon="3.69612">
        <ele>120.78</ele>
        <time>2011-10-09T13:31:48Z</time>
      </trkpt>
      <trkpt lat="43.64319" lon="3.69611">
        <ele>120.3</ele>
        <time>2011-10-09T13:31:49Z</time>
      </trkpt>
      <trkpt lat="43.64328" lon="3.69612">
        <ele>120.3</ele>
        <time>2011-10-09T13:31:50Z</time>
      </trkpt>
      <trkpt lat="43.64335" lon="3.69613">
        <ele>120.3</ele>
        <time>2011-10-09T13:31:51Z</time>
      </trkpt>
      <trkpt lat="43.64403" lon="3.69628">
        <ele>121.26</ele>
        <time>2011-10-09T13:32:00Z</time>
      </trkpt>
      <trkpt lat="43.64502" lon="3.6966">
        <ele>123.67</ele>
        <time>2011-10-09T13:32:11Z</time>
      </trkpt>
      <trkpt lat="43.64609" lon="3.697">
        <ele>124.15</ele>
        <time>2011-10-09T13:32:21Z</time>
      </trkpt>
      <trkpt lat="43.64697" lon="3.69725">
        <ele>126.07</ele>
        <time>2011-10-09T13:32:29Z</time>
      </trkpt>
      <trkpt lat="43.64717" lon="3.69737">
        <ele>126.55</ele>
        <time>2011-10-09T13:32:33Z</time>
      </trkpt>
      <trkpt lat="43.64721" lon="3.69738">
        <ele>126.07</ele>
        <time>2011-10-09T13:32:34Z</time>
      </trkpt>
      <trkpt lat="43.64726" lon="3.69736">
        <ele>126.55</ele>
        <time>2011-10-09T13:32:35Z</time>
      </trkpt>
      <trkpt lat="43.6473" lon="3.69729">
        <ele>127.03</ele>
        <time>2011-10-09T13:32:36Z</time>
      </trkpt>
      <trkpt lat="43.64736" lon="3.69721">
        <ele>127.51</ele>
        <time>2011-10-09T13:32:37Z</time>
      </trkpt>
      <trkpt lat="43.64783" lon="3.69675">
        <ele>130.88</ele>
        <time>2011-10-09T13:32:43Z</time>
      </trkpt>
      <trkpt lat="43.64789" lon="3.69672">
        <ele>131.36</ele>
        <time>2011-10-09T13:32:44Z</time>
      </trkpt>
      <trkpt lat="43.64796" lon="3.69671">
        <ele>131.84</ele>
        <time>2011-10-09T13:32:45Z</time>
      </trkpt>
      <trkpt lat="43.64803" lon="3.69675">
        <ele>132.32</ele>
        <time>2011-10-09T13:32:46Z</time>
      </trkpt>
      <trkpt lat="43.64809" lon="3.69682">
        <ele>133.28</ele>
        <time>2011-10-09T13:32:47Z</time>
      </trkpt>
      <trkpt lat="43.64815" lon="3.6969">
        <ele>133.76</ele>
        <time>2011-10-09T13:32:48Z</time>
      </trkpt>
      <trkpt lat="43.64821" lon="3.69695">
        <ele>134.24</ele>
        <time>2011-10-09T13:32:49Z</time>
      </trkpt>
      <trkpt lat="43.64827" lon="3.69698">
        <ele>134.72</ele>
        <time>2011-10-09T13:32:50Z</time>
      </trkpt>
      <trkpt lat="43.64833" lon="3.69697">
        <ele>135.2</ele>
        <time>2011-10-09T13:32:51Z</time>
      </trkpt>
      <trkpt lat="43.64838" lon="3.69695">
        <ele>135.2</ele>
        <time>2011-10-09T13:32:52Z</time>
      </trkpt>
      <trkpt lat="43.64841" lon="3.69693">
        <ele>135.68</ele>
        <time>2011-10-09T13:32:53Z</time>
      </trkpt>
      <trkpt lat="43.64842" lon="3.69692">
        <ele>135.68</ele>
        <time>2011-10-09T13:32:54Z</time>
      </trkpt>
      <trkpt lat="43.64843" lon="3.69689">
        <ele>135.68</ele>
        <time>2011-10-09T13:32:55Z</time>
      </trkpt>
      <trkpt lat="43.64843" lon="3.69686">
        <ele>136.16</ele>
        <time>2011-10-09T13:32:56Z</time>
      </trkpt>
      <trkpt lat="43.64842" lon="3.69681">
        <ele>136.64</ele>
        <time>2011-10-09T13:32:57Z</time>
      </trkpt>
      <trkpt lat="43.64839" lon="3.69675">
        <ele>136.64</ele>
        <time>2011-10-09T13:32:58Z</time>
      </trkpt>
      <trkpt lat="43.64835" lon="3.69667">
        <ele>137.13</ele>
        <time>2011-10-09T13:32:59Z</time>
      </trkpt>
      <trkpt lat="43.6483" lon="3.69657">
        <ele>137.61</ele>
        <time>2011-10-09T13:33:00Z</time>
      </trkpt>
      <trkpt lat="43.64788" lon="3.69542">
        <ele>142.89</ele>
        <time>2011-10-09T13:33:07Z</time>
      </trkpt>
      <trkpt lat="43.64769" lon="3.69499">
        <ele>146.26</ele>
        <time>2011-10-09T13:33:09Z</time>
      </trkpt>
      <trkpt lat="43.64757" lon="3.69479">
        <ele>147.7</ele>
        <time>2011-10-09T13:33:10Z</time>
      </trkpt>
      <trkpt lat="43.64653" lon="3.69364">
        <ele>155.87</ele>
        <time>2011-10-09T13:33:16Z</time>
      </trkpt>
      <trkpt lat="43.64561" lon="3.69259">
        <ele>165</ele>
        <time>2011-10-09T13:33:22Z</time>
      </trkpt>
      <trkpt lat="43.64552" lon="3.69241">
        <ele>166.45</ele>
        <time>2011-10-09T13:33:23Z</time>
      </trkpt>
      <trkpt lat="43.64546" lon="3.69221">
        <ele>166.93</ele>
        <time>2011-10-09T13:33:24Z</time>
      </trkpt>
      <trkpt lat="43.64533" lon="3.69181">
        <ele>167.89</ele>
        <time>2011-10-09T13:33:26Z</time>
      </trkpt>
      <trkpt lat="43.64522" lon="3.6916">
        <ele>167.89</ele>
        <time>2011-10-09T13:33:27Z</time>
      </trkpt>
      <trkpt lat="43.64442" lon="3.69029">
        <ele>173.17</ele>
        <time>2011-10-09T13:33:33Z</time>
      </trkpt>
      <trkpt lat="43.64367" lon="3.68835">
        <ele>181.35</ele>
        <time>2011-10-09T13:33:41Z</time>
      </trkpt>
      <trkpt lat="43.64363" lon="3.68814">
        <ele>182.31</ele>
        <time>2011-10-09T13:33:42Z</time>
      </trkpt>
      <trkpt lat="43.64361" lon="3.6879">
        <ele>183.27</ele>
        <time>2011-10-09T13:33:43Z</time>
      </trkpt>
      <trkpt lat="43.64363" lon="3.68764">
        <ele>184.71</ele>
        <time>2011-10-09T13:33:44Z</time>
      </trkpt>
      <trkpt lat="43.64364" lon="3.68736">
        <ele>185.67</ele>
        <time>2011-10-09T13:33:45Z</time>
      </trkpt>
      <trkpt lat="43.64367" lon="3.68656">
        <ele>189.52</ele>
        <time>2011-10-09T13:33:48Z</time>
      </trkpt>
      <trkpt lat="43.64372" lon="3.68633">
        <ele>190.96</ele>
        <time>2011-10-09T13:33:49Z</time>
      </trkpt>
      <trkpt lat="43.64379" lon="3.68612">
        <ele>192.4</ele>
        <time>2011-10-09T13:33:50Z</time>
      </trkpt>
      <trkpt lat="43.64387" lon="3.68591">
        <ele>193.36</ele>
        <time>2011-10-09T13:33:51Z</time>
      </trkpt>
      <trkpt lat="43.64397" lon="3.6857">
        <ele>194.8</ele>
        <time>2011-10-09T13:33:52Z</time>
      </trkpt>
      <trkpt lat="43.64408" lon="3.68549">
        <ele>195.77</ele>
        <time>2011-10-09T13:33:53Z</time>
      </trkpt>
      <trkpt lat="43.64459" lon="3.68447">
        <ele>199.13</ele>
        <time>2011-10-09T13:33:58Z</time>
      </trkpt>
      <trkpt lat="43.64473" lon="3.68429">
        <ele>199.61</ele>
        <time>2011-10-09T13:33:59Z</time>
      </trkpt>
      <trkpt lat="43.64489" lon="3.68412">
        <ele>200.57</ele>
        <time>2011-10-09T13:34:00Z</time>
      </trkpt>
      <trkpt lat="43.64622" lon="3.68277">
        <ele>207.78</ele>
        <time>2011-10-09T13:34:07Z</time>
      </trkpt>
      <trkpt lat="43.6466" lon="3.68234">
        <ele>210.67</ele>
        <time>2011-10-09T13:34:10Z</time>
      </trkpt>
      <trkpt lat="43.64665" lon="3.68218">
        <ele>212.11</ele>
        <time>2011-10-09T13:34:11Z</time>
      </trkpt>
      <trkpt lat="43.64667" lon="3.682">
        <ele>213.55</ele>
        <time>2011-10-09T13:34:12Z</time>
      </trkpt>
      <trkpt lat="43.64669" lon="3.68163">
        <ele>215.95</ele>
        <time>2011-10-09T13:34:14Z</time>
      </trkpt>
      <trkpt lat="43.64673" lon="3.68147">
        <ele>217.4</ele>
        <time>2011-10-09T13:34:15Z</time>
      </trkpt>
      <trkpt lat="43.6468" lon="3.68132">
        <ele>218.84</ele>
        <time>2011-10-09T13:34:16Z</time>
      </trkpt>
      <trkpt lat="43.6469" lon="3.68119">
        <ele>220.28</ele>
        <time>2011-10-09T13:34:17Z</time>
      </trkpt>
      <trkpt lat="43.64703" lon="3.68108">
        <ele>221.72</ele>
        <time>2011-10-09T13:34:18Z</time>
      </trkpt>
      <trkpt lat="43.6472" lon="3.68098">
        <ele>223.16</ele>
        <time>2011-10-09T13:34:19Z</time>
      </trkpt>
      <trkpt lat="43.6474" lon="3.68088">
        <ele>225.09</ele>
        <time>2011-10-09T13:34:20Z</time>
      </trkpt>
      <trkpt lat="43.64761" lon="3.68077">
        <ele>227.01</ele>
        <time>2011-10-09T13:34:21Z</time>
      </trkpt>
      <trkpt lat="43.64834" lon="3.68048">
        <ele>234.22</ele>
        <time>2011-10-09T13:34:25Z</time>
      </trkpt>
      <trkpt lat="43.64853" lon="3.68049">
        <ele>235.66</ele>
        <time>2011-10-09T13:34:26Z</time>
      </trkpt>
      <trkpt lat="43.64873" lon="3.68053">
        <ele>237.58</ele>
        <time>2011-10-09T13:34:27Z</time>
      </trkpt>
      <trkpt lat="43.64893" lon="3.68062">
        <ele>239.02</ele>
        <time>2011-10-09T13:34:28Z</time>
      </trkpt>
      <trkpt lat="43.64914" lon="3.68069">
        <ele>240.47</ele>
        <time>2011-10-09T13:34:29Z</time>
      </trkpt>
      <trkpt lat="43.64935" lon="3.68078">
        <ele>241.91</ele>
        <time>2011-10-09T13:34:30Z</time>
      </trkpt>
      <trkpt lat="43.6501" lon="3.68107">
        <ele>247.68</ele>
        <time>2011-10-09T13:34:35Z</time>
      </trkpt>
      <trkpt lat="43.65022" lon="3.68109">
        <ele>248.64</ele>
        <time>2011-10-09T13:34:36Z</time>
      </trkpt>
      <trkpt lat="43.65034" lon="3.68107">
        <ele>249.6</ele>
        <time>2011-10-09T13:34:37Z</time>
      </trkpt>
      <trkpt lat="43.65048" lon="3.68099">
        <ele>251.04</ele>
        <time>2011-10-09T13:34:38Z</time>
      </trkpt>
      <trkpt lat="43.65063" lon="3.68087">
        <ele>252.96</ele>
        <time>2011-10-09T13:34:39Z</time>
      </trkpt>
      <trkpt lat="43.6508" lon="3.68074">
        <ele>254.41</ele>
        <time>2011-10-09T13:34:40Z</time>
      </trkpt>
      <trkpt lat="43.65152" lon="3.68016">
        <ele>258.25</ele>
        <time>2011-10-09T13:34:44Z</time>
      </trkpt>
      <trkpt lat="43.65169" lon="3.67996">
        <ele>258.73</ele>
        <time>2011-10-09T13:34:45Z</time>
      </trkpt>
      <trkpt lat="43.65324" lon="3.67815">
        <ele>268.83</ele>
        <time>2011-10-09T13:34:54Z</time>
      </trkpt>
      <trkpt lat="43.65355" lon="3.67772">
        <ele>269.31</ele>
        <time>2011-10-09T13:34:57Z</time>
      </trkpt>
      <trkpt lat="43.65363" lon="3.67754">
        <ele>268.83</ele>
        <time>2011-10-09T13:34:58Z</time>
      </trkpt>
      <trkpt lat="43.6537" lon="3.67734">
        <ele>268.35</ele>
        <time>2011-10-09T13:34:59Z</time>
      </trkpt>
      <trkpt lat="43.65375" lon="3.6771">
        <ele>267.38</ele>
        <time>2011-10-09T13:35:00Z</time>
      </trkpt>
      <trkpt lat="43.65379" lon="3.67683">
        <ele>265.94</ele>
        <time>2011-10-09T13:35:01Z</time>
      </trkpt>
      <trkpt lat="43.65415" lon="3.67449">
        <ele>263.54</ele>
        <time>2011-10-09T13:35:08Z</time>
      </trkpt>
      <trkpt lat="43.65459" lon="3.67184">
        <ele>260.17</ele>
        <time>2011-10-09T13:35:17Z</time>
      </trkpt>
      <trkpt lat="43.65466" lon="3.6717">
        <ele>259.21</ele>
        <time>2011-10-09T13:35:18Z</time>
      </trkpt>
      <trkpt lat="43.65476" lon="3.67157">
        <ele>258.25</ele>
        <time>2011-10-09T13:35:19Z</time>
      </trkpt>
      <trkpt lat="43.65488" lon="3.67144">
        <ele>257.29</ele>
        <time>2011-10-09T13:35:20Z</time>
      </trkpt>
      <trkpt lat="43.65501" lon="3.6713">
        <ele>256.33</ele>
        <time>2011-10-09T13:35:21Z</time>
      </trkpt>
      <trkpt lat="43.65513" lon="3.67114">
        <ele>254.89</ele>
        <time>2011-10-09T13:35:22Z</time>
      </trkpt>
      <trkpt lat="43.65525" lon="3.67095">
        <ele>252.48</ele>
        <time>2011-10-09T13:35:23Z</time>
      </trkpt>
      <trkpt lat="43.65537" lon="3.67075">
        <ele>250.08</ele>
        <time>2011-10-09T13:35:24Z</time>
      </trkpt>
      <trkpt lat="43.65576" lon="3.66978">
        <ele>245.27</ele>
        <time>2011-10-09T13:35:28Z</time>
      </trkpt>
      <trkpt lat="43.65596" lon="3.66869">
        <ele>243.83</ele>
        <time>2011-10-09T13:35:32Z</time>
      </trkpt>
      <trkpt lat="43.65602" lon="3.66842">
        <ele>244.31</ele>
        <time>2011-10-09T13:35:33Z</time>
      </trkpt>
      <trkpt lat="43.65639" lon="3.66723">
        <ele>247.2</ele>
        <time>2011-10-09T13:35:38Z</time>
      </trkpt>
      <trkpt lat="43.65649" lon="3.66703">
        <ele>248.16</ele>
        <time>2011-10-09T13:35:39Z</time>
      </trkpt>
      <trkpt lat="43.65661" lon="3.66683">
        <ele>249.12</ele>
        <time>2011-10-09T13:35:40Z</time>
      </trkpt>
      <trkpt lat="43.65695" lon="3.66624">
        <ele>251.52</ele>
        <time>2011-10-09T13:35:43Z</time>
      </trkpt>
      <trkpt lat="43.65703" lon="3.66603">
        <ele>251.04</ele>
        <time>2011-10-09T13:35:44Z</time>
      </trkpt>
      <trkpt lat="43.65709" lon="3.6658">
        <ele>250.56</ele>
        <time>2011-10-09T13:35:45Z</time>
      </trkpt>
      <trkpt lat="43.65714" lon="3.66556">
        <ele>249.12</ele>
        <time>2011-10-09T13:35:46Z</time>
      </trkpt>
      <trkpt lat="43.65718" lon="3.66531">
        <ele>247.68</ele>
        <time>2011-10-09T13:35:47Z</time>
      </trkpt>
      <trkpt lat="43.65721" lon="3.66505">
        <ele>246.72</ele>
        <time>2011-10-09T13:35:48Z</time>
      </trkpt>
      <trkpt lat="43.65736" lon="3.66428">
        <ele>242.87</ele>
        <time>2011-10-09T13:35:51Z</time>
      </trkpt>
      <trkpt lat="43.65778" lon="3.66293">
        <ele>234.22</ele>
        <time>2011-10-09T13:35:57Z</time>
      </trkpt>
      <trkpt lat="43.65789" lon="3.66272">
        <ele>232.78</ele>
        <time>2011-10-09T13:35:58Z</time>
      </trkpt>
      <trkpt lat="43.658" lon="3.66252">
        <ele>231.33</ele>
        <time>2011-10-09T13:35:59Z</time>
      </trkpt>
      <trkpt lat="43.65811" lon="3.66233">
        <ele>229.89</ele>
        <time>2011-10-09T13:36:00Z</time>
      </trkpt>
      <trkpt lat="43.65824" lon="3.66217">
        <ele>227.97</ele>
        <time>2011-10-09T13:36:01Z</time>
      </trkpt>
      <trkpt lat="43.6584" lon="3.66205">
        <ele>226.05</ele>
        <time>2011-10-09T13:36:02Z</time>
      </trkpt>
      <trkpt lat="43.6586" lon="3.66195">
        <ele>225.09</ele>
        <time>2011-10-09T13:36:03Z</time>
      </trkpt>
      <trkpt lat="43.65881" lon="3.66184">
        <ele>223.64</ele>
        <time>2011-10-09T13:36:04Z</time>
      </trkpt>
      <trkpt lat="43.6603" lon="3.66087">
        <ele>219.8</ele>
        <time>2011-10-09T13:36:12Z</time>
      </trkpt>
      <trkpt lat="43.66042" lon="3.66071">
        <ele>218.84</ele>
        <time>2011-10-09T13:36:13Z</time>
      </trkpt>
      <trkpt lat="43.66051" lon="3.66052">
        <ele>217.4</ele>
        <time>2011-10-09T13:36:14Z</time>
      </trkpt>
      <trkpt lat="43.66059" lon="3.6603">
        <ele>216.43</ele>
        <time>2011-10-09T13:36:15Z</time>
      </trkpt>
      <trkpt lat="43.66063" lon="3.66008">
        <ele>214.99</ele>
        <time>2011-10-09T13:36:16Z</time>
      </trkpt>
      <trkpt lat="43.66065" lon="3.65985">
        <ele>213.55</ele>
        <time>2011-10-09T13:36:17Z</time>
      </trkpt>
      <trkpt lat="43.66064" lon="3.65961">
        <ele>212.11</ele>
        <time>2011-10-09T13:36:18Z</time>
      </trkpt>
      <trkpt lat="43.66058" lon="3.65937">
        <ele>210.19</ele>
        <time>2011-10-09T13:36:19Z</time>
      </trkpt>
      <trkpt lat="43.66051" lon="3.65912">
        <ele>208.26</ele>
        <time>2011-10-09T13:36:20Z</time>
      </trkpt>
      <trkpt lat="43.66042" lon="3.65888">
        <ele>206.34</ele>
        <time>2011-10-09T13:36:21Z</time>
      </trkpt>
      <trkpt lat="43.66035" lon="3.65861">
        <ele>203.94</ele>
        <time>2011-10-09T13:36:22Z</time>
      </trkpt>
      <trkpt lat="43.6603" lon="3.65832">
        <ele>201.53</ele>
        <time>2011-10-09T13:36:23Z</time>
      </trkpt>
      <trkpt lat="43.66027" lon="3.658">
        <ele>199.13</ele>
        <time>2011-10-09T13:36:24Z</time>
      </trkpt>
      <trkpt lat="43.66026" lon="3.65767">
        <ele>197.21</ele>
        <time>2011-10-09T13:36:25Z</time>
      </trkpt>
      <trkpt lat="43.66028" lon="3.65732">
        <ele>195.77</ele>
        <time>2011-10-09T13:36:26Z</time>
      </trkpt>
      <trkpt lat="43.6603" lon="3.65695">
        <ele>194.32</ele>
        <time>2011-10-09T13:36:27Z</time>
      </trkpt>
      <trkpt lat="43.66052" lon="3.65471">
        <ele>193.36</ele>
        <time>2011-10-09T13:36:33Z</time>
      </trkpt>
      <trkpt lat="43.6606" lon="3.65444">
        <ele>194.8</ele>
        <time>2011-10-09T13:36:34Z</time>
      </trkpt>
      <trkpt lat="43.66068" lon="3.65421">
        <ele>196.25</ele>
        <time>2011-10-09T13:36:35Z</time>
      </trkpt>
      <trkpt lat="43.66079" lon="3.65398">
        <ele>197.21</ele>
        <time>2011-10-09T13:36:36Z</time>
      </trkpt>
      <trkpt lat="43.66091" lon="3.65376">
        <ele>197.69</ele>
        <time>2011-10-09T13:36:37Z</time>
      </trkpt>
      <trkpt lat="43.66104" lon="3.65354">
        <ele>198.17</ele>
        <time>2011-10-09T13:36:38Z</time>
      </trkpt>
      <trkpt lat="43.66118" lon="3.65333">
        <ele>198.17</ele>
        <time>2011-10-09T13:36:39Z</time>
      </trkpt>
      <trkpt lat="43.66197" lon="3.65169">
        <ele>189.04</ele>
        <time>2011-10-09T13:36:45Z</time>
      </trkpt>
      <trkpt lat="43.66308" lon="3.64961">
        <ele>185.19</ele>
        <time>2011-10-09T13:36:54Z</time>
      </trkpt>
      <trkpt lat="43.66367" lon="3.64861">
        <ele>183.27</ele>
        <time>2011-10-09T13:37:01Z</time>
      </trkpt>
      <trkpt lat="43.66372" lon="3.6485">
        <ele>183.27</ele>
        <time>2011-10-09T13:37:02Z</time>
      </trkpt>
      <trkpt lat="43.66374" lon="3.64838">
        <ele>183.75</ele>
        <time>2011-10-09T13:37:03Z</time>
      </trkpt>
      <trkpt lat="43.66373" lon="3.64824">
        <ele>183.75</ele>
        <time>2011-10-09T13:37:04Z</time>
      </trkpt>
      <trkpt lat="43.66369" lon="3.64809">
        <ele>184.23</ele>
        <time>2011-10-09T13:37:05Z</time>
      </trkpt>
      <trkpt lat="43.66361" lon="3.64793">
        <ele>184.71</ele>
        <time>2011-10-09T13:37:06Z</time>
      </trkpt>
      <trkpt lat="43.66351" lon="3.64775">
        <ele>185.19</ele>
        <time>2011-10-09T13:37:07Z</time>
      </trkpt>
      <trkpt lat="43.6625" lon="3.64599">
        <ele>193.84</ele>
        <time>2011-10-09T13:37:16Z</time>
      </trkpt>
      <trkpt lat="43.66187" lon="3.64491">
        <ele>200.57</ele>
        <time>2011-10-09T13:37:23Z</time>
      </trkpt>
      <trkpt lat="43.66166" lon="3.64459">
        <ele>203.94</ele>
        <time>2011-10-09T13:37:27Z</time>
      </trkpt>
      <trkpt lat="43.66164" lon="3.64452">
        <ele>204.42</ele>
        <time>2011-10-09T13:37:28Z</time>
      </trkpt>
      <trkpt lat="43.66164" lon="3.64444">
        <ele>204.9</ele>
        <time>2011-10-09T13:37:29Z</time>
      </trkpt>
      <trkpt lat="43.66166" lon="3.64435">
        <ele>205.38</ele>
        <time>2011-10-09T13:37:30Z</time>
      </trkpt>
      <trkpt lat="43.6617" lon="3.64428">
        <ele>205.38</ele>
        <time>2011-10-09T13:37:31Z</time>
      </trkpt>
      <trkpt lat="43.66177" lon="3.64422">
        <ele>205.86</ele>
        <time>2011-10-09T13:37:32Z</time>
      </trkpt>
      <trkpt lat="43.66186" lon="3.64419">
        <ele>206.34</ele>
        <time>2011-10-09T13:37:33Z</time>
      </trkpt>
      <trkpt lat="43.66196" lon="3.64418">
        <ele>206.82</ele>
        <time>2011-10-09T13:37:34Z</time>
      </trkpt>
      <trkpt lat="43.66205" lon="3.64419">
        <ele>207.3</ele>
        <time>2011-10-09T13:37:35Z</time>
      </trkpt>
      <trkpt lat="43.66214" lon="3.64422">
        <ele>207.78</ele>
        <time>2011-10-09T13:37:36Z</time>
      </trkpt>
      <trkpt lat="43.66221" lon="3.64425">
        <ele>207.78</ele>
        <time>2011-10-09T13:37:37Z</time>
      </trkpt>
      <trkpt lat="43.66229" lon="3.64429">
        <ele>207.78</ele>
        <time>2011-10-09T13:37:38Z</time>
      </trkpt>
      <trkpt lat="43.66269" lon="3.64448">
        <ele>207.3</ele>
        <time>2011-10-09T13:37:43Z</time>
      </trkpt>
      <trkpt lat="43.66279" lon="3.64449">
        <ele>207.78</ele>
        <time>2011-10-09T13:37:44Z</time>
      </trkpt>
      <trkpt lat="43.66288" lon="3.64447">
        <ele>208.26</ele>
        <time>2011-10-09T13:37:45Z</time>
      </trkpt>
      <trkpt lat="43.66354" lon="3.64423">
        <ele>210.67</ele>
        <time>2011-10-09T13:37:53Z</time>
      </trkpt>
      <trkpt lat="43.66447" lon="3.64387">
        <ele>211.15</ele>
        <time>2011-10-09T13:38:04Z</time>
      </trkpt>
      <trkpt lat="43.66452" lon="3.64383">
        <ele>211.63</ele>
        <time>2011-10-09T13:38:05Z</time>
      </trkpt>
      <trkpt lat="43.66457" lon="3.64376">
        <ele>211.15</ele>
        <time>2011-10-09T13:38:06Z</time>
      </trkpt>
      <trkpt lat="43.66463" lon="3.64366">
        <ele>211.15</ele>
        <time>2011-10-09T13:38:07Z</time>
      </trkpt>
      <trkpt lat="43.66469" lon="3.64354">
        <ele>210.67</ele>
        <time>2011-10-09T13:38:08Z</time>
      </trkpt>
      <trkpt lat="43.66528" lon="3.64212">
        <ele>206.34</ele>
        <time>2011-10-09T13:38:17Z</time>
      </trkpt>
      <trkpt lat="43.66603" lon="3.64037">
        <ele>201.53</ele>
        <time>2011-10-09T13:38:25Z</time>
      </trkpt>
      <trkpt lat="43.66738" lon="3.6372">
        <ele>194.32</ele>
        <time>2011-10-09T13:38:36Z</time>
      </trkpt>
      <trkpt lat="43.66902" lon="3.63389">
        <ele>186.15</ele>
        <time>2011-10-09T13:38:48Z</time>
      </trkpt>
      <trkpt lat="43.67104" lon="3.62974">
        <ele>184.23</ele>
        <time>2011-10-09T13:39:02Z</time>
      </trkpt>
      <trkpt lat="43.6724" lon="3.62731">
        <ele>186.63</ele>
        <time>2011-10-09T13:39:11Z</time>
      </trkpt>
      <trkpt lat="43.67386" lon="3.62421">
        <ele>181.35</ele>
        <time>2011-10-09T13:39:22Z</time>
      </trkpt>
      <trkpt lat="43.67507" lon="3.62212">
        <ele>177.02</ele>
        <time>2011-10-09T13:39:30Z</time>
      </trkpt>
      <trkpt lat="43.67565" lon="3.62076">
        <ele>175.58</ele>
        <time>2011-10-09T13:39:36Z</time>
      </trkpt>
      <trkpt lat="43.67569" lon="3.62054">
        <ele>175.58</ele>
        <time>2011-10-09T13:39:37Z</time>
      </trkpt>
      <trkpt lat="43.6757" lon="3.62029">
        <ele>175.58</ele>
        <time>2011-10-09T13:39:38Z</time>
      </trkpt>
      <trkpt lat="43.67565" lon="3.61841">
        <ele>175.58</ele>
        <time>2011-10-09T13:39:44Z</time>
      </trkpt>
      <trkpt lat="43.6756" lon="3.6176">
        <ele>175.58</ele>
        <time>2011-10-09T13:39:47Z</time>
      </trkpt>
      <trkpt lat="43.67556" lon="3.61737">
        <ele>175.58</ele>
        <time>2011-10-09T13:39:48Z</time>
      </trkpt>
      <trkpt lat="43.67548" lon="3.61715">
        <ele>175.1</ele>
        <time>2011-10-09T13:39:49Z</time>
      </trkpt>
      <trkpt lat="43.67538" lon="3.61694">
        <ele>174.62</ele>
        <time>2011-10-09T13:39:50Z</time>
      </trkpt>
      <trkpt lat="43.67525" lon="3.61674">
        <ele>174.14</ele>
        <time>2011-10-09T13:39:51Z</time>
      </trkpt>
      <trkpt lat="43.67511" lon="3.61655">
        <ele>173.17</ele>
        <time>2011-10-09T13:39:52Z</time>
      </trkpt>
      <trkpt lat="43.67472" lon="3.616">
        <ele>169.33</ele>
        <time>2011-10-09T13:39:55Z</time>
      </trkpt>
      <trkpt lat="43.67463" lon="3.61575">
        <ele>168.37</ele>
        <time>2011-10-09T13:39:56Z</time>
      </trkpt>
      <trkpt lat="43.67458" lon="3.61547">
        <ele>166.93</ele>
        <time>2011-10-09T13:39:57Z</time>
      </trkpt>
      <trkpt lat="43.6743" lon="3.6136">
        <ele>158.75</ele>
        <time>2011-10-09T13:40:04Z</time>
      </trkpt>
      <trkpt lat="43.67433" lon="3.61336">
        <ele>157.31</ele>
        <time>2011-10-09T13:40:05Z</time>
      </trkpt>
      <trkpt lat="43.67439" lon="3.61311">
        <ele>156.83</ele>
        <time>2011-10-09T13:40:06Z</time>
      </trkpt>
      <trkpt lat="43.67447" lon="3.61285">
        <ele>155.87</ele>
        <time>2011-10-09T13:40:07Z</time>
      </trkpt>
      <trkpt lat="43.67456" lon="3.61261">
        <ele>155.39</ele>
        <time>2011-10-09T13:40:08Z</time>
      </trkpt>
      <trkpt lat="43.67475" lon="3.61219">
        <ele>153.95</ele>
        <time>2011-10-09T13:40:10Z</time>
      </trkpt>
      <trkpt lat="43.67488" lon="3.61201">
        <ele>152.99</ele>
        <time>2011-10-09T13:40:11Z</time>
      </trkpt>
      <trkpt lat="43.67502" lon="3.61187">
        <ele>152.51</ele>
        <time>2011-10-09T13:40:12Z</time>
      </trkpt>
      <trkpt lat="43.67518" lon="3.61176">
        <ele>151.54</ele>
        <time>2011-10-09T13:40:13Z</time>
      </trkpt>
      <trkpt lat="43.67534" lon="3.61165">
        <ele>151.06</ele>
        <time>2011-10-09T13:40:14Z</time>
      </trkpt>
      <trkpt lat="43.67608" lon="3.61097">
        <ele>147.7</ele>
        <time>2011-10-09T13:40:19Z</time>
      </trkpt>
      <trkpt lat="43.67617" lon="3.6108">
        <ele>147.22</ele>
        <time>2011-10-09T13:40:20Z</time>
      </trkpt>
      <trkpt lat="43.67624" lon="3.61061">
        <ele>146.74</ele>
        <time>2011-10-09T13:40:21Z</time>
      </trkpt>
      <trkpt lat="43.67627" lon="3.61041">
        <ele>146.26</ele>
        <time>2011-10-09T13:40:22Z</time>
      </trkpt>
      <trkpt lat="43.67628" lon="3.61019">
        <ele>145.78</ele>
        <time>2011-10-09T13:40:23Z</time>
      </trkpt>
      <trkpt lat="43.67626" lon="3.60994">
        <ele>144.82</ele>
        <time>2011-10-09T13:40:24Z</time>
      </trkpt>
      <trkpt lat="43.67623" lon="3.60967">
        <ele>144.34</ele>
        <time>2011-10-09T13:40:25Z</time>
      </trkpt>
      <trkpt lat="43.67605" lon="3.6087">
        <ele>141.93</ele>
        <time>2011-10-09T13:40:29Z</time>
      </trkpt>
      <trkpt lat="43.67596" lon="3.60848">
        <ele>141.45</ele>
        <time>2011-10-09T13:40:30Z</time>
      </trkpt>
      <trkpt lat="43.67587" lon="3.60826">
        <ele>140.97</ele>
        <time>2011-10-09T13:40:31Z</time>
      </trkpt>
      <trkpt lat="43.67576" lon="3.60807">
        <ele>140.49</ele>
        <time>2011-10-09T13:40:32Z</time>
      </trkpt>
      <trkpt lat="43.67564" lon="3.60788">
        <ele>140.01</ele>
        <time>2011-10-09T13:40:33Z</time>
      </trkpt>
      <trkpt lat="43.67551" lon="3.60771">
        <ele>139.05</ele>
        <time>2011-10-09T13:40:34Z</time>
      </trkpt>
      <trkpt lat="43.67535" lon="3.60755">
        <ele>138.09</ele>
        <time>2011-10-09T13:40:35Z</time>
      </trkpt>
      <trkpt lat="43.67517" lon="3.6074">
        <ele>137.13</ele>
        <time>2011-10-09T13:40:36Z</time>
      </trkpt>
      <trkpt lat="43.67495" lon="3.60725">
        <ele>135.68</ele>
        <time>2011-10-09T13:40:37Z</time>
      </trkpt>
      <trkpt lat="43.67474" lon="3.6071">
        <ele>134.72</ele>
        <time>2011-10-09T13:40:38Z</time>
      </trkpt>
      <trkpt lat="43.67419" lon="3.60663">
        <ele>131.84</ele>
        <time>2011-10-09T13:40:41Z</time>
      </trkpt>
      <trkpt lat="43.67404" lon="3.60643">
        <ele>130.88</ele>
        <time>2011-10-09T13:40:42Z</time>
      </trkpt>
      <trkpt lat="43.67392" lon="3.60619">
        <ele>130.88</ele>
        <time>2011-10-09T13:40:43Z</time>
      </trkpt>
      <trkpt lat="43.67381" lon="3.60595">
        <ele>129.92</ele>
        <time>2011-10-09T13:40:44Z</time>
      </trkpt>
      <trkpt lat="43.67371" lon="3.6057">
        <ele>128.95</ele>
        <time>2011-10-09T13:40:45Z</time>
      </trkpt>
      <trkpt lat="43.67331" lon="3.60474">
        <ele>125.11</ele>
        <time>2011-10-09T13:40:49Z</time>
      </trkpt>
      <trkpt lat="43.67316" lon="3.60458">
        <ele>124.15</ele>
        <time>2011-10-09T13:40:50Z</time>
      </trkpt>
      <trkpt lat="43.67301" lon="3.60445">
        <ele>123.19</ele>
        <time>2011-10-09T13:40:51Z</time>
      </trkpt>
      <trkpt lat="43.67286" lon="3.60434">
        <ele>122.71</ele>
        <time>2011-10-09T13:40:52Z</time>
      </trkpt>
      <trkpt lat="43.67272" lon="3.60422">
        <ele>122.22</ele>
        <time>2011-10-09T13:40:53Z</time>
      </trkpt>
      <trkpt lat="43.67259" lon="3.60408">
        <ele>122.22</ele>
        <time>2011-10-09T13:40:54Z</time>
      </trkpt>
      <trkpt lat="43.6725" lon="3.60388">
        <ele>122.22</ele>
        <time>2011-10-09T13:40:55Z</time>
      </trkpt>
      <trkpt lat="43.67242" lon="3.60366">
        <ele>122.22</ele>
        <time>2011-10-09T13:40:56Z</time>
      </trkpt>
      <trkpt lat="43.67234" lon="3.6034">
        <ele>122.71</ele>
        <time>2011-10-09T13:40:57Z</time>
      </trkpt>
      <trkpt lat="43.67226" lon="3.60312">
        <ele>123.19</ele>
        <time>2011-10-09T13:40:58Z</time>
      </trkpt>
      <trkpt lat="43.67186" lon="3.60218">
        <ele>125.59</ele>
        <time>2011-10-09T13:41:02Z</time>
      </trkpt>
      <trkpt lat="43.67173" lon="3.60204">
        <ele>126.07</ele>
        <time>2011-10-09T13:41:03Z</time>
      </trkpt>
      <trkpt lat="43.67158" lon="3.60191">
        <ele>126.55</ele>
        <time>2011-10-09T13:41:04Z</time>
      </trkpt>
      <trkpt lat="43.67131" lon="3.60168">
        <ele>127.99</ele>
        <time>2011-10-09T13:41:06Z</time>
      </trkpt>
      <trkpt lat="43.67122" lon="3.60155">
        <ele>127.99</ele>
        <time>2011-10-09T13:41:07Z</time>
      </trkpt>
      <trkpt lat="43.67117" lon="3.6014">
        <ele>127.03</ele>
        <time>2011-10-09T13:41:08Z</time>
      </trkpt>
      <trkpt lat="43.67117" lon="3.60125">
        <ele>129.43</ele>
        <time>2011-10-09T13:41:09Z</time>
      </trkpt>
      <trkpt lat="43.67121" lon="3.60109">
        <ele>130.88</ele>
        <time>2011-10-09T13:41:10Z</time>
      </trkpt>
      <trkpt lat="43.67128" lon="3.6009">
        <ele>132.32</ele>
        <time>2011-10-09T13:41:11Z</time>
      </trkpt>
      <trkpt lat="43.67133" lon="3.60067">
        <ele>133.28</ele>
        <time>2011-10-09T13:41:12Z</time>
      </trkpt>
      <trkpt lat="43.67137" lon="3.60041">
        <ele>134.72</ele>
        <time>2011-10-09T13:41:13Z</time>
      </trkpt>
      <trkpt lat="43.67139" lon="3.60013">
        <ele>136.16</ele>
        <time>2011-10-09T13:41:14Z</time>
      </trkpt>
      <trkpt lat="43.67167" lon="3.59859">
        <ele>141.45</ele>
        <time>2011-10-09T13:41:19Z</time>
      </trkpt>
      <trkpt lat="43.67189" lon="3.59679">
        <ele>145.3</ele>
        <time>2011-10-09T13:41:26Z</time>
      </trkpt>
      <trkpt lat="43.67196" lon="3.59662">
        <ele>145.3</ele>
        <time>2011-10-09T13:41:27Z</time>
      </trkpt>
      <trkpt lat="43.67204" lon="3.59647">
        <ele>145.3</ele>
        <time>2011-10-09T13:41:28Z</time>
      </trkpt>
      <trkpt lat="43.67214" lon="3.59636">
        <ele>145.3</ele>
        <time>2011-10-09T13:41:29Z</time>
      </trkpt>
      <trkpt lat="43.67226" lon="3.5963">
        <ele>144.82</ele>
        <time>2011-10-09T13:41:30Z</time>
      </trkpt>
      <trkpt lat="43.67239" lon="3.59627">
        <ele>144.82</ele>
        <time>2011-10-09T13:41:31Z</time>
      </trkpt>
      <trkpt lat="43.67255" lon="3.59627">
        <ele>144.34</ele>
        <time>2011-10-09T13:41:32Z</time>
      </trkpt>
      <trkpt lat="43.67273" lon="3.59628">
        <ele>144.34</ele>
        <time>2011-10-09T13:41:33Z</time>
      </trkpt>
      <trkpt lat="43.67294" lon="3.59631">
        <ele>143.37</ele>
        <time>2011-10-09T13:41:34Z</time>
      </trkpt>
      <trkpt lat="43.67416" lon="3.59649">
        <ele>139.05</ele>
        <time>2011-10-09T13:41:40Z</time>
      </trkpt>
      <trkpt lat="43.67433" lon="3.59657">
        <ele>138.09</ele>
        <time>2011-10-09T13:41:41Z</time>
      </trkpt>
      <trkpt lat="43.67451" lon="3.59667">
        <ele>137.61</ele>
        <time>2011-10-09T13:41:42Z</time>
      </trkpt>
      <trkpt lat="43.67469" lon="3.5968">
        <ele>137.13</ele>
        <time>2011-10-09T13:41:43Z</time>
      </trkpt>
      <trkpt lat="43.67488" lon="3.59695">
        <ele>136.16</ele>
        <time>2011-10-09T13:41:44Z</time>
      </trkpt>
      <trkpt lat="43.67524" lon="3.59722">
        <ele>134.72</ele>
        <time>2011-10-09T13:41:46Z</time>
      </trkpt>
      <trkpt lat="43.67543" lon="3.59731">
        <ele>133.76</ele>
        <time>2011-10-09T13:41:47Z</time>
      </trkpt>
      <trkpt lat="43.67564" lon="3.59738">
        <ele>132.8</ele>
        <time>2011-10-09T13:41:48Z</time>
      </trkpt>
      <trkpt lat="43.67588" lon="3.59741">
        <ele>131.84</ele>
        <time>2011-10-09T13:41:49Z</time>
      </trkpt>
      <trkpt lat="43.67613" lon="3.59743">
        <ele>130.4</ele>
        <time>2011-10-09T13:41:50Z</time>
      </trkpt>
      <trkpt lat="43.67781" lon="3.59747">
        <ele>122.71</ele>
        <time>2011-10-09T13:41:57Z</time>
      </trkpt>
      <trkpt lat="43.67839" lon="3.5975">
        <ele>119.82</ele>
        <time>2011-10-09T13:42:01Z</time>
      </trkpt>
      <trkpt lat="43.67846" lon="3.59754">
        <ele>119.34</ele>
        <time>2011-10-09T13:42:02Z</time>
      </trkpt>
      <trkpt lat="43.67852" lon="3.5976">
        <ele>117.9</ele>
        <time>2011-10-09T13:42:03Z</time>
      </trkpt>
      <trkpt lat="43.67855" lon="3.59769">
        <ele>116.94</ele>
        <time>2011-10-09T13:42:04Z</time>
      </trkpt>
      <trkpt lat="43.67855" lon="3.59783">
        <ele>115.98</ele>
        <time>2011-10-09T13:42:05Z</time>
      </trkpt>
      <trkpt lat="43.67854" lon="3.598">
        <ele>115.98</ele>
        <time>2011-10-09T13:42:06Z</time>
      </trkpt>
      <trkpt lat="43.67851" lon="3.59816">
        <ele>115.5</ele>
        <time>2011-10-09T13:42:07Z</time>
      </trkpt>
      <trkpt lat="43.6785" lon="3.59832">
        <ele>115.5</ele>
        <time>2011-10-09T13:42:08Z</time>
      </trkpt>
      <trkpt lat="43.67851" lon="3.59845">
        <ele>115.01</ele>
        <time>2011-10-09T13:42:09Z</time>
      </trkpt>
      <trkpt lat="43.67854" lon="3.59858">
        <ele>114.53</ele>
        <time>2011-10-09T13:42:10Z</time>
      </trkpt>
      <trkpt lat="43.6786" lon="3.59868">
        <ele>114.05</ele>
        <time>2011-10-09T13:42:11Z</time>
      </trkpt>
      <trkpt lat="43.67869" lon="3.59874">
        <ele>113.09</ele>
        <time>2011-10-09T13:42:12Z</time>
      </trkpt>
      <trkpt lat="43.67881" lon="3.59876">
        <ele>112.61</ele>
        <time>2011-10-09T13:42:13Z</time>
      </trkpt>
      <trkpt lat="43.67893" lon="3.59874">
        <ele>111.65</ele>
        <time>2011-10-09T13:42:14Z</time>
      </trkpt>
      <trkpt lat="43.67904" lon="3.59865">
        <ele>111.17</ele>
        <time>2011-10-09T13:42:15Z</time>
      </trkpt>
      <trkpt lat="43.67913" lon="3.59854">
        <ele>110.21</ele>
        <time>2011-10-09T13:42:16Z</time>
      </trkpt>
      <trkpt lat="43.6792" lon="3.59839">
        <ele>109.73</ele>
        <time>2011-10-09T13:42:17Z</time>
      </trkpt>
      <trkpt lat="43.67923" lon="3.59821">
        <ele>109.25</ele>
        <time>2011-10-09T13:42:18Z</time>
      </trkpt>
      <trkpt lat="43.67924" lon="3.59801">
        <ele>108.77</ele>
        <time>2011-10-09T13:42:19Z</time>
      </trkpt>
      <trkpt lat="43.67925" lon="3.59779">
        <ele>107.81</ele>
        <time>2011-10-09T13:42:20Z</time>
      </trkpt>
      <trkpt lat="43.6793" lon="3.59617">
        <ele>102.52</ele>
        <time>2011-10-09T13:42:28Z</time>
      </trkpt>
      <trkpt lat="43.67933" lon="3.59599">
        <ele>101.56</ele>
        <time>2011-10-09T13:42:29Z</time>
      </trkpt>
      <trkpt lat="43.67938" lon="3.59581">
        <ele>100.6</ele>
        <time>2011-10-09T13:42:30Z</time>
      </trkpt>
      <trkpt lat="43.67945" lon="3.59563">
        <ele>100.11</ele>
        <time>2011-10-09T13:42:31Z</time>
      </trkpt>
      <trkpt lat="43.67953" lon="3.59547">
        <ele>99.63</ele>
        <time>2011-10-09T13:42:32Z</time>
      </trkpt>
      <trkpt lat="43.67963" lon="3.59533">
        <ele>98.67</ele>
        <time>2011-10-09T13:42:33Z</time>
      </trkpt>
      <trkpt lat="43.67974" lon="3.59519">
        <ele>97.71</ele>
        <time>2011-10-09T13:42:34Z</time>
      </trkpt>
      <trkpt lat="43.67987" lon="3.59506">
        <ele>96.75</ele>
        <time>2011-10-09T13:42:35Z</time>
      </trkpt>
      <trkpt lat="43.68089" lon="3.59399">
        <ele>89.54</ele>
        <time>2011-10-09T13:42:43Z</time>
      </trkpt>
      <trkpt lat="43.68111" lon="3.59379">
        <ele>88.1</ele>
        <time>2011-10-09T13:42:46Z</time>
      </trkpt>
      <trkpt lat="43.68118" lon="3.59374">
        <ele>87.62</ele>
        <time>2011-10-09T13:42:47Z</time>
      </trkpt>
      <trkpt lat="43.68127" lon="3.5937">
        <ele>87.14</ele>
        <time>2011-10-09T13:42:48Z</time>
      </trkpt>
      <trkpt lat="43.68156" lon="3.59359">
        <ele>85.69</ele>
        <time>2011-10-09T13:42:51Z</time>
      </trkpt>
      <trkpt lat="43.68167" lon="3.59358">
        <ele>85.69</ele>
        <time>2011-10-09T13:42:52Z</time>
      </trkpt>
      <trkpt lat="43.68197" lon="3.59358">
        <ele>84.73</ele>
        <time>2011-10-09T13:42:55Z</time>
      </trkpt>
      <trkpt lat="43.68207" lon="3.59361">
        <ele>84.73</ele>
        <time>2011-10-09T13:42:56Z</time>
      </trkpt>
      <trkpt lat="43.68362" lon="3.59413">
        <ele>78</ele>
        <time>2011-10-09T13:43:10Z</time>
      </trkpt>
      <trkpt lat="43.68443" lon="3.59423">
        <ele>76.08</ele>
        <time>2011-10-09T13:43:18Z</time>
      </trkpt>
      <trkpt lat="43.68458" lon="3.59418">
        <ele>75.6</ele>
        <time>2011-10-09T13:43:24Z</time>
      </trkpt>
      <trkpt lat="43.68471" lon="3.59408">
        <ele>75.6</ele>
        <time>2011-10-09T13:43:27Z</time>
      </trkpt>
      <trkpt lat="43.68477" lon="3.59402">
        <ele>76.08</ele>
        <time>2011-10-09T13:43:28Z</time>
      </trkpt>
      <trkpt lat="43.68481" lon="3.59394">
        <ele>76.08</ele>
        <time>2011-10-09T13:43:29Z</time>
      </trkpt>
      <trkpt lat="43.68486" lon="3.59385">
        <ele>76.56</ele>
        <time>2011-10-09T13:43:30Z</time>
      </trkpt>
      <trkpt lat="43.6849" lon="3.59376">
        <ele>77.04</ele>
        <time>2011-10-09T13:43:31Z</time>
      </trkpt>
      <trkpt lat="43.68495" lon="3.59369">
        <ele>77.52</ele>
        <time>2011-10-09T13:43:32Z</time>
      </trkpt>
      <trkpt lat="43.685" lon="3.59362">
        <ele>78</ele>
        <time>2011-10-09T13:43:33Z</time>
      </trkpt>
      <trkpt lat="43.68504" lon="3.59356">
        <ele>78</ele>
        <time>2011-10-09T13:43:34Z</time>
      </trkpt>
      <trkpt lat="43.68505" lon="3.59349">
        <ele>78.48</ele>
        <time>2011-10-09T13:43:35Z</time>
      </trkpt>
      <trkpt lat="43.68504" lon="3.59342">
        <ele>78.48</ele>
        <time>2011-10-09T13:43:36Z</time>
      </trkpt>
      <trkpt lat="43.68499" lon="3.59336">
        <ele>78.97</ele>
        <time>2011-10-09T13:43:37Z</time>
      </trkpt>
      <trkpt lat="43.68493" lon="3.5933">
        <ele>78.97</ele>
        <time>2011-10-09T13:43:38Z</time>
      </trkpt>
      <trkpt lat="43.68486" lon="3.59321">
        <ele>79.45</ele>
        <time>2011-10-09T13:43:39Z</time>
      </trkpt>
      <trkpt lat="43.6848" lon="3.5931">
        <ele>79.93</ele>
        <time>2011-10-09T13:43:40Z</time>
      </trkpt>
      <trkpt lat="43.68468" lon="3.59272">
        <ele>80.89</ele>
        <time>2011-10-09T13:43:43Z</time>
      </trkpt>
      <trkpt lat="43.68466" lon="3.59259">
        <ele>80.89</ele>
        <time>2011-10-09T13:43:44Z</time>
      </trkpt>
      <trkpt lat="43.68465" lon="3.59247">
        <ele>81.37</ele>
        <time>2011-10-09T13:43:45Z</time>
      </trkpt>
      <trkpt lat="43.68462" lon="3.59189">
        <ele>83.29</ele>
        <time>2011-10-09T13:43:52Z</time>
      </trkpt>
      <trkpt lat="43.68455" lon="3.59074">
        <ele>85.21</ele>
        <time>2011-10-09T13:44:01Z</time>
      </trkpt>
      <trkpt lat="43.68459" lon="3.58994">
        <ele>81.37</ele>
        <time>2011-10-09T13:44:08Z</time>
      </trkpt>
      <trkpt lat="43.68463" lon="3.58984">
        <ele>80.89</ele>
        <time>2011-10-09T13:44:09Z</time>
      </trkpt>
      <trkpt lat="43.68467" lon="3.58975">
        <ele>80.89</ele>
        <time>2011-10-09T13:44:10Z</time>
      </trkpt>
      <trkpt lat="43.68496" lon="3.58917">
        <ele>79.93</ele>
        <time>2011-10-09T13:44:18Z</time>
      </trkpt>
      <trkpt lat="43.68535" lon="3.58806">
        <ele>77.52</ele>
        <time>2011-10-09T13:44:28Z</time>
      </trkpt>
      <trkpt lat="43.68559" lon="3.58712">
        <ele>75.12</ele>
        <time>2011-10-09T13:44:37Z</time>
      </trkpt>
      <trkpt lat="43.68569" lon="3.58628">
        <ele>74.16</ele>
        <time>2011-10-09T13:44:45Z</time>
      </trkpt>
      <trkpt lat="43.6857" lon="3.5861">
        <ele>74.16</ele>
        <time>2011-10-09T13:44:47Z</time>
      </trkpt>
      <trkpt lat="43.6857" lon="3.586">
        <ele>74.16</ele>
        <time>2011-10-09T13:44:48Z</time>
      </trkpt>
      <trkpt lat="43.68569" lon="3.58592">
        <ele>74.16</ele>
        <time>2011-10-09T13:44:49Z</time>
      </trkpt>
      <trkpt lat="43.68567" lon="3.58583">
        <ele>74.16</ele>
        <time>2011-10-09T13:44:50Z</time>
      </trkpt>
      <trkpt lat="43.68564" lon="3.58575">
        <ele>74.16</ele>
        <time>2011-10-09T13:44:51Z</time>
      </trkpt>
      <trkpt lat="43.68551" lon="3.58531">
        <ele>72.24</ele>
        <time>2011-10-09T13:44:56Z</time>
      </trkpt>
      <trkpt lat="43.68546" lon="3.58522">
        <ele>72.24</ele>
        <time>2011-10-09T13:44:57Z</time>
      </trkpt>
      <trkpt lat="43.68541" lon="3.58516">
        <ele>72.24</ele>
        <time>2011-10-09T13:44:58Z</time>
      </trkpt>
      <trkpt lat="43.68535" lon="3.58509">
        <ele>71.76</ele>
        <time>2011-10-09T13:44:59Z</time>
      </trkpt>
      <trkpt lat="43.68528" lon="3.58505">
        <ele>71.76</ele>
        <time>2011-10-09T13:45:00Z</time>
      </trkpt>
      <trkpt lat="43.6852" lon="3.58501">
        <ele>70.79</ele>
        <time>2011-10-09T13:45:01Z</time>
      </trkpt>
      <trkpt lat="43.68478" lon="3.58476">
        <ele>69.35</ele>
        <time>2011-10-09T13:45:07Z</time>
      </trkpt>
      <trkpt lat="43.68469" lon="3.58466">
        <ele>68.39</ele>
        <time>2011-10-09T13:45:08Z</time>
      </trkpt>
      <trkpt lat="43.68395" lon="3.58354">
        <ele>65.51</ele>
        <time>2011-10-09T13:45:16Z</time>
      </trkpt>
      <trkpt lat="43.68292" lon="3.58206">
        <ele>66.47</ele>
        <time>2011-10-09T13:45:27Z</time>
      </trkpt>
      <trkpt lat="43.68284" lon="3.58192">
        <ele>66.47</ele>
        <time>2011-10-09T13:45:28Z</time>
      </trkpt>
      <trkpt lat="43.6824" lon="3.58123">
        <ele>66.95</ele>
        <time>2011-10-09T13:45:34Z</time>
      </trkpt>
      <trkpt lat="43.68232" lon="3.58111">
        <ele>68.39</ele>
        <time>2011-10-09T13:45:39Z</time>
      </trkpt>
      <trkpt lat="43.68217" lon="3.58086">
        <ele>68.87</ele>
        <time>2011-10-09T13:45:47Z</time>
      </trkpt>
      <trkpt lat="43.68157" lon="3.57997">
        <ele>70.31</ele>
        <time>2011-10-09T13:45:55Z</time>
      </trkpt>
      <trkpt lat="43.68078" lon="3.57879">
        <ele>70.31</ele>
        <time>2011-10-09T13:46:06Z</time>
      </trkpt>
      <trkpt lat="43.68069" lon="3.57863">
        <ele>69.83</ele>
        <time>2011-10-09T13:46:08Z</time>
      </trkpt>
      <trkpt lat="43.68062" lon="3.5786">
        <ele>69.83</ele>
        <time>2011-10-09T13:46:09Z</time>
      </trkpt>
      <trkpt lat="43.68052" lon="3.57858">
        <ele>69.83</ele>
        <time>2011-10-09T13:46:10Z</time>
      </trkpt>
      <trkpt lat="43.67961" lon="3.57832">
        <ele>69.35</ele>
        <time>2011-10-09T13:46:17Z</time>
      </trkpt>
      <trkpt lat="43.67905" lon="3.57811">
        <ele>67.91</ele>
        <time>2011-10-09T13:46:21Z</time>
      </trkpt>
      <trkpt lat="43.67892" lon="3.57801">
        <ele>67.91</ele>
        <time>2011-10-09T13:46:22Z</time>
      </trkpt>
      <trkpt lat="43.67879" lon="3.57787">
        <ele>67.91</ele>
        <time>2011-10-09T13:46:23Z</time>
      </trkpt>
      <trkpt lat="43.67867" lon="3.57771">
        <ele>68.39</ele>
        <time>2011-10-09T13:46:24Z</time>
      </trkpt>
      <trkpt lat="43.67857" lon="3.57751">
        <ele>67.91</ele>
        <time>2011-10-09T13:46:25Z</time>
      </trkpt>
      <trkpt lat="43.67848" lon="3.57729">
        <ele>67.91</ele>
        <time>2011-10-09T13:46:26Z</time>
      </trkpt>
      <trkpt lat="43.6784" lon="3.57706">
        <ele>67.43</ele>
        <time>2011-10-09T13:46:27Z</time>
      </trkpt>
      <trkpt lat="43.67834" lon="3.57684">
        <ele>67.43</ele>
        <time>2011-10-09T13:46:28Z</time>
      </trkpt>
      <trkpt lat="43.67807" lon="3.57603">
        <ele>67.43</ele>
        <time>2011-10-09T13:46:32Z</time>
      </trkpt>
      <trkpt lat="43.67797" lon="3.57584">
        <ele>67.43</ele>
        <time>2011-10-09T13:46:33Z</time>
      </trkpt>
      <trkpt lat="43.67786" lon="3.57567">
        <ele>67.43</ele>
        <time>2011-10-09T13:46:34Z</time>
      </trkpt>
      <trkpt lat="43.67773" lon="3.57551">
        <ele>67.43</ele>
        <time>2011-10-09T13:46:35Z</time>
      </trkpt>
      <trkpt lat="43.67759" lon="3.57538">
        <ele>66.95</ele>
        <time>2011-10-09T13:46:36Z</time>
      </trkpt>
      <trkpt lat="43.67745" lon="3.57526">
        <ele>66.95</ele>
        <time>2011-10-09T13:46:37Z</time>
      </trkpt>
      <trkpt lat="43.67635" lon="3.57435">
        <ele>66.95</ele>
        <time>2011-10-09T13:46:43Z</time>
      </trkpt>
      <trkpt lat="43.67414" lon="3.57247">
        <ele>66.47</ele>
        <time>2011-10-09T13:46:54Z</time>
      </trkpt>
      <trkpt lat="43.67072" lon="3.56959">
        <ele>65.51</ele>
        <time>2011-10-09T13:47:11Z</time>
      </trkpt>
      <trkpt lat="43.66847" lon="3.56786">
        <ele>65.51</ele>
        <time>2011-10-09T13:47:22Z</time>
      </trkpt>
      <trkpt lat="43.66552" lon="3.5664">
        <ele>65.03</ele>
        <time>2011-10-09T13:47:35Z</time>
      </trkpt>
      <trkpt lat="43.66418" lon="3.566">
        <ele>63.1</ele>
        <time>2011-10-09T13:47:41Z</time>
      </trkpt>
      <trkpt lat="43.66398" lon="3.5659">
        <ele>62.62</ele>
        <time>2011-10-09T13:47:42Z</time>
      </trkpt>
      <trkpt lat="43.66377" lon="3.56576">
        <ele>62.14</ele>
        <time>2011-10-09T13:47:43Z</time>
      </trkpt>
      <trkpt lat="43.66357" lon="3.56561">
        <ele>62.14</ele>
        <time>2011-10-09T13:47:44Z</time>
      </trkpt>
      <trkpt lat="43.66337" lon="3.56543">
        <ele>62.14</ele>
        <time>2011-10-09T13:47:45Z</time>
      </trkpt>
      <trkpt lat="43.66319" lon="3.56525">
        <ele>62.62</ele>
        <time>2011-10-09T13:47:46Z</time>
      </trkpt>
      <trkpt lat="43.66302" lon="3.56505">
        <ele>62.62</ele>
        <time>2011-10-09T13:47:47Z</time>
      </trkpt>
      <trkpt lat="43.66287" lon="3.56483">
        <ele>63.1</ele>
        <time>2011-10-09T13:47:48Z</time>
      </trkpt>
      <trkpt lat="43.66272" lon="3.56458">
        <ele>63.58</ele>
        <time>2011-10-09T13:47:49Z</time>
      </trkpt>
      <trkpt lat="43.66142" lon="3.56276">
        <ele>65.03</ele>
        <time>2011-10-09T13:47:57Z</time>
      </trkpt>
      <trkpt lat="43.65988" lon="3.56051">
        <ele>64.07</ele>
        <time>2011-10-09T13:48:07Z</time>
      </trkpt>
      <trkpt lat="43.65887" lon="3.55878">
        <ele>61.18</ele>
        <time>2011-10-09T13:48:15Z</time>
      </trkpt>
      <trkpt lat="43.65762" lon="3.55768">
        <ele>62.62</ele>
        <time>2011-10-09T13:48:23Z</time>
      </trkpt>
      <trkpt lat="43.6566" lon="3.5566">
        <ele>63.58</ele>
        <time>2011-10-09T13:48:30Z</time>
      </trkpt>
      <trkpt lat="43.6559" lon="3.55573">
        <ele>64.55</ele>
        <time>2011-10-09T13:48:37Z</time>
      </trkpt>
      <trkpt lat="43.65586" lon="3.55563">
        <ele>65.03</ele>
        <time>2011-10-09T13:48:38Z</time>
      </trkpt>
      <trkpt lat="43.65583" lon="3.55554">
        <ele>65.03</ele>
        <time>2011-10-09T13:48:39Z</time>
      </trkpt>
      <trkpt lat="43.6558" lon="3.55545">
        <ele>65.03</ele>
        <time>2011-10-09T13:48:40Z</time>
      </trkpt>
      <trkpt lat="43.65576" lon="3.55539">
        <ele>65.03</ele>
        <time>2011-10-09T13:48:41Z</time>
      </trkpt>
      <trkpt lat="43.65569" lon="3.55534">
        <ele>65.03</ele>
        <time>2011-10-09T13:48:42Z</time>
      </trkpt>
      <trkpt lat="43.6556" lon="3.55529">
        <ele>65.03</ele>
        <time>2011-10-09T13:48:43Z</time>
      </trkpt>
      <trkpt lat="43.65551" lon="3.55521">
        <ele>65.03</ele>
        <time>2011-10-09T13:48:44Z</time>
      </trkpt>
      <trkpt lat="43.65542" lon="3.5551">
        <ele>65.03</ele>
        <time>2011-10-09T13:48:45Z</time>
      </trkpt>
      <trkpt lat="43.65533" lon="3.55497">
        <ele>64.55</ele>
        <time>2011-10-09T13:48:46Z</time>
      </trkpt>
      <trkpt lat="43.65524" lon="3.55482">
        <ele>64.07</ele>
        <time>2011-10-09T13:48:47Z</time>
      </trkpt>
      <trkpt lat="43.65472" lon="3.55386">
        <ele>63.1</ele>
        <time>2011-10-09T13:48:55Z</time>
      </trkpt>
      <trkpt lat="43.65387" lon="3.5523">
        <ele>71.27</ele>
        <time>2011-10-09T13:49:10Z</time>
      </trkpt>
      <trkpt lat="43.6535" lon="3.55171">
        <ele>81.37</ele>
        <time>2011-10-09T13:49:19Z</time>
      </trkpt>
      <trkpt lat="43.65342" lon="3.55145">
        <ele>77.04</ele>
        <time>2011-10-09T13:49:25Z</time>
      </trkpt>
      <trkpt lat="43.65335" lon="3.5513">
        <ele>76.08</ele>
        <time>2011-10-09T13:49:27Z</time>
      </trkpt>
      <trkpt lat="43.65332" lon="3.55121">
        <ele>76.08</ele>
        <time>2011-10-09T13:49:28Z</time>
      </trkpt>
      <trkpt lat="43.65294" lon="3.55008">
        <ele>78.97</ele>
        <time>2011-10-09T13:49:39Z</time>
      </trkpt>
      <trkpt lat="43.65248" lon="3.54913">
        <ele>84.25</ele>
        <time>2011-10-09T13:49:49Z</time>
      </trkpt>
      <trkpt lat="43.65198" lon="3.54849">
        <ele>87.14</ele>
        <time>2011-10-09T13:49:56Z</time>
      </trkpt>
      <trkpt lat="43.65159" lon="3.54808">
        <ele>86.66</ele>
        <time>2011-10-09T13:50:04Z</time>
      </trkpt>
      <trkpt lat="43.65159" lon="3.54801">
        <ele>74.16</ele>
        <time>2011-10-09T13:50:13Z</time>
      </trkpt>
      <trkpt lat="43.65155" lon="3.54795">
        <ele>70.79</ele>
        <time>2011-10-09T13:50:21Z</time>
      </trkpt>
      <trkpt lat="43.65102" lon="3.54749">
        <ele>69.83</ele>
        <time>2011-10-09T13:50:30Z</time>
      </trkpt>
      <trkpt lat="43.65046" lon="3.54695">
        <ele>65.51</ele>
        <time>2011-10-09T13:50:37Z</time>
      </trkpt>
      <trkpt lat="43.65041" lon="3.54686">
        <ele>64.55</ele>
        <time>2011-10-09T13:50:38Z</time>
      </trkpt>
      <trkpt lat="43.65038" lon="3.54678">
        <ele>64.55</ele>
        <time>2011-10-09T13:50:39Z</time>
      </trkpt>
      <trkpt lat="43.65037" lon="3.54669">
        <ele>64.07</ele>
        <time>2011-10-09T13:50:40Z</time>
      </trkpt>
      <trkpt lat="43.65038" lon="3.54661">
        <ele>64.07</ele>
        <time>2011-10-09T13:50:41Z</time>
      </trkpt>
      <trkpt lat="43.6504" lon="3.54652">
        <ele>63.58</ele>
        <time>2011-10-09T13:50:42Z</time>
      </trkpt>
      <trkpt lat="43.65042" lon="3.54643">
        <ele>63.1</ele>
        <time>2011-10-09T13:50:43Z</time>
      </trkpt>
      <trkpt lat="43.65043" lon="3.54632">
        <ele>63.1</ele>
        <time>2011-10-09T13:50:44Z</time>
      </trkpt>
      <trkpt lat="43.6504" lon="3.54623">
        <ele>63.1</ele>
        <time>2011-10-09T13:50:45Z</time>
      </trkpt>
      <trkpt lat="43.65036" lon="3.54615">
        <ele>62.62</ele>
        <time>2011-10-09T13:50:46Z</time>
      </trkpt>
      <trkpt lat="43.6503" lon="3.54609">
        <ele>62.62</ele>
        <time>2011-10-09T13:50:47Z</time>
      </trkpt>
      <trkpt lat="43.65022" lon="3.54605">
        <ele>62.14</ele>
        <time>2011-10-09T13:50:48Z</time>
      </trkpt>
      <trkpt lat="43.65014" lon="3.54603">
        <ele>62.14</ele>
        <time>2011-10-09T13:50:49Z</time>
      </trkpt>
      <trkpt lat="43.64942" lon="3.54572">
        <ele>62.14</ele>
        <time>2011-10-09T13:50:55Z</time>
      </trkpt>
      <trkpt lat="43.64831" lon="3.54499">
        <ele>64.55</ele>
        <time>2011-10-09T13:51:05Z</time>
      </trkpt>
      <trkpt lat="43.64756" lon="3.54438">
        <ele>61.66</ele>
        <time>2011-10-09T13:51:13Z</time>
      </trkpt>
      <trkpt lat="43.6475" lon="3.54429">
        <ele>61.18</ele>
        <time>2011-10-09T13:51:14Z</time>
      </trkpt>
      <trkpt lat="43.64745" lon="3.5442">
        <ele>61.18</ele>
        <time>2011-10-09T13:51:15Z</time>
      </trkpt>
      <trkpt lat="43.64741" lon="3.54411">
        <ele>60.7</ele>
        <time>2011-10-09T13:51:16Z</time>
      </trkpt>
      <trkpt lat="43.64735" lon="3.54405">
        <ele>60.22</ele>
        <time>2011-10-09T13:51:17Z</time>
      </trkpt>
      <trkpt lat="43.64728" lon="3.544">
        <ele>60.22</ele>
        <time>2011-10-09T13:51:18Z</time>
      </trkpt>
      <trkpt lat="43.6472" lon="3.54399">
        <ele>59.74</ele>
        <time>2011-10-09T13:51:19Z</time>
      </trkpt>
      <trkpt lat="43.64712" lon="3.54401">
        <ele>59.26</ele>
        <time>2011-10-09T13:51:20Z</time>
      </trkpt>
      <trkpt lat="43.64706" lon="3.54407">
        <ele>58.78</ele>
        <time>2011-10-09T13:51:21Z</time>
      </trkpt>
      <trkpt lat="43.64702" lon="3.54415">
        <ele>58.78</ele>
        <time>2011-10-09T13:51:22Z</time>
      </trkpt>
      <trkpt lat="43.64699" lon="3.54423">
        <ele>58.78</ele>
        <time>2011-10-09T13:51:23Z</time>
      </trkpt>
      <trkpt lat="43.64698" lon="3.54431">
        <ele>58.78</ele>
        <time>2011-10-09T13:51:24Z</time>
      </trkpt>
      <trkpt lat="43.64696" lon="3.54445">
        <ele>58.78</ele>
        <time>2011-10-09T13:51:27Z</time>
      </trkpt>
      <trkpt lat="43.64697" lon="3.54449">
        <ele>58.78</ele>
        <time>2011-10-09T13:51:28Z</time>
      </trkpt>
      <trkpt lat="43.64699" lon="3.5445">
        <ele>58.78</ele>
        <time>2011-10-09T13:51:29Z</time>
      </trkpt>
      <trkpt lat="43.64702" lon="3.54451">
        <ele>58.3</ele>
        <time>2011-10-09T13:51:41Z</time>
      </trkpt>
      <trkpt lat="43.64718" lon="3.54454">
        <ele>58.3</ele>
        <time>2011-10-09T13:52:27Z</time>
      </trkpt>
      <trkpt lat="43.64728" lon="3.54453">
        <ele>58.78</ele>
        <time>2011-10-09T13:52:28Z</time>
      </trkpt>
      <trkpt lat="43.64737" lon="3.5445">
        <ele>58.78</ele>
        <time>2011-10-09T13:52:29Z</time>
      </trkpt>
      <trkpt lat="43.64747" lon="3.54448">
        <ele>58.78</ele>
        <time>2011-10-09T13:52:30Z</time>
      </trkpt>
      <trkpt lat="43.64756" lon="3.54449">
        <ele>59.26</ele>
        <time>2011-10-09T13:52:31Z</time>
      </trkpt>
      <trkpt lat="43.64766" lon="3.54453">
        <ele>59.74</ele>
        <time>2011-10-09T13:52:32Z</time>
      </trkpt>
      <trkpt lat="43.64776" lon="3.5446">
        <ele>60.22</ele>
        <time>2011-10-09T13:52:33Z</time>
      </trkpt>
      <trkpt lat="43.64788" lon="3.54469">
        <ele>60.7</ele>
        <time>2011-10-09T13:52:34Z</time>
      </trkpt>
      <trkpt lat="43.64911" lon="3.5456">
        <ele>62.14</ele>
        <time>2011-10-09T13:52:43Z</time>
      </trkpt>
      <trkpt lat="43.64996" lon="3.54606">
        <ele>59.74</ele>
        <time>2011-10-09T13:52:50Z</time>
      </trkpt>
      <trkpt lat="43.65002" lon="3.54613">
        <ele>59.74</ele>
        <time>2011-10-09T13:52:51Z</time>
      </trkpt>
      <trkpt lat="43.65006" lon="3.54622">
        <ele>59.74</ele>
        <time>2011-10-09T13:52:52Z</time>
      </trkpt>
      <trkpt lat="43.65008" lon="3.54632">
        <ele>59.74</ele>
        <time>2011-10-09T13:52:53Z</time>
      </trkpt>
      <trkpt lat="43.6501" lon="3.54642">
        <ele>59.74</ele>
        <time>2011-10-09T13:52:54Z</time>
      </trkpt>
      <trkpt lat="43.65013" lon="3.54652">
        <ele>59.74</ele>
        <time>2011-10-09T13:52:55Z</time>
      </trkpt>
      <trkpt lat="43.65017" lon="3.5466">
        <ele>59.74</ele>
        <time>2011-10-09T13:52:56Z</time>
      </trkpt>
      <trkpt lat="43.65023" lon="3.54665">
        <ele>59.74</ele>
        <time>2011-10-09T13:52:57Z</time>
      </trkpt>
      <trkpt lat="43.6503" lon="3.5467">
        <ele>59.74</ele>
        <time>2011-10-09T13:52:58Z</time>
      </trkpt>
      <trkpt lat="43.65036" lon="3.54678">
        <ele>59.74</ele>
        <time>2011-10-09T13:52:59Z</time>
      </trkpt>
      <trkpt lat="43.65042" lon="3.54689">
        <ele>59.74</ele>
        <time>2011-10-09T13:53:00Z</time>
      </trkpt>
      <trkpt lat="43.65049" lon="3.547">
        <ele>59.74</ele>
        <time>2011-10-09T13:53:01Z</time>
      </trkpt>
      <trkpt lat="43.65057" lon="3.54711">
        <ele>60.22</ele>
        <time>2011-10-09T13:53:02Z</time>
      </trkpt>
      <trkpt lat="43.65066" lon="3.5472">
        <ele>60.22</ele>
        <time>2011-10-09T13:53:03Z</time>
      </trkpt>
      <trkpt lat="43.65075" lon="3.54729">
        <ele>60.7</ele>
        <time>2011-10-09T13:53:04Z</time>
      </trkpt>
      <trkpt lat="43.65131" lon="3.5478">
        <ele>61.66</ele>
        <time>2011-10-09T13:53:13Z</time>
      </trkpt>
      <trkpt lat="43.65138" lon="3.54781">
        <ele>63.58</ele>
        <time>2011-10-09T13:53:21Z</time>
      </trkpt>
      <trkpt lat="43.65143" lon="3.54786">
        <ele>66.95</ele>
        <time>2011-10-09T13:53:32Z</time>
      </trkpt>
      <trkpt lat="43.65148" lon="3.54793">
        <ele>69.35</ele>
        <time>2011-10-09T13:53:41Z</time>
      </trkpt>
      <trkpt lat="43.65153" lon="3.54798">
        <ele>72.24</ele>
        <time>2011-10-09T13:53:51Z</time>
      </trkpt>
      <trkpt lat="43.65155" lon="3.54798">
        <ele>72.72</ele>
        <time>2011-10-09T13:53:53Z</time>
      </trkpt>
      <trkpt lat="43.65157" lon="3.54797">
        <ele>72.72</ele>
        <time>2011-10-09T13:53:54Z</time>
      </trkpt>
      <trkpt lat="43.65159" lon="3.54793">
        <ele>72.72</ele>
        <time>2011-10-09T13:53:55Z</time>
      </trkpt>
      <trkpt lat="43.65161" lon="3.54786">
        <ele>72.24</ele>
        <time>2011-10-09T13:53:56Z</time>
      </trkpt>
      <trkpt lat="43.65162" lon="3.54777">
        <ele>72.24</ele>
        <time>2011-10-09T13:53:57Z</time>
      </trkpt>
      <trkpt lat="43.65162" lon="3.54766">
        <ele>71.76</ele>
        <time>2011-10-09T13:53:58Z</time>
      </trkpt>
      <trkpt lat="43.65164" lon="3.54754">
        <ele>71.76</ele>
        <time>2011-10-09T13:53:59Z</time>
      </trkpt>
      <trkpt lat="43.65166" lon="3.5474">
        <ele>71.27</ele>
        <time>2011-10-09T13:54:00Z</time>
      </trkpt>
      <trkpt lat="43.65194" lon="3.54603">
        <ele>67.91</ele>
        <time>2011-10-09T13:54:08Z</time>
      </trkpt>
      <trkpt lat="43.65261" lon="3.54212">
        <ele>59.26</ele>
        <time>2011-10-09T13:54:27Z</time>
      </trkpt>
      <trkpt lat="43.65302" lon="3.53971">
        <ele>57.82</ele>
        <time>2011-10-09T13:54:38Z</time>
      </trkpt>
      <trkpt lat="43.65351" lon="3.537">
        <ele>60.22</ele>
        <time>2011-10-09T13:54:48Z</time>
      </trkpt>
      <trkpt lat="43.65419" lon="3.53306">
        <ele>60.7</ele>
        <time>2011-10-09T13:55:01Z</time>
      </trkpt>
      <trkpt lat="43.65448" lon="3.53063">
        <ele>62.14</ele>
        <time>2011-10-09T13:55:09Z</time>
      </trkpt>
      <trkpt lat="43.65436" lon="3.52803">
        <ele>66.47</ele>
        <time>2011-10-09T13:55:17Z</time>
      </trkpt>
      <trkpt lat="43.65418" lon="3.52569">
        <ele>70.79</ele>
        <time>2011-10-09T13:55:25Z</time>
      </trkpt>
      <trkpt lat="43.65355" lon="3.52321">
        <ele>69.83</ele>
        <time>2011-10-09T13:55:34Z</time>
      </trkpt>
      <trkpt lat="43.65334" lon="3.52236">
        <ele>68.87</ele>
        <time>2011-10-09T13:55:38Z</time>
      </trkpt>
      <trkpt lat="43.65333" lon="3.52223">
        <ele>68.87</ele>
        <time>2011-10-09T13:55:39Z</time>
      </trkpt>
      <trkpt lat="43.65334" lon="3.52214">
        <ele>68.87</ele>
        <time>2011-10-09T13:55:40Z</time>
      </trkpt>
      <trkpt lat="43.65335" lon="3.52208">
        <ele>68.87</ele>
        <time>2011-10-09T13:55:41Z</time>
      </trkpt>
      <trkpt lat="43.65336" lon="3.52205">
        <ele>68.87</ele>
        <time>2011-10-09T13:55:42Z</time>
      </trkpt>
      <trkpt lat="43.6534" lon="3.52199">
        <ele>68.87</ele>
        <time>2011-10-09T13:55:44Z</time>
      </trkpt>
      <trkpt lat="43.65344" lon="3.52195">
        <ele>68.87</ele>
        <time>2011-10-09T13:55:45Z</time>
      </trkpt>
      <trkpt lat="43.65357" lon="3.52183">
        <ele>68.87</ele>
        <time>2011-10-09T13:55:47Z</time>
      </trkpt>
      <trkpt lat="43.65362" lon="3.52174">
        <ele>68.87</ele>
        <time>2011-10-09T13:55:48Z</time>
      </trkpt>
      <trkpt lat="43.65365" lon="3.52164">
        <ele>68.87</ele>
        <time>2011-10-09T13:55:49Z</time>
      </trkpt>
      <trkpt lat="43.65366" lon="3.52153">
        <ele>69.35</ele>
        <time>2011-10-09T13:55:50Z</time>
      </trkpt>
      <trkpt lat="43.65365" lon="3.52141">
        <ele>69.35</ele>
        <time>2011-10-09T13:55:51Z</time>
      </trkpt>
      <trkpt lat="43.6536" lon="3.5213">
        <ele>69.35</ele>
        <time>2011-10-09T13:55:52Z</time>
      </trkpt>
      <trkpt lat="43.65353" lon="3.52121">
        <ele>68.87</ele>
        <time>2011-10-09T13:55:53Z</time>
      </trkpt>
      <trkpt lat="43.65343" lon="3.52115">
        <ele>68.87</ele>
        <time>2011-10-09T13:55:54Z</time>
      </trkpt>
      <trkpt lat="43.65333" lon="3.52111">
        <ele>68.39</ele>
        <time>2011-10-09T13:55:55Z</time>
      </trkpt>
      <trkpt lat="43.65323" lon="3.52106">
        <ele>67.91</ele>
        <time>2011-10-09T13:55:56Z</time>
      </trkpt>
      <trkpt lat="43.65314" lon="3.52097">
        <ele>67.91</ele>
        <time>2011-10-09T13:55:57Z</time>
      </trkpt>
      <trkpt lat="43.65306" lon="3.52085">
        <ele>67.43</ele>
        <time>2011-10-09T13:55:58Z</time>
      </trkpt>
      <trkpt lat="43.65298" lon="3.52068">
        <ele>67.43</ele>
        <time>2011-10-09T13:55:59Z</time>
      </trkpt>
      <trkpt lat="43.65292" lon="3.52047">
        <ele>67.43</ele>
        <time>2011-10-09T13:56:00Z</time>
      </trkpt>
      <trkpt lat="43.65286" lon="3.52023">
        <ele>67.43</ele>
        <time>2011-10-09T13:56:01Z</time>
      </trkpt>
      <trkpt lat="43.65281" lon="3.51998">
        <ele>67.43</ele>
        <time>2011-10-09T13:56:02Z</time>
      </trkpt>
      <trkpt lat="43.65205" lon="3.51605">
        <ele>67.91</ele>
        <time>2011-10-09T13:56:17Z</time>
      </trkpt>
      <trkpt lat="43.65137" lon="3.51253">
        <ele>68.87</ele>
        <time>2011-10-09T13:56:31Z</time>
      </trkpt>
      <trkpt lat="43.65114" lon="3.51117">
        <ele>68.87</ele>
        <time>2011-10-09T13:56:39Z</time>
      </trkpt>
      <trkpt lat="43.65116" lon="3.51105">
        <ele>68.87</ele>
        <time>2011-10-09T13:56:40Z</time>
      </trkpt>
      <trkpt lat="43.65116" lon="3.51092">
        <ele>68.87</ele>
        <time>2011-10-09T13:56:41Z</time>
      </trkpt>
      <trkpt lat="43.65115" lon="3.51081">
        <ele>69.35</ele>
        <time>2011-10-09T13:56:42Z</time>
      </trkpt>
      <trkpt lat="43.65111" lon="3.51069">
        <ele>69.35</ele>
        <time>2011-10-09T13:56:43Z</time>
      </trkpt>
      <trkpt lat="43.65105" lon="3.51058">
        <ele>69.35</ele>
        <time>2011-10-09T13:56:44Z</time>
      </trkpt>
      <trkpt lat="43.65099" lon="3.51044">
        <ele>68.87</ele>
        <time>2011-10-09T13:56:45Z</time>
      </trkpt>
      <trkpt lat="43.65094" lon="3.51029">
        <ele>69.35</ele>
        <time>2011-10-09T13:56:46Z</time>
      </trkpt>
      <trkpt lat="43.6509" lon="3.51012">
        <ele>69.35</ele>
        <time>2011-10-09T13:56:47Z</time>
      </trkpt>
      <trkpt lat="43.65046" lon="3.50783">
        <ele>70.79</ele>
        <time>2011-10-09T13:57:00Z</time>
      </trkpt>
      <trkpt lat="43.65015" lon="3.50549">
        <ele>71.76</ele>
        <time>2011-10-09T13:57:14Z</time>
      </trkpt>
      <trkpt lat="43.65011" lon="3.50439">
        <ele>70.79</ele>
        <time>2011-10-09T13:57:21Z</time>
      </trkpt>
      <trkpt lat="43.65013" lon="3.50424">
        <ele>71.27</ele>
        <time>2011-10-09T13:57:22Z</time>
      </trkpt>
      <trkpt lat="43.65045" lon="3.50249">
        <ele>71.27</ele>
        <time>2011-10-09T13:57:34Z</time>
      </trkpt>
      <trkpt lat="43.65047" lon="3.50224">
        <ele>71.76</ele>
        <time>2011-10-09T13:57:36Z</time>
      </trkpt>
      <trkpt lat="43.65046" lon="3.5021">
        <ele>71.76</ele>
        <time>2011-10-09T13:57:37Z</time>
      </trkpt>
      <trkpt lat="43.65043" lon="3.50195">
        <ele>71.76</ele>
        <time>2011-10-09T13:57:38Z</time>
      </trkpt>
      <trkpt lat="43.65039" lon="3.5018">
        <ele>72.24</ele>
        <time>2011-10-09T13:57:39Z</time>
      </trkpt>
      <trkpt lat="43.65034" lon="3.50165">
        <ele>72.24</ele>
        <time>2011-10-09T13:57:40Z</time>
      </trkpt>
      <trkpt lat="43.64969" lon="3.49958">
        <ele>73.2</ele>
        <time>2011-10-09T13:57:52Z</time>
      </trkpt>
      <trkpt lat="43.649" lon="3.49747">
        <ele>75.12</ele>
        <time>2011-10-09T13:58:02Z</time>
      </trkpt>
      <trkpt lat="43.64859" lon="3.49598">
        <ele>75.12</ele>
        <time>2011-10-09T13:58:10Z</time>
      </trkpt>
      <trkpt lat="43.64854" lon="3.49586">
        <ele>75.6</ele>
        <time>2011-10-09T13:58:11Z</time>
      </trkpt>
      <trkpt lat="43.64848" lon="3.49575">
        <ele>75.12</ele>
        <time>2011-10-09T13:58:12Z</time>
      </trkpt>
      <trkpt lat="43.64841" lon="3.49563">
        <ele>75.12</ele>
        <time>2011-10-09T13:58:13Z</time>
      </trkpt>
      <trkpt lat="43.64835" lon="3.49548">
        <ele>75.12</ele>
        <time>2011-10-09T13:58:14Z</time>
      </trkpt>
      <trkpt lat="43.6483" lon="3.49529">
        <ele>75.12</ele>
        <time>2011-10-09T13:58:15Z</time>
      </trkpt>
      <trkpt lat="43.64825" lon="3.49507">
        <ele>74.64</ele>
        <time>2011-10-09T13:58:16Z</time>
      </trkpt>
      <trkpt lat="43.64762" lon="3.49308">
        <ele>73.2</ele>
        <time>2011-10-09T13:58:24Z</time>
      </trkpt>
      <trkpt lat="43.64697" lon="3.49029">
        <ele>72.72</ele>
        <time>2011-10-09T13:58:32Z</time>
      </trkpt>
      <trkpt lat="43.64639" lon="3.48671">
        <ele>71.27</ele>
        <time>2011-10-09T13:58:41Z</time>
      </trkpt>
      <trkpt lat="43.64553" lon="3.48138">
        <ele>73.2</ele>
        <time>2011-10-09T13:58:55Z</time>
      </trkpt>
      <trkpt lat="43.6446" lon="3.47556">
        <ele>74.16</ele>
        <time>2011-10-09T13:59:11Z</time>
      </trkpt>
      <trkpt lat="43.64409" lon="3.47251">
        <ele>68.39</ele>
        <time>2011-10-09T13:59:21Z</time>
      </trkpt>
      <trkpt lat="43.64361" lon="3.46933">
        <ele>65.99</ele>
        <time>2011-10-09T13:59:30Z</time>
      </trkpt>
      <trkpt lat="43.64368" lon="3.46731">
        <ele>65.99</ele>
        <time>2011-10-09T13:59:36Z</time>
      </trkpt>
      <trkpt lat="43.64383" lon="3.4662">
        <ele>65.51</ele>
        <time>2011-10-09T13:59:41Z</time>
      </trkpt>
      <trkpt lat="43.64403" lon="3.46476">
        <ele>65.51</ele>
        <time>2011-10-09T13:59:50Z</time>
      </trkpt>
      <trkpt lat="43.64431" lon="3.4628">
        <ele>65.51</ele>
        <time>2011-10-09T14:00:06Z</time>
      </trkpt>
      <trkpt lat="43.64447" lon="3.46164">
        <ele>66.47</ele>
        <time>2011-10-09T14:00:17Z</time>
      </trkpt>
      <trkpt lat="43.64463" lon="3.46047">
        <ele>66.95</ele>
        <time>2011-10-09T14:00:26Z</time>
      </trkpt>
      <trkpt lat="43.64478" lon="3.45979">
        <ele>66.95</ele>
        <time>2011-10-09T14:00:31Z</time>
      </trkpt>
      <trkpt lat="43.64483" lon="3.45967">
        <ele>66.95</ele>
        <time>2011-10-09T14:00:32Z</time>
      </trkpt>
      <trkpt lat="43.6449" lon="3.45956">
        <ele>66.95</ele>
        <time>2011-10-09T14:00:33Z</time>
      </trkpt>
      <trkpt lat="43.64516" lon="3.4591">
        <ele>66.95</ele>
        <time>2011-10-09T14:00:37Z</time>
      </trkpt>
      <trkpt lat="43.64521" lon="3.45897">
        <ele>66.95</ele>
        <time>2011-10-09T14:00:38Z</time>
      </trkpt>
      <trkpt lat="43.64525" lon="3.45884">
        <ele>67.43</ele>
        <time>2011-10-09T14:00:39Z</time>
      </trkpt>
      <trkpt lat="43.64527" lon="3.45869">
        <ele>67.43</ele>
        <time>2011-10-09T14:00:40Z</time>
      </trkpt>
      <trkpt lat="43.64528" lon="3.45855">
        <ele>67.43</ele>
        <time>2011-10-09T14:00:41Z</time>
      </trkpt>
      <trkpt lat="43.64532" lon="3.45791">
        <ele>68.39</ele>
        <time>2011-10-09T14:00:46Z</time>
      </trkpt>
      <trkpt lat="43.64533" lon="3.45784">
        <ele>68.39</ele>
        <time>2011-10-09T14:00:47Z</time>
      </trkpt>
      <trkpt lat="43.64535" lon="3.4577">
        <ele>68.87</ele>
        <time>2011-10-09T14:00:49Z</time>
      </trkpt>
      <trkpt lat="43.64533" lon="3.45761">
        <ele>68.87</ele>
        <time>2011-10-09T14:00:50Z</time>
      </trkpt>
      <trkpt lat="43.64529" lon="3.4575">
        <ele>69.35</ele>
        <time>2011-10-09T14:00:51Z</time>
      </trkpt>
      <trkpt lat="43.6446" lon="3.45623">
        <ele>70.31</ele>
        <time>2011-10-09T14:01:01Z</time>
      </trkpt>
      <trkpt lat="43.64407" lon="3.45523">
        <ele>69.83</ele>
        <time>2011-10-09T14:01:10Z</time>
      </trkpt>
      <trkpt lat="43.64404" lon="3.45511">
        <ele>69.35</ele>
        <time>2011-10-09T14:01:11Z</time>
      </trkpt>
      <trkpt lat="43.64403" lon="3.45498">
        <ele>69.35</ele>
        <time>2011-10-09T14:01:12Z</time>
      </trkpt>
      <trkpt lat="43.64402" lon="3.45484">
        <ele>68.87</ele>
        <time>2011-10-09T14:01:13Z</time>
      </trkpt>
      <trkpt lat="43.64404" lon="3.45469">
        <ele>68.39</ele>
        <time>2011-10-09T14:01:14Z</time>
      </trkpt>
      <trkpt lat="43.64407" lon="3.45454">
        <ele>68.39</ele>
        <time>2011-10-09T14:01:15Z</time>
      </trkpt>
      <trkpt lat="43.64412" lon="3.45439">
        <ele>67.91</ele>
        <time>2011-10-09T14:01:16Z</time>
      </trkpt>
      <trkpt lat="43.64418" lon="3.45425">
        <ele>67.43</ele>
        <time>2011-10-09T14:01:17Z</time>
      </trkpt>
      <trkpt lat="43.64424" lon="3.4541">
        <ele>66.95</ele>
        <time>2011-10-09T14:01:18Z</time>
      </trkpt>
      <trkpt lat="43.6447" lon="3.45258">
        <ele>63.1</ele>
        <time>2011-10-09T14:01:27Z</time>
      </trkpt>
      <trkpt lat="43.64484" lon="3.45202">
        <ele>63.1</ele>
        <time>2011-10-09T14:01:31Z</time>
      </trkpt>
      <trkpt lat="43.64489" lon="3.45192">
        <ele>63.1</ele>
        <time>2011-10-09T14:01:32Z</time>
      </trkpt>
      <trkpt lat="43.64493" lon="3.45183">
        <ele>63.58</ele>
        <time>2011-10-09T14:01:33Z</time>
      </trkpt>
      <trkpt lat="43.64495" lon="3.45173">
        <ele>63.58</ele>
        <time>2011-10-09T14:01:34Z</time>
      </trkpt>
      <trkpt lat="43.64494" lon="3.45163">
        <ele>63.58</ele>
        <time>2011-10-09T14:01:35Z</time>
      </trkpt>
      <trkpt lat="43.6449" lon="3.45153">
        <ele>63.58</ele>
        <time>2011-10-09T14:01:36Z</time>
      </trkpt>
      <trkpt lat="43.64481" lon="3.45144">
        <ele>63.58</ele>
        <time>2011-10-09T14:01:37Z</time>
      </trkpt>
      <trkpt lat="43.64473" lon="3.45131">
        <ele>63.1</ele>
        <time>2011-10-09T14:01:38Z</time>
      </trkpt>
      <trkpt lat="43.64466" lon="3.45115">
        <ele>62.62</ele>
        <time>2011-10-09T14:01:39Z</time>
      </trkpt>
      <trkpt lat="43.64458" lon="3.45097">
        <ele>61.66</ele>
        <time>2011-10-09T14:01:40Z</time>
      </trkpt>
      <trkpt lat="43.64452" lon="3.45076">
        <ele>61.66</ele>
        <time>2011-10-09T14:01:41Z</time>
      </trkpt>
      <trkpt lat="43.64388" lon="3.4485">
        <ele>60.22</ele>
        <time>2011-10-09T14:01:51Z</time>
      </trkpt>
      <trkpt lat="43.64367" lon="3.44677">
        <ele>59.26</ele>
        <time>2011-10-09T14:01:58Z</time>
      </trkpt>
      <trkpt lat="43.64359" lon="3.44652">
        <ele>59.26</ele>
        <time>2011-10-09T14:01:59Z</time>
      </trkpt>
      <trkpt lat="43.64346" lon="3.44627">
        <ele>59.26</ele>
        <time>2011-10-09T14:02:00Z</time>
      </trkpt>
      <trkpt lat="43.64331" lon="3.44606">
        <ele>59.74</ele>
        <time>2011-10-09T14:02:01Z</time>
      </trkpt>
      <trkpt lat="43.64315" lon="3.44588">
        <ele>60.22</ele>
        <time>2011-10-09T14:02:02Z</time>
      </trkpt>
      <trkpt lat="43.64296" lon="3.44572">
        <ele>60.7</ele>
        <time>2011-10-09T14:02:03Z</time>
      </trkpt>
      <trkpt lat="43.64275" lon="3.44563">
        <ele>60.7</ele>
        <time>2011-10-09T14:02:04Z</time>
      </trkpt>
      <trkpt lat="43.64252" lon="3.4456">
        <ele>61.66</ele>
        <time>2011-10-09T14:02:05Z</time>
      </trkpt>
      <trkpt lat="43.6423" lon="3.44558">
        <ele>63.58</ele>
        <time>2011-10-09T14:02:06Z</time>
      </trkpt>
      <trkpt lat="43.64208" lon="3.44558">
        <ele>65.51</ele>
        <time>2011-10-09T14:02:07Z</time>
      </trkpt>
      <trkpt lat="43.6414" lon="3.4455">
        <ele>67.91</ele>
        <time>2011-10-09T14:02:10Z</time>
      </trkpt>
      <trkpt lat="43.64118" lon="3.44541">
        <ele>68.39</ele>
        <time>2011-10-09T14:02:11Z</time>
      </trkpt>
      <trkpt lat="43.64096" lon="3.4453">
        <ele>69.35</ele>
        <time>2011-10-09T14:02:12Z</time>
      </trkpt>
      <trkpt lat="43.64074" lon="3.44516">
        <ele>69.83</ele>
        <time>2011-10-09T14:02:13Z</time>
      </trkpt>
      <trkpt lat="43.64055" lon="3.44498">
        <ele>70.31</ele>
        <time>2011-10-09T14:02:14Z</time>
      </trkpt>
      <trkpt lat="43.64035" lon="3.44478">
        <ele>70.79</ele>
        <time>2011-10-09T14:02:15Z</time>
      </trkpt>
      <trkpt lat="43.64017" lon="3.44456">
        <ele>71.27</ele>
        <time>2011-10-09T14:02:16Z</time>
      </trkpt>
      <trkpt lat="43.63823" lon="3.44258">
        <ele>78.97</ele>
        <time>2011-10-09T14:02:26Z</time>
      </trkpt>
      <trkpt lat="43.63803" lon="3.44246">
        <ele>80.41</ele>
        <time>2011-10-09T14:02:27Z</time>
      </trkpt>
      <trkpt lat="43.63783" lon="3.44237">
        <ele>81.85</ele>
        <time>2011-10-09T14:02:28Z</time>
      </trkpt>
      <trkpt lat="43.63762" lon="3.44231">
        <ele>83.29</ele>
        <time>2011-10-09T14:02:29Z</time>
      </trkpt>
      <trkpt lat="43.63741" lon="3.44226">
        <ele>84.73</ele>
        <time>2011-10-09T14:02:30Z</time>
      </trkpt>
      <trkpt lat="43.63603" lon="3.44183">
        <ele>89.06</ele>
        <time>2011-10-09T14:02:37Z</time>
      </trkpt>
      <trkpt lat="43.63414" lon="3.44077">
        <ele>90.98</ele>
        <time>2011-10-09T14:02:47Z</time>
      </trkpt>
      <trkpt lat="43.63328" lon="3.44027">
        <ele>90.5</ele>
        <time>2011-10-09T14:02:54Z</time>
      </trkpt>
      <trkpt lat="43.63318" lon="3.44017">
        <ele>90.5</ele>
        <time>2011-10-09T14:02:55Z</time>
      </trkpt>
      <trkpt lat="43.6331" lon="3.44005">
        <ele>90.5</ele>
        <time>2011-10-09T14:02:56Z</time>
      </trkpt>
      <trkpt lat="43.63303" lon="3.43991">
        <ele>90.98</ele>
        <time>2011-10-09T14:02:57Z</time>
      </trkpt>
      <trkpt lat="43.63295" lon="3.43977">
        <ele>91.46</ele>
        <time>2011-10-09T14:02:58Z</time>
      </trkpt>
      <trkpt lat="43.63287" lon="3.43964">
        <ele>91.46</ele>
        <time>2011-10-09T14:02:59Z</time>
      </trkpt>
      <trkpt lat="43.63217" lon="3.43821">
        <ele>92.9</ele>
        <time>2011-10-09T14:03:08Z</time>
      </trkpt>
      <trkpt lat="43.63124" lon="3.43639">
        <ele>93.87</ele>
        <time>2011-10-09T14:03:19Z</time>
      </trkpt>
      <trkpt lat="43.63046" lon="3.4357">
        <ele>96.75</ele>
        <time>2011-10-09T14:03:26Z</time>
      </trkpt>
      <trkpt lat="43.62931" lon="3.43477">
        <ele>98.67</ele>
        <time>2011-10-09T14:03:37Z</time>
      </trkpt>
      <trkpt lat="43.62921" lon="3.43473">
        <ele>99.15</ele>
        <time>2011-10-09T14:03:38Z</time>
      </trkpt>
      <trkpt lat="43.62911" lon="3.43469">
        <ele>99.63</ele>
        <time>2011-10-09T14:03:39Z</time>
      </trkpt>
      <trkpt lat="43.62793" lon="3.43427">
        <ele>106.36</ele>
        <time>2011-10-09T14:03:50Z</time>
      </trkpt>
      <trkpt lat="43.62717" lon="3.43399">
        <ele>112.61</ele>
        <time>2011-10-09T14:03:59Z</time>
      </trkpt>
      <trkpt lat="43.62695" lon="3.43388">
        <ele>112.61</ele>
        <time>2011-10-09T14:04:05Z</time>
      </trkpt>
      <trkpt lat="43.62643" lon="3.43369">
        <ele>116.46</ele>
        <time>2011-10-09T14:04:13Z</time>
      </trkpt>
      <trkpt lat="43.6256" lon="3.43338">
        <ele>119.82</ele>
        <time>2011-10-09T14:04:23Z</time>
      </trkpt>
      <trkpt lat="43.62553" lon="3.43335">
        <ele>120.3</ele>
        <time>2011-10-09T14:04:24Z</time>
      </trkpt>
      <trkpt lat="43.62547" lon="3.43333">
        <ele>120.3</ele>
        <time>2011-10-09T14:04:25Z</time>
      </trkpt>
      <trkpt lat="43.62542" lon="3.43331">
        <ele>120.78</ele>
        <time>2011-10-09T14:04:26Z</time>
      </trkpt>
      <trkpt lat="43.62536" lon="3.43326">
        <ele>117.42</ele>
        <time>2011-10-09T14:04:29Z</time>
      </trkpt>
      <trkpt lat="43.62536" lon="3.43321">
        <ele>115.5</ele>
        <time>2011-10-09T14:04:30Z</time>
      </trkpt>
      <trkpt lat="43.62536" lon="3.43315">
        <ele>114.53</ele>
        <time>2011-10-09T14:04:31Z</time>
      </trkpt>
      <trkpt lat="43.62537" lon="3.43306">
        <ele>113.57</ele>
        <time>2011-10-09T14:04:32Z</time>
      </trkpt>
      <trkpt lat="43.62539" lon="3.43298">
        <ele>113.09</ele>
        <time>2011-10-09T14:04:33Z</time>
      </trkpt>
      <trkpt lat="43.62551" lon="3.43258">
        <ele>110.21</ele>
        <time>2011-10-09T14:04:42Z</time>
      </trkpt>
      <trkpt lat="43.6255" lon="3.43256">
        <ele>109.73</ele>
        <time>2011-10-09T14:05:52Z</time>
      </trkpt>
      <trkpt lat="43.62559" lon="3.43232">
        <ele>110.21</ele>
        <time>2011-10-09T14:06:17Z</time>
      </trkpt>
      <trkpt lat="43.62574" lon="3.43181">
        <ele>110.69</ele>
        <time>2011-10-09T14:06:26Z</time>
      </trkpt>
      <trkpt lat="43.62579" lon="3.43157">
        <ele>110.21</ele>
        <time>2011-10-09T14:06:33Z</time>
      </trkpt>
      <trkpt lat="43.62589" lon="3.43117">
        <ele>110.69</ele>
        <time>2011-10-09T14:06:42Z</time>
      </trkpt>
      <trkpt lat="43.62598" lon="3.43053">
        <ele>110.69</ele>
        <time>2011-10-09T14:06:51Z</time>
      </trkpt>
      <trkpt lat="43.62602" lon="3.42935">
        <ele>114.53</ele>
        <time>2011-10-09T14:07:01Z</time>
      </trkpt>
      <trkpt lat="43.62589" lon="3.42768">
        <ele>118.38</ele>
        <time>2011-10-09T14:07:14Z</time>
      </trkpt>
      <trkpt lat="43.62576" lon="3.42625">
        <ele>119.82</ele>
        <time>2011-10-09T14:07:24Z</time>
      </trkpt>
      <trkpt lat="43.62579" lon="3.42583">
        <ele>120.78</ele>
        <time>2011-10-09T14:07:29Z</time>
      </trkpt>
      <trkpt lat="43.62581" lon="3.42577">
        <ele>120.3</ele>
        <time>2011-10-09T14:07:30Z</time>
      </trkpt>
      <trkpt lat="43.62584" lon="3.42565">
        <ele>120.3</ele>
        <time>2011-10-09T14:07:32Z</time>
      </trkpt>
      <trkpt lat="43.62584" lon="3.42558">
        <ele>120.3</ele>
        <time>2011-10-09T14:07:33Z</time>
      </trkpt>
      <trkpt lat="43.62581" lon="3.42552">
        <ele>120.3</ele>
        <time>2011-10-09T14:07:34Z</time>
      </trkpt>
      <trkpt lat="43.62578" lon="3.42543">
        <ele>120.3</ele>
        <time>2011-10-09T14:07:35Z</time>
      </trkpt>
      <trkpt lat="43.62576" lon="3.42533">
        <ele>120.3</ele>
        <time>2011-10-09T14:07:36Z</time>
      </trkpt>
      <trkpt lat="43.62575" lon="3.42521">
        <ele>120.78</ele>
        <time>2011-10-09T14:07:37Z</time>
      </trkpt>
      <trkpt lat="43.62575" lon="3.42509">
        <ele>120.78</ele>
        <time>2011-10-09T14:07:38Z</time>
      </trkpt>
      <trkpt lat="43.62575" lon="3.42355">
        <ele>126.07</ele>
        <time>2011-10-09T14:07:48Z</time>
      </trkpt>
      <trkpt lat="43.6257" lon="3.42252">
        <ele>128.95</ele>
        <time>2011-10-09T14:07:55Z</time>
      </trkpt>
      <trkpt lat="43.62566" lon="3.42234">
        <ele>129.43</ele>
        <time>2011-10-09T14:07:56Z</time>
      </trkpt>
      <trkpt lat="43.62561" lon="3.42216">
        <ele>129.92</ele>
        <time>2011-10-09T14:07:57Z</time>
      </trkpt>
      <trkpt lat="43.62554" lon="3.42198">
        <ele>130.4</ele>
        <time>2011-10-09T14:07:58Z</time>
      </trkpt>
      <trkpt lat="43.62546" lon="3.42179">
        <ele>130.88</ele>
        <time>2011-10-09T14:07:59Z</time>
      </trkpt>
      <trkpt lat="43.62483" lon="3.42027">
        <ele>134.24</ele>
        <time>2011-10-09T14:08:07Z</time>
      </trkpt>
      <trkpt lat="43.62478" lon="3.42003">
        <ele>134.72</ele>
        <time>2011-10-09T14:08:08Z</time>
      </trkpt>
      <trkpt lat="43.62473" lon="3.41979">
        <ele>135.68</ele>
        <time>2011-10-09T14:08:09Z</time>
      </trkpt>
      <trkpt lat="43.6245" lon="3.41811">
        <ele>139.53</ele>
        <time>2011-10-09T14:08:17Z</time>
      </trkpt>
      <trkpt lat="43.62411" lon="3.41725">
        <ele>142.89</ele>
        <time>2011-10-09T14:08:23Z</time>
      </trkpt>
      <trkpt lat="43.62403" lon="3.41707">
        <ele>143.37</ele>
        <time>2011-10-09T14:08:25Z</time>
      </trkpt>
      <trkpt lat="43.624" lon="3.41698">
        <ele>143.37</ele>
        <time>2011-10-09T14:08:26Z</time>
      </trkpt>
      <trkpt lat="43.62395" lon="3.41683">
        <ele>143.37</ele>
        <time>2011-10-09T14:08:28Z</time>
      </trkpt>
      <trkpt lat="43.62391" lon="3.41675">
        <ele>144.34</ele>
        <time>2011-10-09T14:08:29Z</time>
      </trkpt>
      <trkpt lat="43.62385" lon="3.41669">
        <ele>144.82</ele>
        <time>2011-10-09T14:08:30Z</time>
      </trkpt>
      <trkpt lat="43.62333" lon="3.41592">
        <ele>147.22</ele>
        <time>2011-10-09T14:08:37Z</time>
      </trkpt>
      <trkpt lat="43.62242" lon="3.41431">
        <ele>151.54</ele>
        <time>2011-10-09T14:08:47Z</time>
      </trkpt>
      <trkpt lat="43.62123" lon="3.41234">
        <ele>158.75</ele>
        <time>2011-10-09T14:08:58Z</time>
      </trkpt>
      <trkpt lat="43.62019" lon="3.41149">
        <ele>164.04</ele>
        <time>2011-10-09T14:09:05Z</time>
      </trkpt>
      <trkpt lat="43.61818" lon="3.41029">
        <ele>167.89</ele>
        <time>2011-10-09T14:09:18Z</time>
      </trkpt>
      <trkpt lat="43.61686" lon="3.40944">
        <ele>159.72</ele>
        <time>2011-10-09T14:09:24Z</time>
      </trkpt>
      <trkpt lat="43.61562" lon="3.40867">
        <ele>152.51</ele>
        <time>2011-10-09T14:09:29Z</time>
      </trkpt>
      <trkpt lat="43.6139" lon="3.4075">
        <ele>143.85</ele>
        <time>2011-10-09T14:09:36Z</time>
      </trkpt>
      <trkpt lat="43.61271" lon="3.40605">
        <ele>138.57</ele>
        <time>2011-10-09T14:09:42Z</time>
      </trkpt>
      <trkpt lat="43.61063" lon="3.40322">
        <ele>134.24</ele>
        <time>2011-10-09T14:09:54Z</time>
      </trkpt>
      <trkpt lat="43.60977" lon="3.40204">
        <ele>134.72</ele>
        <time>2011-10-09T14:10:02Z</time>
      </trkpt>
      <trkpt lat="43.60967" lon="3.40193">
        <ele>134.24</ele>
        <time>2011-10-09T14:10:03Z</time>
      </trkpt>
      <trkpt lat="43.60956" lon="3.40187">
        <ele>134.24</ele>
        <time>2011-10-09T14:10:04Z</time>
      </trkpt>
      <trkpt lat="43.60945" lon="3.40182">
        <ele>134.24</ele>
        <time>2011-10-09T14:10:05Z</time>
      </trkpt>
      <trkpt lat="43.60934" lon="3.40179">
        <ele>134.24</ele>
        <time>2011-10-09T14:10:06Z</time>
      </trkpt>
      <trkpt lat="43.60924" lon="3.40175">
        <ele>133.76</ele>
        <time>2011-10-09T14:10:07Z</time>
      </trkpt>
      <trkpt lat="43.60916" lon="3.40169">
        <ele>133.28</ele>
        <time>2011-10-09T14:10:08Z</time>
      </trkpt>
      <trkpt lat="43.60911" lon="3.40157">
        <ele>133.76</ele>
        <time>2011-10-09T14:10:09Z</time>
      </trkpt>
      <trkpt lat="43.60906" lon="3.40143">
        <ele>133.28</ele>
        <time>2011-10-09T14:10:10Z</time>
      </trkpt>
      <trkpt lat="43.60901" lon="3.40129">
        <ele>133.28</ele>
        <time>2011-10-09T14:10:11Z</time>
      </trkpt>
      <trkpt lat="43.60898" lon="3.40114">
        <ele>133.28</ele>
        <time>2011-10-09T14:10:12Z</time>
      </trkpt>
      <trkpt lat="43.60897" lon="3.40098">
        <ele>133.76</ele>
        <time>2011-10-09T14:10:13Z</time>
      </trkpt>
      <trkpt lat="43.60899" lon="3.40081">
        <ele>134.72</ele>
        <time>2011-10-09T14:10:14Z</time>
      </trkpt>
      <trkpt lat="43.60902" lon="3.40064">
        <ele>135.2</ele>
        <time>2011-10-09T14:10:15Z</time>
      </trkpt>
      <trkpt lat="43.60905" lon="3.40048">
        <ele>135.68</ele>
        <time>2011-10-09T14:10:16Z</time>
      </trkpt>
      <trkpt lat="43.60907" lon="3.40032">
        <ele>135.68</ele>
        <time>2011-10-09T14:10:17Z</time>
      </trkpt>
      <trkpt lat="43.60907" lon="3.40015">
        <ele>136.16</ele>
        <time>2011-10-09T14:10:18Z</time>
      </trkpt>
      <trkpt lat="43.60905" lon="3.39999">
        <ele>136.64</ele>
        <time>2011-10-09T14:10:19Z</time>
      </trkpt>
      <trkpt lat="43.60902" lon="3.39982">
        <ele>137.13</ele>
        <time>2011-10-09T14:10:20Z</time>
      </trkpt>
      <trkpt lat="43.60898" lon="3.39965">
        <ele>137.61</ele>
        <time>2011-10-09T14:10:21Z</time>
      </trkpt>
      <trkpt lat="43.60875" lon="3.39858">
        <ele>140.49</ele>
        <time>2011-10-09T14:10:27Z</time>
      </trkpt>
      <trkpt lat="43.60875" lon="3.39839">
        <ele>140.97</ele>
        <time>2011-10-09T14:10:28Z</time>
      </trkpt>
      <trkpt lat="43.60876" lon="3.39819">
        <ele>141.45</ele>
        <time>2011-10-09T14:10:29Z</time>
      </trkpt>
      <trkpt lat="43.60886" lon="3.39704">
        <ele>143.85</ele>
        <time>2011-10-09T14:10:35Z</time>
      </trkpt>
      <trkpt lat="43.60889" lon="3.39686">
        <ele>143.85</ele>
        <time>2011-10-09T14:10:36Z</time>
      </trkpt>
      <trkpt lat="43.60893" lon="3.39668">
        <ele>143.85</ele>
        <time>2011-10-09T14:10:37Z</time>
      </trkpt>
      <trkpt lat="43.60899" lon="3.39651">
        <ele>143.85</ele>
        <time>2011-10-09T14:10:38Z</time>
      </trkpt>
      <trkpt lat="43.60908" lon="3.39636">
        <ele>144.34</ele>
        <time>2011-10-09T14:10:39Z</time>
      </trkpt>
      <trkpt lat="43.60918" lon="3.39621">
        <ele>144.82</ele>
        <time>2011-10-09T14:10:40Z</time>
      </trkpt>
      <trkpt lat="43.60931" lon="3.39608">
        <ele>144.82</ele>
        <time>2011-10-09T14:10:41Z</time>
      </trkpt>
      <trkpt lat="43.60945" lon="3.39596">
        <ele>145.3</ele>
        <time>2011-10-09T14:10:42Z</time>
      </trkpt>
      <trkpt lat="43.61076" lon="3.39472">
        <ele>150.1</ele>
        <time>2011-10-09T14:10:51Z</time>
      </trkpt>
      <trkpt lat="43.61086" lon="3.39455">
        <ele>150.1</ele>
        <time>2011-10-09T14:10:52Z</time>
      </trkpt>
      <trkpt lat="43.61095" lon="3.39438">
        <ele>150.58</ele>
        <time>2011-10-09T14:10:53Z</time>
      </trkpt>
      <trkpt lat="43.61102" lon="3.3942">
        <ele>151.06</ele>
        <time>2011-10-09T14:10:54Z</time>
      </trkpt>
      <trkpt lat="43.61107" lon="3.394">
        <ele>151.54</ele>
        <time>2011-10-09T14:10:55Z</time>
      </trkpt>
      <trkpt lat="43.61109" lon="3.39379">
        <ele>152.03</ele>
        <time>2011-10-09T14:10:56Z</time>
      </trkpt>
      <trkpt lat="43.6111" lon="3.39357">
        <ele>152.99</ele>
        <time>2011-10-09T14:10:57Z</time>
      </trkpt>
      <trkpt lat="43.61109" lon="3.39334">
        <ele>153.47</ele>
        <time>2011-10-09T14:10:58Z</time>
      </trkpt>
      <trkpt lat="43.61107" lon="3.39309">
        <ele>154.43</ele>
        <time>2011-10-09T14:10:59Z</time>
      </trkpt>
      <trkpt lat="43.61098" lon="3.39175">
        <ele>155.87</ele>
        <time>2011-10-09T14:11:04Z</time>
      </trkpt>
      <trkpt lat="43.611" lon="3.39149">
        <ele>156.83</ele>
        <time>2011-10-09T14:11:05Z</time>
      </trkpt>
      <trkpt lat="43.61104" lon="3.39125">
        <ele>156.83</ele>
        <time>2011-10-09T14:11:06Z</time>
      </trkpt>
      <trkpt lat="43.61108" lon="3.39103">
        <ele>157.31</ele>
        <time>2011-10-09T14:11:07Z</time>
      </trkpt>
      <trkpt lat="43.61109" lon="3.39082">
        <ele>157.79</ele>
        <time>2011-10-09T14:11:08Z</time>
      </trkpt>
      <trkpt lat="43.61106" lon="3.3906">
        <ele>158.27</ele>
        <time>2011-10-09T14:11:09Z</time>
      </trkpt>
      <trkpt lat="43.61101" lon="3.39038">
        <ele>158.75</ele>
        <time>2011-10-09T14:11:10Z</time>
      </trkpt>
      <trkpt lat="43.61094" lon="3.39014">
        <ele>158.75</ele>
        <time>2011-10-09T14:11:11Z</time>
      </trkpt>
      <trkpt lat="43.61069" lon="3.38855">
        <ele>161.64</ele>
        <time>2011-10-09T14:11:17Z</time>
      </trkpt>
      <trkpt lat="43.61064" lon="3.38832">
        <ele>162.12</ele>
        <time>2011-10-09T14:11:18Z</time>
      </trkpt>
      <trkpt lat="43.61057" lon="3.3881">
        <ele>162.6</ele>
        <time>2011-10-09T14:11:19Z</time>
      </trkpt>
      <trkpt lat="43.61046" lon="3.38794">
        <ele>162.6</ele>
        <time>2011-10-09T14:11:20Z</time>
      </trkpt>
      <trkpt lat="43.61032" lon="3.38783">
        <ele>162.6</ele>
        <time>2011-10-09T14:11:21Z</time>
      </trkpt>
      <trkpt lat="43.61018" lon="3.38773">
        <ele>162.6</ele>
        <time>2011-10-09T14:11:22Z</time>
      </trkpt>
      <trkpt lat="43.61" lon="3.38768">
        <ele>163.08</ele>
        <time>2011-10-09T14:11:23Z</time>
      </trkpt>
      <trkpt lat="43.60982" lon="3.38762">
        <ele>163.08</ele>
        <time>2011-10-09T14:11:24Z</time>
      </trkpt>
      <trkpt lat="43.60951" lon="3.38746">
        <ele>163.08</ele>
        <time>2011-10-09T14:11:26Z</time>
      </trkpt>
      <trkpt lat="43.60939" lon="3.38736">
        <ele>163.56</ele>
        <time>2011-10-09T14:11:27Z</time>
      </trkpt>
      <trkpt lat="43.6093" lon="3.38721">
        <ele>163.56</ele>
        <time>2011-10-09T14:11:28Z</time>
      </trkpt>
      <trkpt lat="43.60924" lon="3.387">
        <ele>164.04</ele>
        <time>2011-10-09T14:11:29Z</time>
      </trkpt>
      <trkpt lat="43.60919" lon="3.38676">
        <ele>164.04</ele>
        <time>2011-10-09T14:11:30Z</time>
      </trkpt>
      <trkpt lat="43.60916" lon="3.38652">
        <ele>164.04</ele>
        <time>2011-10-09T14:11:31Z</time>
      </trkpt>
      <trkpt lat="43.60917" lon="3.38627">
        <ele>164.52</ele>
        <time>2011-10-09T14:11:32Z</time>
      </trkpt>
      <trkpt lat="43.60921" lon="3.38601">
        <ele>165</ele>
        <time>2011-10-09T14:11:33Z</time>
      </trkpt>
      <trkpt lat="43.60927" lon="3.38574">
        <ele>165</ele>
        <time>2011-10-09T14:11:34Z</time>
      </trkpt>
      <trkpt lat="43.60935" lon="3.38547">
        <ele>165.48</ele>
        <time>2011-10-09T14:11:35Z</time>
      </trkpt>
      <trkpt lat="43.60969" lon="3.38451">
        <ele>167.41</ele>
        <time>2011-10-09T14:11:39Z</time>
      </trkpt>
      <trkpt lat="43.60973" lon="3.38427">
        <ele>167.89</ele>
        <time>2011-10-09T14:11:40Z</time>
      </trkpt>
      <trkpt lat="43.60975" lon="3.38403">
        <ele>168.37</ele>
        <time>2011-10-09T14:11:41Z</time>
      </trkpt>
      <trkpt lat="43.60974" lon="3.38379">
        <ele>169.33</ele>
        <time>2011-10-09T14:11:42Z</time>
      </trkpt>
      <trkpt lat="43.6097" lon="3.38355">
        <ele>170.29</ele>
        <time>2011-10-09T14:11:43Z</time>
      </trkpt>
      <trkpt lat="43.6096" lon="3.38333">
        <ele>170.77</ele>
        <time>2011-10-09T14:11:44Z</time>
      </trkpt>
      <trkpt lat="43.60947" lon="3.38313">
        <ele>171.25</ele>
        <time>2011-10-09T14:11:45Z</time>
      </trkpt>
      <trkpt lat="43.60929" lon="3.38293">
        <ele>171.25</ele>
        <time>2011-10-09T14:11:46Z</time>
      </trkpt>
      <trkpt lat="43.6091" lon="3.38274">
        <ele>172.21</ele>
        <time>2011-10-09T14:11:47Z</time>
      </trkpt>
      <trkpt lat="43.60865" lon="3.38213">
        <ele>174.62</ele>
        <time>2011-10-09T14:11:50Z</time>
      </trkpt>
      <trkpt lat="43.60854" lon="3.3819">
        <ele>175.58</ele>
        <time>2011-10-09T14:11:51Z</time>
      </trkpt>
      <trkpt lat="43.60847" lon="3.38164">
        <ele>176.54</ele>
        <time>2011-10-09T14:11:52Z</time>
      </trkpt>
      <trkpt lat="43.60845" lon="3.38134">
        <ele>177.5</ele>
        <time>2011-10-09T14:11:53Z</time>
      </trkpt>
      <trkpt lat="43.60845" lon="3.38105">
        <ele>178.46</ele>
        <time>2011-10-09T14:11:54Z</time>
      </trkpt>
      <trkpt lat="43.60848" lon="3.38077">
        <ele>179.42</ele>
        <time>2011-10-09T14:11:55Z</time>
      </trkpt>
      <trkpt lat="43.6085" lon="3.38051">
        <ele>180.87</ele>
        <time>2011-10-09T14:11:56Z</time>
      </trkpt>
      <trkpt lat="43.60849" lon="3.38026">
        <ele>181.83</ele>
        <time>2011-10-09T14:11:57Z</time>
      </trkpt>
      <trkpt lat="43.60844" lon="3.38004">
        <ele>183.27</ele>
        <time>2011-10-09T14:11:58Z</time>
      </trkpt>
      <trkpt lat="43.60836" lon="3.37985">
        <ele>184.23</ele>
        <time>2011-10-09T14:11:59Z</time>
      </trkpt>
      <trkpt lat="43.60825" lon="3.37967">
        <ele>185.67</ele>
        <time>2011-10-09T14:12:00Z</time>
      </trkpt>
      <trkpt lat="43.60804" lon="3.37955">
        <ele>186.15</ele>
        <time>2011-10-09T14:12:01Z</time>
      </trkpt>
      <trkpt lat="43.6078" lon="3.37944">
        <ele>187.11</ele>
        <time>2011-10-09T14:12:02Z</time>
      </trkpt>
      <trkpt lat="43.60759" lon="3.37932">
        <ele>188.08</ele>
        <time>2011-10-09T14:12:03Z</time>
      </trkpt>
      <trkpt lat="43.60738" lon="3.37919">
        <ele>189.04</ele>
        <time>2011-10-09T14:12:04Z</time>
      </trkpt>
      <trkpt lat="43.60721" lon="3.37905">
        <ele>189.52</ele>
        <time>2011-10-09T14:12:05Z</time>
      </trkpt>
      <trkpt lat="43.60707" lon="3.37887">
        <ele>190.48</ele>
        <time>2011-10-09T14:12:06Z</time>
      </trkpt>
      <trkpt lat="43.60697" lon="3.37865">
        <ele>190.48</ele>
        <time>2011-10-09T14:12:07Z</time>
      </trkpt>
      <trkpt lat="43.60689" lon="3.37841">
        <ele>190.96</ele>
        <time>2011-10-09T14:12:08Z</time>
      </trkpt>
      <trkpt lat="43.60685" lon="3.37816">
        <ele>191.44</ele>
        <time>2011-10-09T14:12:09Z</time>
      </trkpt>
      <trkpt lat="43.60684" lon="3.37791">
        <ele>192.4</ele>
        <time>2011-10-09T14:12:10Z</time>
      </trkpt>
      <trkpt lat="43.60683" lon="3.37765">
        <ele>193.36</ele>
        <time>2011-10-09T14:12:11Z</time>
      </trkpt>
      <trkpt lat="43.60681" lon="3.3774">
        <ele>194.32</ele>
        <time>2011-10-09T14:12:12Z</time>
      </trkpt>
      <trkpt lat="43.60674" lon="3.37719">
        <ele>194.8</ele>
        <time>2011-10-09T14:12:13Z</time>
      </trkpt>
      <trkpt lat="43.60662" lon="3.377">
        <ele>195.28</ele>
        <time>2011-10-09T14:12:14Z</time>
      </trkpt>
      <trkpt lat="43.60648" lon="3.37688">
        <ele>195.77</ele>
        <time>2011-10-09T14:12:15Z</time>
      </trkpt>
      <trkpt lat="43.60631" lon="3.37676">
        <ele>196.73</ele>
        <time>2011-10-09T14:12:16Z</time>
      </trkpt>
      <trkpt lat="43.60612" lon="3.37667">
        <ele>197.69</ele>
        <time>2011-10-09T14:12:17Z</time>
      </trkpt>
      <trkpt lat="43.60594" lon="3.37657">
        <ele>198.17</ele>
        <time>2011-10-09T14:12:18Z</time>
      </trkpt>
      <trkpt lat="43.60579" lon="3.37644">
        <ele>198.65</ele>
        <time>2011-10-09T14:12:19Z</time>
      </trkpt>
      <trkpt lat="43.60567" lon="3.37626">
        <ele>199.61</ele>
        <time>2011-10-09T14:12:20Z</time>
      </trkpt>
      <trkpt lat="43.60558" lon="3.37603">
        <ele>200.09</ele>
        <time>2011-10-09T14:12:21Z</time>
      </trkpt>
      <trkpt lat="43.60553" lon="3.37578">
        <ele>200.57</ele>
        <time>2011-10-09T14:12:22Z</time>
      </trkpt>
      <trkpt lat="43.60552" lon="3.37553">
        <ele>201.05</ele>
        <time>2011-10-09T14:12:23Z</time>
      </trkpt>
      <trkpt lat="43.60558" lon="3.37529">
        <ele>202.01</ele>
        <time>2011-10-09T14:12:24Z</time>
      </trkpt>
      <trkpt lat="43.60567" lon="3.37506">
        <ele>202.98</ele>
        <time>2011-10-09T14:12:25Z</time>
      </trkpt>
      <trkpt lat="43.60579" lon="3.37483">
        <ele>203.46</ele>
        <time>2011-10-09T14:12:26Z</time>
      </trkpt>
      <trkpt lat="43.60593" lon="3.37458">
        <ele>204.42</ele>
        <time>2011-10-09T14:12:27Z</time>
      </trkpt>
      <trkpt lat="43.60665" lon="3.3732">
        <ele>208.26</ele>
        <time>2011-10-09T14:12:32Z</time>
      </trkpt>
      <trkpt lat="43.60673" lon="3.37292">
        <ele>208.74</ele>
        <time>2011-10-09T14:12:33Z</time>
      </trkpt>
      <trkpt lat="43.60677" lon="3.37261">
        <ele>209.7</ele>
        <time>2011-10-09T14:12:34Z</time>
      </trkpt>
      <trkpt lat="43.60679" lon="3.37228">
        <ele>210.19</ele>
        <time>2011-10-09T14:12:35Z</time>
      </trkpt>
      <trkpt lat="43.60682" lon="3.37195">
        <ele>211.63</ele>
        <time>2011-10-09T14:12:36Z</time>
      </trkpt>
      <trkpt lat="43.60686" lon="3.37134">
        <ele>213.55</ele>
        <time>2011-10-09T14:12:38Z</time>
      </trkpt>
      <trkpt lat="43.60684" lon="3.37108">
        <ele>214.51</ele>
        <time>2011-10-09T14:12:39Z</time>
      </trkpt>
      <trkpt lat="43.60677" lon="3.37085">
        <ele>215.47</ele>
        <time>2011-10-09T14:12:40Z</time>
      </trkpt>
      <trkpt lat="43.60668" lon="3.37066">
        <ele>216.91</ele>
        <time>2011-10-09T14:12:41Z</time>
      </trkpt>
      <trkpt lat="43.60655" lon="3.37049">
        <ele>217.4</ele>
        <time>2011-10-09T14:12:42Z</time>
      </trkpt>
      <trkpt lat="43.60639" lon="3.37034">
        <ele>218.36</ele>
        <time>2011-10-09T14:12:43Z</time>
      </trkpt>
      <trkpt lat="43.60622" lon="3.37021">
        <ele>218.84</ele>
        <time>2011-10-09T14:12:44Z</time>
      </trkpt>
      <trkpt lat="43.60605" lon="3.37006">
        <ele>218.84</ele>
        <time>2011-10-09T14:12:45Z</time>
      </trkpt>
      <trkpt lat="43.60591" lon="3.36988">
        <ele>219.32</ele>
        <time>2011-10-09T14:12:46Z</time>
      </trkpt>
      <trkpt lat="43.60581" lon="3.36967">
        <ele>219.8</ele>
        <time>2011-10-09T14:12:47Z</time>
      </trkpt>
      <trkpt lat="43.60575" lon="3.36942">
        <ele>220.28</ele>
        <time>2011-10-09T14:12:48Z</time>
      </trkpt>
      <trkpt lat="43.60574" lon="3.36917">
        <ele>220.28</ele>
        <time>2011-10-09T14:12:49Z</time>
      </trkpt>
      <trkpt lat="43.60577" lon="3.3689">
        <ele>221.24</ele>
        <time>2011-10-09T14:12:50Z</time>
      </trkpt>
      <trkpt lat="43.60583" lon="3.36862">
        <ele>221.72</ele>
        <time>2011-10-09T14:12:51Z</time>
      </trkpt>
      <trkpt lat="43.60588" lon="3.36833">
        <ele>222.68</ele>
        <time>2011-10-09T14:12:52Z</time>
      </trkpt>
      <trkpt lat="43.6059" lon="3.36803">
        <ele>223.64</ele>
        <time>2011-10-09T14:12:53Z</time>
      </trkpt>
      <trkpt lat="43.6059" lon="3.36774">
        <ele>224.61</ele>
        <time>2011-10-09T14:12:54Z</time>
      </trkpt>
      <trkpt lat="43.60585" lon="3.36746">
        <ele>225.57</ele>
        <time>2011-10-09T14:12:55Z</time>
      </trkpt>
      <trkpt lat="43.60575" lon="3.36721">
        <ele>226.53</ele>
        <time>2011-10-09T14:12:56Z</time>
      </trkpt>
      <trkpt lat="43.60564" lon="3.36697">
        <ele>227.49</ele>
        <time>2011-10-09T14:12:57Z</time>
      </trkpt>
      <trkpt lat="43.60548" lon="3.36675">
        <ele>228.45</ele>
        <time>2011-10-09T14:12:58Z</time>
      </trkpt>
      <trkpt lat="43.60532" lon="3.36656">
        <ele>228.93</ele>
        <time>2011-10-09T14:12:59Z</time>
      </trkpt>
      <trkpt lat="43.60518" lon="3.36635">
        <ele>229.41</ele>
        <time>2011-10-09T14:13:00Z</time>
      </trkpt>
      <trkpt lat="43.60508" lon="3.36612">
        <ele>229.89</ele>
        <time>2011-10-09T14:13:01Z</time>
      </trkpt>
      <trkpt lat="43.60502" lon="3.36586">
        <ele>230.37</ele>
        <time>2011-10-09T14:13:02Z</time>
      </trkpt>
      <trkpt lat="43.60502" lon="3.3656">
        <ele>231.33</ele>
        <time>2011-10-09T14:13:03Z</time>
      </trkpt>
      <trkpt lat="43.60506" lon="3.36533">
        <ele>232.3</ele>
        <time>2011-10-09T14:13:04Z</time>
      </trkpt>
      <trkpt lat="43.60514" lon="3.36503">
        <ele>232.78</ele>
        <time>2011-10-09T14:13:05Z</time>
      </trkpt>
      <trkpt lat="43.60524" lon="3.36473">
        <ele>233.74</ele>
        <time>2011-10-09T14:13:06Z</time>
      </trkpt>
      <trkpt lat="43.60535" lon="3.36441">
        <ele>234.7</ele>
        <time>2011-10-09T14:13:07Z</time>
      </trkpt>
      <trkpt lat="43.60575" lon="3.36318">
        <ele>237.1</ele>
        <time>2011-10-09T14:13:11Z</time>
      </trkpt>
      <trkpt lat="43.60581" lon="3.36288">
        <ele>238.06</ele>
        <time>2011-10-09T14:13:12Z</time>
      </trkpt>
      <trkpt lat="43.60583" lon="3.36255">
        <ele>239.02</ele>
        <time>2011-10-09T14:13:13Z</time>
      </trkpt>
      <trkpt lat="43.60582" lon="3.3622">
        <ele>239.99</ele>
        <time>2011-10-09T14:13:14Z</time>
      </trkpt>
      <trkpt lat="43.60579" lon="3.36183">
        <ele>240.47</ele>
        <time>2011-10-09T14:13:15Z</time>
      </trkpt>
      <trkpt lat="43.60574" lon="3.36145">
        <ele>241.43</ele>
        <time>2011-10-09T14:13:16Z</time>
      </trkpt>
      <trkpt lat="43.60541" lon="3.35862">
        <ele>248.16</ele>
        <time>2011-10-09T14:13:24Z</time>
      </trkpt>
      <trkpt lat="43.60543" lon="3.35833">
        <ele>249.12</ele>
        <time>2011-10-09T14:13:25Z</time>
      </trkpt>
      <trkpt lat="43.60548" lon="3.35804">
        <ele>249.6</ele>
        <time>2011-10-09T14:13:26Z</time>
      </trkpt>
      <trkpt lat="43.60556" lon="3.35774">
        <ele>250.56</ele>
        <time>2011-10-09T14:13:27Z</time>
      </trkpt>
      <trkpt lat="43.60566" lon="3.35743">
        <ele>251.52</ele>
        <time>2011-10-09T14:13:28Z</time>
      </trkpt>
      <trkpt lat="43.60638" lon="3.35522">
        <ele>258.25</ele>
        <time>2011-10-09T14:13:35Z</time>
      </trkpt>
      <trkpt lat="43.60644" lon="3.35494">
        <ele>259.21</ele>
        <time>2011-10-09T14:13:36Z</time>
      </trkpt>
      <trkpt lat="43.60646" lon="3.35465">
        <ele>260.17</ele>
        <time>2011-10-09T14:13:37Z</time>
      </trkpt>
      <trkpt lat="43.60645" lon="3.35434">
        <ele>261.14</ele>
        <time>2011-10-09T14:13:38Z</time>
      </trkpt>
      <trkpt lat="43.60639" lon="3.35303">
        <ele>264.98</ele>
        <time>2011-10-09T14:13:42Z</time>
      </trkpt>
      <trkpt lat="43.60642" lon="3.35272">
        <ele>265.46</ele>
        <time>2011-10-09T14:13:43Z</time>
      </trkpt>
      <trkpt lat="43.60648" lon="3.35243">
        <ele>266.42</ele>
        <time>2011-10-09T14:13:44Z</time>
      </trkpt>
      <trkpt lat="43.60656" lon="3.35215">
        <ele>267.38</ele>
        <time>2011-10-09T14:13:45Z</time>
      </trkpt>
      <trkpt lat="43.60669" lon="3.35189">
        <ele>268.35</ele>
        <time>2011-10-09T14:13:46Z</time>
      </trkpt>
      <trkpt lat="43.60684" lon="3.35164">
        <ele>269.31</ele>
        <time>2011-10-09T14:13:47Z</time>
      </trkpt>
      <trkpt lat="43.60702" lon="3.3514">
        <ele>269.79</ele>
        <time>2011-10-09T14:13:48Z</time>
      </trkpt>
      <trkpt lat="43.6072" lon="3.35117">
        <ele>271.23</ele>
        <time>2011-10-09T14:13:49Z</time>
      </trkpt>
      <trkpt lat="43.6074" lon="3.35096">
        <ele>272.19</ele>
        <time>2011-10-09T14:13:50Z</time>
      </trkpt>
      <trkpt lat="43.60761" lon="3.35077">
        <ele>273.15</ele>
        <time>2011-10-09T14:13:51Z</time>
      </trkpt>
      <trkpt lat="43.60817" lon="3.35017">
        <ele>276.04</ele>
        <time>2011-10-09T14:13:54Z</time>
      </trkpt>
      <trkpt lat="43.60834" lon="3.34992">
        <ele>276.52</ele>
        <time>2011-10-09T14:13:55Z</time>
      </trkpt>
      <trkpt lat="43.60927" lon="3.34809">
        <ele>278.92</ele>
        <time>2011-10-09T14:14:01Z</time>
      </trkpt>
      <trkpt lat="43.60965" lon="3.34626">
        <ele>280.36</ele>
        <time>2011-10-09T14:14:06Z</time>
      </trkpt>
      <trkpt lat="43.60985" lon="3.34328">
        <ele>282.77</ele>
        <time>2011-10-09T14:14:13Z</time>
      </trkpt>
      <trkpt lat="43.60981" lon="3.34253">
        <ele>283.73</ele>
        <time>2011-10-09T14:14:15Z</time>
      </trkpt>
      <trkpt lat="43.60975" lon="3.34216">
        <ele>283.73</ele>
        <time>2011-10-09T14:14:16Z</time>
      </trkpt>
      <trkpt lat="43.60964" lon="3.33988">
        <ele>284.21</ele>
        <time>2011-10-09T14:14:22Z</time>
      </trkpt>
      <trkpt lat="43.6096" lon="3.33729">
        <ele>284.21</ele>
        <time>2011-10-09T14:14:28Z</time>
      </trkpt>
      <trkpt lat="43.60948" lon="3.33521">
        <ele>284.69</ele>
        <time>2011-10-09T14:14:33Z</time>
      </trkpt>
      <trkpt lat="43.60941" lon="3.3348">
        <ele>284.69</ele>
        <time>2011-10-09T14:14:34Z</time>
      </trkpt>
      <trkpt lat="43.60931" lon="3.33439">
        <ele>284.21</ele>
        <time>2011-10-09T14:14:35Z</time>
      </trkpt>
      <trkpt lat="43.60838" lon="3.33146">
        <ele>283.73</ele>
        <time>2011-10-09T14:14:42Z</time>
      </trkpt>
      <trkpt lat="43.60722" lon="3.32795">
        <ele>283.25</ele>
        <time>2011-10-09T14:14:51Z</time>
      </trkpt>
      <trkpt lat="43.60689" lon="3.32622">
        <ele>282.77</ele>
        <time>2011-10-09T14:14:56Z</time>
      </trkpt>
      <trkpt lat="43.60689" lon="3.3259">
        <ele>282.28</ele>
        <time>2011-10-09T14:14:57Z</time>
      </trkpt>
      <trkpt lat="43.60692" lon="3.32559">
        <ele>282.28</ele>
        <time>2011-10-09T14:14:58Z</time>
      </trkpt>
      <trkpt lat="43.60698" lon="3.32528">
        <ele>282.28</ele>
        <time>2011-10-09T14:14:59Z</time>
      </trkpt>
      <trkpt lat="43.60705" lon="3.32496">
        <ele>281.8</ele>
        <time>2011-10-09T14:15:00Z</time>
      </trkpt>
      <trkpt lat="43.60715" lon="3.32466">
        <ele>281.8</ele>
        <time>2011-10-09T14:15:01Z</time>
      </trkpt>
      <trkpt lat="43.60727" lon="3.32437">
        <ele>281.32</ele>
        <time>2011-10-09T14:15:02Z</time>
      </trkpt>
      <trkpt lat="43.60742" lon="3.32409">
        <ele>281.32</ele>
        <time>2011-10-09T14:15:03Z</time>
      </trkpt>
      <trkpt lat="43.60758" lon="3.3238">
        <ele>280.84</ele>
        <time>2011-10-09T14:15:04Z</time>
      </trkpt>
      <trkpt lat="43.60827" lon="3.3228">
        <ele>279.88</ele>
        <time>2011-10-09T14:15:08Z</time>
      </trkpt>
      <trkpt lat="43.60844" lon="3.32262">
        <ele>279.88</ele>
        <time>2011-10-09T14:15:09Z</time>
      </trkpt>
      <trkpt lat="43.60863" lon="3.32248">
        <ele>279.88</ele>
        <time>2011-10-09T14:15:10Z</time>
      </trkpt>
      <trkpt lat="43.60887" lon="3.32244">
        <ele>279.88</ele>
        <time>2011-10-09T14:15:11Z</time>
      </trkpt>
      <trkpt lat="43.60912" lon="3.32243">
        <ele>279.88</ele>
        <time>2011-10-09T14:15:12Z</time>
      </trkpt>
      <trkpt lat="43.60937" lon="3.32246">
        <ele>279.88</ele>
        <time>2011-10-09T14:15:13Z</time>
      </trkpt>
      <trkpt lat="43.60962" lon="3.32251">
        <ele>279.88</ele>
        <time>2011-10-09T14:15:14Z</time>
      </trkpt>
      <trkpt lat="43.60985" lon="3.32258">
        <ele>280.36</ele>
        <time>2011-10-09T14:15:15Z</time>
      </trkpt>
      <trkpt lat="43.6103" lon="3.32267">
        <ele>280.36</ele>
        <time>2011-10-09T14:15:17Z</time>
      </trkpt>
      <trkpt lat="43.61051" lon="3.32266">
        <ele>280.84</ele>
        <time>2011-10-09T14:15:18Z</time>
      </trkpt>
      <trkpt lat="43.61072" lon="3.32259">
        <ele>280.84</ele>
        <time>2011-10-09T14:15:19Z</time>
      </trkpt>
      <trkpt lat="43.61092" lon="3.32247">
        <ele>280.84</ele>
        <time>2011-10-09T14:15:20Z</time>
      </trkpt>
      <trkpt lat="43.6111" lon="3.32231">
        <ele>280.84</ele>
        <time>2011-10-09T14:15:21Z</time>
      </trkpt>
      <trkpt lat="43.61125" lon="3.3221">
        <ele>281.32</ele>
        <time>2011-10-09T14:15:22Z</time>
      </trkpt>
      <trkpt lat="43.61139" lon="3.32186">
        <ele>281.8</ele>
        <time>2011-10-09T14:15:23Z</time>
      </trkpt>
      <trkpt lat="43.61149" lon="3.32159">
        <ele>281.8</ele>
        <time>2011-10-09T14:15:24Z</time>
      </trkpt>
      <trkpt lat="43.61156" lon="3.32129">
        <ele>282.28</ele>
        <time>2011-10-09T14:15:25Z</time>
      </trkpt>
      <trkpt lat="43.6116" lon="3.32097">
        <ele>282.77</ele>
        <time>2011-10-09T14:15:26Z</time>
      </trkpt>
      <trkpt lat="43.61162" lon="3.32061">
        <ele>283.73</ele>
        <time>2011-10-09T14:15:27Z</time>
      </trkpt>
      <trkpt lat="43.61161" lon="3.32023">
        <ele>284.69</ele>
        <time>2011-10-09T14:15:28Z</time>
      </trkpt>
      <trkpt lat="43.61161" lon="3.31984">
        <ele>286.61</ele>
        <time>2011-10-09T14:15:29Z</time>
      </trkpt>
      <trkpt lat="43.61149" lon="3.31705">
        <ele>296.7</ele>
        <time>2011-10-09T14:15:36Z</time>
      </trkpt>
      <trkpt lat="43.61143" lon="3.31672">
        <ele>298.15</ele>
        <time>2011-10-09T14:15:37Z</time>
      </trkpt>
      <trkpt lat="43.61135" lon="3.31641">
        <ele>299.59</ele>
        <time>2011-10-09T14:15:38Z</time>
      </trkpt>
      <trkpt lat="43.61123" lon="3.31612">
        <ele>301.03</ele>
        <time>2011-10-09T14:15:39Z</time>
      </trkpt>
      <trkpt lat="43.61109" lon="3.31585">
        <ele>302.47</ele>
        <time>2011-10-09T14:15:40Z</time>
      </trkpt>
      <trkpt lat="43.6109" lon="3.31565">
        <ele>303.91</ele>
        <time>2011-10-09T14:15:41Z</time>
      </trkpt>
      <trkpt lat="43.61067" lon="3.31547">
        <ele>304.88</ele>
        <time>2011-10-09T14:15:42Z</time>
      </trkpt>
      <trkpt lat="43.61044" lon="3.31532">
        <ele>306.32</ele>
        <time>2011-10-09T14:15:43Z</time>
      </trkpt>
      <trkpt lat="43.61019" lon="3.3152">
        <ele>307.28</ele>
        <time>2011-10-09T14:15:44Z</time>
      </trkpt>
      <trkpt lat="43.60993" lon="3.31515">
        <ele>308.72</ele>
        <time>2011-10-09T14:15:45Z</time>
      </trkpt>
      <trkpt lat="43.60965" lon="3.31518">
        <ele>310.64</ele>
        <time>2011-10-09T14:15:46Z</time>
      </trkpt>
      <trkpt lat="43.60938" lon="3.31524">
        <ele>313.53</ele>
        <time>2011-10-09T14:15:47Z</time>
      </trkpt>
      <trkpt lat="43.6091" lon="3.31532">
        <ele>315.93</ele>
        <time>2011-10-09T14:15:48Z</time>
      </trkpt>
      <trkpt lat="43.60882" lon="3.31543">
        <ele>318.81</ele>
        <time>2011-10-09T14:15:49Z</time>
      </trkpt>
      <trkpt lat="43.60801" lon="3.31563">
        <ele>324.58</ele>
        <time>2011-10-09T14:15:52Z</time>
      </trkpt>
      <trkpt lat="43.60775" lon="3.31562">
        <ele>326.5</ele>
        <time>2011-10-09T14:15:53Z</time>
      </trkpt>
      <trkpt lat="43.60751" lon="3.31554">
        <ele>329.39</ele>
        <time>2011-10-09T14:15:54Z</time>
      </trkpt>
      <trkpt lat="43.60728" lon="3.31541">
        <ele>331.79</ele>
        <time>2011-10-09T14:15:55Z</time>
      </trkpt>
      <trkpt lat="43.60707" lon="3.31523">
        <ele>334.2</ele>
        <time>2011-10-09T14:15:56Z</time>
      </trkpt>
      <trkpt lat="43.60691" lon="3.31499">
        <ele>336.6</ele>
        <time>2011-10-09T14:15:57Z</time>
      </trkpt>
      <trkpt lat="43.60677" lon="3.31473">
        <ele>337.56</ele>
        <time>2011-10-09T14:15:58Z</time>
      </trkpt>
      <trkpt lat="43.60664" lon="3.31445">
        <ele>339.48</ele>
        <time>2011-10-09T14:15:59Z</time>
      </trkpt>
      <trkpt lat="43.60655" lon="3.31415">
        <ele>341.41</ele>
        <time>2011-10-09T14:16:00Z</time>
      </trkpt>
      <trkpt lat="43.60648" lon="3.31382">
        <ele>343.33</ele>
        <time>2011-10-09T14:16:01Z</time>
      </trkpt>
      <trkpt lat="43.60645" lon="3.31347">
        <ele>345.25</ele>
        <time>2011-10-09T14:16:02Z</time>
      </trkpt>
      <trkpt lat="43.60649" lon="3.31313">
        <ele>348.62</ele>
        <time>2011-10-09T14:16:03Z</time>
      </trkpt>
      <trkpt lat="43.60655" lon="3.3128">
        <ele>351.02</ele>
        <time>2011-10-09T14:16:04Z</time>
      </trkpt>
      <trkpt lat="43.60664" lon="3.31249">
        <ele>353.42</ele>
        <time>2011-10-09T14:16:05Z</time>
      </trkpt>
      <trkpt lat="43.60677" lon="3.31221">
        <ele>355.34</ele>
        <time>2011-10-09T14:16:06Z</time>
      </trkpt>
      <trkpt lat="43.60694" lon="3.31196">
        <ele>357.27</ele>
        <time>2011-10-09T14:16:07Z</time>
      </trkpt>
      <trkpt lat="43.60713" lon="3.31173">
        <ele>359.67</ele>
        <time>2011-10-09T14:16:08Z</time>
      </trkpt>
      <trkpt lat="43.60735" lon="3.31151">
        <ele>361.59</ele>
        <time>2011-10-09T14:16:09Z</time>
      </trkpt>
      <trkpt lat="43.60757" lon="3.31129">
        <ele>363.04</ele>
        <time>2011-10-09T14:16:10Z</time>
      </trkpt>
      <trkpt lat="43.60857" lon="3.31004">
        <ele>371.21</ele>
        <time>2011-10-09T14:16:15Z</time>
      </trkpt>
      <trkpt lat="43.6087" lon="3.30974">
        <ele>372.17</ele>
        <time>2011-10-09T14:16:16Z</time>
      </trkpt>
      <trkpt lat="43.6088" lon="3.30941">
        <ele>373.13</ele>
        <time>2011-10-09T14:16:17Z</time>
      </trkpt>
      <trkpt lat="43.60886" lon="3.30906">
        <ele>374.57</ele>
        <time>2011-10-09T14:16:18Z</time>
      </trkpt>
      <trkpt lat="43.60889" lon="3.30869">
        <ele>375.53</ele>
        <time>2011-10-09T14:16:19Z</time>
      </trkpt>
      <trkpt lat="43.60888" lon="3.30832">
        <ele>376.49</ele>
        <time>2011-10-09T14:16:20Z</time>
      </trkpt>
      <trkpt lat="43.60881" lon="3.30796">
        <ele>377.45</ele>
        <time>2011-10-09T14:16:21Z</time>
      </trkpt>
      <trkpt lat="43.60871" lon="3.30761">
        <ele>377.94</ele>
        <time>2011-10-09T14:16:22Z</time>
      </trkpt>
      <trkpt lat="43.60855" lon="3.30729">
        <ele>378.9</ele>
        <time>2011-10-09T14:16:23Z</time>
      </trkpt>
      <trkpt lat="43.60837" lon="3.30698">
        <ele>378.9</ele>
        <time>2011-10-09T14:16:24Z</time>
      </trkpt>
      <trkpt lat="43.60819" lon="3.30668">
        <ele>379.38</ele>
        <time>2011-10-09T14:16:25Z</time>
      </trkpt>
      <trkpt lat="43.60791" lon="3.30609">
        <ele>379.86</ele>
        <time>2011-10-09T14:16:27Z</time>
      </trkpt>
      <trkpt lat="43.60782" lon="3.30579">
        <ele>380.34</ele>
        <time>2011-10-09T14:16:28Z</time>
      </trkpt>
      <trkpt lat="43.60775" lon="3.30547">
        <ele>380.82</ele>
        <time>2011-10-09T14:16:29Z</time>
      </trkpt>
      <trkpt lat="43.60776" lon="3.30516">
        <ele>381.78</ele>
        <time>2011-10-09T14:16:30Z</time>
      </trkpt>
      <trkpt lat="43.60778" lon="3.30484">
        <ele>382.26</ele>
        <time>2011-10-09T14:16:31Z</time>
      </trkpt>
      <trkpt lat="43.60784" lon="3.30454">
        <ele>382.74</ele>
        <time>2011-10-09T14:16:32Z</time>
      </trkpt>
      <trkpt lat="43.60794" lon="3.30426">
        <ele>383.22</ele>
        <time>2011-10-09T14:16:33Z</time>
      </trkpt>
      <trkpt lat="43.60808" lon="3.304">
        <ele>383.7</ele>
        <time>2011-10-09T14:16:34Z</time>
      </trkpt>
      <trkpt lat="43.60824" lon="3.30378">
        <ele>384.18</ele>
        <time>2011-10-09T14:16:35Z</time>
      </trkpt>
      <trkpt lat="43.60843" lon="3.30359">
        <ele>384.66</ele>
        <time>2011-10-09T14:16:36Z</time>
      </trkpt>
      <trkpt lat="43.60867" lon="3.30349">
        <ele>385.15</ele>
        <time>2011-10-09T14:16:37Z</time>
      </trkpt>
      <trkpt lat="43.60893" lon="3.30343">
        <ele>385.63</ele>
        <time>2011-10-09T14:16:38Z</time>
      </trkpt>
      <trkpt lat="43.60919" lon="3.30342">
        <ele>386.11</ele>
        <time>2011-10-09T14:16:39Z</time>
      </trkpt>
      <trkpt lat="43.60945" lon="3.30347">
        <ele>387.07</ele>
        <time>2011-10-09T14:16:40Z</time>
      </trkpt>
      <trkpt lat="43.60971" lon="3.30354">
        <ele>387.55</ele>
        <time>2011-10-09T14:16:41Z</time>
      </trkpt>
      <trkpt lat="43.60997" lon="3.30364">
        <ele>388.03</ele>
        <time>2011-10-09T14:16:42Z</time>
      </trkpt>
      <trkpt lat="43.61099" lon="3.30387">
        <ele>389.95</ele>
        <time>2011-10-09T14:16:46Z</time>
      </trkpt>
      <trkpt lat="43.61124" lon="3.30381">
        <ele>390.43</ele>
        <time>2011-10-09T14:16:47Z</time>
      </trkpt>
      <trkpt lat="43.61149" lon="3.3037">
        <ele>390.43</ele>
        <time>2011-10-09T14:16:48Z</time>
      </trkpt>
      <trkpt lat="43.61174" lon="3.30355">
        <ele>390.43</ele>
        <time>2011-10-09T14:16:49Z</time>
      </trkpt>
      <trkpt lat="43.61196" lon="3.30336">
        <ele>390.43</ele>
        <time>2011-10-09T14:16:50Z</time>
      </trkpt>
      <trkpt lat="43.61217" lon="3.30312">
        <ele>390.43</ele>
        <time>2011-10-09T14:16:51Z</time>
      </trkpt>
      <trkpt lat="43.61235" lon="3.30285">
        <ele>390.43</ele>
        <time>2011-10-09T14:16:52Z</time>
      </trkpt>
      <trkpt lat="43.61249" lon="3.30255">
        <ele>390.43</ele>
        <time>2011-10-09T14:16:53Z</time>
      </trkpt>
      <trkpt lat="43.6126" lon="3.30222">
        <ele>390.43</ele>
        <time>2011-10-09T14:16:54Z</time>
      </trkpt>
      <trkpt lat="43.61268" lon="3.30188">
        <ele>390.91</ele>
        <time>2011-10-09T14:16:55Z</time>
      </trkpt>
      <trkpt lat="43.61272" lon="3.30152">
        <ele>390.91</ele>
        <time>2011-10-09T14:16:56Z</time>
      </trkpt>
      <trkpt lat="43.61273" lon="3.30116">
        <ele>390.91</ele>
        <time>2011-10-09T14:16:57Z</time>
      </trkpt>
      <trkpt lat="43.6127" lon="3.30079">
        <ele>390.91</ele>
        <time>2011-10-09T14:16:58Z</time>
      </trkpt>
      <trkpt lat="43.61263" lon="3.30042">
        <ele>390.91</ele>
        <time>2011-10-09T14:16:59Z</time>
      </trkpt>
      <trkpt lat="43.61252" lon="3.30008">
        <ele>390.91</ele>
        <time>2011-10-09T14:17:00Z</time>
      </trkpt>
      <trkpt lat="43.61234" lon="3.29977">
        <ele>390.91</ele>
        <time>2011-10-09T14:17:01Z</time>
      </trkpt>
      <trkpt lat="43.61213" lon="3.2995">
        <ele>391.39</ele>
        <time>2011-10-09T14:17:02Z</time>
      </trkpt>
      <trkpt lat="43.61192" lon="3.29924">
        <ele>391.39</ele>
        <time>2011-10-09T14:17:03Z</time>
      </trkpt>
      <trkpt lat="43.61173" lon="3.29899">
        <ele>391.39</ele>
        <time>2011-10-09T14:17:04Z</time>
      </trkpt>
      <trkpt lat="43.6114" lon="3.29846">
        <ele>391.39</ele>
        <time>2011-10-09T14:17:06Z</time>
      </trkpt>
      <trkpt lat="43.61127" lon="3.29815">
        <ele>391.39</ele>
        <time>2011-10-09T14:17:07Z</time>
      </trkpt>
      <trkpt lat="43.61116" lon="3.29783">
        <ele>391.39</ele>
        <time>2011-10-09T14:17:08Z</time>
      </trkpt>
      <trkpt lat="43.6111" lon="3.29749">
        <ele>391.39</ele>
        <time>2011-10-09T14:17:09Z</time>
      </trkpt>
      <trkpt lat="43.61107" lon="3.29714">
        <ele>391.39</ele>
        <time>2011-10-09T14:17:10Z</time>
      </trkpt>
      <trkpt lat="43.61105" lon="3.29676">
        <ele>391.39</ele>
        <time>2011-10-09T14:17:11Z</time>
      </trkpt>
      <trkpt lat="43.61104" lon="3.29636">
        <ele>390.91</ele>
        <time>2011-10-09T14:17:12Z</time>
      </trkpt>
      <trkpt lat="43.61101" lon="3.29315">
        <ele>384.66</ele>
        <time>2011-10-09T14:17:19Z</time>
      </trkpt>
      <trkpt lat="43.61096" lon="3.28877">
        <ele>376.49</ele>
        <time>2011-10-09T14:17:29Z</time>
      </trkpt>
      <trkpt lat="43.61084" lon="3.28507">
        <ele>372.65</ele>
        <time>2011-10-09T14:17:38Z</time>
      </trkpt>
      <trkpt lat="43.61026" lon="3.283">
        <ele>374.09</ele>
        <time>2011-10-09T14:17:43Z</time>
      </trkpt>
      <trkpt lat="43.6087" lon="3.278">
        <ele>383.7</ele>
        <time>2011-10-09T14:17:54Z</time>
      </trkpt>
      <trkpt lat="43.60775" lon="3.27495">
        <ele>393.8</ele>
        <time>2011-10-09T14:18:01Z</time>
      </trkpt>
      <trkpt lat="43.6074" lon="3.27321">
        <ele>396.68</ele>
        <time>2011-10-09T14:18:06Z</time>
      </trkpt>
      <trkpt lat="43.6074" lon="3.27286">
        <ele>397.16</ele>
        <time>2011-10-09T14:18:07Z</time>
      </trkpt>
      <trkpt lat="43.60742" lon="3.27251">
        <ele>397.64</ele>
        <time>2011-10-09T14:18:08Z</time>
      </trkpt>
      <trkpt lat="43.60748" lon="3.27218">
        <ele>397.64</ele>
        <time>2011-10-09T14:18:09Z</time>
      </trkpt>
      <trkpt lat="43.60756" lon="3.27184">
        <ele>398.12</ele>
        <time>2011-10-09T14:18:10Z</time>
      </trkpt>
      <trkpt lat="43.60768" lon="3.27151">
        <ele>398.12</ele>
        <time>2011-10-09T14:18:11Z</time>
      </trkpt>
      <trkpt lat="43.60782" lon="3.2712">
        <ele>398.6</ele>
        <time>2011-10-09T14:18:12Z</time>
      </trkpt>
      <trkpt lat="43.60799" lon="3.27091">
        <ele>399.08</ele>
        <time>2011-10-09T14:18:13Z</time>
      </trkpt>
      <trkpt lat="43.60818" lon="3.27063">
        <ele>399.57</ele>
        <time>2011-10-09T14:18:14Z</time>
      </trkpt>
      <trkpt lat="43.60839" lon="3.27037">
        <ele>399.57</ele>
        <time>2011-10-09T14:18:15Z</time>
      </trkpt>
      <trkpt lat="43.60862" lon="3.27012">
        <ele>400.05</ele>
        <time>2011-10-09T14:18:16Z</time>
      </trkpt>
      <trkpt lat="43.60886" lon="3.26988">
        <ele>400.53</ele>
        <time>2011-10-09T14:18:17Z</time>
      </trkpt>
      <trkpt lat="43.61095" lon="3.26828">
        <ele>401.49</ele>
        <time>2011-10-09T14:18:25Z</time>
      </trkpt>
      <trkpt lat="43.61238" lon="3.26722">
        <ele>403.89</ele>
        <time>2011-10-09T14:18:31Z</time>
      </trkpt>
      <trkpt lat="43.61257" lon="3.26697">
        <ele>404.37</ele>
        <time>2011-10-09T14:18:32Z</time>
      </trkpt>
      <trkpt lat="43.61274" lon="3.26669">
        <ele>404.85</ele>
        <time>2011-10-09T14:18:33Z</time>
      </trkpt>
      <trkpt lat="43.61288" lon="3.26639">
        <ele>405.33</ele>
        <time>2011-10-09T14:18:34Z</time>
      </trkpt>
      <trkpt lat="43.613" lon="3.26605">
        <ele>405.81</ele>
        <time>2011-10-09T14:18:35Z</time>
      </trkpt>
      <trkpt lat="43.61309" lon="3.26569">
        <ele>406.77</ele>
        <time>2011-10-09T14:18:36Z</time>
      </trkpt>
      <trkpt lat="43.61315" lon="3.26531">
        <ele>407.26</ele>
        <time>2011-10-09T14:18:37Z</time>
      </trkpt>
      <trkpt lat="43.61317" lon="3.26491">
        <ele>407.74</ele>
        <time>2011-10-09T14:18:38Z</time>
      </trkpt>
      <trkpt lat="43.61316" lon="3.2645">
        <ele>408.22</ele>
        <time>2011-10-09T14:18:39Z</time>
      </trkpt>
      <trkpt lat="43.61312" lon="3.26407">
        <ele>408.7</ele>
        <time>2011-10-09T14:18:40Z</time>
      </trkpt>
      <trkpt lat="43.61306" lon="3.26365">
        <ele>409.18</ele>
        <time>2011-10-09T14:18:41Z</time>
      </trkpt>
      <trkpt lat="43.61239" lon="3.25913">
        <ele>415.43</ele>
        <time>2011-10-09T14:18:52Z</time>
      </trkpt>
      <trkpt lat="43.61235" lon="3.25837">
        <ele>416.87</ele>
        <time>2011-10-09T14:18:54Z</time>
      </trkpt>
      <trkpt lat="43.61236" lon="3.25799">
        <ele>417.83</ele>
        <time>2011-10-09T14:18:55Z</time>
      </trkpt>
      <trkpt lat="43.61241" lon="3.25763">
        <ele>418.31</ele>
        <time>2011-10-09T14:18:56Z</time>
      </trkpt>
      <trkpt lat="43.61249" lon="3.25728">
        <ele>418.79</ele>
        <time>2011-10-09T14:18:57Z</time>
      </trkpt>
      <trkpt lat="43.61259" lon="3.25695">
        <ele>419.27</ele>
        <time>2011-10-09T14:18:58Z</time>
      </trkpt>
      <trkpt lat="43.61272" lon="3.25664">
        <ele>419.75</ele>
        <time>2011-10-09T14:18:59Z</time>
      </trkpt>
      <trkpt lat="43.61288" lon="3.25635">
        <ele>420.23</ele>
        <time>2011-10-09T14:19:00Z</time>
      </trkpt>
      <trkpt lat="43.61307" lon="3.25608">
        <ele>420.23</ele>
        <time>2011-10-09T14:19:01Z</time>
      </trkpt>
      <trkpt lat="43.61327" lon="3.25582">
        <ele>420.23</ele>
        <time>2011-10-09T14:19:02Z</time>
      </trkpt>
      <trkpt lat="43.61349" lon="3.25557">
        <ele>420.71</ele>
        <time>2011-10-09T14:19:03Z</time>
      </trkpt>
      <trkpt lat="43.61608" lon="3.25265">
        <ele>421.19</ele>
        <time>2011-10-09T14:19:14Z</time>
      </trkpt>
      <trkpt lat="43.6179" lon="3.24978">
        <ele>413.98</ele>
        <time>2011-10-09T14:19:23Z</time>
      </trkpt>
      <trkpt lat="43.6199" lon="3.24645">
        <ele>408.22</ele>
        <time>2011-10-09T14:19:34Z</time>
      </trkpt>
      <trkpt lat="43.62005" lon="3.24613">
        <ele>407.26</ele>
        <time>2011-10-09T14:19:35Z</time>
      </trkpt>
      <trkpt lat="43.62018" lon="3.24578">
        <ele>407.26</ele>
        <time>2011-10-09T14:19:36Z</time>
      </trkpt>
      <trkpt lat="43.62105" lon="3.2427">
        <ele>407.74</ele>
        <time>2011-10-09T14:19:44Z</time>
      </trkpt>
      <trkpt lat="43.62233" lon="3.23886">
        <ele>410.62</ele>
        <time>2011-10-09T14:19:54Z</time>
      </trkpt>
      <trkpt lat="43.62294" lon="3.2374">
        <ele>413.5</ele>
        <time>2011-10-09T14:19:58Z</time>
      </trkpt>
      <trkpt lat="43.62304" lon="3.23702">
        <ele>414.47</ele>
        <time>2011-10-09T14:19:59Z</time>
      </trkpt>
      <trkpt lat="43.62309" lon="3.23663">
        <ele>415.43</ele>
        <time>2011-10-09T14:20:00Z</time>
      </trkpt>
      <trkpt lat="43.62311" lon="3.23623">
        <ele>415.91</ele>
        <time>2011-10-09T14:20:01Z</time>
      </trkpt>
      <trkpt lat="43.62309" lon="3.23582">
        <ele>416.87</ele>
        <time>2011-10-09T14:20:02Z</time>
      </trkpt>
      <trkpt lat="43.62307" lon="3.23542">
        <ele>417.35</ele>
        <time>2011-10-09T14:20:03Z</time>
      </trkpt>
      <trkpt lat="43.62309" lon="3.23465">
        <ele>417.83</ele>
        <time>2011-10-09T14:20:05Z</time>
      </trkpt>
      <trkpt lat="43.62314" lon="3.23429">
        <ele>418.31</ele>
        <time>2011-10-09T14:20:06Z</time>
      </trkpt>
      <trkpt lat="43.62322" lon="3.23394">
        <ele>418.31</ele>
        <time>2011-10-09T14:20:07Z</time>
      </trkpt>
      <trkpt lat="43.62333" lon="3.23362">
        <ele>417.83</ele>
        <time>2011-10-09T14:20:08Z</time>
      </trkpt>
      <trkpt lat="43.62347" lon="3.23331">
        <ele>417.35</ele>
        <time>2011-10-09T14:20:09Z</time>
      </trkpt>
      <trkpt lat="43.62364" lon="3.23304">
        <ele>416.39</ele>
        <time>2011-10-09T14:20:10Z</time>
      </trkpt>
      <trkpt lat="43.62384" lon="3.23279">
        <ele>415.43</ele>
        <time>2011-10-09T14:20:11Z</time>
      </trkpt>
      <trkpt lat="43.62407" lon="3.23256">
        <ele>414.47</ele>
        <time>2011-10-09T14:20:12Z</time>
      </trkpt>
      <trkpt lat="43.62432" lon="3.23234">
        <ele>413.5</ele>
        <time>2011-10-09T14:20:13Z</time>
      </trkpt>
      <trkpt lat="43.6255" lon="3.23118">
        <ele>403.41</ele>
        <time>2011-10-09T14:20:18Z</time>
      </trkpt>
      <trkpt lat="43.6257" lon="3.23089">
        <ele>401.49</ele>
        <time>2011-10-09T14:20:19Z</time>
      </trkpt>
      <trkpt lat="43.62588" lon="3.23056">
        <ele>399.57</ele>
        <time>2011-10-09T14:20:20Z</time>
      </trkpt>
      <trkpt lat="43.62602" lon="3.23019">
        <ele>397.16</ele>
        <time>2011-10-09T14:20:21Z</time>
      </trkpt>
      <trkpt lat="43.62616" lon="3.22981">
        <ele>394.76</ele>
        <time>2011-10-09T14:20:22Z</time>
      </trkpt>
      <trkpt lat="43.62629" lon="3.22942">
        <ele>392.36</ele>
        <time>2011-10-09T14:20:23Z</time>
      </trkpt>
      <trkpt lat="43.62707" lon="3.22743">
        <ele>380.82</ele>
        <time>2011-10-09T14:20:29Z</time>
      </trkpt>
      <trkpt lat="43.62722" lon="3.22719">
        <ele>378.9</ele>
        <time>2011-10-09T14:20:30Z</time>
      </trkpt>
      <trkpt lat="43.62739" lon="3.22698">
        <ele>377.45</ele>
        <time>2011-10-09T14:20:31Z</time>
      </trkpt>
      <trkpt lat="43.62758" lon="3.22679">
        <ele>375.53</ele>
        <time>2011-10-09T14:20:32Z</time>
      </trkpt>
      <trkpt lat="43.6278" lon="3.22661">
        <ele>374.09</ele>
        <time>2011-10-09T14:20:33Z</time>
      </trkpt>
      <trkpt lat="43.6282" lon="3.22619">
        <ele>371.21</ele>
        <time>2011-10-09T14:20:35Z</time>
      </trkpt>
      <trkpt lat="43.62839" lon="3.22594">
        <ele>369.76</ele>
        <time>2011-10-09T14:20:36Z</time>
      </trkpt>
      <trkpt lat="43.62857" lon="3.22565">
        <ele>367.84</ele>
        <time>2011-10-09T14:20:37Z</time>
      </trkpt>
      <trkpt lat="43.62984" lon="3.22329">
        <ele>354.86</ele>
        <time>2011-10-09T14:20:45Z</time>
      </trkpt>
      <trkpt lat="43.62994" lon="3.22299">
        <ele>353.42</ele>
        <time>2011-10-09T14:20:46Z</time>
      </trkpt>
      <trkpt lat="43.63001" lon="3.22268">
        <ele>351.98</ele>
        <time>2011-10-09T14:20:47Z</time>
      </trkpt>
      <trkpt lat="43.63006" lon="3.22236">
        <ele>350.54</ele>
        <time>2011-10-09T14:20:48Z</time>
      </trkpt>
      <trkpt lat="43.63007" lon="3.22203">
        <ele>349.1</ele>
        <time>2011-10-09T14:20:49Z</time>
      </trkpt>
      <trkpt lat="43.63005" lon="3.2217">
        <ele>347.65</ele>
        <time>2011-10-09T14:20:50Z</time>
      </trkpt>
      <trkpt lat="43.62999" lon="3.22138">
        <ele>346.21</ele>
        <time>2011-10-09T14:20:51Z</time>
      </trkpt>
      <trkpt lat="43.62991" lon="3.22107">
        <ele>344.29</ele>
        <time>2011-10-09T14:20:52Z</time>
      </trkpt>
      <trkpt lat="43.62979" lon="3.22078">
        <ele>342.37</ele>
        <time>2011-10-09T14:20:53Z</time>
      </trkpt>
      <trkpt lat="43.62965" lon="3.2205">
        <ele>340.44</ele>
        <time>2011-10-09T14:20:54Z</time>
      </trkpt>
      <trkpt lat="43.6295" lon="3.22022">
        <ele>338.52</ele>
        <time>2011-10-09T14:20:55Z</time>
      </trkpt>
      <trkpt lat="43.62845" lon="3.21824">
        <ele>327.95</ele>
        <time>2011-10-09T14:21:01Z</time>
      </trkpt>
      <trkpt lat="43.62749" lon="3.21669">
        <ele>319.78</ele>
        <time>2011-10-09T14:21:06Z</time>
      </trkpt>
      <trkpt lat="43.62726" lon="3.21652">
        <ele>318.81</ele>
        <time>2011-10-09T14:21:07Z</time>
      </trkpt>
      <trkpt lat="43.62703" lon="3.21636">
        <ele>317.85</ele>
        <time>2011-10-09T14:21:08Z</time>
      </trkpt>
      <trkpt lat="43.62596" lon="3.21561">
        <ele>315.93</ele>
        <time>2011-10-09T14:21:14Z</time>
      </trkpt>
      <trkpt lat="43.62583" lon="3.21544">
        <ele>315.45</ele>
        <time>2011-10-09T14:21:15Z</time>
      </trkpt>
      <trkpt lat="43.6257" lon="3.21525">
        <ele>314.97</ele>
        <time>2011-10-09T14:21:16Z</time>
      </trkpt>
      <trkpt lat="43.62557" lon="3.21502">
        <ele>314.97</ele>
        <time>2011-10-09T14:21:17Z</time>
      </trkpt>
      <trkpt lat="43.62544" lon="3.21476">
        <ele>314.01</ele>
        <time>2011-10-09T14:21:18Z</time>
      </trkpt>
      <trkpt lat="43.62532" lon="3.21448">
        <ele>313.53</ele>
        <time>2011-10-09T14:21:19Z</time>
      </trkpt>
      <trkpt lat="43.62501" lon="3.21363">
        <ele>311.6</ele>
        <time>2011-10-09T14:21:22Z</time>
      </trkpt>
      <trkpt lat="43.62496" lon="3.21328">
        <ele>310.64</ele>
        <time>2011-10-09T14:21:23Z</time>
      </trkpt>
      <trkpt lat="43.62492" lon="3.21292">
        <ele>310.64</ele>
        <time>2011-10-09T14:21:24Z</time>
      </trkpt>
      <trkpt lat="43.62478" lon="3.21024">
        <ele>307.76</ele>
        <time>2011-10-09T14:21:31Z</time>
      </trkpt>
      <trkpt lat="43.62469" lon="3.20955">
        <ele>307.28</ele>
        <time>2011-10-09T14:21:33Z</time>
      </trkpt>
      <trkpt lat="43.62461" lon="3.20924">
        <ele>306.8</ele>
        <time>2011-10-09T14:21:34Z</time>
      </trkpt>
      <trkpt lat="43.62451" lon="3.20894">
        <ele>306.32</ele>
        <time>2011-10-09T14:21:35Z</time>
      </trkpt>
      <trkpt lat="43.62437" lon="3.20866">
        <ele>305.36</ele>
        <time>2011-10-09T14:21:36Z</time>
      </trkpt>
      <trkpt lat="43.62419" lon="3.20841">
        <ele>304.88</ele>
        <time>2011-10-09T14:21:37Z</time>
      </trkpt>
      <trkpt lat="43.62395" lon="3.20821">
        <ele>304.39</ele>
        <time>2011-10-09T14:21:38Z</time>
      </trkpt>
      <trkpt lat="43.6237" lon="3.20801">
        <ele>304.39</ele>
        <time>2011-10-09T14:21:39Z</time>
      </trkpt>
      <trkpt lat="43.62344" lon="3.20782">
        <ele>303.91</ele>
        <time>2011-10-09T14:21:40Z</time>
      </trkpt>
      <trkpt lat="43.6213" lon="3.2062">
        <ele>301.51</ele>
        <time>2011-10-09T14:21:48Z</time>
      </trkpt>
      <trkpt lat="43.62086" lon="3.20574">
        <ele>300.55</ele>
        <time>2011-10-09T14:21:50Z</time>
      </trkpt>
      <trkpt lat="43.62067" lon="3.20544">
        <ele>299.59</ele>
        <time>2011-10-09T14:21:51Z</time>
      </trkpt>
      <trkpt lat="43.62049" lon="3.20512">
        <ele>299.11</ele>
        <time>2011-10-09T14:21:52Z</time>
      </trkpt>
      <trkpt lat="43.61928" lon="3.20259">
        <ele>294.78</ele>
        <time>2011-10-09T14:21:59Z</time>
      </trkpt>
      <trkpt lat="43.61894" lon="3.20157">
        <ele>292.38</ele>
        <time>2011-10-09T14:22:02Z</time>
      </trkpt>
      <trkpt lat="43.61889" lon="3.20118">
        <ele>291.42</ele>
        <time>2011-10-09T14:22:03Z</time>
      </trkpt>
      <trkpt lat="43.61857" lon="3.19809">
        <ele>286.13</ele>
        <time>2011-10-09T14:22:10Z</time>
      </trkpt>
      <trkpt lat="43.618" lon="3.19443">
        <ele>283.73</ele>
        <time>2011-10-09T14:22:18Z</time>
      </trkpt>
      <trkpt lat="43.61688" lon="3.19122">
        <ele>286.13</ele>
        <time>2011-10-09T14:22:25Z</time>
      </trkpt>
      <trkpt lat="43.61565" lon="3.18823">
        <ele>284.69</ele>
        <time>2011-10-09T14:22:32Z</time>
      </trkpt>
      <trkpt lat="43.61472" lon="3.18537">
        <ele>273.63</ele>
        <time>2011-10-09T14:22:39Z</time>
      </trkpt>
      <trkpt lat="43.6135" lon="3.1832">
        <ele>261.14</ele>
        <time>2011-10-09T14:22:45Z</time>
      </trkpt>
      <trkpt lat="43.61222" lon="3.18085">
        <ele>251.52</ele>
        <time>2011-10-09T14:22:52Z</time>
      </trkpt>
      <trkpt lat="43.61201" lon="3.1801">
        <ele>249.6</ele>
        <time>2011-10-09T14:22:54Z</time>
      </trkpt>
      <trkpt lat="43.61198" lon="3.1797">
        <ele>250.08</ele>
        <time>2011-10-09T14:22:55Z</time>
      </trkpt>
      <trkpt lat="43.61196" lon="3.17929">
        <ele>249.6</ele>
        <time>2011-10-09T14:22:56Z</time>
      </trkpt>
      <trkpt lat="43.61197" lon="3.17887">
        <ele>249.12</ele>
        <time>2011-10-09T14:22:57Z</time>
      </trkpt>
      <trkpt lat="43.61199" lon="3.17844">
        <ele>248.16</ele>
        <time>2011-10-09T14:22:58Z</time>
      </trkpt>
      <trkpt lat="43.61201" lon="3.17593">
        <ele>241.91</ele>
        <time>2011-10-09T14:23:04Z</time>
      </trkpt>
      <trkpt lat="43.61194" lon="3.17554">
        <ele>240.47</ele>
        <time>2011-10-09T14:23:05Z</time>
      </trkpt>
      <trkpt lat="43.61184" lon="3.17515">
        <ele>239.02</ele>
        <time>2011-10-09T14:23:06Z</time>
      </trkpt>
      <trkpt lat="43.61172" lon="3.17478">
        <ele>237.58</ele>
        <time>2011-10-09T14:23:07Z</time>
      </trkpt>
      <trkpt lat="43.61157" lon="3.17442">
        <ele>236.14</ele>
        <time>2011-10-09T14:23:08Z</time>
      </trkpt>
      <trkpt lat="43.61143" lon="3.17407">
        <ele>235.18</ele>
        <time>2011-10-09T14:23:09Z</time>
      </trkpt>
      <trkpt lat="43.61076" lon="3.17251">
        <ele>232.3</ele>
        <time>2011-10-09T14:23:15Z</time>
      </trkpt>
      <trkpt lat="43.61068" lon="3.1722">
        <ele>231.33</ele>
        <time>2011-10-09T14:23:17Z</time>
      </trkpt>
      <trkpt lat="43.61069" lon="3.17205">
        <ele>231.81</ele>
        <time>2011-10-09T14:23:18Z</time>
      </trkpt>
      <trkpt lat="43.61071" lon="3.1719">
        <ele>231.81</ele>
        <time>2011-10-09T14:23:19Z</time>
      </trkpt>
      <trkpt lat="43.61077" lon="3.17177">
        <ele>231.81</ele>
        <time>2011-10-09T14:23:20Z</time>
      </trkpt>
      <trkpt lat="43.61085" lon="3.17163">
        <ele>230.85</ele>
        <time>2011-10-09T14:23:21Z</time>
      </trkpt>
      <trkpt lat="43.61096" lon="3.1715">
        <ele>230.37</ele>
        <time>2011-10-09T14:23:22Z</time>
      </trkpt>
      <trkpt lat="43.61109" lon="3.17136">
        <ele>229.89</ele>
        <time>2011-10-09T14:23:23Z</time>
      </trkpt>
      <trkpt lat="43.61211" lon="3.17024">
        <ele>228.93</ele>
        <time>2011-10-09T14:23:32Z</time>
      </trkpt>
      <trkpt lat="43.61226" lon="3.17008">
        <ele>229.89</ele>
        <time>2011-10-09T14:23:34Z</time>
      </trkpt>
      <trkpt lat="43.61233" lon="3.17002">
        <ele>229.89</ele>
        <time>2011-10-09T14:23:35Z</time>
      </trkpt>
      <trkpt lat="43.61238" lon="3.16994">
        <ele>230.37</ele>
        <time>2011-10-09T14:23:36Z</time>
      </trkpt>
      <trkpt lat="43.61242" lon="3.16984">
        <ele>230.37</ele>
        <time>2011-10-09T14:23:37Z</time>
      </trkpt>
      <trkpt lat="43.61243" lon="3.16971">
        <ele>230.37</ele>
        <time>2011-10-09T14:23:38Z</time>
      </trkpt>
      <trkpt lat="43.61242" lon="3.16954">
        <ele>230.37</ele>
        <time>2011-10-09T14:23:39Z</time>
      </trkpt>
      <trkpt lat="43.6124" lon="3.16936">
        <ele>230.37</ele>
        <time>2011-10-09T14:23:40Z</time>
      </trkpt>
      <trkpt lat="43.61237" lon="3.16918">
        <ele>229.89</ele>
        <time>2011-10-09T14:23:41Z</time>
      </trkpt>
      <trkpt lat="43.61233" lon="3.16901">
        <ele>229.89</ele>
        <time>2011-10-09T14:23:42Z</time>
      </trkpt>
      <trkpt lat="43.61226" lon="3.16866">
        <ele>229.41</ele>
        <time>2011-10-09T14:23:44Z</time>
      </trkpt>
      <trkpt lat="43.61224" lon="3.16847">
        <ele>228.93</ele>
        <time>2011-10-09T14:23:45Z</time>
      </trkpt>
      <trkpt lat="43.61223" lon="3.16829">
        <ele>228.45</ele>
        <time>2011-10-09T14:23:46Z</time>
      </trkpt>
      <trkpt lat="43.61227" lon="3.16679">
        <ele>226.53</ele>
        <time>2011-10-09T14:23:54Z</time>
      </trkpt>
      <trkpt lat="43.6123" lon="3.16666">
        <ele>226.05</ele>
        <time>2011-10-09T14:23:55Z</time>
      </trkpt>
      <trkpt lat="43.61233" lon="3.16644">
        <ele>226.05</ele>
        <time>2011-10-09T14:23:57Z</time>
      </trkpt>
      <trkpt lat="43.61232" lon="3.16637">
        <ele>226.05</ele>
        <time>2011-10-09T14:23:58Z</time>
      </trkpt>
      <trkpt lat="43.61227" lon="3.16634">
        <ele>226.05</ele>
        <time>2011-10-09T14:23:59Z</time>
      </trkpt>
      <trkpt lat="43.6122" lon="3.16634">
        <ele>225.57</ele>
        <time>2011-10-09T14:24:00Z</time>
      </trkpt>
      <trkpt lat="43.61211" lon="3.16635">
        <ele>225.57</ele>
        <time>2011-10-09T14:24:01Z</time>
      </trkpt>
      <trkpt lat="43.61199" lon="3.16636">
        <ele>225.57</ele>
        <time>2011-10-09T14:24:02Z</time>
      </trkpt>
      <trkpt lat="43.61185" lon="3.16633">
        <ele>225.57</ele>
        <time>2011-10-09T14:24:03Z</time>
      </trkpt>
      <trkpt lat="43.6117" lon="3.1663">
        <ele>225.57</ele>
        <time>2011-10-09T14:24:04Z</time>
      </trkpt>
      <trkpt lat="43.61001" lon="3.16574">
        <ele>221.24</ele>
        <time>2011-10-09T14:24:16Z</time>
      </trkpt>
      <trkpt lat="43.60925" lon="3.16498">
        <ele>217.4</ele>
        <time>2011-10-09T14:24:25Z</time>
      </trkpt>
      <trkpt lat="43.6092" lon="3.16491">
        <ele>216.91</ele>
        <time>2011-10-09T14:24:26Z</time>
      </trkpt>
      <trkpt lat="43.60916" lon="3.16483">
        <ele>216.43</ele>
        <time>2011-10-09T14:24:27Z</time>
      </trkpt>
      <trkpt lat="43.60912" lon="3.16476">
        <ele>216.43</ele>
        <time>2011-10-09T14:24:28Z</time>
      </trkpt>
      <trkpt lat="43.6091" lon="3.16469">
        <ele>215.95</ele>
        <time>2011-10-09T14:24:29Z</time>
      </trkpt>
      <trkpt lat="43.60909" lon="3.1646">
        <ele>215.47</ele>
        <time>2011-10-09T14:24:30Z</time>
      </trkpt>
      <trkpt lat="43.60911" lon="3.16449">
        <ele>214.99</ele>
        <time>2011-10-09T14:24:31Z</time>
      </trkpt>
      <trkpt lat="43.60915" lon="3.16439">
        <ele>214.99</ele>
        <time>2011-10-09T14:24:32Z</time>
      </trkpt>
      <trkpt lat="43.60921" lon="3.1643">
        <ele>214.51</ele>
        <time>2011-10-09T14:24:33Z</time>
      </trkpt>
      <trkpt lat="43.60929" lon="3.16422">
        <ele>214.51</ele>
        <time>2011-10-09T14:24:34Z</time>
      </trkpt>
      <trkpt lat="43.60938" lon="3.16414">
        <ele>214.51</ele>
        <time>2011-10-09T14:24:35Z</time>
      </trkpt>
      <trkpt lat="43.60951" lon="3.16407">
        <ele>214.51</ele>
        <time>2011-10-09T14:24:36Z</time>
      </trkpt>
      <trkpt lat="43.60964" lon="3.16403">
        <ele>214.03</ele>
        <time>2011-10-09T14:24:37Z</time>
      </trkpt>
      <trkpt lat="43.60976" lon="3.16401">
        <ele>214.51</ele>
        <time>2011-10-09T14:24:38Z</time>
      </trkpt>
      <trkpt lat="43.60988" lon="3.16398">
        <ele>214.03</ele>
        <time>2011-10-09T14:24:39Z</time>
      </trkpt>
      <trkpt lat="43.61" lon="3.16397">
        <ele>213.55</ele>
        <time>2011-10-09T14:24:40Z</time>
      </trkpt>
      <trkpt lat="43.61043" lon="3.16391">
        <ele>213.55</ele>
        <time>2011-10-09T14:24:46Z</time>
      </trkpt>
      <trkpt lat="43.61077" lon="3.16382">
        <ele>214.03</ele>
        <time>2011-10-09T14:24:50Z</time>
      </trkpt>
      <trkpt lat="43.61086" lon="3.16379">
        <ele>213.55</ele>
        <time>2011-10-09T14:24:51Z</time>
      </trkpt>
      <trkpt lat="43.61136" lon="3.16353">
        <ele>213.07</ele>
        <time>2011-10-09T14:24:59Z</time>
      </trkpt>
      <trkpt lat="43.61204" lon="3.16294">
        <ele>213.07</ele>
        <time>2011-10-09T14:25:08Z</time>
      </trkpt>
      <trkpt lat="43.61218" lon="3.16281">
        <ele>213.07</ele>
        <time>2011-10-09T14:25:10Z</time>
      </trkpt>
      <trkpt lat="43.61224" lon="3.16272">
        <ele>213.07</ele>
        <time>2011-10-09T14:25:11Z</time>
      </trkpt>
      <trkpt lat="43.61229" lon="3.16262">
        <ele>213.07</ele>
        <time>2011-10-09T14:25:12Z</time>
      </trkpt>
      <trkpt lat="43.6127" lon="3.16159">
        <ele>213.07</ele>
        <time>2011-10-09T14:25:21Z</time>
      </trkpt>
      <trkpt lat="43.61313" lon="3.16052">
        <ele>212.11</ele>
        <time>2011-10-09T14:25:31Z</time>
      </trkpt>
      <trkpt lat="43.6136" lon="3.15959">
        <ele>209.22</ele>
        <time>2011-10-09T14:25:40Z</time>
      </trkpt>
      <trkpt lat="43.61367" lon="3.15949">
        <ele>208.74</ele>
        <time>2011-10-09T14:25:41Z</time>
      </trkpt>
      <trkpt lat="43.61375" lon="3.15941">
        <ele>208.26</ele>
        <time>2011-10-09T14:25:42Z</time>
      </trkpt>
      <trkpt lat="43.61382" lon="3.15932">
        <ele>208.26</ele>
        <time>2011-10-09T14:25:43Z</time>
      </trkpt>
      <trkpt lat="43.61391" lon="3.15925">
        <ele>208.26</ele>
        <time>2011-10-09T14:25:44Z</time>
      </trkpt>
      <trkpt lat="43.61436" lon="3.15886">
        <ele>207.3</ele>
        <time>2011-10-09T14:25:51Z</time>
      </trkpt>
      <trkpt lat="43.61464" lon="3.15857">
        <ele>208.74</ele>
        <time>2011-10-09T14:25:58Z</time>
      </trkpt>
      <trkpt lat="43.61468" lon="3.15853">
        <ele>209.22</ele>
        <time>2011-10-09T14:25:59Z</time>
      </trkpt>
      <trkpt lat="43.61474" lon="3.15853">
        <ele>208.26</ele>
        <time>2011-10-09T14:26:00Z</time>
      </trkpt>
      <trkpt lat="43.61479" lon="3.15856">
        <ele>206.82</ele>
        <time>2011-10-09T14:26:01Z</time>
      </trkpt>
      <trkpt lat="43.61483" lon="3.15861">
        <ele>206.82</ele>
        <time>2011-10-09T14:26:02Z</time>
      </trkpt>
      <trkpt lat="43.61487" lon="3.15868">
        <ele>207.3</ele>
        <time>2011-10-09T14:26:03Z</time>
      </trkpt>
      <trkpt lat="43.61493" lon="3.15875">
        <ele>207.3</ele>
        <time>2011-10-09T14:26:04Z</time>
      </trkpt>
      <trkpt lat="43.61564" lon="3.15956">
        <ele>208.74</ele>
        <time>2011-10-09T14:26:15Z</time>
      </trkpt>
      <trkpt lat="43.61622" lon="3.16017">
        <ele>208.26</ele>
        <time>2011-10-09T14:26:25Z</time>
      </trkpt>
      <trkpt lat="43.61627" lon="3.16018">
        <ele>207.78</ele>
        <time>2011-10-09T14:26:26Z</time>
      </trkpt>
      <trkpt lat="43.61632" lon="3.16012">
        <ele>206.82</ele>
        <time>2011-10-09T14:26:27Z</time>
      </trkpt>
      <trkpt lat="43.61637" lon="3.16003">
        <ele>207.3</ele>
        <time>2011-10-09T14:26:28Z</time>
      </trkpt>
      <trkpt lat="43.61643" lon="3.15994">
        <ele>207.3</ele>
        <time>2011-10-09T14:26:29Z</time>
      </trkpt>
      <trkpt lat="43.61711" lon="3.15898">
        <ele>207.78</ele>
        <time>2011-10-09T14:26:38Z</time>
      </trkpt>
      <trkpt lat="43.61758" lon="3.15841">
        <ele>206.34</ele>
        <time>2011-10-09T14:26:45Z</time>
      </trkpt>
      <trkpt lat="43.61825" lon="3.15754">
        <ele>204.42</ele>
        <time>2011-10-09T14:26:55Z</time>
      </trkpt>
      <trkpt lat="43.61919" lon="3.15632">
        <ele>203.46</ele>
        <time>2011-10-09T14:27:07Z</time>
      </trkpt>
      <trkpt lat="43.61931" lon="3.15621">
        <ele>202.98</ele>
        <time>2011-10-09T14:27:09Z</time>
      </trkpt>
      <trkpt lat="43.61937" lon="3.15618">
        <ele>203.46</ele>
        <time>2011-10-09T14:27:10Z</time>
      </trkpt>
      <trkpt lat="43.61945" lon="3.15618">
        <ele>203.46</ele>
        <time>2011-10-09T14:27:11Z</time>
      </trkpt>
      <trkpt lat="43.61953" lon="3.15621">
        <ele>202.98</ele>
        <time>2011-10-09T14:27:12Z</time>
      </trkpt>
      <trkpt lat="43.61961" lon="3.15628">
        <ele>202.49</ele>
        <time>2011-10-09T14:27:13Z</time>
      </trkpt>
      <trkpt lat="43.61969" lon="3.15638">
        <ele>202.49</ele>
        <time>2011-10-09T14:27:14Z</time>
      </trkpt>
      <trkpt lat="43.61979" lon="3.15649">
        <ele>202.01</ele>
        <time>2011-10-09T14:27:15Z</time>
      </trkpt>
      <trkpt lat="43.62102" lon="3.15788">
        <ele>202.98</ele>
        <time>2011-10-09T14:27:26Z</time>
      </trkpt>
      <trkpt lat="43.62192" lon="3.15863">
        <ele>204.9</ele>
        <time>2011-10-09T14:27:34Z</time>
      </trkpt>
      <trkpt lat="43.62372" lon="3.16002">
        <ele>206.34</ele>
        <time>2011-10-09T14:27:48Z</time>
      </trkpt>
      <trkpt lat="43.62516" lon="3.16115">
        <ele>207.78</ele>
        <time>2011-10-09T14:28:00Z</time>
      </trkpt>
      <trkpt lat="43.62531" lon="3.1613">
        <ele>207.78</ele>
        <time>2011-10-09T14:28:02Z</time>
      </trkpt>
      <trkpt lat="43.62535" lon="3.16139">
        <ele>207.78</ele>
        <time>2011-10-09T14:28:03Z</time>
      </trkpt>
      <trkpt lat="43.62544" lon="3.16156">
        <ele>207.78</ele>
        <time>2011-10-09T14:28:05Z</time>
      </trkpt>
      <trkpt lat="43.62551" lon="3.16162">
        <ele>207.78</ele>
        <time>2011-10-09T14:28:06Z</time>
      </trkpt>
      <trkpt lat="43.6256" lon="3.16165">
        <ele>207.78</ele>
        <time>2011-10-09T14:28:07Z</time>
      </trkpt>
      <trkpt lat="43.62622" lon="3.16199">
        <ele>208.74</ele>
        <time>2011-10-09T14:28:14Z</time>
      </trkpt>
      <trkpt lat="43.62746" lon="3.16296">
        <ele>208.74</ele>
        <time>2011-10-09T14:28:23Z</time>
      </trkpt>
      <trkpt lat="43.6276" lon="3.16305">
        <ele>208.74</ele>
        <time>2011-10-09T14:28:24Z</time>
      </trkpt>
      <trkpt lat="43.62775" lon="3.16311">
        <ele>208.74</ele>
        <time>2011-10-09T14:28:25Z</time>
      </trkpt>
      <trkpt lat="43.62791" lon="3.16314">
        <ele>208.74</ele>
        <time>2011-10-09T14:28:26Z</time>
      </trkpt>
      <trkpt lat="43.62807" lon="3.16315">
        <ele>208.74</ele>
        <time>2011-10-09T14:28:27Z</time>
      </trkpt>
      <trkpt lat="43.62824" lon="3.16315">
        <ele>208.26</ele>
        <time>2011-10-09T14:28:28Z</time>
      </trkpt>
      <trkpt lat="43.6295" lon="3.16315">
        <ele>207.78</ele>
        <time>2011-10-09T14:28:36Z</time>
      </trkpt>
      <trkpt lat="43.63047" lon="3.16312">
        <ele>208.26</ele>
        <time>2011-10-09T14:28:42Z</time>
      </trkpt>
      <trkpt lat="43.63273" lon="3.16312">
        <ele>208.74</ele>
        <time>2011-10-09T14:28:53Z</time>
      </trkpt>
      <trkpt lat="43.63496" lon="3.16298">
        <ele>211.63</ele>
        <time>2011-10-09T14:29:02Z</time>
      </trkpt>
      <trkpt lat="43.63655" lon="3.16309">
        <ele>211.63</ele>
        <time>2011-10-09T14:29:09Z</time>
      </trkpt>
      <trkpt lat="43.63791" lon="3.16346">
        <ele>211.15</ele>
        <time>2011-10-09T14:29:15Z</time>
      </trkpt>
      <trkpt lat="43.6388" lon="3.16388">
        <ele>210.67</ele>
        <time>2011-10-09T14:29:19Z</time>
      </trkpt>
      <trkpt lat="43.63901" lon="3.16405">
        <ele>210.67</ele>
        <time>2011-10-09T14:29:20Z</time>
      </trkpt>
      <trkpt lat="43.641" lon="3.16591">
        <ele>211.63</ele>
        <time>2011-10-09T14:29:29Z</time>
      </trkpt>
      <trkpt lat="43.64359" lon="3.16853">
        <ele>214.51</ele>
        <time>2011-10-09T14:29:41Z</time>
      </trkpt>
      <trkpt lat="43.64413" lon="3.16917">
        <ele>214.51</ele>
        <time>2011-10-09T14:29:44Z</time>
      </trkpt>
      <trkpt lat="43.64432" lon="3.16933">
        <ele>214.51</ele>
        <time>2011-10-09T14:29:45Z</time>
      </trkpt>
      <trkpt lat="43.64455" lon="3.16944">
        <ele>214.99</ele>
        <time>2011-10-09T14:29:46Z</time>
      </trkpt>
      <trkpt lat="43.64477" lon="3.16948">
        <ele>214.99</ele>
        <time>2011-10-09T14:29:47Z</time>
      </trkpt>
      <trkpt lat="43.645" lon="3.16947">
        <ele>214.99</ele>
        <time>2011-10-09T14:29:48Z</time>
      </trkpt>
      <trkpt lat="43.64522" lon="3.16942">
        <ele>214.51</ele>
        <time>2011-10-09T14:29:49Z</time>
      </trkpt>
      <trkpt lat="43.64544" lon="3.16933">
        <ele>214.03</ele>
        <time>2011-10-09T14:29:50Z</time>
      </trkpt>
      <trkpt lat="43.64564" lon="3.1692">
        <ele>214.03</ele>
        <time>2011-10-09T14:29:51Z</time>
      </trkpt>
      <trkpt lat="43.64583" lon="3.16905">
        <ele>213.07</ele>
        <time>2011-10-09T14:29:52Z</time>
      </trkpt>
      <trkpt lat="43.64598" lon="3.16889">
        <ele>213.07</ele>
        <time>2011-10-09T14:29:53Z</time>
      </trkpt>
      <trkpt lat="43.6461" lon="3.16871">
        <ele>212.59</ele>
        <time>2011-10-09T14:29:54Z</time>
      </trkpt>
      <trkpt lat="43.64619" lon="3.16855">
        <ele>212.59</ele>
        <time>2011-10-09T14:29:55Z</time>
      </trkpt>
      <trkpt lat="43.64624" lon="3.16842">
        <ele>213.07</ele>
        <time>2011-10-09T14:29:56Z</time>
      </trkpt>
      <trkpt lat="43.64633" lon="3.16827">
        <ele>212.59</ele>
        <time>2011-10-09T14:29:58Z</time>
      </trkpt>
      <trkpt lat="43.64639" lon="3.16824">
        <ele>212.59</ele>
        <time>2011-10-09T14:29:59Z</time>
      </trkpt>
      <trkpt lat="43.64645" lon="3.16824">
        <ele>212.59</ele>
        <time>2011-10-09T14:30:00Z</time>
      </trkpt>
      <trkpt lat="43.64652" lon="3.16827">
        <ele>213.07</ele>
        <time>2011-10-09T14:30:01Z</time>
      </trkpt>
      <trkpt lat="43.64661" lon="3.16832">
        <ele>213.07</ele>
        <time>2011-10-09T14:30:02Z</time>
      </trkpt>
      <trkpt lat="43.6467" lon="3.16839">
        <ele>213.55</ele>
        <time>2011-10-09T14:30:03Z</time>
      </trkpt>
      <trkpt lat="43.64789" lon="3.16918">
        <ele>212.59</ele>
        <time>2011-10-09T14:30:13Z</time>
      </trkpt>
      <trkpt lat="43.64846" lon="3.16966">
        <ele>213.07</ele>
        <time>2011-10-09T14:30:20Z</time>
      </trkpt>
      <trkpt lat="43.64912" lon="3.17018">
        <ele>214.51</ele>
        <time>2011-10-09T14:30:29Z</time>
      </trkpt>
      <trkpt lat="43.64919" lon="3.17027">
        <ele>214.51</ele>
        <time>2011-10-09T14:30:30Z</time>
      </trkpt>
      <trkpt lat="43.64926" lon="3.17037">
        <ele>214.99</ele>
        <time>2011-10-09T14:30:31Z</time>
      </trkpt>
      <trkpt lat="43.64932" lon="3.17048">
        <ele>214.99</ele>
        <time>2011-10-09T14:30:32Z</time>
      </trkpt>
      <trkpt lat="43.64937" lon="3.1706">
        <ele>214.99</ele>
        <time>2011-10-09T14:30:33Z</time>
      </trkpt>
      <trkpt lat="43.64948" lon="3.17082">
        <ele>214.99</ele>
        <time>2011-10-09T14:30:35Z</time>
      </trkpt>
      <trkpt lat="43.64951" lon="3.17093">
        <ele>214.99</ele>
        <time>2011-10-09T14:30:36Z</time>
      </trkpt>
      <trkpt lat="43.64952" lon="3.17105">
        <ele>215.47</ele>
        <time>2011-10-09T14:30:37Z</time>
      </trkpt>
      <trkpt lat="43.64952" lon="3.17118">
        <ele>215.47</ele>
        <time>2011-10-09T14:30:38Z</time>
      </trkpt>
      <trkpt lat="43.64951" lon="3.17132">
        <ele>215.95</ele>
        <time>2011-10-09T14:30:39Z</time>
      </trkpt>
      <trkpt lat="43.64952" lon="3.17147">
        <ele>216.43</ele>
        <time>2011-10-09T14:30:40Z</time>
      </trkpt>
      <trkpt lat="43.64955" lon="3.17163">
        <ele>216.91</ele>
        <time>2011-10-09T14:30:41Z</time>
      </trkpt>
      <trkpt lat="43.6496" lon="3.1718">
        <ele>217.4</ele>
        <time>2011-10-09T14:30:42Z</time>
      </trkpt>
      <trkpt lat="43.64966" lon="3.17197">
        <ele>217.88</ele>
        <time>2011-10-09T14:30:43Z</time>
      </trkpt>
      <trkpt lat="43.6499" lon="3.17264">
        <ele>220.76</ele>
        <time>2011-10-09T14:30:47Z</time>
      </trkpt>
      <trkpt lat="43.64992" lon="3.17281">
        <ele>221.24</ele>
        <time>2011-10-09T14:30:48Z</time>
      </trkpt>
      <trkpt lat="43.6499" lon="3.17301">
        <ele>222.2</ele>
        <time>2011-10-09T14:30:49Z</time>
      </trkpt>
      <trkpt lat="43.64987" lon="3.1732">
        <ele>222.68</ele>
        <time>2011-10-09T14:30:50Z</time>
      </trkpt>
      <trkpt lat="43.64984" lon="3.17338">
        <ele>223.16</ele>
        <time>2011-10-09T14:30:51Z</time>
      </trkpt>
      <trkpt lat="43.64982" lon="3.17356">
        <ele>223.64</ele>
        <time>2011-10-09T14:30:52Z</time>
      </trkpt>
      <trkpt lat="43.64983" lon="3.17375">
        <ele>223.64</ele>
        <time>2011-10-09T14:30:53Z</time>
      </trkpt>
      <trkpt lat="43.64986" lon="3.17395">
        <ele>223.16</ele>
        <time>2011-10-09T14:30:54Z</time>
      </trkpt>
      <trkpt lat="43.64991" lon="3.17413">
        <ele>223.64</ele>
        <time>2011-10-09T14:30:55Z</time>
      </trkpt>
      <trkpt lat="43.64999" lon="3.17431">
        <ele>223.64</ele>
        <time>2011-10-09T14:30:56Z</time>
      </trkpt>
      <trkpt lat="43.65008" lon="3.17448">
        <ele>224.12</ele>
        <time>2011-10-09T14:30:57Z</time>
      </trkpt>
      <trkpt lat="43.65026" lon="3.17478">
        <ele>225.57</ele>
        <time>2011-10-09T14:30:59Z</time>
      </trkpt>
      <trkpt lat="43.65037" lon="3.17489">
        <ele>226.05</ele>
        <time>2011-10-09T14:31:00Z</time>
      </trkpt>
      <trkpt lat="43.65049" lon="3.17496">
        <ele>226.53</ele>
        <time>2011-10-09T14:31:01Z</time>
      </trkpt>
      <trkpt lat="43.65062" lon="3.17503">
        <ele>227.01</ele>
        <time>2011-10-09T14:31:02Z</time>
      </trkpt>
      <trkpt lat="43.65077" lon="3.17508">
        <ele>227.49</ele>
        <time>2011-10-09T14:31:03Z</time>
      </trkpt>
      <trkpt lat="43.65093" lon="3.17511">
        <ele>227.49</ele>
        <time>2011-10-09T14:31:04Z</time>
      </trkpt>
      <trkpt lat="43.65108" lon="3.17513">
        <ele>227.97</ele>
        <time>2011-10-09T14:31:05Z</time>
      </trkpt>
      <trkpt lat="43.65149" lon="3.17523">
        <ele>228.45</ele>
        <time>2011-10-09T14:31:08Z</time>
      </trkpt>
      <trkpt lat="43.6516" lon="3.1753">
        <ele>228.93</ele>
        <time>2011-10-09T14:31:09Z</time>
      </trkpt>
      <trkpt lat="43.65169" lon="3.17539">
        <ele>228.93</ele>
        <time>2011-10-09T14:31:10Z</time>
      </trkpt>
      <trkpt lat="43.65175" lon="3.1755">
        <ele>228.93</ele>
        <time>2011-10-09T14:31:11Z</time>
      </trkpt>
      <trkpt lat="43.65179" lon="3.17564">
        <ele>228.93</ele>
        <time>2011-10-09T14:31:12Z</time>
      </trkpt>
      <trkpt lat="43.6518" lon="3.17579">
        <ele>228.93</ele>
        <time>2011-10-09T14:31:13Z</time>
      </trkpt>
      <trkpt lat="43.65179" lon="3.17594">
        <ele>228.93</ele>
        <time>2011-10-09T14:31:14Z</time>
      </trkpt>
      <trkpt lat="43.65176" lon="3.17609">
        <ele>228.93</ele>
        <time>2011-10-09T14:31:15Z</time>
      </trkpt>
      <trkpt lat="43.65171" lon="3.17621">
        <ele>228.45</ele>
        <time>2011-10-09T14:31:16Z</time>
      </trkpt>
      <trkpt lat="43.65164" lon="3.1763">
        <ele>228.93</ele>
        <time>2011-10-09T14:31:17Z</time>
      </trkpt>
      <trkpt lat="43.65155" lon="3.17639">
        <ele>228.93</ele>
        <time>2011-10-09T14:31:18Z</time>
      </trkpt>
      <trkpt lat="43.65148" lon="3.17649">
        <ele>228.93</ele>
        <time>2011-10-09T14:31:19Z</time>
      </trkpt>
      <trkpt lat="43.65142" lon="3.1766">
        <ele>228.93</ele>
        <time>2011-10-09T14:31:20Z</time>
      </trkpt>
      <trkpt lat="43.6514" lon="3.17672">
        <ele>228.93</ele>
        <time>2011-10-09T14:31:21Z</time>
      </trkpt>
      <trkpt lat="43.65141" lon="3.17684">
        <ele>228.93</ele>
        <time>2011-10-09T14:31:22Z</time>
      </trkpt>
      <trkpt lat="43.65147" lon="3.17694">
        <ele>228.93</ele>
        <time>2011-10-09T14:31:23Z</time>
      </trkpt>
      <trkpt lat="43.65156" lon="3.17704">
        <ele>229.41</ele>
        <time>2011-10-09T14:31:24Z</time>
      </trkpt>
      <trkpt lat="43.65167" lon="3.17716">
        <ele>229.41</ele>
        <time>2011-10-09T14:31:25Z</time>
      </trkpt>
      <trkpt lat="43.6518" lon="3.17728">
        <ele>229.89</ele>
        <time>2011-10-09T14:31:26Z</time>
      </trkpt>
      <trkpt lat="43.65195" lon="3.17741">
        <ele>230.37</ele>
        <time>2011-10-09T14:31:27Z</time>
      </trkpt>
      <trkpt lat="43.65232" lon="3.17779">
        <ele>230.37</ele>
        <time>2011-10-09T14:31:30Z</time>
      </trkpt>
      <trkpt lat="43.65242" lon="3.17796">
        <ele>230.85</ele>
        <time>2011-10-09T14:31:31Z</time>
      </trkpt>
      <trkpt lat="43.65297" lon="3.17929">
        <ele>231.81</ele>
        <time>2011-10-09T14:31:38Z</time>
      </trkpt>
      <trkpt lat="43.653" lon="3.17948">
        <ele>231.81</ele>
        <time>2011-10-09T14:31:39Z</time>
      </trkpt>
      <trkpt lat="43.653" lon="3.17966">
        <ele>231.81</ele>
        <time>2011-10-09T14:31:40Z</time>
      </trkpt>
      <trkpt lat="43.65297" lon="3.17981">
        <ele>232.3</ele>
        <time>2011-10-09T14:31:41Z</time>
      </trkpt>
      <trkpt lat="43.65291" lon="3.17994">
        <ele>232.3</ele>
        <time>2011-10-09T14:31:42Z</time>
      </trkpt>
      <trkpt lat="43.65283" lon="3.18005">
        <ele>232.78</ele>
        <time>2011-10-09T14:31:43Z</time>
      </trkpt>
      <trkpt lat="43.65274" lon="3.18015">
        <ele>232.78</ele>
        <time>2011-10-09T14:31:44Z</time>
      </trkpt>
      <trkpt lat="43.65268" lon="3.18028">
        <ele>233.26</ele>
        <time>2011-10-09T14:31:45Z</time>
      </trkpt>
      <trkpt lat="43.65263" lon="3.18042">
        <ele>233.26</ele>
        <time>2011-10-09T14:31:46Z</time>
      </trkpt>
      <trkpt lat="43.65259" lon="3.18058">
        <ele>233.26</ele>
        <time>2011-10-09T14:31:47Z</time>
      </trkpt>
      <trkpt lat="43.65253" lon="3.18073">
        <ele>233.74</ele>
        <time>2011-10-09T14:31:48Z</time>
      </trkpt>
      <trkpt lat="43.65245" lon="3.18087">
        <ele>233.74</ele>
        <time>2011-10-09T14:31:49Z</time>
      </trkpt>
      <trkpt lat="43.65235" lon="3.18098">
        <ele>233.74</ele>
        <time>2011-10-09T14:31:50Z</time>
      </trkpt>
      <trkpt lat="43.65225" lon="3.18108">
        <ele>234.22</ele>
        <time>2011-10-09T14:31:51Z</time>
      </trkpt>
      <trkpt lat="43.65216" lon="3.18118">
        <ele>234.22</ele>
        <time>2011-10-09T14:31:52Z</time>
      </trkpt>
      <trkpt lat="43.6521" lon="3.18127">
        <ele>234.22</ele>
        <time>2011-10-09T14:31:53Z</time>
      </trkpt>
      <trkpt lat="43.65207" lon="3.18137">
        <ele>234.22</ele>
        <time>2011-10-09T14:31:54Z</time>
      </trkpt>
      <trkpt lat="43.65207" lon="3.18147">
        <ele>234.22</ele>
        <time>2011-10-09T14:31:55Z</time>
      </trkpt>
      <trkpt lat="43.65211" lon="3.18157">
        <ele>234.22</ele>
        <time>2011-10-09T14:31:56Z</time>
      </trkpt>
      <trkpt lat="43.65219" lon="3.18167">
        <ele>234.22</ele>
        <time>2011-10-09T14:31:57Z</time>
      </trkpt>
      <trkpt lat="43.65228" lon="3.18179">
        <ele>234.7</ele>
        <time>2011-10-09T14:31:58Z</time>
      </trkpt>
      <trkpt lat="43.65237" lon="3.18193">
        <ele>234.7</ele>
        <time>2011-10-09T14:31:59Z</time>
      </trkpt>
      <trkpt lat="43.65244" lon="3.18211">
        <ele>235.18</ele>
        <time>2011-10-09T14:32:00Z</time>
      </trkpt>
      <trkpt lat="43.65249" lon="3.18232">
        <ele>235.18</ele>
        <time>2011-10-09T14:32:01Z</time>
      </trkpt>
      <trkpt lat="43.65254" lon="3.18256">
        <ele>235.66</ele>
        <time>2011-10-09T14:32:02Z</time>
      </trkpt>
      <trkpt lat="43.65275" lon="3.18369">
        <ele>236.62</ele>
        <time>2011-10-09T14:32:07Z</time>
      </trkpt>
      <trkpt lat="43.65276" lon="3.18389">
        <ele>236.62</ele>
        <time>2011-10-09T14:32:08Z</time>
      </trkpt>
      <trkpt lat="43.65274" lon="3.18409">
        <ele>237.1</ele>
        <time>2011-10-09T14:32:09Z</time>
      </trkpt>
      <trkpt lat="43.6527" lon="3.1843">
        <ele>237.1</ele>
        <time>2011-10-09T14:32:10Z</time>
      </trkpt>
      <trkpt lat="43.65265" lon="3.18453">
        <ele>237.1</ele>
        <time>2011-10-09T14:32:11Z</time>
      </trkpt>
      <trkpt lat="43.65249" lon="3.18526">
        <ele>238.06</ele>
        <time>2011-10-09T14:32:14Z</time>
      </trkpt>
      <trkpt lat="43.65248" lon="3.1855">
        <ele>238.06</ele>
        <time>2011-10-09T14:32:15Z</time>
      </trkpt>
      <trkpt lat="43.65248" lon="3.18574">
        <ele>238.54</ele>
        <time>2011-10-09T14:32:16Z</time>
      </trkpt>
      <trkpt lat="43.65249" lon="3.18598">
        <ele>238.54</ele>
        <time>2011-10-09T14:32:17Z</time>
      </trkpt>
      <trkpt lat="43.65253" lon="3.18621">
        <ele>238.54</ele>
        <time>2011-10-09T14:32:18Z</time>
      </trkpt>
      <trkpt lat="43.65259" lon="3.18643">
        <ele>239.02</ele>
        <time>2011-10-09T14:32:19Z</time>
      </trkpt>
      <trkpt lat="43.65263" lon="3.18665">
        <ele>239.02</ele>
        <time>2011-10-09T14:32:20Z</time>
      </trkpt>
      <trkpt lat="43.65266" lon="3.18689">
        <ele>239.02</ele>
        <time>2011-10-09T14:32:21Z</time>
      </trkpt>
      <trkpt lat="43.65276" lon="3.18896">
        <ele>242.39</ele>
        <time>2011-10-09T14:32:28Z</time>
      </trkpt>
      <trkpt lat="43.65277" lon="3.19025">
        <ele>243.35</ele>
        <time>2011-10-09T14:32:33Z</time>
      </trkpt>
      <trkpt lat="43.65273" lon="3.19051">
        <ele>243.35</ele>
        <time>2011-10-09T14:32:34Z</time>
      </trkpt>
      <trkpt lat="43.65245" lon="3.19254">
        <ele>246.72</ele>
        <time>2011-10-09T14:32:41Z</time>
      </trkpt>
      <trkpt lat="43.65226" lon="3.19422">
        <ele>249.6</ele>
        <time>2011-10-09T14:32:47Z</time>
      </trkpt>
      <trkpt lat="43.65219" lon="3.19447">
        <ele>250.08</ele>
        <time>2011-10-09T14:32:48Z</time>
      </trkpt>
      <trkpt lat="43.65172" lon="3.19587">
        <ele>252.48</ele>
        <time>2011-10-09T14:32:54Z</time>
      </trkpt>
      <trkpt lat="43.6517" lon="3.19606">
        <ele>252.48</ele>
        <time>2011-10-09T14:32:55Z</time>
      </trkpt>
      <trkpt lat="43.6517" lon="3.19624">
        <ele>252</ele>
        <time>2011-10-09T14:32:56Z</time>
      </trkpt>
      <trkpt lat="43.65171" lon="3.19643">
        <ele>251.52</ele>
        <time>2011-10-09T14:32:57Z</time>
      </trkpt>
      <trkpt lat="43.65174" lon="3.19662">
        <ele>251.52</ele>
        <time>2011-10-09T14:32:58Z</time>
      </trkpt>
      <trkpt lat="43.65178" lon="3.19682">
        <ele>251.52</ele>
        <time>2011-10-09T14:32:59Z</time>
      </trkpt>
      <trkpt lat="43.65184" lon="3.19702">
        <ele>251.52</ele>
        <time>2011-10-09T14:33:00Z</time>
      </trkpt>
      <trkpt lat="43.65222" lon="3.19866">
        <ele>252.96</ele>
        <time>2011-10-09T14:33:06Z</time>
      </trkpt>
      <trkpt lat="43.65283" lon="3.20008">
        <ele>253.93</ele>
        <time>2011-10-09T14:33:12Z</time>
      </trkpt>
      <trkpt lat="43.65293" lon="3.20028">
        <ele>254.41</ele>
        <time>2011-10-09T14:33:13Z</time>
      </trkpt>
      <trkpt lat="43.653" lon="3.20048">
        <ele>254.41</ele>
        <time>2011-10-09T14:33:14Z</time>
      </trkpt>
      <trkpt lat="43.65305" lon="3.20069">
        <ele>254.89</ele>
        <time>2011-10-09T14:33:15Z</time>
      </trkpt>
      <trkpt lat="43.65315" lon="3.2012">
        <ele>255.37</ele>
        <time>2011-10-09T14:33:18Z</time>
      </trkpt>
      <trkpt lat="43.65315" lon="3.20137">
        <ele>255.85</ele>
        <time>2011-10-09T14:33:19Z</time>
      </trkpt>
      <trkpt lat="43.65314" lon="3.20175">
        <ele>256.81</ele>
        <time>2011-10-09T14:33:21Z</time>
      </trkpt>
      <trkpt lat="43.65316" lon="3.20219">
        <ele>257.29</ele>
        <time>2011-10-09T14:33:23Z</time>
      </trkpt>
      <trkpt lat="43.65315" lon="3.20242">
        <ele>257.29</ele>
        <time>2011-10-09T14:33:24Z</time>
      </trkpt>
      <trkpt lat="43.65312" lon="3.20264">
        <ele>257.77</ele>
        <time>2011-10-09T14:33:25Z</time>
      </trkpt>
      <trkpt lat="43.65307" lon="3.20284">
        <ele>258.25</ele>
        <time>2011-10-09T14:33:26Z</time>
      </trkpt>
      <trkpt lat="43.653" lon="3.20301">
        <ele>258.25</ele>
        <time>2011-10-09T14:33:27Z</time>
      </trkpt>
      <trkpt lat="43.65291" lon="3.20315">
        <ele>258.73</ele>
        <time>2011-10-09T14:33:28Z</time>
      </trkpt>
      <trkpt lat="43.65283" lon="3.20327">
        <ele>259.21</ele>
        <time>2011-10-09T14:33:29Z</time>
      </trkpt>
      <trkpt lat="43.65277" lon="3.2034">
        <ele>259.69</ele>
        <time>2011-10-09T14:33:30Z</time>
      </trkpt>
      <trkpt lat="43.65273" lon="3.20356">
        <ele>260.17</ele>
        <time>2011-10-09T14:33:31Z</time>
      </trkpt>
      <trkpt lat="43.65273" lon="3.20375">
        <ele>260.17</ele>
        <time>2011-10-09T14:33:32Z</time>
      </trkpt>
      <trkpt lat="43.65274" lon="3.20394">
        <ele>260.17</ele>
        <time>2011-10-09T14:33:33Z</time>
      </trkpt>
      <trkpt lat="43.65279" lon="3.20414">
        <ele>260.65</ele>
        <time>2011-10-09T14:33:34Z</time>
      </trkpt>
      <trkpt lat="43.65286" lon="3.20435">
        <ele>260.65</ele>
        <time>2011-10-09T14:33:35Z</time>
      </trkpt>
      <trkpt lat="43.65297" lon="3.20482">
        <ele>261.14</ele>
        <time>2011-10-09T14:33:37Z</time>
      </trkpt>
      <trkpt lat="43.65301" lon="3.20505">
        <ele>261.14</ele>
        <time>2011-10-09T14:33:38Z</time>
      </trkpt>
      <trkpt lat="43.65308" lon="3.20542">
        <ele>261.62</ele>
        <time>2011-10-09T14:33:40Z</time>
      </trkpt>
      <trkpt lat="43.65316" lon="3.20555">
        <ele>261.62</ele>
        <time>2011-10-09T14:33:41Z</time>
      </trkpt>
      <trkpt lat="43.65325" lon="3.20565">
        <ele>262.1</ele>
        <time>2011-10-09T14:33:42Z</time>
      </trkpt>
      <trkpt lat="43.65335" lon="3.20574">
        <ele>262.1</ele>
        <time>2011-10-09T14:33:43Z</time>
      </trkpt>
      <trkpt lat="43.65343" lon="3.20584">
        <ele>262.1</ele>
        <time>2011-10-09T14:33:44Z</time>
      </trkpt>
      <trkpt lat="43.65351" lon="3.20598">
        <ele>262.1</ele>
        <time>2011-10-09T14:33:45Z</time>
      </trkpt>
      <trkpt lat="43.65356" lon="3.20617">
        <ele>262.1</ele>
        <time>2011-10-09T14:33:46Z</time>
      </trkpt>
      <trkpt lat="43.65361" lon="3.2064">
        <ele>262.1</ele>
        <time>2011-10-09T14:33:47Z</time>
      </trkpt>
      <trkpt lat="43.65365" lon="3.20667">
        <ele>262.58</ele>
        <time>2011-10-09T14:33:48Z</time>
      </trkpt>
      <trkpt lat="43.65395" lon="3.20807">
        <ele>264.02</ele>
        <time>2011-10-09T14:33:54Z</time>
      </trkpt>
      <trkpt lat="43.65404" lon="3.20825">
        <ele>264.5</ele>
        <time>2011-10-09T14:33:55Z</time>
      </trkpt>
      <trkpt lat="43.65425" lon="3.20863">
        <ele>264.98</ele>
        <time>2011-10-09T14:33:57Z</time>
      </trkpt>
      <trkpt lat="43.65433" lon="3.20887">
        <ele>265.46</ele>
        <time>2011-10-09T14:33:58Z</time>
      </trkpt>
      <trkpt lat="43.65484" lon="3.21085">
        <ele>268.83</ele>
        <time>2011-10-09T14:34:05Z</time>
      </trkpt>
      <trkpt lat="43.65502" lon="3.21182">
        <ele>269.79</ele>
        <time>2011-10-09T14:34:09Z</time>
      </trkpt>
      <trkpt lat="43.6551" lon="3.21202">
        <ele>270.27</ele>
        <time>2011-10-09T14:34:10Z</time>
      </trkpt>
      <trkpt lat="43.65521" lon="3.21222">
        <ele>270.27</ele>
        <time>2011-10-09T14:34:11Z</time>
      </trkpt>
      <trkpt lat="43.65555" lon="3.21273">
        <ele>270.75</ele>
        <time>2011-10-09T14:34:14Z</time>
      </trkpt>
      <trkpt lat="43.65568" lon="3.21285">
        <ele>271.23</ele>
        <time>2011-10-09T14:34:15Z</time>
      </trkpt>
      <trkpt lat="43.65582" lon="3.21297">
        <ele>271.23</ele>
        <time>2011-10-09T14:34:16Z</time>
      </trkpt>
      <trkpt lat="43.65594" lon="3.21311">
        <ele>271.71</ele>
        <time>2011-10-09T14:34:17Z</time>
      </trkpt>
      <trkpt lat="43.65605" lon="3.21327">
        <ele>272.19</ele>
        <time>2011-10-09T14:34:18Z</time>
      </trkpt>
      <trkpt lat="43.65614" lon="3.21345">
        <ele>272.19</ele>
        <time>2011-10-09T14:34:19Z</time>
      </trkpt>
      <trkpt lat="43.65624" lon="3.21365">
        <ele>272.67</ele>
        <time>2011-10-09T14:34:20Z</time>
      </trkpt>
      <trkpt lat="43.65636" lon="3.21385">
        <ele>272.67</ele>
        <time>2011-10-09T14:34:21Z</time>
      </trkpt>
      <trkpt lat="43.65649" lon="3.21405">
        <ele>273.15</ele>
        <time>2011-10-09T14:34:22Z</time>
      </trkpt>
      <trkpt lat="43.65669" lon="3.21435">
        <ele>273.63</ele>
        <time>2011-10-09T14:34:24Z</time>
      </trkpt>
      <trkpt lat="43.65675" lon="3.21449">
        <ele>274.11</ele>
        <time>2011-10-09T14:34:25Z</time>
      </trkpt>
      <trkpt lat="43.65677" lon="3.21464">
        <ele>274.59</ele>
        <time>2011-10-09T14:34:26Z</time>
      </trkpt>
      <trkpt lat="43.65678" lon="3.21481">
        <ele>274.59</ele>
        <time>2011-10-09T14:34:27Z</time>
      </trkpt>
      <trkpt lat="43.65679" lon="3.21497">
        <ele>274.59</ele>
        <time>2011-10-09T14:34:28Z</time>
      </trkpt>
      <trkpt lat="43.65683" lon="3.21514">
        <ele>275.07</ele>
        <time>2011-10-09T14:34:29Z</time>
      </trkpt>
      <trkpt lat="43.6569" lon="3.21531">
        <ele>275.56</ele>
        <time>2011-10-09T14:34:30Z</time>
      </trkpt>
      <trkpt lat="43.65697" lon="3.21546">
        <ele>275.56</ele>
        <time>2011-10-09T14:34:31Z</time>
      </trkpt>
      <trkpt lat="43.65725" lon="3.21597">
        <ele>276.04</ele>
        <time>2011-10-09T14:34:36Z</time>
      </trkpt>
      <trkpt lat="43.65726" lon="3.21604">
        <ele>276.04</ele>
        <time>2011-10-09T14:34:37Z</time>
      </trkpt>
      <trkpt lat="43.65724" lon="3.21611">
        <ele>276.04</ele>
        <time>2011-10-09T14:34:38Z</time>
      </trkpt>
      <trkpt lat="43.65721" lon="3.21618">
        <ele>276.52</ele>
        <time>2011-10-09T14:34:39Z</time>
      </trkpt>
      <trkpt lat="43.65717" lon="3.21627">
        <ele>276.52</ele>
        <time>2011-10-09T14:34:40Z</time>
      </trkpt>
      <trkpt lat="43.65716" lon="3.21637">
        <ele>276.52</ele>
        <time>2011-10-09T14:34:41Z</time>
      </trkpt>
      <trkpt lat="43.65719" lon="3.21648">
        <ele>277.48</ele>
        <time>2011-10-09T14:34:42Z</time>
      </trkpt>
      <trkpt lat="43.65724" lon="3.21657">
        <ele>277.96</ele>
        <time>2011-10-09T14:34:43Z</time>
      </trkpt>
      <trkpt lat="43.65731" lon="3.21667">
        <ele>278.44</ele>
        <time>2011-10-09T14:34:44Z</time>
      </trkpt>
      <trkpt lat="43.65736" lon="3.21679">
        <ele>278.92</ele>
        <time>2011-10-09T14:34:45Z</time>
      </trkpt>
      <trkpt lat="43.6574" lon="3.21691">
        <ele>279.4</ele>
        <time>2011-10-09T14:34:46Z</time>
      </trkpt>
      <trkpt lat="43.65742" lon="3.21705">
        <ele>280.36</ele>
        <time>2011-10-09T14:34:47Z</time>
      </trkpt>
      <trkpt lat="43.6574" lon="3.21719">
        <ele>280.36</ele>
        <time>2011-10-09T14:34:48Z</time>
      </trkpt>
      <trkpt lat="43.65735" lon="3.21733">
        <ele>280.84</ele>
        <time>2011-10-09T14:34:49Z</time>
      </trkpt>
      <trkpt lat="43.65727" lon="3.21744">
        <ele>281.32</ele>
        <time>2011-10-09T14:34:50Z</time>
      </trkpt>
      <trkpt lat="43.65717" lon="3.21756">
        <ele>282.28</ele>
        <time>2011-10-09T14:34:51Z</time>
      </trkpt>
      <trkpt lat="43.65708" lon="3.2177">
        <ele>283.25</ele>
        <time>2011-10-09T14:34:52Z</time>
      </trkpt>
      <trkpt lat="43.657" lon="3.2179">
        <ele>283.73</ele>
        <time>2011-10-09T14:34:53Z</time>
      </trkpt>
      <trkpt lat="43.65693" lon="3.21813">
        <ele>284.69</ele>
        <time>2011-10-09T14:34:54Z</time>
      </trkpt>
      <trkpt lat="43.65689" lon="3.21841">
        <ele>284.69</ele>
        <time>2011-10-09T14:34:55Z</time>
      </trkpt>
      <trkpt lat="43.65685" lon="3.21869">
        <ele>285.17</ele>
        <time>2011-10-09T14:34:56Z</time>
      </trkpt>
      <trkpt lat="43.65682" lon="3.21897">
        <ele>286.13</ele>
        <time>2011-10-09T14:34:57Z</time>
      </trkpt>
      <trkpt lat="43.65673" lon="3.21977">
        <ele>289.49</ele>
        <time>2011-10-09T14:35:01Z</time>
      </trkpt>
      <trkpt lat="43.65669" lon="3.21989">
        <ele>290.46</ele>
        <time>2011-10-09T14:35:02Z</time>
      </trkpt>
      <trkpt lat="43.65663" lon="3.21998">
        <ele>290.94</ele>
        <time>2011-10-09T14:35:03Z</time>
      </trkpt>
      <trkpt lat="43.65655" lon="3.22006">
        <ele>291.42</ele>
        <time>2011-10-09T14:35:04Z</time>
      </trkpt>
      <trkpt lat="43.65642" lon="3.22013">
        <ele>292.86</ele>
        <time>2011-10-09T14:35:05Z</time>
      </trkpt>
      <trkpt lat="43.65625" lon="3.22019">
        <ele>294.3</ele>
        <time>2011-10-09T14:35:06Z</time>
      </trkpt>
      <trkpt lat="43.65605" lon="3.22024">
        <ele>295.26</ele>
        <time>2011-10-09T14:35:07Z</time>
      </trkpt>
      <trkpt lat="43.65461" lon="3.22071">
        <ele>303.43</ele>
        <time>2011-10-09T14:35:15Z</time>
      </trkpt>
      <trkpt lat="43.65449" lon="3.22079">
        <ele>303.91</ele>
        <time>2011-10-09T14:35:16Z</time>
      </trkpt>
      <trkpt lat="43.65438" lon="3.22091">
        <ele>304.39</ele>
        <time>2011-10-09T14:35:17Z</time>
      </trkpt>
      <trkpt lat="43.6543" lon="3.2211">
        <ele>305.36</ele>
        <time>2011-10-09T14:35:18Z</time>
      </trkpt>
      <trkpt lat="43.65424" lon="3.22134">
        <ele>306.32</ele>
        <time>2011-10-09T14:35:19Z</time>
      </trkpt>
      <trkpt lat="43.65416" lon="3.22159">
        <ele>307.28</ele>
        <time>2011-10-09T14:35:20Z</time>
      </trkpt>
      <trkpt lat="43.65407" lon="3.22184">
        <ele>308.24</ele>
        <time>2011-10-09T14:35:21Z</time>
      </trkpt>
      <trkpt lat="43.65395" lon="3.22209">
        <ele>309.2</ele>
        <time>2011-10-09T14:35:22Z</time>
      </trkpt>
      <trkpt lat="43.65381" lon="3.22232">
        <ele>310.16</ele>
        <time>2011-10-09T14:35:23Z</time>
      </trkpt>
      <trkpt lat="43.65348" lon="3.22295">
        <ele>313.53</ele>
        <time>2011-10-09T14:35:26Z</time>
      </trkpt>
      <trkpt lat="43.65343" lon="3.22316">
        <ele>314.01</ele>
        <time>2011-10-09T14:35:27Z</time>
      </trkpt>
      <trkpt lat="43.65339" lon="3.22337">
        <ele>314.97</ele>
        <time>2011-10-09T14:35:28Z</time>
      </trkpt>
      <trkpt lat="43.65339" lon="3.22358">
        <ele>315.45</ele>
        <time>2011-10-09T14:35:29Z</time>
      </trkpt>
      <trkpt lat="43.65342" lon="3.22377">
        <ele>316.89</ele>
        <time>2011-10-09T14:35:30Z</time>
      </trkpt>
      <trkpt lat="43.65349" lon="3.22397">
        <ele>317.37</ele>
        <time>2011-10-09T14:35:31Z</time>
      </trkpt>
      <trkpt lat="43.65358" lon="3.22418">
        <ele>318.33</ele>
        <time>2011-10-09T14:35:32Z</time>
      </trkpt>
      <trkpt lat="43.65367" lon="3.22438">
        <ele>319.3</ele>
        <time>2011-10-09T14:35:33Z</time>
      </trkpt>
      <trkpt lat="43.65374" lon="3.22457">
        <ele>320.26</ele>
        <time>2011-10-09T14:35:34Z</time>
      </trkpt>
      <trkpt lat="43.65377" lon="3.22479">
        <ele>321.7</ele>
        <time>2011-10-09T14:35:35Z</time>
      </trkpt>
      <trkpt lat="43.65376" lon="3.22504">
        <ele>323.14</ele>
        <time>2011-10-09T14:35:36Z</time>
      </trkpt>
      <trkpt lat="43.65374" lon="3.2253">
        <ele>324.1</ele>
        <time>2011-10-09T14:35:37Z</time>
      </trkpt>
      <trkpt lat="43.6537" lon="3.22559">
        <ele>324.58</ele>
        <time>2011-10-09T14:35:38Z</time>
      </trkpt>
      <trkpt lat="43.65364" lon="3.22587">
        <ele>325.54</ele>
        <time>2011-10-09T14:35:39Z</time>
      </trkpt>
      <trkpt lat="43.65358" lon="3.22613">
        <ele>326.5</ele>
        <time>2011-10-09T14:35:40Z</time>
      </trkpt>
      <trkpt lat="43.65345" lon="3.22681">
        <ele>328.43</ele>
        <time>2011-10-09T14:35:43Z</time>
      </trkpt>
      <trkpt lat="43.65346" lon="3.227">
        <ele>328.91</ele>
        <time>2011-10-09T14:35:44Z</time>
      </trkpt>
      <trkpt lat="43.65348" lon="3.22736">
        <ele>329.39</ele>
        <time>2011-10-09T14:35:46Z</time>
      </trkpt>
      <trkpt lat="43.65345" lon="3.22752">
        <ele>329.87</ele>
        <time>2011-10-09T14:35:47Z</time>
      </trkpt>
      <trkpt lat="43.65335" lon="3.2281">
        <ele>331.31</ele>
        <time>2011-10-09T14:35:51Z</time>
      </trkpt>
      <trkpt lat="43.65334" lon="3.22824">
        <ele>331.31</ele>
        <time>2011-10-09T14:35:52Z</time>
      </trkpt>
      <trkpt lat="43.65335" lon="3.22839">
        <ele>331.79</ele>
        <time>2011-10-09T14:35:53Z</time>
      </trkpt>
      <trkpt lat="43.65337" lon="3.22854">
        <ele>332.27</ele>
        <time>2011-10-09T14:35:54Z</time>
      </trkpt>
      <trkpt lat="43.6534" lon="3.22868">
        <ele>332.75</ele>
        <time>2011-10-09T14:35:55Z</time>
      </trkpt>
      <trkpt lat="43.6535" lon="3.22908">
        <ele>333.71</ele>
        <time>2011-10-09T14:35:58Z</time>
      </trkpt>
      <trkpt lat="43.65356" lon="3.22921">
        <ele>334.2</ele>
        <time>2011-10-09T14:35:59Z</time>
      </trkpt>
      <trkpt lat="43.65364" lon="3.22933">
        <ele>334.68</ele>
        <time>2011-10-09T14:36:00Z</time>
      </trkpt>
      <trkpt lat="43.65372" lon="3.22943">
        <ele>334.68</ele>
        <time>2011-10-09T14:36:01Z</time>
      </trkpt>
      <trkpt lat="43.6538" lon="3.22951">
        <ele>335.16</ele>
        <time>2011-10-09T14:36:02Z</time>
      </trkpt>
      <trkpt lat="43.65386" lon="3.2296">
        <ele>335.64</ele>
        <time>2011-10-09T14:36:03Z</time>
      </trkpt>
      <trkpt lat="43.65392" lon="3.2297">
        <ele>336.12</ele>
        <time>2011-10-09T14:36:04Z</time>
      </trkpt>
      <trkpt lat="43.65397" lon="3.22982">
        <ele>336.6</ele>
        <time>2011-10-09T14:36:05Z</time>
      </trkpt>
      <trkpt lat="43.65403" lon="3.22995">
        <ele>336.6</ele>
        <time>2011-10-09T14:36:06Z</time>
      </trkpt>
      <trkpt lat="43.6541" lon="3.23007">
        <ele>337.08</ele>
        <time>2011-10-09T14:36:07Z</time>
      </trkpt>
      <trkpt lat="43.65418" lon="3.23019">
        <ele>337.56</ele>
        <time>2011-10-09T14:36:08Z</time>
      </trkpt>
      <trkpt lat="43.65427" lon="3.23031">
        <ele>338.04</ele>
        <time>2011-10-09T14:36:09Z</time>
      </trkpt>
      <trkpt lat="43.65512" lon="3.23111">
        <ele>340.92</ele>
        <time>2011-10-09T14:36:17Z</time>
      </trkpt>
      <trkpt lat="43.65611" lon="3.23162">
        <ele>343.33</ele>
        <time>2011-10-09T14:36:24Z</time>
      </trkpt>
      <trkpt lat="43.65704" lon="3.23208">
        <ele>343.81</ele>
        <time>2011-10-09T14:36:32Z</time>
      </trkpt>
      <trkpt lat="43.65722" lon="3.23217">
        <ele>344.29</ele>
        <time>2011-10-09T14:36:34Z</time>
      </trkpt>
      <trkpt lat="43.65728" lon="3.23224">
        <ele>344.29</ele>
        <time>2011-10-09T14:36:35Z</time>
      </trkpt>
      <trkpt lat="43.65733" lon="3.23234">
        <ele>344.29</ele>
        <time>2011-10-09T14:36:36Z</time>
      </trkpt>
      <trkpt lat="43.65734" lon="3.23246">
        <ele>344.29</ele>
        <time>2011-10-09T14:36:37Z</time>
      </trkpt>
      <trkpt lat="43.65733" lon="3.23258">
        <ele>344.29</ele>
        <time>2011-10-09T14:36:38Z</time>
      </trkpt>
      <trkpt lat="43.65728" lon="3.23269">
        <ele>344.29</ele>
        <time>2011-10-09T14:36:39Z</time>
      </trkpt>
      <trkpt lat="43.65723" lon="3.23278">
        <ele>344.29</ele>
        <time>2011-10-09T14:36:40Z</time>
      </trkpt>
      <trkpt lat="43.65717" lon="3.23284">
        <ele>343.81</ele>
        <time>2011-10-09T14:36:41Z</time>
      </trkpt>
      <trkpt lat="43.6571" lon="3.23286">
        <ele>343.81</ele>
        <time>2011-10-09T14:36:42Z</time>
      </trkpt>
      <trkpt lat="43.65701" lon="3.23283">
        <ele>343.81</ele>
        <time>2011-10-09T14:36:43Z</time>
      </trkpt>
      <trkpt lat="43.65692" lon="3.23279">
        <ele>343.33</ele>
        <time>2011-10-09T14:36:44Z</time>
      </trkpt>
      <trkpt lat="43.6564" lon="3.23264">
        <ele>345.73</ele>
        <time>2011-10-09T14:36:49Z</time>
      </trkpt>
      <trkpt lat="43.65627" lon="3.23264">
        <ele>346.69</ele>
        <time>2011-10-09T14:36:50Z</time>
      </trkpt>
      <trkpt lat="43.6561" lon="3.23266">
        <ele>346.69</ele>
        <time>2011-10-09T14:36:51Z</time>
      </trkpt>
      <trkpt lat="43.65535" lon="3.23279">
        <ele>349.58</ele>
        <time>2011-10-09T14:36:55Z</time>
      </trkpt>
      <trkpt lat="43.65519" lon="3.23279">
        <ele>350.54</ele>
        <time>2011-10-09T14:36:56Z</time>
      </trkpt>
      <trkpt lat="43.65505" lon="3.23272">
        <ele>351.02</ele>
        <time>2011-10-09T14:36:57Z</time>
      </trkpt>
      <trkpt lat="43.65493" lon="3.23261">
        <ele>351.98</ele>
        <time>2011-10-09T14:36:58Z</time>
      </trkpt>
      <trkpt lat="43.6548" lon="3.23249">
        <ele>351.98</ele>
        <time>2011-10-09T14:36:59Z</time>
      </trkpt>
      <trkpt lat="43.65466" lon="3.2324">
        <ele>352.94</ele>
        <time>2011-10-09T14:37:00Z</time>
      </trkpt>
      <trkpt lat="43.65448" lon="3.23234">
        <ele>353.42</ele>
        <time>2011-10-09T14:37:01Z</time>
      </trkpt>
      <trkpt lat="43.65428" lon="3.23231">
        <ele>354.38</ele>
        <time>2011-10-09T14:37:02Z</time>
      </trkpt>
      <trkpt lat="43.6539" lon="3.23224">
        <ele>355.83</ele>
        <time>2011-10-09T14:37:04Z</time>
      </trkpt>
      <trkpt lat="43.65374" lon="3.23216">
        <ele>356.31</ele>
        <time>2011-10-09T14:37:05Z</time>
      </trkpt>
      <trkpt lat="43.6534" lon="3.23196">
        <ele>357.75</ele>
        <time>2011-10-09T14:37:07Z</time>
      </trkpt>
      <trkpt lat="43.6532" lon="3.2319">
        <ele>358.71</ele>
        <time>2011-10-09T14:37:08Z</time>
      </trkpt>
      <trkpt lat="43.65238" lon="3.23181">
        <ele>361.59</ele>
        <time>2011-10-09T14:37:12Z</time>
      </trkpt>
      <trkpt lat="43.65218" lon="3.23188">
        <ele>362.07</ele>
        <time>2011-10-09T14:37:13Z</time>
      </trkpt>
      <trkpt lat="43.65198" lon="3.23196">
        <ele>363.04</ele>
        <time>2011-10-09T14:37:14Z</time>
      </trkpt>
      <trkpt lat="43.65178" lon="3.23206">
        <ele>364</ele>
        <time>2011-10-09T14:37:15Z</time>
      </trkpt>
      <trkpt lat="43.6516" lon="3.23217">
        <ele>364.96</ele>
        <time>2011-10-09T14:37:16Z</time>
      </trkpt>
      <trkpt lat="43.65144" lon="3.2323">
        <ele>365.44</ele>
        <time>2011-10-09T14:37:17Z</time>
      </trkpt>
      <trkpt lat="43.65132" lon="3.23241">
        <ele>366.4</ele>
        <time>2011-10-09T14:37:18Z</time>
      </trkpt>
      <trkpt lat="43.65113" lon="3.23259">
        <ele>367.84</ele>
        <time>2011-10-09T14:37:20Z</time>
      </trkpt>
      <trkpt lat="43.65108" lon="3.23267">
        <ele>367.84</ele>
        <time>2011-10-09T14:37:21Z</time>
      </trkpt>
      <trkpt lat="43.65103" lon="3.23274">
        <ele>368.32</ele>
        <time>2011-10-09T14:37:22Z</time>
      </trkpt>
      <trkpt lat="43.65098" lon="3.23279">
        <ele>368.32</ele>
        <time>2011-10-09T14:37:23Z</time>
      </trkpt>
      <trkpt lat="43.65092" lon="3.23282">
        <ele>367.84</ele>
        <time>2011-10-09T14:37:24Z</time>
      </trkpt>
      <trkpt lat="43.65084" lon="3.23285">
        <ele>367.36</ele>
        <time>2011-10-09T14:37:25Z</time>
      </trkpt>
      <trkpt lat="43.65074" lon="3.23288">
        <ele>367.36</ele>
        <time>2011-10-09T14:37:26Z</time>
      </trkpt>
      <trkpt lat="43.6506" lon="3.23289">
        <ele>366.88</ele>
        <time>2011-10-09T14:37:27Z</time>
      </trkpt>
      <trkpt lat="43.65045" lon="3.23289">
        <ele>365.92</ele>
        <time>2011-10-09T14:37:28Z</time>
      </trkpt>
      <trkpt lat="43.65012" lon="3.23293">
        <ele>363.52</ele>
        <time>2011-10-09T14:37:30Z</time>
      </trkpt>
      <trkpt lat="43.64996" lon="3.23299">
        <ele>362.55</ele>
        <time>2011-10-09T14:37:31Z</time>
      </trkpt>
      <trkpt lat="43.64982" lon="3.23306">
        <ele>361.59</ele>
        <time>2011-10-09T14:37:32Z</time>
      </trkpt>
      <trkpt lat="43.6495" lon="3.23327">
        <ele>358.23</ele>
        <time>2011-10-09T14:37:36Z</time>
      </trkpt>
      <trkpt lat="43.64942" lon="3.23337">
        <ele>357.27</ele>
        <time>2011-10-09T14:37:43Z</time>
      </trkpt>
      <trkpt lat="43.64945" lon="3.23336">
        <ele>359.67</ele>
        <time>2011-10-09T14:38:37Z</time>
      </trkpt>
      <trkpt lat="43.64938" lon="3.23334">
        <ele>359.67</ele>
        <time>2011-10-09T14:39:25Z</time>
      </trkpt>
      <trkpt lat="43.64894" lon="3.23309">
        <ele>356.79</ele>
        <time>2011-10-09T14:39:30Z</time>
      </trkpt>
      <trkpt lat="43.64785" lon="3.23275">
        <ele>350.54</ele>
        <time>2011-10-09T14:39:36Z</time>
      </trkpt>
      <trkpt lat="43.64716" lon="3.23272">
        <ele>346.21</ele>
        <time>2011-10-09T14:39:40Z</time>
      </trkpt>
      <trkpt lat="43.64697" lon="3.23277">
        <ele>345.25</ele>
        <time>2011-10-09T14:39:41Z</time>
      </trkpt>
      <trkpt lat="43.64584" lon="3.23326">
        <ele>337.56</ele>
        <time>2011-10-09T14:39:47Z</time>
      </trkpt>
      <trkpt lat="43.64539" lon="3.23356">
        <ele>334.2</ele>
        <time>2011-10-09T14:39:50Z</time>
      </trkpt>
      <trkpt lat="43.64524" lon="3.23362">
        <ele>333.23</ele>
        <time>2011-10-09T14:39:51Z</time>
      </trkpt>
      <trkpt lat="43.64511" lon="3.23363">
        <ele>332.27</ele>
        <time>2011-10-09T14:39:52Z</time>
      </trkpt>
      <trkpt lat="43.64501" lon="3.23363">
        <ele>330.83</ele>
        <time>2011-10-09T14:39:53Z</time>
      </trkpt>
      <trkpt lat="43.64493" lon="3.23363">
        <ele>330.35</ele>
        <time>2011-10-09T14:39:54Z</time>
      </trkpt>
      <trkpt lat="43.64486" lon="3.23367">
        <ele>329.39</ele>
        <time>2011-10-09T14:39:55Z</time>
      </trkpt>
      <trkpt lat="43.64481" lon="3.23374">
        <ele>328.91</ele>
        <time>2011-10-09T14:39:56Z</time>
      </trkpt>
      <trkpt lat="43.64478" lon="3.23384">
        <ele>327.95</ele>
        <time>2011-10-09T14:39:57Z</time>
      </trkpt>
      <trkpt lat="43.64477" lon="3.23397">
        <ele>326.99</ele>
        <time>2011-10-09T14:39:58Z</time>
      </trkpt>
      <trkpt lat="43.6448" lon="3.23413">
        <ele>326.5</ele>
        <time>2011-10-09T14:39:59Z</time>
      </trkpt>
      <trkpt lat="43.64485" lon="3.2343">
        <ele>325.54</ele>
        <time>2011-10-09T14:40:00Z</time>
      </trkpt>
      <trkpt lat="43.64491" lon="3.23449">
        <ele>324.58</ele>
        <time>2011-10-09T14:40:01Z</time>
      </trkpt>
      <trkpt lat="43.64501" lon="3.2349">
        <ele>322.18</ele>
        <time>2011-10-09T14:40:03Z</time>
      </trkpt>
      <trkpt lat="43.64504" lon="3.23509">
        <ele>320.74</ele>
        <time>2011-10-09T14:40:04Z</time>
      </trkpt>
      <trkpt lat="43.64504" lon="3.23528">
        <ele>319.78</ele>
        <time>2011-10-09T14:40:05Z</time>
      </trkpt>
      <trkpt lat="43.64502" lon="3.2355">
        <ele>318.81</ele>
        <time>2011-10-09T14:40:06Z</time>
      </trkpt>
      <trkpt lat="43.64498" lon="3.23575">
        <ele>317.85</ele>
        <time>2011-10-09T14:40:07Z</time>
      </trkpt>
      <trkpt lat="43.64483" lon="3.23696">
        <ele>312.57</ele>
        <time>2011-10-09T14:40:12Z</time>
      </trkpt>
      <trkpt lat="43.64477" lon="3.23716">
        <ele>311.6</ele>
        <time>2011-10-09T14:40:13Z</time>
      </trkpt>
      <trkpt lat="43.64469" lon="3.23736">
        <ele>310.16</ele>
        <time>2011-10-09T14:40:14Z</time>
      </trkpt>
      <trkpt lat="43.64453" lon="3.23772">
        <ele>308.24</ele>
        <time>2011-10-09T14:40:16Z</time>
      </trkpt>
      <trkpt lat="43.64449" lon="3.23788">
        <ele>307.28</ele>
        <time>2011-10-09T14:40:17Z</time>
      </trkpt>
      <trkpt lat="43.64448" lon="3.23802">
        <ele>306.32</ele>
        <time>2011-10-09T14:40:18Z</time>
      </trkpt>
      <trkpt lat="43.6445" lon="3.23815">
        <ele>305.36</ele>
        <time>2011-10-09T14:40:19Z</time>
      </trkpt>
      <trkpt lat="43.64456" lon="3.23827">
        <ele>304.39</ele>
        <time>2011-10-09T14:40:20Z</time>
      </trkpt>
      <trkpt lat="43.64463" lon="3.23838">
        <ele>303.91</ele>
        <time>2011-10-09T14:40:21Z</time>
      </trkpt>
      <trkpt lat="43.64469" lon="3.23849">
        <ele>302.95</ele>
        <time>2011-10-09T14:40:22Z</time>
      </trkpt>
      <trkpt lat="43.64475" lon="3.23863">
        <ele>301.99</ele>
        <time>2011-10-09T14:40:23Z</time>
      </trkpt>
      <trkpt lat="43.64478" lon="3.23878">
        <ele>301.03</ele>
        <time>2011-10-09T14:40:24Z</time>
      </trkpt>
      <trkpt lat="43.64479" lon="3.23893">
        <ele>300.07</ele>
        <time>2011-10-09T14:40:25Z</time>
      </trkpt>
      <trkpt lat="43.64476" lon="3.23908">
        <ele>299.11</ele>
        <time>2011-10-09T14:40:26Z</time>
      </trkpt>
      <trkpt lat="43.64471" lon="3.23921">
        <ele>298.15</ele>
        <time>2011-10-09T14:40:27Z</time>
      </trkpt>
      <trkpt lat="43.64463" lon="3.23934">
        <ele>297.67</ele>
        <time>2011-10-09T14:40:28Z</time>
      </trkpt>
      <trkpt lat="43.64455" lon="3.23947">
        <ele>297.18</ele>
        <time>2011-10-09T14:40:29Z</time>
      </trkpt>
      <trkpt lat="43.64449" lon="3.2396">
        <ele>296.22</ele>
        <time>2011-10-09T14:40:30Z</time>
      </trkpt>
      <trkpt lat="43.64445" lon="3.23975">
        <ele>295.74</ele>
        <time>2011-10-09T14:40:31Z</time>
      </trkpt>
      <trkpt lat="43.64444" lon="3.23989">
        <ele>295.26</ele>
        <time>2011-10-09T14:40:32Z</time>
      </trkpt>
      <trkpt lat="43.64447" lon="3.24001">
        <ele>294.78</ele>
        <time>2011-10-09T14:40:33Z</time>
      </trkpt>
      <trkpt lat="43.6445" lon="3.24013">
        <ele>293.82</ele>
        <time>2011-10-09T14:40:34Z</time>
      </trkpt>
      <trkpt lat="43.64451" lon="3.24024">
        <ele>293.34</ele>
        <time>2011-10-09T14:40:35Z</time>
      </trkpt>
      <trkpt lat="43.64449" lon="3.24035">
        <ele>292.38</ele>
        <time>2011-10-09T14:40:36Z</time>
      </trkpt>
      <trkpt lat="43.64445" lon="3.24047">
        <ele>291.9</ele>
        <time>2011-10-09T14:40:37Z</time>
      </trkpt>
      <trkpt lat="43.64439" lon="3.24061">
        <ele>291.42</ele>
        <time>2011-10-09T14:40:38Z</time>
      </trkpt>
      <trkpt lat="43.64435" lon="3.24077">
        <ele>290.94</ele>
        <time>2011-10-09T14:40:39Z</time>
      </trkpt>
      <trkpt lat="43.64433" lon="3.24095">
        <ele>289.97</ele>
        <time>2011-10-09T14:40:40Z</time>
      </trkpt>
      <trkpt lat="43.64432" lon="3.24113">
        <ele>289.01</ele>
        <time>2011-10-09T14:40:41Z</time>
      </trkpt>
      <trkpt lat="43.6443" lon="3.24131">
        <ele>288.05</ele>
        <time>2011-10-09T14:40:42Z</time>
      </trkpt>
      <trkpt lat="43.64427" lon="3.24148">
        <ele>287.57</ele>
        <time>2011-10-09T14:40:43Z</time>
      </trkpt>
      <trkpt lat="43.64422" lon="3.24162">
        <ele>286.61</ele>
        <time>2011-10-09T14:40:44Z</time>
      </trkpt>
      <trkpt lat="43.64415" lon="3.24174">
        <ele>285.65</ele>
        <time>2011-10-09T14:40:45Z</time>
      </trkpt>
      <trkpt lat="43.64405" lon="3.24184">
        <ele>285.17</ele>
        <time>2011-10-09T14:40:46Z</time>
      </trkpt>
      <trkpt lat="43.64393" lon="3.24195">
        <ele>284.69</ele>
        <time>2011-10-09T14:40:47Z</time>
      </trkpt>
      <trkpt lat="43.64382" lon="3.24207">
        <ele>283.73</ele>
        <time>2011-10-09T14:40:48Z</time>
      </trkpt>
      <trkpt lat="43.64372" lon="3.2422">
        <ele>283.25</ele>
        <time>2011-10-09T14:40:49Z</time>
      </trkpt>
      <trkpt lat="43.64345" lon="3.24255">
        <ele>280.84</ele>
        <time>2011-10-09T14:40:52Z</time>
      </trkpt>
      <trkpt lat="43.64336" lon="3.24263">
        <ele>280.36</ele>
        <time>2011-10-09T14:40:53Z</time>
      </trkpt>
      <trkpt lat="43.64327" lon="3.2427">
        <ele>279.4</ele>
        <time>2011-10-09T14:40:54Z</time>
      </trkpt>
      <trkpt lat="43.64321" lon="3.24277">
        <ele>278.92</ele>
        <time>2011-10-09T14:40:55Z</time>
      </trkpt>
      <trkpt lat="43.64317" lon="3.24285">
        <ele>278.44</ele>
        <time>2011-10-09T14:40:56Z</time>
      </trkpt>
      <trkpt lat="43.64315" lon="3.24293">
        <ele>277.96</ele>
        <time>2011-10-09T14:40:57Z</time>
      </trkpt>
      <trkpt lat="43.64313" lon="3.24304">
        <ele>277.48</ele>
        <time>2011-10-09T14:40:58Z</time>
      </trkpt>
      <trkpt lat="43.64312" lon="3.24317">
        <ele>276.52</ele>
        <time>2011-10-09T14:40:59Z</time>
      </trkpt>
      <trkpt lat="43.64303" lon="3.24359">
        <ele>274.11</ele>
        <time>2011-10-09T14:41:02Z</time>
      </trkpt>
      <trkpt lat="43.64298" lon="3.24372">
        <ele>273.63</ele>
        <time>2011-10-09T14:41:03Z</time>
      </trkpt>
      <trkpt lat="43.64293" lon="3.24384">
        <ele>272.67</ele>
        <time>2011-10-09T14:41:04Z</time>
      </trkpt>
      <trkpt lat="43.6426" lon="3.24468">
        <ele>267.86</ele>
        <time>2011-10-09T14:41:11Z</time>
      </trkpt>
      <trkpt lat="43.64258" lon="3.2448">
        <ele>267.38</ele>
        <time>2011-10-09T14:41:12Z</time>
      </trkpt>
      <trkpt lat="43.64259" lon="3.24492">
        <ele>266.9</ele>
        <time>2011-10-09T14:41:13Z</time>
      </trkpt>
      <trkpt lat="43.64261" lon="3.24503">
        <ele>266.42</ele>
        <time>2011-10-09T14:41:14Z</time>
      </trkpt>
      <trkpt lat="43.64263" lon="3.24514">
        <ele>265.46</ele>
        <time>2011-10-09T14:41:15Z</time>
      </trkpt>
      <trkpt lat="43.64265" lon="3.24524">
        <ele>264.98</ele>
        <time>2011-10-09T14:41:16Z</time>
      </trkpt>
      <trkpt lat="43.64266" lon="3.24534">
        <ele>264.5</ele>
        <time>2011-10-09T14:41:17Z</time>
      </trkpt>
      <trkpt lat="43.64265" lon="3.24546">
        <ele>264.5</ele>
        <time>2011-10-09T14:41:18Z</time>
      </trkpt>
      <trkpt lat="43.64264" lon="3.24559">
        <ele>264.02</ele>
        <time>2011-10-09T14:41:19Z</time>
      </trkpt>
      <trkpt lat="43.64261" lon="3.24574">
        <ele>263.06</ele>
        <time>2011-10-09T14:41:20Z</time>
      </trkpt>
      <trkpt lat="43.64225" lon="3.24707">
        <ele>256.81</ele>
        <time>2011-10-09T14:41:27Z</time>
      </trkpt>
      <trkpt lat="43.64176" lon="3.24885">
        <ele>249.12</ele>
        <time>2011-10-09T14:41:34Z</time>
      </trkpt>
      <trkpt lat="43.64111" lon="3.2515">
        <ele>236.62</ele>
        <time>2011-10-09T14:41:43Z</time>
      </trkpt>
      <trkpt lat="43.64079" lon="3.25291">
        <ele>228.93</ele>
        <time>2011-10-09T14:41:48Z</time>
      </trkpt>
      <trkpt lat="43.64077" lon="3.25313">
        <ele>227.49</ele>
        <time>2011-10-09T14:41:49Z</time>
      </trkpt>
      <trkpt lat="43.64078" lon="3.25336">
        <ele>226.53</ele>
        <time>2011-10-09T14:41:50Z</time>
      </trkpt>
      <trkpt lat="43.64083" lon="3.25362">
        <ele>225.09</ele>
        <time>2011-10-09T14:41:51Z</time>
      </trkpt>
      <trkpt lat="43.64089" lon="3.25391">
        <ele>223.64</ele>
        <time>2011-10-09T14:41:52Z</time>
      </trkpt>
      <trkpt lat="43.64129" lon="3.25542">
        <ele>222.68</ele>
        <time>2011-10-09T14:41:58Z</time>
      </trkpt>
      <trkpt lat="43.64131" lon="3.25557">
        <ele>222.68</ele>
        <time>2011-10-09T14:41:59Z</time>
      </trkpt>
      <trkpt lat="43.64132" lon="3.2557">
        <ele>222.2</ele>
        <time>2011-10-09T14:42:00Z</time>
      </trkpt>
      <trkpt lat="43.64131" lon="3.25582">
        <ele>222.2</ele>
        <time>2011-10-09T14:42:01Z</time>
      </trkpt>
      <trkpt lat="43.64129" lon="3.25594">
        <ele>222.2</ele>
        <time>2011-10-09T14:42:02Z</time>
      </trkpt>
      <trkpt lat="43.64126" lon="3.25607">
        <ele>221.72</ele>
        <time>2011-10-09T14:42:03Z</time>
      </trkpt>
      <trkpt lat="43.6412" lon="3.25621">
        <ele>221.72</ele>
        <time>2011-10-09T14:42:04Z</time>
      </trkpt>
      <trkpt lat="43.64114" lon="3.25635">
        <ele>221.72</ele>
        <time>2011-10-09T14:42:05Z</time>
      </trkpt>
      <trkpt lat="43.6409" lon="3.25675">
        <ele>220.76</ele>
        <time>2011-10-09T14:42:08Z</time>
      </trkpt>
      <trkpt lat="43.64079" lon="3.25685">
        <ele>220.28</ele>
        <time>2011-10-09T14:42:09Z</time>
      </trkpt>
      <trkpt lat="43.64067" lon="3.25693">
        <ele>219.8</ele>
        <time>2011-10-09T14:42:10Z</time>
      </trkpt>
      <trkpt lat="43.63966" lon="3.25746">
        <ele>218.36</ele>
        <time>2011-10-09T14:42:16Z</time>
      </trkpt>
      <trkpt lat="43.63808" lon="3.25814">
        <ele>217.4</ele>
        <time>2011-10-09T14:42:24Z</time>
      </trkpt>
      <trkpt lat="43.63725" lon="3.25842">
        <ele>215.95</ele>
        <time>2011-10-09T14:42:29Z</time>
      </trkpt>
      <trkpt lat="43.63713" lon="3.25853">
        <ele>215.95</ele>
        <time>2011-10-09T14:42:30Z</time>
      </trkpt>
      <trkpt lat="43.63703" lon="3.2587">
        <ele>215.47</ele>
        <time>2011-10-09T14:42:31Z</time>
      </trkpt>
      <trkpt lat="43.63692" lon="3.25891">
        <ele>215.47</ele>
        <time>2011-10-09T14:42:32Z</time>
      </trkpt>
      <trkpt lat="43.63682" lon="3.25912">
        <ele>214.99</ele>
        <time>2011-10-09T14:42:33Z</time>
      </trkpt>
      <trkpt lat="43.63649" lon="3.25964">
        <ele>214.99</ele>
        <time>2011-10-09T14:42:36Z</time>
      </trkpt>
      <trkpt lat="43.63635" lon="3.25978">
        <ele>214.51</ele>
        <time>2011-10-09T14:42:37Z</time>
      </trkpt>
      <trkpt lat="43.63619" lon="3.25991">
        <ele>214.03</ele>
        <time>2011-10-09T14:42:38Z</time>
      </trkpt>
      <trkpt lat="43.63518" lon="3.26046">
        <ele>212.59</ele>
        <time>2011-10-09T14:42:45Z</time>
      </trkpt>
      <trkpt lat="43.634" lon="3.26113">
        <ele>208.74</ele>
        <time>2011-10-09T14:42:56Z</time>
      </trkpt>
      <trkpt lat="43.63295" lon="3.26166">
        <ele>204.42</ele>
        <time>2011-10-09T14:43:03Z</time>
      </trkpt>
      <trkpt lat="43.63185" lon="3.26237">
        <ele>202.98</ele>
        <time>2011-10-09T14:43:10Z</time>
      </trkpt>
      <trkpt lat="43.63175" lon="3.26251">
        <ele>202.98</ele>
        <time>2011-10-09T14:43:11Z</time>
      </trkpt>
      <trkpt lat="43.63167" lon="3.26265">
        <ele>203.46</ele>
        <time>2011-10-09T14:43:12Z</time>
      </trkpt>
      <trkpt lat="43.6316" lon="3.26281">
        <ele>203.46</ele>
        <time>2011-10-09T14:43:13Z</time>
      </trkpt>
      <trkpt lat="43.63156" lon="3.26298">
        <ele>204.42</ele>
        <time>2011-10-09T14:43:14Z</time>
      </trkpt>
      <trkpt lat="43.63154" lon="3.26316">
        <ele>204.42</ele>
        <time>2011-10-09T14:43:15Z</time>
      </trkpt>
      <trkpt lat="43.63155" lon="3.26335">
        <ele>204.9</ele>
        <time>2011-10-09T14:43:16Z</time>
      </trkpt>
      <trkpt lat="43.63158" lon="3.26353">
        <ele>204.9</ele>
        <time>2011-10-09T14:43:17Z</time>
      </trkpt>
      <trkpt lat="43.63164" lon="3.26372">
        <ele>204.9</ele>
        <time>2011-10-09T14:43:18Z</time>
      </trkpt>
      <trkpt lat="43.63171" lon="3.26391">
        <ele>205.38</ele>
        <time>2011-10-09T14:43:19Z</time>
      </trkpt>
      <trkpt lat="43.63219" lon="3.26517">
        <ele>204.42</ele>
        <time>2011-10-09T14:43:26Z</time>
      </trkpt>
      <trkpt lat="43.63221" lon="3.26535">
        <ele>204.42</ele>
        <time>2011-10-09T14:43:27Z</time>
      </trkpt>
      <trkpt lat="43.6322" lon="3.26552">
        <ele>204.9</ele>
        <time>2011-10-09T14:43:28Z</time>
      </trkpt>
      <trkpt lat="43.63216" lon="3.26568">
        <ele>204.9</ele>
        <time>2011-10-09T14:43:29Z</time>
      </trkpt>
      <trkpt lat="43.63209" lon="3.26584">
        <ele>205.38</ele>
        <time>2011-10-09T14:43:30Z</time>
      </trkpt>
      <trkpt lat="43.632" lon="3.266">
        <ele>205.38</ele>
        <time>2011-10-09T14:43:31Z</time>
      </trkpt>
      <trkpt lat="43.63169" lon="3.26677">
        <ele>204.9</ele>
        <time>2011-10-09T14:43:36Z</time>
      </trkpt>
      <trkpt lat="43.63165" lon="3.26692">
        <ele>204.9</ele>
        <time>2011-10-09T14:43:37Z</time>
      </trkpt>
      <trkpt lat="43.63153" lon="3.26759">
        <ele>204.9</ele>
        <time>2011-10-09T14:43:41Z</time>
      </trkpt>
      <trkpt lat="43.63153" lon="3.26778">
        <ele>205.38</ele>
        <time>2011-10-09T14:43:42Z</time>
      </trkpt>
      <trkpt lat="43.63154" lon="3.26797">
        <ele>205.86</ele>
        <time>2011-10-09T14:43:43Z</time>
      </trkpt>
      <trkpt lat="43.63157" lon="3.26974">
        <ele>208.74</ele>
        <time>2011-10-09T14:43:52Z</time>
      </trkpt>
      <trkpt lat="43.63152" lon="3.26992">
        <ele>208.74</ele>
        <time>2011-10-09T14:43:53Z</time>
      </trkpt>
      <trkpt lat="43.63146" lon="3.2701">
        <ele>208.26</ele>
        <time>2011-10-09T14:43:54Z</time>
      </trkpt>
      <trkpt lat="43.63129" lon="3.27066">
        <ele>206.34</ele>
        <time>2011-10-09T14:43:57Z</time>
      </trkpt>
      <trkpt lat="43.63127" lon="3.2709">
        <ele>205.38</ele>
        <time>2011-10-09T14:43:58Z</time>
      </trkpt>
      <trkpt lat="43.63127" lon="3.27116">
        <ele>203.94</ele>
        <time>2011-10-09T14:43:59Z</time>
      </trkpt>
      <trkpt lat="43.6314" lon="3.27368">
        <ele>193.36</ele>
        <time>2011-10-09T14:44:07Z</time>
      </trkpt>
      <trkpt lat="43.63144" lon="3.27488">
        <ele>187.11</ele>
        <time>2011-10-09T14:44:11Z</time>
      </trkpt>
      <trkpt lat="43.63141" lon="3.27516">
        <ele>185.67</ele>
        <time>2011-10-09T14:44:12Z</time>
      </trkpt>
      <trkpt lat="43.63134" lon="3.27546">
        <ele>185.67</ele>
        <time>2011-10-09T14:44:13Z</time>
      </trkpt>
      <trkpt lat="43.63125" lon="3.27575">
        <ele>185.19</ele>
        <time>2011-10-09T14:44:14Z</time>
      </trkpt>
      <trkpt lat="43.63116" lon="3.27602">
        <ele>185.67</ele>
        <time>2011-10-09T14:44:15Z</time>
      </trkpt>
      <trkpt lat="43.63073" lon="3.27702">
        <ele>184.23</ele>
        <time>2011-10-09T14:44:20Z</time>
      </trkpt>
      <trkpt lat="43.62997" lon="3.27855">
        <ele>180.87</ele>
        <time>2011-10-09T14:44:26Z</time>
      </trkpt>
      <trkpt lat="43.6287" lon="3.28098">
        <ele>173.17</ele>
        <time>2011-10-09T14:44:35Z</time>
      </trkpt>
      <trkpt lat="43.62814" lon="3.28293">
        <ele>172.21</ele>
        <time>2011-10-09T14:44:41Z</time>
      </trkpt>
      <trkpt lat="43.62731" lon="3.28555">
        <ele>169.81</ele>
        <time>2011-10-09T14:44:49Z</time>
      </trkpt>
      <trkpt lat="43.6268" lon="3.28764">
        <ele>167.41</ele>
        <time>2011-10-09T14:44:55Z</time>
      </trkpt>
      <trkpt lat="43.6262" lon="3.28916">
        <ele>168.37</ele>
        <time>2011-10-09T14:45:00Z</time>
      </trkpt>
      <trkpt lat="43.6255" lon="3.29097">
        <ele>169.81</ele>
        <time>2011-10-09T14:45:06Z</time>
      </trkpt>
      <trkpt lat="43.62475" lon="3.29264">
        <ele>168.85</ele>
        <time>2011-10-09T14:45:12Z</time>
      </trkpt>
      <trkpt lat="43.62432" lon="3.29364">
        <ele>167.89</ele>
        <time>2011-10-09T14:45:16Z</time>
      </trkpt>
      <trkpt lat="43.62425" lon="3.29392">
        <ele>167.89</ele>
        <time>2011-10-09T14:45:17Z</time>
      </trkpt>
      <trkpt lat="43.6242" lon="3.2942">
        <ele>167.89</ele>
        <time>2011-10-09T14:45:18Z</time>
      </trkpt>
      <trkpt lat="43.62403" lon="3.29495">
        <ele>167.89</ele>
        <time>2011-10-09T14:45:21Z</time>
      </trkpt>
      <trkpt lat="43.62394" lon="3.29516">
        <ele>167.89</ele>
        <time>2011-10-09T14:45:22Z</time>
      </trkpt>
      <trkpt lat="43.62342" lon="3.29645">
        <ele>169.81</ele>
        <time>2011-10-09T14:45:29Z</time>
      </trkpt>
      <trkpt lat="43.62323" lon="3.29742">
        <ele>170.29</ele>
        <time>2011-10-09T14:45:37Z</time>
      </trkpt>
      <trkpt lat="43.62305" lon="3.29851">
        <ele>170.29</ele>
        <time>2011-10-09T14:45:46Z</time>
      </trkpt>
      <trkpt lat="43.62282" lon="3.29992">
        <ele>170.29</ele>
        <time>2011-10-09T14:45:52Z</time>
      </trkpt>
      <trkpt lat="43.62248" lon="3.30192">
        <ele>172.69</ele>
        <time>2011-10-09T14:46:00Z</time>
      </trkpt>
      <trkpt lat="43.62205" lon="3.30337">
        <ele>171.73</ele>
        <time>2011-10-09T14:46:06Z</time>
      </trkpt>
      <trkpt lat="43.62192" lon="3.30455">
        <ele>172.21</ele>
        <time>2011-10-09T14:46:11Z</time>
      </trkpt>
      <trkpt lat="43.62171" lon="3.30657">
        <ele>171.73</ele>
        <time>2011-10-09T14:46:17Z</time>
      </trkpt>
      <trkpt lat="43.62149" lon="3.30867">
        <ele>173.66</ele>
        <time>2011-10-09T14:46:24Z</time>
      </trkpt>
      <trkpt lat="43.62137" lon="3.30924">
        <ele>176.54</ele>
        <time>2011-10-09T14:46:29Z</time>
      </trkpt>
      <trkpt lat="43.62113" lon="3.31037">
        <ele>179.9</ele>
        <time>2011-10-09T14:46:39Z</time>
      </trkpt>
      <trkpt lat="43.62088" lon="3.31128">
        <ele>181.35</ele>
        <time>2011-10-09T14:46:48Z</time>
      </trkpt>
      <trkpt lat="43.62085" lon="3.31146">
        <ele>181.83</ele>
        <time>2011-10-09T14:46:50Z</time>
      </trkpt>
      <trkpt lat="43.62085" lon="3.31156">
        <ele>181.83</ele>
        <time>2011-10-09T14:46:51Z</time>
      </trkpt>
      <trkpt lat="43.62086" lon="3.31166">
        <ele>181.83</ele>
        <time>2011-10-09T14:46:52Z</time>
      </trkpt>
      <trkpt lat="43.62088" lon="3.31177">
        <ele>181.83</ele>
        <time>2011-10-09T14:46:53Z</time>
      </trkpt>
      <trkpt lat="43.62091" lon="3.31188">
        <ele>181.83</ele>
        <time>2011-10-09T14:46:54Z</time>
      </trkpt>
      <trkpt lat="43.62095" lon="3.312">
        <ele>181.83</ele>
        <time>2011-10-09T14:46:55Z</time>
      </trkpt>
      <trkpt lat="43.62102" lon="3.31224">
        <ele>181.35</ele>
        <time>2011-10-09T14:46:57Z</time>
      </trkpt>
      <trkpt lat="43.62103" lon="3.31237">
        <ele>181.35</ele>
        <time>2011-10-09T14:46:58Z</time>
      </trkpt>
      <trkpt lat="43.62104" lon="3.31252">
        <ele>181.35</ele>
        <time>2011-10-09T14:46:59Z</time>
      </trkpt>
      <trkpt lat="43.62104" lon="3.31267">
        <ele>181.35</ele>
        <time>2011-10-09T14:47:00Z</time>
      </trkpt>
      <trkpt lat="43.62103" lon="3.31283">
        <ele>181.35</ele>
        <time>2011-10-09T14:47:01Z</time>
      </trkpt>
      <trkpt lat="43.62097" lon="3.31365">
        <ele>182.79</ele>
        <time>2011-10-09T14:47:07Z</time>
      </trkpt>
      <trkpt lat="43.62094" lon="3.31377">
        <ele>183.27</ele>
        <time>2011-10-09T14:47:08Z</time>
      </trkpt>
      <trkpt lat="43.62091" lon="3.3139">
        <ele>183.75</ele>
        <time>2011-10-09T14:47:09Z</time>
      </trkpt>
      <trkpt lat="43.62086" lon="3.31402">
        <ele>184.23</ele>
        <time>2011-10-09T14:47:10Z</time>
      </trkpt>
      <trkpt lat="43.62081" lon="3.31415">
        <ele>184.71</ele>
        <time>2011-10-09T14:47:11Z</time>
      </trkpt>
      <trkpt lat="43.62076" lon="3.31425">
        <ele>184.71</ele>
        <time>2011-10-09T14:47:12Z</time>
      </trkpt>
      <trkpt lat="43.62071" lon="3.31435">
        <ele>185.67</ele>
        <time>2011-10-09T14:47:13Z</time>
      </trkpt>
      <trkpt lat="43.62058" lon="3.31464">
        <ele>187.59</ele>
        <time>2011-10-09T14:47:16Z</time>
      </trkpt>
      <trkpt lat="43.62055" lon="3.31474">
        <ele>187.59</ele>
        <time>2011-10-09T14:47:17Z</time>
      </trkpt>
      <trkpt lat="43.62053" lon="3.31485">
        <ele>188.56</ele>
        <time>2011-10-09T14:47:18Z</time>
      </trkpt>
      <trkpt lat="43.62053" lon="3.31496">
        <ele>188.56</ele>
        <time>2011-10-09T14:47:19Z</time>
      </trkpt>
      <trkpt lat="43.62052" lon="3.31505">
        <ele>189.04</ele>
        <time>2011-10-09T14:47:20Z</time>
      </trkpt>
      <trkpt lat="43.62052" lon="3.31513">
        <ele>189.52</ele>
        <time>2011-10-09T14:47:21Z</time>
      </trkpt>
      <trkpt lat="43.62058" lon="3.31548">
        <ele>191.92</ele>
        <time>2011-10-09T14:47:30Z</time>
      </trkpt>
      <trkpt lat="43.62095" lon="3.31579">
        <ele>190.48</ele>
        <time>2011-10-09T14:47:37Z</time>
      </trkpt>
      <trkpt lat="43.62165" lon="3.31637">
        <ele>186.63</ele>
        <time>2011-10-09T14:47:46Z</time>
      </trkpt>
      <trkpt lat="43.62237" lon="3.31685">
        <ele>183.27</ele>
        <time>2011-10-09T14:47:53Z</time>
      </trkpt>
      <trkpt lat="43.6225" lon="3.31689">
        <ele>182.79</ele>
        <time>2011-10-09T14:47:54Z</time>
      </trkpt>
      <trkpt lat="43.62378" lon="3.31726">
        <ele>179.42</ele>
        <time>2011-10-09T14:48:02Z</time>
      </trkpt>
      <trkpt lat="43.62585" lon="3.31793">
        <ele>173.66</ele>
        <time>2011-10-09T14:48:13Z</time>
      </trkpt>
      <trkpt lat="43.62824" lon="3.31853">
        <ele>168.37</ele>
        <time>2011-10-09T14:48:26Z</time>
      </trkpt>
      <trkpt lat="43.62933" lon="3.319">
        <ele>165</ele>
        <time>2011-10-09T14:48:31Z</time>
      </trkpt>
      <trkpt lat="43.63109" lon="3.32">
        <ele>162.6</ele>
        <time>2011-10-09T14:48:39Z</time>
      </trkpt>
      <trkpt lat="43.63187" lon="3.32057">
        <ele>160.68</ele>
        <time>2011-10-09T14:48:43Z</time>
      </trkpt>
      <trkpt lat="43.63206" lon="3.32077">
        <ele>160.2</ele>
        <time>2011-10-09T14:48:44Z</time>
      </trkpt>
      <trkpt lat="43.6333" lon="3.32224">
        <ele>159.24</ele>
        <time>2011-10-09T14:48:51Z</time>
      </trkpt>
      <trkpt lat="43.63357" lon="3.32255">
        <ele>159.24</ele>
        <time>2011-10-09T14:48:53Z</time>
      </trkpt>
      <trkpt lat="43.63372" lon="3.32264">
        <ele>159.24</ele>
        <time>2011-10-09T14:48:54Z</time>
      </trkpt>
      <trkpt lat="43.63389" lon="3.32267">
        <ele>158.75</ele>
        <time>2011-10-09T14:48:55Z</time>
      </trkpt>
      <trkpt lat="43.63408" lon="3.32269">
        <ele>158.75</ele>
        <time>2011-10-09T14:48:56Z</time>
      </trkpt>
      <trkpt lat="43.6343" lon="3.3227">
        <ele>158.27</ele>
        <time>2011-10-09T14:48:57Z</time>
      </trkpt>
      <trkpt lat="43.63588" lon="3.32285">
        <ele>157.31</ele>
        <time>2011-10-09T14:49:05Z</time>
      </trkpt>
      <trkpt lat="43.63604" lon="3.32295">
        <ele>157.31</ele>
        <time>2011-10-09T14:49:06Z</time>
      </trkpt>
      <trkpt lat="43.63621" lon="3.3231">
        <ele>156.83</ele>
        <time>2011-10-09T14:49:07Z</time>
      </trkpt>
      <trkpt lat="43.63638" lon="3.32329">
        <ele>156.83</ele>
        <time>2011-10-09T14:49:08Z</time>
      </trkpt>
      <trkpt lat="43.63654" lon="3.3235">
        <ele>156.83</ele>
        <time>2011-10-09T14:49:09Z</time>
      </trkpt>
      <trkpt lat="43.6367" lon="3.32373">
        <ele>156.83</ele>
        <time>2011-10-09T14:49:10Z</time>
      </trkpt>
      <trkpt lat="43.63727" lon="3.3245">
        <ele>154.91</ele>
        <time>2011-10-09T14:49:14Z</time>
      </trkpt>
      <trkpt lat="43.63741" lon="3.32458">
        <ele>154.43</ele>
        <time>2011-10-09T14:49:15Z</time>
      </trkpt>
      <trkpt lat="43.63756" lon="3.32465">
        <ele>153.95</ele>
        <time>2011-10-09T14:49:16Z</time>
      </trkpt>
      <trkpt lat="43.63875" lon="3.32545">
        <ele>148.66</ele>
        <time>2011-10-09T14:49:24Z</time>
      </trkpt>
      <trkpt lat="43.63956" lon="3.32603">
        <ele>147.7</ele>
        <time>2011-10-09T14:49:29Z</time>
      </trkpt>
      <trkpt lat="43.63971" lon="3.3262">
        <ele>147.7</ele>
        <time>2011-10-09T14:49:30Z</time>
      </trkpt>
      <trkpt lat="43.63984" lon="3.32639">
        <ele>147.7</ele>
        <time>2011-10-09T14:49:31Z</time>
      </trkpt>
      <trkpt lat="43.63996" lon="3.32661">
        <ele>147.7</ele>
        <time>2011-10-09T14:49:32Z</time>
      </trkpt>
      <trkpt lat="43.64007" lon="3.32685">
        <ele>147.22</ele>
        <time>2011-10-09T14:49:33Z</time>
      </trkpt>
      <trkpt lat="43.64029" lon="3.32727">
        <ele>147.22</ele>
        <time>2011-10-09T14:49:35Z</time>
      </trkpt>
      <trkpt lat="43.64043" lon="3.32745">
        <ele>147.22</ele>
        <time>2011-10-09T14:49:36Z</time>
      </trkpt>
      <trkpt lat="43.64058" lon="3.32761">
        <ele>147.22</ele>
        <time>2011-10-09T14:49:37Z</time>
      </trkpt>
      <trkpt lat="43.64074" lon="3.32774">
        <ele>146.74</ele>
        <time>2011-10-09T14:49:38Z</time>
      </trkpt>
      <trkpt lat="43.64091" lon="3.32785">
        <ele>147.22</ele>
        <time>2011-10-09T14:49:39Z</time>
      </trkpt>
      <trkpt lat="43.64125" lon="3.32804">
        <ele>147.7</ele>
        <time>2011-10-09T14:49:41Z</time>
      </trkpt>
      <trkpt lat="43.64144" lon="3.3281">
        <ele>148.18</ele>
        <time>2011-10-09T14:49:42Z</time>
      </trkpt>
      <trkpt lat="43.64218" lon="3.32833">
        <ele>148.66</ele>
        <time>2011-10-09T14:49:46Z</time>
      </trkpt>
      <trkpt lat="43.64272" lon="3.32859">
        <ele>149.14</ele>
        <time>2011-10-09T14:49:49Z</time>
      </trkpt>
      <trkpt lat="43.64303" lon="3.32869">
        <ele>149.14</ele>
        <time>2011-10-09T14:49:51Z</time>
      </trkpt>
      <trkpt lat="43.64316" lon="3.32877">
        <ele>148.66</ele>
        <time>2011-10-09T14:49:52Z</time>
      </trkpt>
      <trkpt lat="43.64329" lon="3.32889">
        <ele>148.66</ele>
        <time>2011-10-09T14:49:53Z</time>
      </trkpt>
      <trkpt lat="43.64343" lon="3.32903">
        <ele>148.18</ele>
        <time>2011-10-09T14:49:54Z</time>
      </trkpt>
      <trkpt lat="43.64357" lon="3.3292">
        <ele>147.7</ele>
        <time>2011-10-09T14:49:55Z</time>
      </trkpt>
      <trkpt lat="43.64437" lon="3.33018">
        <ele>147.7</ele>
        <time>2011-10-09T14:50:01Z</time>
      </trkpt>
      <trkpt lat="43.6445" lon="3.33028">
        <ele>147.7</ele>
        <time>2011-10-09T14:50:02Z</time>
      </trkpt>
      <trkpt lat="43.64588" lon="3.33122">
        <ele>143.85</ele>
        <time>2011-10-09T14:50:12Z</time>
      </trkpt>
      <trkpt lat="43.64749" lon="3.3323">
        <ele>142.89</ele>
        <time>2011-10-09T14:50:23Z</time>
      </trkpt>
      <trkpt lat="43.64821" lon="3.3328">
        <ele>141.93</ele>
        <time>2011-10-09T14:50:29Z</time>
      </trkpt>
      <trkpt lat="43.64827" lon="3.33288">
        <ele>141.93</ele>
        <time>2011-10-09T14:50:30Z</time>
      </trkpt>
      <trkpt lat="43.64831" lon="3.33298">
        <ele>141.93</ele>
        <time>2011-10-09T14:50:31Z</time>
      </trkpt>
      <trkpt lat="43.64832" lon="3.33312">
        <ele>141.93</ele>
        <time>2011-10-09T14:50:32Z</time>
      </trkpt>
      <trkpt lat="43.64831" lon="3.3333">
        <ele>141.93</ele>
        <time>2011-10-09T14:50:33Z</time>
      </trkpt>
      <trkpt lat="43.6483" lon="3.3335">
        <ele>141.93</ele>
        <time>2011-10-09T14:50:34Z</time>
      </trkpt>
      <trkpt lat="43.64824" lon="3.33533">
        <ele>143.37</ele>
        <time>2011-10-09T14:50:41Z</time>
      </trkpt>
      <trkpt lat="43.64801" lon="3.33767">
        <ele>146.74</ele>
        <time>2011-10-09T14:50:49Z</time>
      </trkpt>
      <trkpt lat="43.64734" lon="3.34013">
        <ele>153.47</ele>
        <time>2011-10-09T14:50:59Z</time>
      </trkpt>
      <trkpt lat="43.64712" lon="3.342">
        <ele>153.95</ele>
        <time>2011-10-09T14:51:06Z</time>
      </trkpt>
      <trkpt lat="43.64721" lon="3.34353">
        <ele>150.1</ele>
        <time>2011-10-09T14:51:13Z</time>
      </trkpt>
      <trkpt lat="43.64716" lon="3.3451">
        <ele>146.74</ele>
        <time>2011-10-09T14:51:22Z</time>
      </trkpt>
      <trkpt lat="43.64713" lon="3.34525">
        <ele>145.78</ele>
        <time>2011-10-09T14:51:28Z</time>
      </trkpt>
      <trkpt lat="43.64713" lon="3.34523">
        <ele>146.74</ele>
        <time>2011-10-09T14:52:55Z</time>
      </trkpt>
      <trkpt lat="43.64713" lon="3.34541">
        <ele>145.78</ele>
        <time>2011-10-09T14:54:31Z</time>
      </trkpt>
      <trkpt lat="43.64709" lon="3.34638">
        <ele>145.78</ele>
        <time>2011-10-09T14:54:37Z</time>
      </trkpt>
      <trkpt lat="43.64682" lon="3.34854">
        <ele>144.82</ele>
        <time>2011-10-09T14:54:48Z</time>
      </trkpt>
      <trkpt lat="43.64659" lon="3.34945">
        <ele>143.37</ele>
        <time>2011-10-09T14:54:53Z</time>
      </trkpt>
      <trkpt lat="43.64652" lon="3.34963">
        <ele>143.85</ele>
        <time>2011-10-09T14:54:54Z</time>
      </trkpt>
      <trkpt lat="43.64568" lon="3.35111">
        <ele>148.18</ele>
        <time>2011-10-09T14:55:01Z</time>
      </trkpt>
      <trkpt lat="43.64498" lon="3.35265">
        <ele>152.99</ele>
        <time>2011-10-09T14:55:08Z</time>
      </trkpt>
      <trkpt lat="43.64475" lon="3.35301">
        <ele>154.43</ele>
        <time>2011-10-09T14:55:10Z</time>
      </trkpt>
      <trkpt lat="43.64462" lon="3.35317">
        <ele>155.39</ele>
        <time>2011-10-09T14:55:11Z</time>
      </trkpt>
      <trkpt lat="43.64377" lon="3.35434">
        <ele>159.24</ele>
        <time>2011-10-09T14:55:18Z</time>
      </trkpt>
      <trkpt lat="43.64355" lon="3.35463">
        <ele>159.72</ele>
        <time>2011-10-09T14:55:20Z</time>
      </trkpt>
      <trkpt lat="43.64341" lon="3.35476">
        <ele>160.2</ele>
        <time>2011-10-09T14:55:21Z</time>
      </trkpt>
      <trkpt lat="43.64293" lon="3.35524">
        <ele>162.12</ele>
        <time>2011-10-09T14:55:25Z</time>
      </trkpt>
      <trkpt lat="43.6428" lon="3.35534">
        <ele>163.08</ele>
        <time>2011-10-09T14:55:26Z</time>
      </trkpt>
      <trkpt lat="43.64265" lon="3.35541">
        <ele>164.52</ele>
        <time>2011-10-09T14:55:27Z</time>
      </trkpt>
      <trkpt lat="43.64249" lon="3.35547">
        <ele>165.48</ele>
        <time>2011-10-09T14:55:28Z</time>
      </trkpt>
      <trkpt lat="43.64233" lon="3.35552">
        <ele>166.93</ele>
        <time>2011-10-09T14:55:29Z</time>
      </trkpt>
      <trkpt lat="43.64182" lon="3.35579">
        <ele>170.29</ele>
        <time>2011-10-09T14:55:33Z</time>
      </trkpt>
      <trkpt lat="43.64172" lon="3.35588">
        <ele>171.25</ele>
        <time>2011-10-09T14:55:34Z</time>
      </trkpt>
      <trkpt lat="43.64165" lon="3.35596">
        <ele>171.73</ele>
        <time>2011-10-09T14:55:35Z</time>
      </trkpt>
      <trkpt lat="43.64156" lon="3.35607">
        <ele>172.69</ele>
        <time>2011-10-09T14:55:37Z</time>
      </trkpt>
      <trkpt lat="43.64153" lon="3.3561">
        <ele>173.17</ele>
        <time>2011-10-09T14:55:44Z</time>
      </trkpt>
      <trkpt lat="43.64144" lon="3.35619">
        <ele>173.66</ele>
        <time>2011-10-09T14:56:30Z</time>
      </trkpt>
      <trkpt lat="43.64136" lon="3.35625">
        <ele>173.66</ele>
        <time>2011-10-09T14:56:31Z</time>
      </trkpt>
      <trkpt lat="43.64125" lon="3.35631">
        <ele>174.14</ele>
        <time>2011-10-09T14:56:32Z</time>
      </trkpt>
      <trkpt lat="43.6408" lon="3.35655">
        <ele>174.62</ele>
        <time>2011-10-09T14:56:36Z</time>
      </trkpt>
      <trkpt lat="43.6407" lon="3.35665">
        <ele>174.62</ele>
        <time>2011-10-09T14:56:37Z</time>
      </trkpt>
      <trkpt lat="43.6406" lon="3.35679">
        <ele>175.1</ele>
        <time>2011-10-09T14:56:38Z</time>
      </trkpt>
      <trkpt lat="43.64051" lon="3.35695">
        <ele>175.1</ele>
        <time>2011-10-09T14:56:39Z</time>
      </trkpt>
      <trkpt lat="43.64044" lon="3.35712">
        <ele>175.58</ele>
        <time>2011-10-09T14:56:40Z</time>
      </trkpt>
      <trkpt lat="43.64037" lon="3.35729">
        <ele>176.54</ele>
        <time>2011-10-09T14:56:41Z</time>
      </trkpt>
      <trkpt lat="43.64029" lon="3.35744">
        <ele>177.5</ele>
        <time>2011-10-09T14:56:42Z</time>
      </trkpt>
      <trkpt lat="43.64021" lon="3.35756">
        <ele>177.98</ele>
        <time>2011-10-09T14:56:43Z</time>
      </trkpt>
      <trkpt lat="43.6401" lon="3.35764">
        <ele>178.46</ele>
        <time>2011-10-09T14:56:44Z</time>
      </trkpt>
      <trkpt lat="43.63999" lon="3.3577">
        <ele>179.42</ele>
        <time>2011-10-09T14:56:45Z</time>
      </trkpt>
      <trkpt lat="43.63986" lon="3.35776">
        <ele>179.9</ele>
        <time>2011-10-09T14:56:46Z</time>
      </trkpt>
      <trkpt lat="43.63963" lon="3.35791">
        <ele>180.87</ele>
        <time>2011-10-09T14:56:48Z</time>
      </trkpt>
      <trkpt lat="43.63953" lon="3.358">
        <ele>181.35</ele>
        <time>2011-10-09T14:56:49Z</time>
      </trkpt>
      <trkpt lat="43.63944" lon="3.35812">
        <ele>181.83</ele>
        <time>2011-10-09T14:56:50Z</time>
      </trkpt>
      <trkpt lat="43.63937" lon="3.35826">
        <ele>181.83</ele>
        <time>2011-10-09T14:56:51Z</time>
      </trkpt>
      <trkpt lat="43.63931" lon="3.35843">
        <ele>182.31</ele>
        <time>2011-10-09T14:56:52Z</time>
      </trkpt>
      <trkpt lat="43.63927" lon="3.35864">
        <ele>182.31</ele>
        <time>2011-10-09T14:56:53Z</time>
      </trkpt>
      <trkpt lat="43.63924" lon="3.35886">
        <ele>183.27</ele>
        <time>2011-10-09T14:56:54Z</time>
      </trkpt>
      <trkpt lat="43.63921" lon="3.35908">
        <ele>183.75</ele>
        <time>2011-10-09T14:56:55Z</time>
      </trkpt>
      <trkpt lat="43.63912" lon="3.3597">
        <ele>185.19</ele>
        <time>2011-10-09T14:56:58Z</time>
      </trkpt>
      <trkpt lat="43.63906" lon="3.35991">
        <ele>186.15</ele>
        <time>2011-10-09T14:56:59Z</time>
      </trkpt>
      <trkpt lat="43.63852" lon="3.36143">
        <ele>191.92</ele>
        <time>2011-10-09T14:57:06Z</time>
      </trkpt>
      <trkpt lat="43.63793" lon="3.36298">
        <ele>196.73</ele>
        <time>2011-10-09T14:57:13Z</time>
      </trkpt>
      <trkpt lat="43.63758" lon="3.36362">
        <ele>198.17</ele>
        <time>2011-10-09T14:57:17Z</time>
      </trkpt>
      <trkpt lat="43.63751" lon="3.36381">
        <ele>198.65</ele>
        <time>2011-10-09T14:57:18Z</time>
      </trkpt>
      <trkpt lat="43.63746" lon="3.36402">
        <ele>199.13</ele>
        <time>2011-10-09T14:57:19Z</time>
      </trkpt>
      <trkpt lat="43.63744" lon="3.36426">
        <ele>199.13</ele>
        <time>2011-10-09T14:57:20Z</time>
      </trkpt>
      <trkpt lat="43.63742" lon="3.3645">
        <ele>200.09</ele>
        <time>2011-10-09T14:57:21Z</time>
      </trkpt>
      <trkpt lat="43.63728" lon="3.36543">
        <ele>202.01</ele>
        <time>2011-10-09T14:57:25Z</time>
      </trkpt>
      <trkpt lat="43.6372" lon="3.36566">
        <ele>202.98</ele>
        <time>2011-10-09T14:57:26Z</time>
      </trkpt>
      <trkpt lat="43.63696" lon="3.36625">
        <ele>205.38</ele>
        <time>2011-10-09T14:57:29Z</time>
      </trkpt>
      <trkpt lat="43.63686" lon="3.36641">
        <ele>206.34</ele>
        <time>2011-10-09T14:57:30Z</time>
      </trkpt>
      <trkpt lat="43.63675" lon="3.36655">
        <ele>207.3</ele>
        <time>2011-10-09T14:57:31Z</time>
      </trkpt>
      <trkpt lat="43.63625" lon="3.3671">
        <ele>210.67</ele>
        <time>2011-10-09T14:57:35Z</time>
      </trkpt>
      <trkpt lat="43.63615" lon="3.36726">
        <ele>211.63</ele>
        <time>2011-10-09T14:57:36Z</time>
      </trkpt>
      <trkpt lat="43.63608" lon="3.36743">
        <ele>212.11</ele>
        <time>2011-10-09T14:57:37Z</time>
      </trkpt>
      <trkpt lat="43.63601" lon="3.3676">
        <ele>213.07</ele>
        <time>2011-10-09T14:57:38Z</time>
      </trkpt>
      <trkpt lat="43.63596" lon="3.36778">
        <ele>214.03</ele>
        <time>2011-10-09T14:57:39Z</time>
      </trkpt>
      <trkpt lat="43.63592" lon="3.36796">
        <ele>214.99</ele>
        <time>2011-10-09T14:57:40Z</time>
      </trkpt>
      <trkpt lat="43.63589" lon="3.36813">
        <ele>215.47</ele>
        <time>2011-10-09T14:57:41Z</time>
      </trkpt>
      <trkpt lat="43.63587" lon="3.36831">
        <ele>216.43</ele>
        <time>2011-10-09T14:57:42Z</time>
      </trkpt>
      <trkpt lat="43.63562" lon="3.36996">
        <ele>228.45</ele>
        <time>2011-10-09T14:57:52Z</time>
      </trkpt>
      <trkpt lat="43.63528" lon="3.37113">
        <ele>227.97</ele>
        <time>2011-10-09T14:58:01Z</time>
      </trkpt>
      <trkpt lat="43.63504" lon="3.37197">
        <ele>223.64</ele>
        <time>2011-10-09T14:58:07Z</time>
      </trkpt>
      <trkpt lat="43.63504" lon="3.3721">
        <ele>223.64</ele>
        <time>2011-10-09T14:58:08Z</time>
      </trkpt>
      <trkpt lat="43.63506" lon="3.37224">
        <ele>223.64</ele>
        <time>2011-10-09T14:58:09Z</time>
      </trkpt>
      <trkpt lat="43.63511" lon="3.37251">
        <ele>223.64</ele>
        <time>2011-10-09T14:58:11Z</time>
      </trkpt>
      <trkpt lat="43.63511" lon="3.37265">
        <ele>223.16</ele>
        <time>2011-10-09T14:58:12Z</time>
      </trkpt>
      <trkpt lat="43.63509" lon="3.37279">
        <ele>223.16</ele>
        <time>2011-10-09T14:58:13Z</time>
      </trkpt>
      <trkpt lat="43.63506" lon="3.37293">
        <ele>222.68</ele>
        <time>2011-10-09T14:58:14Z</time>
      </trkpt>
      <trkpt lat="43.63502" lon="3.37308">
        <ele>222.68</ele>
        <time>2011-10-09T14:58:15Z</time>
      </trkpt>
      <trkpt lat="43.63497" lon="3.37323">
        <ele>222.68</ele>
        <time>2011-10-09T14:58:16Z</time>
      </trkpt>
      <trkpt lat="43.63493" lon="3.37337">
        <ele>222.68</ele>
        <time>2011-10-09T14:58:17Z</time>
      </trkpt>
      <trkpt lat="43.63492" lon="3.37352">
        <ele>222.68</ele>
        <time>2011-10-09T14:58:18Z</time>
      </trkpt>
      <trkpt lat="43.63494" lon="3.37367">
        <ele>222.68</ele>
        <time>2011-10-09T14:58:19Z</time>
      </trkpt>
      <trkpt lat="43.63497" lon="3.37383">
        <ele>222.68</ele>
        <time>2011-10-09T14:58:20Z</time>
      </trkpt>
      <trkpt lat="43.63502" lon="3.374">
        <ele>222.2</ele>
        <time>2011-10-09T14:58:21Z</time>
      </trkpt>
      <trkpt lat="43.63518" lon="3.37469">
        <ele>219.8</ele>
        <time>2011-10-09T14:58:25Z</time>
      </trkpt>
      <trkpt lat="43.63519" lon="3.37487">
        <ele>219.32</ele>
        <time>2011-10-09T14:58:26Z</time>
      </trkpt>
      <trkpt lat="43.6352" lon="3.37504">
        <ele>218.84</ele>
        <time>2011-10-09T14:58:27Z</time>
      </trkpt>
      <trkpt lat="43.6352" lon="3.37521">
        <ele>218.36</ele>
        <time>2011-10-09T14:58:28Z</time>
      </trkpt>
      <trkpt lat="43.63519" lon="3.37538">
        <ele>217.4</ele>
        <time>2011-10-09T14:58:29Z</time>
      </trkpt>
      <trkpt lat="43.63517" lon="3.37555">
        <ele>216.91</ele>
        <time>2011-10-09T14:58:30Z</time>
      </trkpt>
      <trkpt lat="43.63514" lon="3.37573">
        <ele>215.95</ele>
        <time>2011-10-09T14:58:31Z</time>
      </trkpt>
      <trkpt lat="43.63485" lon="3.37702">
        <ele>211.63</ele>
        <time>2011-10-09T14:58:38Z</time>
      </trkpt>
      <trkpt lat="43.63478" lon="3.37719">
        <ele>211.15</ele>
        <time>2011-10-09T14:58:39Z</time>
      </trkpt>
      <trkpt lat="43.63395" lon="3.3791">
        <ele>207.3</ele>
        <time>2011-10-09T14:58:50Z</time>
      </trkpt>
      <trkpt lat="43.63374" lon="3.37972">
        <ele>206.82</ele>
        <time>2011-10-09T14:58:53Z</time>
      </trkpt>
      <trkpt lat="43.63371" lon="3.37996">
        <ele>206.82</ele>
        <time>2011-10-09T14:58:54Z</time>
      </trkpt>
      <trkpt lat="43.63327" lon="3.3822">
        <ele>212.11</ele>
        <time>2011-10-09T14:59:04Z</time>
      </trkpt>
      <trkpt lat="43.63318" lon="3.38238">
        <ele>213.07</ele>
        <time>2011-10-09T14:59:05Z</time>
      </trkpt>
      <trkpt lat="43.63307" lon="3.38256">
        <ele>213.55</ele>
        <time>2011-10-09T14:59:06Z</time>
      </trkpt>
      <trkpt lat="43.63249" lon="3.38343">
        <ele>217.4</ele>
        <time>2011-10-09T14:59:11Z</time>
      </trkpt>
      <trkpt lat="43.63243" lon="3.38365">
        <ele>217.4</ele>
        <time>2011-10-09T14:59:12Z</time>
      </trkpt>
      <trkpt lat="43.63242" lon="3.3839">
        <ele>218.84</ele>
        <time>2011-10-09T14:59:13Z</time>
      </trkpt>
      <trkpt lat="43.63242" lon="3.38417">
        <ele>219.8</ele>
        <time>2011-10-09T14:59:14Z</time>
      </trkpt>
      <trkpt lat="43.63244" lon="3.38445">
        <ele>221.24</ele>
        <time>2011-10-09T14:59:15Z</time>
      </trkpt>
      <trkpt lat="43.63245" lon="3.38474">
        <ele>221.72</ele>
        <time>2011-10-09T14:59:16Z</time>
      </trkpt>
      <trkpt lat="43.63262" lon="3.38788">
        <ele>234.7</ele>
        <time>2011-10-09T14:59:26Z</time>
      </trkpt>
      <trkpt lat="43.63269" lon="3.38971">
        <ele>240.47</ele>
        <time>2011-10-09T14:59:33Z</time>
      </trkpt>
      <trkpt lat="43.63257" lon="3.39015">
        <ele>240.95</ele>
        <time>2011-10-09T14:59:35Z</time>
      </trkpt>
      <trkpt lat="43.63249" lon="3.39035">
        <ele>240.95</ele>
        <time>2011-10-09T14:59:36Z</time>
      </trkpt>
      <trkpt lat="43.63235" lon="3.39092">
        <ele>237.1</ele>
        <time>2011-10-09T14:59:39Z</time>
      </trkpt>
      <trkpt lat="43.63237" lon="3.39114">
        <ele>235.66</ele>
        <time>2011-10-09T14:59:40Z</time>
      </trkpt>
      <trkpt lat="43.63242" lon="3.39138">
        <ele>233.74</ele>
        <time>2011-10-09T14:59:41Z</time>
      </trkpt>
      <trkpt lat="43.63249" lon="3.39164">
        <ele>231.81</ele>
        <time>2011-10-09T14:59:42Z</time>
      </trkpt>
      <trkpt lat="43.63259" lon="3.39191">
        <ele>230.37</ele>
        <time>2011-10-09T14:59:43Z</time>
      </trkpt>
      <trkpt lat="43.63269" lon="3.39217">
        <ele>228.45</ele>
        <time>2011-10-09T14:59:44Z</time>
      </trkpt>
      <trkpt lat="43.63306" lon="3.39345">
        <ele>220.76</ele>
        <time>2011-10-09T14:59:50Z</time>
      </trkpt>
      <trkpt lat="43.63303" lon="3.39365">
        <ele>219.8</ele>
        <time>2011-10-09T14:59:51Z</time>
      </trkpt>
      <trkpt lat="43.63298" lon="3.39385">
        <ele>218.36</ele>
        <time>2011-10-09T14:59:52Z</time>
      </trkpt>
      <trkpt lat="43.63293" lon="3.39496">
        <ele>214.03</ele>
        <time>2011-10-09T14:59:57Z</time>
      </trkpt>
      <trkpt lat="43.63297" lon="3.39515">
        <ele>213.55</ele>
        <time>2011-10-09T14:59:58Z</time>
      </trkpt>
      <trkpt lat="43.63303" lon="3.39533">
        <ele>212.59</ele>
        <time>2011-10-09T14:59:59Z</time>
      </trkpt>
      <trkpt lat="43.63313" lon="3.39552">
        <ele>211.63</ele>
        <time>2011-10-09T15:00:00Z</time>
      </trkpt>
      <trkpt lat="43.63326" lon="3.39572">
        <ele>210.67</ele>
        <time>2011-10-09T15:00:01Z</time>
      </trkpt>
      <trkpt lat="43.63341" lon="3.39597">
        <ele>210.19</ele>
        <time>2011-10-09T15:00:02Z</time>
      </trkpt>
      <trkpt lat="43.63472" lon="3.39831">
        <ele>201.05</ele>
        <time>2011-10-09T15:00:11Z</time>
      </trkpt>
      <trkpt lat="43.63541" lon="3.39986">
        <ele>194.32</ele>
        <time>2011-10-09T15:00:18Z</time>
      </trkpt>
      <trkpt lat="43.63576" lon="3.40069">
        <ele>195.77</ele>
        <time>2011-10-09T15:00:24Z</time>
      </trkpt>
      <trkpt lat="43.63596" lon="3.40126">
        <ele>197.69</ele>
        <time>2011-10-09T15:00:30Z</time>
      </trkpt>
      <trkpt lat="43.63624" lon="3.40275">
        <ele>203.94</ele>
        <time>2011-10-09T15:00:38Z</time>
      </trkpt>
      <trkpt lat="43.63629" lon="3.40294">
        <ele>204.9</ele>
        <time>2011-10-09T15:00:39Z</time>
      </trkpt>
      <trkpt lat="43.63635" lon="3.40311">
        <ele>205.86</ele>
        <time>2011-10-09T15:00:40Z</time>
      </trkpt>
      <trkpt lat="43.63644" lon="3.40328">
        <ele>206.82</ele>
        <time>2011-10-09T15:00:41Z</time>
      </trkpt>
      <trkpt lat="43.63714" lon="3.4047">
        <ele>209.7</ele>
        <time>2011-10-09T15:00:50Z</time>
      </trkpt>
      <trkpt lat="43.63794" lon="3.40628">
        <ele>206.34</ele>
        <time>2011-10-09T15:00:59Z</time>
      </trkpt>
      <trkpt lat="43.63892" lon="3.40775">
        <ele>202.01</ele>
        <time>2011-10-09T15:01:06Z</time>
      </trkpt>
      <trkpt lat="43.64001" lon="3.4094">
        <ele>198.17</ele>
        <time>2011-10-09T15:01:14Z</time>
      </trkpt>
      <trkpt lat="43.64009" lon="3.40961">
        <ele>197.69</ele>
        <time>2011-10-09T15:01:15Z</time>
      </trkpt>
      <trkpt lat="43.64015" lon="3.40984">
        <ele>197.21</ele>
        <time>2011-10-09T15:01:16Z</time>
      </trkpt>
      <trkpt lat="43.64019" lon="3.41011">
        <ele>196.25</ele>
        <time>2011-10-09T15:01:17Z</time>
      </trkpt>
      <trkpt lat="43.64023" lon="3.41038">
        <ele>195.77</ele>
        <time>2011-10-09T15:01:18Z</time>
      </trkpt>
      <trkpt lat="43.64046" lon="3.41182">
        <ele>191.44</ele>
        <time>2011-10-09T15:01:25Z</time>
      </trkpt>
      <trkpt lat="43.64056" lon="3.41255">
        <ele>189.04</ele>
        <time>2011-10-09T15:01:32Z</time>
      </trkpt>
      <trkpt lat="43.64055" lon="3.4126">
        <ele>189.04</ele>
        <time>2011-10-09T15:01:36Z</time>
      </trkpt>
      <trkpt lat="43.64053" lon="3.41269">
        <ele>188.56</ele>
        <time>2011-10-09T15:01:37Z</time>
      </trkpt>
      <trkpt lat="43.6405" lon="3.4128">
        <ele>188.56</ele>
        <time>2011-10-09T15:01:38Z</time>
      </trkpt>
      <trkpt lat="43.64037" lon="3.41312">
        <ele>187.11</ele>
        <time>2011-10-09T15:01:41Z</time>
      </trkpt>
      <trkpt lat="43.6403" lon="3.41321">
        <ele>186.63</ele>
        <time>2011-10-09T15:01:42Z</time>
      </trkpt>
      <trkpt lat="43.64022" lon="3.41329">
        <ele>186.15</ele>
        <time>2011-10-09T15:01:43Z</time>
      </trkpt>
      <trkpt lat="43.64013" lon="3.41336">
        <ele>185.67</ele>
        <time>2011-10-09T15:01:44Z</time>
      </trkpt>
      <trkpt lat="43.64004" lon="3.41344">
        <ele>185.19</ele>
        <time>2011-10-09T15:01:45Z</time>
      </trkpt>
      <trkpt lat="43.63996" lon="3.41353">
        <ele>184.71</ele>
        <time>2011-10-09T15:01:46Z</time>
      </trkpt>
      <trkpt lat="43.63993" lon="3.41368">
        <ele>184.23</ele>
        <time>2011-10-09T15:01:47Z</time>
      </trkpt>
      <trkpt lat="43.63995" lon="3.41388">
        <ele>183.75</ele>
        <time>2011-10-09T15:01:48Z</time>
      </trkpt>
      <trkpt lat="43.64" lon="3.41411">
        <ele>184.23</ele>
        <time>2011-10-09T15:01:49Z</time>
      </trkpt>
      <trkpt lat="43.64004" lon="3.41434">
        <ele>184.23</ele>
        <time>2011-10-09T15:01:50Z</time>
      </trkpt>
      <trkpt lat="43.64017" lon="3.4157">
        <ele>186.15</ele>
        <time>2011-10-09T15:01:55Z</time>
      </trkpt>
      <trkpt lat="43.64024" lon="3.41599">
        <ele>186.63</ele>
        <time>2011-10-09T15:01:56Z</time>
      </trkpt>
      <trkpt lat="43.64033" lon="3.41627">
        <ele>187.11</ele>
        <time>2011-10-09T15:01:57Z</time>
      </trkpt>
      <trkpt lat="43.64056" lon="3.41705">
        <ele>188.08</ele>
        <time>2011-10-09T15:02:00Z</time>
      </trkpt>
      <trkpt lat="43.6406" lon="3.41728">
        <ele>188.08</ele>
        <time>2011-10-09T15:02:01Z</time>
      </trkpt>
      <trkpt lat="43.64061" lon="3.41747">
        <ele>188.08</ele>
        <time>2011-10-09T15:02:02Z</time>
      </trkpt>
      <trkpt lat="43.64059" lon="3.41762">
        <ele>188.56</ele>
        <time>2011-10-09T15:02:03Z</time>
      </trkpt>
      <trkpt lat="43.64055" lon="3.41776">
        <ele>188.56</ele>
        <time>2011-10-09T15:02:04Z</time>
      </trkpt>
      <trkpt lat="43.64046" lon="3.41789">
        <ele>188.08</ele>
        <time>2011-10-09T15:02:05Z</time>
      </trkpt>
      <trkpt lat="43.64034" lon="3.41802">
        <ele>187.59</ele>
        <time>2011-10-09T15:02:06Z</time>
      </trkpt>
      <trkpt lat="43.64019" lon="3.41817">
        <ele>186.63</ele>
        <time>2011-10-09T15:02:07Z</time>
      </trkpt>
      <trkpt lat="43.64006" lon="3.41832">
        <ele>185.19</ele>
        <time>2011-10-09T15:02:08Z</time>
      </trkpt>
      <trkpt lat="43.63979" lon="3.41856">
        <ele>182.79</ele>
        <time>2011-10-09T15:02:10Z</time>
      </trkpt>
      <trkpt lat="43.63964" lon="3.41861">
        <ele>181.83</ele>
        <time>2011-10-09T15:02:11Z</time>
      </trkpt>
      <trkpt lat="43.63948" lon="3.41861">
        <ele>180.87</ele>
        <time>2011-10-09T15:02:12Z</time>
      </trkpt>
      <trkpt lat="43.6393" lon="3.4186">
        <ele>179.9</ele>
        <time>2011-10-09T15:02:13Z</time>
      </trkpt>
      <trkpt lat="43.6391" lon="3.41859">
        <ele>178.46</ele>
        <time>2011-10-09T15:02:14Z</time>
      </trkpt>
      <trkpt lat="43.63681" lon="3.41841">
        <ele>164.52</ele>
        <time>2011-10-09T15:02:25Z</time>
      </trkpt>
      <trkpt lat="43.63541" lon="3.41831">
        <ele>158.75</ele>
        <time>2011-10-09T15:02:33Z</time>
      </trkpt>
      <trkpt lat="43.63443" lon="3.4182">
        <ele>154.91</ele>
        <time>2011-10-09T15:02:41Z</time>
      </trkpt>
      <trkpt lat="43.63434" lon="3.41814">
        <ele>154.43</ele>
        <time>2011-10-09T15:02:42Z</time>
      </trkpt>
      <trkpt lat="43.63424" lon="3.41808">
        <ele>153.95</ele>
        <time>2011-10-09T15:02:43Z</time>
      </trkpt>
      <trkpt lat="43.63412" lon="3.41803">
        <ele>153.47</ele>
        <time>2011-10-09T15:02:44Z</time>
      </trkpt>
      <trkpt lat="43.63399" lon="3.418">
        <ele>153.47</ele>
        <time>2011-10-09T15:02:45Z</time>
      </trkpt>
      <trkpt lat="43.63385" lon="3.41798">
        <ele>152.99</ele>
        <time>2011-10-09T15:02:46Z</time>
      </trkpt>
      <trkpt lat="43.63372" lon="3.41797">
        <ele>152.51</ele>
        <time>2011-10-09T15:02:47Z</time>
      </trkpt>
      <trkpt lat="43.63338" lon="3.41793">
        <ele>151.06</ele>
        <time>2011-10-09T15:02:50Z</time>
      </trkpt>
      <trkpt lat="43.63327" lon="3.41788">
        <ele>150.58</ele>
        <time>2011-10-09T15:02:51Z</time>
      </trkpt>
      <trkpt lat="43.63316" lon="3.4178">
        <ele>150.1</ele>
        <time>2011-10-09T15:02:52Z</time>
      </trkpt>
      <trkpt lat="43.63296" lon="3.41763">
        <ele>149.14</ele>
        <time>2011-10-09T15:02:54Z</time>
      </trkpt>
      <trkpt lat="43.63285" lon="3.41757">
        <ele>148.66</ele>
        <time>2011-10-09T15:02:55Z</time>
      </trkpt>
      <trkpt lat="43.63275" lon="3.41756">
        <ele>148.66</ele>
        <time>2011-10-09T15:02:56Z</time>
      </trkpt>
      <trkpt lat="43.63266" lon="3.41757">
        <ele>148.18</ele>
        <time>2011-10-09T15:02:57Z</time>
      </trkpt>
      <trkpt lat="43.63257" lon="3.41759">
        <ele>147.7</ele>
        <time>2011-10-09T15:02:58Z</time>
      </trkpt>
      <trkpt lat="43.6325" lon="3.41762">
        <ele>147.7</ele>
        <time>2011-10-09T15:02:59Z</time>
      </trkpt>
      <trkpt lat="43.63243" lon="3.41769">
        <ele>147.7</ele>
        <time>2011-10-09T15:03:00Z</time>
      </trkpt>
      <trkpt lat="43.63218" lon="3.41797">
        <ele>146.74</ele>
        <time>2011-10-09T15:03:03Z</time>
      </trkpt>
      <trkpt lat="43.63208" lon="3.41804">
        <ele>146.74</ele>
        <time>2011-10-09T15:03:04Z</time>
      </trkpt>
      <trkpt lat="43.63196" lon="3.41811">
        <ele>146.26</ele>
        <time>2011-10-09T15:03:05Z</time>
      </trkpt>
      <trkpt lat="43.63073" lon="3.41877">
        <ele>142.89</ele>
        <time>2011-10-09T15:03:15Z</time>
      </trkpt>
      <trkpt lat="43.62988" lon="3.41922">
        <ele>140.01</ele>
        <time>2011-10-09T15:03:24Z</time>
      </trkpt>
      <trkpt lat="43.62976" lon="3.41927">
        <ele>139.05</ele>
        <time>2011-10-09T15:03:26Z</time>
      </trkpt>
      <trkpt lat="43.6297" lon="3.41928">
        <ele>138.57</ele>
        <time>2011-10-09T15:03:27Z</time>
      </trkpt>
      <trkpt lat="43.62965" lon="3.41926">
        <ele>138.57</ele>
        <time>2011-10-09T15:03:28Z</time>
      </trkpt>
      <trkpt lat="43.6296" lon="3.41923">
        <ele>138.09</ele>
        <time>2011-10-09T15:03:29Z</time>
      </trkpt>
      <trkpt lat="43.62955" lon="3.41921">
        <ele>137.61</ele>
        <time>2011-10-09T15:03:30Z</time>
      </trkpt>
      <trkpt lat="43.6295" lon="3.41922">
        <ele>137.13</ele>
        <time>2011-10-09T15:03:31Z</time>
      </trkpt>
      <trkpt lat="43.62947" lon="3.41927">
        <ele>137.13</ele>
        <time>2011-10-09T15:03:32Z</time>
      </trkpt>
      <trkpt lat="43.62945" lon="3.41935">
        <ele>137.13</ele>
        <time>2011-10-09T15:03:33Z</time>
      </trkpt>
      <trkpt lat="43.62941" lon="3.41943">
        <ele>136.64</ele>
        <time>2011-10-09T15:03:34Z</time>
      </trkpt>
      <trkpt lat="43.62935" lon="3.4195">
        <ele>136.64</ele>
        <time>2011-10-09T15:03:35Z</time>
      </trkpt>
      <trkpt lat="43.62928" lon="3.41955">
        <ele>136.16</ele>
        <time>2011-10-09T15:03:36Z</time>
      </trkpt>
      <trkpt lat="43.6292" lon="3.4196">
        <ele>136.16</ele>
        <time>2011-10-09T15:03:37Z</time>
      </trkpt>
      <trkpt lat="43.62914" lon="3.41965">
        <ele>135.68</ele>
        <time>2011-10-09T15:03:38Z</time>
      </trkpt>
      <trkpt lat="43.62908" lon="3.41971">
        <ele>135.68</ele>
        <time>2011-10-09T15:03:39Z</time>
      </trkpt>
      <trkpt lat="43.62904" lon="3.41977">
        <ele>135.2</ele>
        <time>2011-10-09T15:03:40Z</time>
      </trkpt>
      <trkpt lat="43.62899" lon="3.41983">
        <ele>134.72</ele>
        <time>2011-10-09T15:03:41Z</time>
      </trkpt>
      <trkpt lat="43.62839" lon="3.42071">
        <ele>129.43</ele>
        <time>2011-10-09T15:03:51Z</time>
      </trkpt>
      <trkpt lat="43.62776" lon="3.42173">
        <ele>125.11</ele>
        <time>2011-10-09T15:04:02Z</time>
      </trkpt>
      <trkpt lat="43.62724" lon="3.42268">
        <ele>118.86</ele>
        <time>2011-10-09T15:04:12Z</time>
      </trkpt>
      <trkpt lat="43.62655" lon="3.42425">
        <ele>115.5</ele>
        <time>2011-10-09T15:04:26Z</time>
      </trkpt>
      <trkpt lat="43.62633" lon="3.42492">
        <ele>115.5</ele>
        <time>2011-10-09T15:04:35Z</time>
      </trkpt>
      <trkpt lat="43.62621" lon="3.4253">
        <ele>115.01</ele>
        <time>2011-10-09T15:04:41Z</time>
      </trkpt>
      <trkpt lat="43.62615" lon="3.42539">
        <ele>114.53</ele>
        <time>2011-10-09T15:04:43Z</time>
      </trkpt>
      <trkpt lat="43.62612" lon="3.42543">
        <ele>114.05</ele>
        <time>2011-10-09T15:04:44Z</time>
      </trkpt>
      <trkpt lat="43.62608" lon="3.42548">
        <ele>113.57</ele>
        <time>2011-10-09T15:04:53Z</time>
      </trkpt>
      <trkpt lat="43.62594" lon="3.42561">
        <ele>113.57</ele>
        <time>2011-10-09T15:05:07Z</time>
      </trkpt>
      <trkpt lat="43.6259" lon="3.42562">
        <ele>114.05</ele>
        <time>2011-10-09T15:05:08Z</time>
      </trkpt>
      <trkpt lat="43.62586" lon="3.42563">
        <ele>114.53</ele>
        <time>2011-10-09T15:05:09Z</time>
      </trkpt>
      <trkpt lat="43.62583" lon="3.42563">
        <ele>114.53</ele>
        <time>2011-10-09T15:05:10Z</time>
      </trkpt>
      <trkpt lat="43.6258" lon="3.42563">
        <ele>114.53</ele>
        <time>2011-10-09T15:05:11Z</time>
      </trkpt>
      <trkpt lat="43.62578" lon="3.42563">
        <ele>115.01</ele>
        <time>2011-10-09T15:05:12Z</time>
      </trkpt>
      <trkpt lat="43.62576" lon="3.42565">
        <ele>115.01</ele>
        <time>2011-10-09T15:05:13Z</time>
      </trkpt>
      <trkpt lat="43.62575" lon="3.42567">
        <ele>115.5</ele>
        <time>2011-10-09T15:05:14Z</time>
      </trkpt>
      <trkpt lat="43.62574" lon="3.4257">
        <ele>115.5</ele>
        <time>2011-10-09T15:05:15Z</time>
      </trkpt>
      <trkpt lat="43.62573" lon="3.42575">
        <ele>115.5</ele>
        <time>2011-10-09T15:05:16Z</time>
      </trkpt>
      <trkpt lat="43.62573" lon="3.42583">
        <ele>115.5</ele>
        <time>2011-10-09T15:05:17Z</time>
      </trkpt>
      <trkpt lat="43.62574" lon="3.4265">
        <ele>113.57</ele>
        <time>2011-10-09T15:05:29Z</time>
      </trkpt>
      <trkpt lat="43.62576" lon="3.42673">
        <ele>112.61</ele>
        <time>2011-10-09T15:05:41Z</time>
      </trkpt>
      <trkpt lat="43.62579" lon="3.42706">
        <ele>112.13</ele>
        <time>2011-10-09T15:05:47Z</time>
      </trkpt>
      <trkpt lat="43.6259" lon="3.42818">
        <ele>110.69</ele>
        <time>2011-10-09T15:05:57Z</time>
      </trkpt>
      <trkpt lat="43.626" lon="3.43003">
        <ele>106.84</ele>
        <time>2011-10-09T15:06:11Z</time>
      </trkpt>
      <trkpt lat="43.62597" lon="3.43065">
        <ele>109.73</ele>
        <time>2011-10-09T15:06:22Z</time>
      </trkpt>
      <trkpt lat="43.62588" lon="3.43121">
        <ele>115.01</ele>
        <time>2011-10-09T15:06:34Z</time>
      </trkpt>
      <trkpt lat="43.62587" lon="3.43127">
        <ele>115.5</ele>
        <time>2011-10-09T15:06:35Z</time>
      </trkpt>
      <trkpt lat="43.62565" lon="3.43213">
        <ele>110.21</ele>
        <time>2011-10-09T15:06:46Z</time>
      </trkpt>
      <trkpt lat="43.62544" lon="3.43292">
        <ele>114.05</ele>
        <time>2011-10-09T15:06:57Z</time>
      </trkpt>
      <trkpt lat="43.62542" lon="3.43298">
        <ele>115.5</ele>
        <time>2011-10-09T15:06:58Z</time>
      </trkpt>
      <trkpt lat="43.62539" lon="3.43309">
        <ele>116.46</ele>
        <time>2011-10-09T15:07:00Z</time>
      </trkpt>
      <trkpt lat="43.62537" lon="3.43328">
        <ele>120.3</ele>
        <time>2011-10-09T15:07:03Z</time>
      </trkpt>
      <trkpt lat="43.62536" lon="3.43332">
        <ele>119.34</ele>
        <time>2011-10-09T15:07:04Z</time>
      </trkpt>
      <trkpt lat="43.62535" lon="3.43333">
        <ele>116.46</ele>
        <time>2011-10-09T15:07:05Z</time>
      </trkpt>
      <trkpt lat="43.62535" lon="3.43334">
        <ele>115.01</ele>
        <time>2011-10-09T15:07:06Z</time>
      </trkpt>
      <trkpt lat="43.62542" lon="3.43331">
        <ele>114.53</ele>
        <time>2011-10-09T15:07:07Z</time>
      </trkpt>
      <trkpt lat="43.62547" lon="3.43331">
        <ele>114.05</ele>
        <time>2011-10-09T15:07:08Z</time>
      </trkpt>
      <trkpt lat="43.62553" lon="3.43334">
        <ele>115.5</ele>
        <time>2011-10-09T15:07:09Z</time>
      </trkpt>
      <trkpt lat="43.62561" lon="3.43338">
        <ele>114.53</ele>
        <time>2011-10-09T15:07:10Z</time>
      </trkpt>
      <trkpt lat="43.62617" lon="3.43359">
        <ele>108.29</ele>
        <time>2011-10-09T15:07:20Z</time>
      </trkpt>
      <trkpt lat="43.62661" lon="3.43377">
        <ele>107.32</ele>
        <time>2011-10-09T15:07:32Z</time>
      </trkpt>
      <trkpt lat="43.62728" lon="3.43404">
        <ele>104.92</ele>
        <time>2011-10-09T15:07:45Z</time>
      </trkpt>
      <trkpt lat="43.62823" lon="3.43442">
        <ele>104.92</ele>
        <time>2011-10-09T15:07:57Z</time>
      </trkpt>
      <trkpt lat="43.62936" lon="3.4349">
        <ele>98.67</ele>
        <time>2011-10-09T15:08:10Z</time>
      </trkpt>
      <trkpt lat="43.63036" lon="3.43572">
        <ele>94.35</ele>
        <time>2011-10-09T15:08:22Z</time>
      </trkpt>
      <trkpt lat="43.63129" lon="3.43652">
        <ele>91.94</ele>
        <time>2011-10-09T15:08:33Z</time>
      </trkpt>
      <trkpt lat="43.63135" lon="3.43662">
        <ele>91.94</ele>
        <time>2011-10-09T15:08:34Z</time>
      </trkpt>
      <trkpt lat="43.63142" lon="3.43673">
        <ele>90.98</ele>
        <time>2011-10-09T15:08:35Z</time>
      </trkpt>
      <trkpt lat="43.6321" lon="3.43807">
        <ele>88.58</ele>
        <time>2011-10-09T15:08:45Z</time>
      </trkpt>
      <trkpt lat="43.63285" lon="3.43963">
        <ele>86.18</ele>
        <time>2011-10-09T15:08:57Z</time>
      </trkpt>
      <trkpt lat="43.633" lon="3.43996">
        <ele>85.69</ele>
        <time>2011-10-09T15:09:01Z</time>
      </trkpt>
      <trkpt lat="43.63302" lon="3.44005">
        <ele>85.69</ele>
        <time>2011-10-09T15:09:02Z</time>
      </trkpt>
      <trkpt lat="43.63302" lon="3.44013">
        <ele>85.69</ele>
        <time>2011-10-09T15:09:03Z</time>
      </trkpt>
      <trkpt lat="43.633" lon="3.44021">
        <ele>85.69</ele>
        <time>2011-10-09T15:09:04Z</time>
      </trkpt>
      <trkpt lat="43.63298" lon="3.44029">
        <ele>85.69</ele>
        <time>2011-10-09T15:09:05Z</time>
      </trkpt>
      <trkpt lat="43.63298" lon="3.44038">
        <ele>85.69</ele>
        <time>2011-10-09T15:09:06Z</time>
      </trkpt>
      <trkpt lat="43.633" lon="3.44046">
        <ele>85.21</ele>
        <time>2011-10-09T15:09:07Z</time>
      </trkpt>
      <trkpt lat="43.63304" lon="3.44053">
        <ele>85.21</ele>
        <time>2011-10-09T15:09:08Z</time>
      </trkpt>
      <trkpt lat="43.63312" lon="3.44055">
        <ele>85.21</ele>
        <time>2011-10-09T15:09:09Z</time>
      </trkpt>
      <trkpt lat="43.6332" lon="3.44054">
        <ele>85.21</ele>
        <time>2011-10-09T15:09:10Z</time>
      </trkpt>
      <trkpt lat="43.63328" lon="3.44052">
        <ele>85.69</ele>
        <time>2011-10-09T15:09:11Z</time>
      </trkpt>
      <trkpt lat="43.63339" lon="3.44053">
        <ele>85.69</ele>
        <time>2011-10-09T15:09:12Z</time>
      </trkpt>
      <trkpt lat="43.6335" lon="3.44055">
        <ele>85.69</ele>
        <time>2011-10-09T15:09:13Z</time>
      </trkpt>
      <trkpt lat="43.63362" lon="3.4406">
        <ele>86.18</ele>
        <time>2011-10-09T15:09:14Z</time>
      </trkpt>
      <trkpt lat="43.63462" lon="3.44108">
        <ele>86.66</ele>
        <time>2011-10-09T15:09:20Z</time>
      </trkpt>
      <trkpt lat="43.63689" lon="3.44224">
        <ele>84.25</ele>
        <time>2011-10-09T15:09:32Z</time>
      </trkpt>
      <trkpt lat="43.63825" lon="3.44263">
        <ele>77.52</ele>
        <time>2011-10-09T15:09:39Z</time>
      </trkpt>
      <trkpt lat="43.63843" lon="3.44276">
        <ele>76.56</ele>
        <time>2011-10-09T15:09:40Z</time>
      </trkpt>
      <trkpt lat="43.63861" lon="3.44291">
        <ele>75.12</ele>
        <time>2011-10-09T15:09:41Z</time>
      </trkpt>
      <trkpt lat="43.64015" lon="3.44458">
        <ele>69.83</ele>
        <time>2011-10-09T15:09:50Z</time>
      </trkpt>
      <trkpt lat="43.64133" lon="3.44554">
        <ele>67.43</ele>
        <time>2011-10-09T15:09:57Z</time>
      </trkpt>
      <trkpt lat="43.64152" lon="3.4456">
        <ele>66.95</ele>
        <time>2011-10-09T15:09:58Z</time>
      </trkpt>
      <trkpt lat="43.64172" lon="3.44565">
        <ele>66.47</ele>
        <time>2011-10-09T15:09:59Z</time>
      </trkpt>
      <trkpt lat="43.64192" lon="3.44566">
        <ele>65.99</ele>
        <time>2011-10-09T15:10:00Z</time>
      </trkpt>
      <trkpt lat="43.64212" lon="3.44567">
        <ele>65.03</ele>
        <time>2011-10-09T15:10:01Z</time>
      </trkpt>
      <trkpt lat="43.64265" lon="3.44573">
        <ele>62.14</ele>
        <time>2011-10-09T15:10:04Z</time>
      </trkpt>
      <trkpt lat="43.64283" lon="3.44579">
        <ele>61.18</ele>
        <time>2011-10-09T15:10:05Z</time>
      </trkpt>
      <trkpt lat="43.643" lon="3.44589">
        <ele>59.74</ele>
        <time>2011-10-09T15:10:06Z</time>
      </trkpt>
      <trkpt lat="43.64316" lon="3.44602">
        <ele>58.78</ele>
        <time>2011-10-09T15:10:07Z</time>
      </trkpt>
      <trkpt lat="43.64332" lon="3.44618">
        <ele>57.82</ele>
        <time>2011-10-09T15:10:08Z</time>
      </trkpt>
      <trkpt lat="43.64345" lon="3.44638">
        <ele>56.37</ele>
        <time>2011-10-09T15:10:09Z</time>
      </trkpt>
      <trkpt lat="43.64357" lon="3.44662">
        <ele>55.41</ele>
        <time>2011-10-09T15:10:10Z</time>
      </trkpt>
      <trkpt lat="43.64367" lon="3.44688">
        <ele>54.45</ele>
        <time>2011-10-09T15:10:11Z</time>
      </trkpt>
      <trkpt lat="43.64374" lon="3.44716">
        <ele>53.97</ele>
        <time>2011-10-09T15:10:12Z</time>
      </trkpt>
      <trkpt lat="43.6438" lon="3.44745">
        <ele>53.01</ele>
        <time>2011-10-09T15:10:13Z</time>
      </trkpt>
      <trkpt lat="43.64409" lon="3.44934">
        <ele>53.49</ele>
        <time>2011-10-09T15:10:19Z</time>
      </trkpt>
      <trkpt lat="43.6446" lon="3.4512">
        <ele>54.93</ele>
        <time>2011-10-09T15:10:26Z</time>
      </trkpt>
      <trkpt lat="43.64469" lon="3.45156">
        <ele>55.89</ele>
        <time>2011-10-09T15:10:28Z</time>
      </trkpt>
      <trkpt lat="43.64472" lon="3.45174">
        <ele>56.37</ele>
        <time>2011-10-09T15:10:29Z</time>
      </trkpt>
      <trkpt lat="43.64475" lon="3.45232">
        <ele>57.34</ele>
        <time>2011-10-09T15:10:32Z</time>
      </trkpt>
      <trkpt lat="43.64473" lon="3.4525">
        <ele>57.34</ele>
        <time>2011-10-09T15:10:33Z</time>
      </trkpt>
      <trkpt lat="43.64431" lon="3.45405">
        <ele>59.74</ele>
        <time>2011-10-09T15:10:42Z</time>
      </trkpt>
      <trkpt lat="43.64404" lon="3.45471">
        <ele>61.66</ele>
        <time>2011-10-09T15:10:47Z</time>
      </trkpt>
      <trkpt lat="43.64401" lon="3.45485">
        <ele>62.62</ele>
        <time>2011-10-09T15:10:48Z</time>
      </trkpt>
      <trkpt lat="43.64399" lon="3.45501">
        <ele>62.62</ele>
        <time>2011-10-09T15:10:49Z</time>
      </trkpt>
      <trkpt lat="43.644" lon="3.45517">
        <ele>63.1</ele>
        <time>2011-10-09T15:10:50Z</time>
      </trkpt>
      <trkpt lat="43.64403" lon="3.45532">
        <ele>64.07</ele>
        <time>2011-10-09T15:10:51Z</time>
      </trkpt>
      <trkpt lat="43.64408" lon="3.45545">
        <ele>64.55</ele>
        <time>2011-10-09T15:10:52Z</time>
      </trkpt>
      <trkpt lat="43.64414" lon="3.45557">
        <ele>64.55</ele>
        <time>2011-10-09T15:10:53Z</time>
      </trkpt>
      <trkpt lat="43.6442" lon="3.45569">
        <ele>64.55</ele>
        <time>2011-10-09T15:10:54Z</time>
      </trkpt>
      <trkpt lat="43.64509" lon="3.45733">
        <ele>63.58</ele>
        <time>2011-10-09T15:11:08Z</time>
      </trkpt>
      <trkpt lat="43.64522" lon="3.45759">
        <ele>63.58</ele>
        <time>2011-10-09T15:11:13Z</time>
      </trkpt>
      <trkpt lat="43.64525" lon="3.45765">
        <ele>63.58</ele>
        <time>2011-10-09T15:11:14Z</time>
      </trkpt>
      <trkpt lat="43.64526" lon="3.45772">
        <ele>63.58</ele>
        <time>2011-10-09T15:11:15Z</time>
      </trkpt>
      <trkpt lat="43.64527" lon="3.45781">
        <ele>63.58</ele>
        <time>2011-10-09T15:11:16Z</time>
      </trkpt>
      <trkpt lat="43.64528" lon="3.45793">
        <ele>63.58</ele>
        <time>2011-10-09T15:11:17Z</time>
      </trkpt>
      <trkpt lat="43.64528" lon="3.45806">
        <ele>63.1</ele>
        <time>2011-10-09T15:11:18Z</time>
      </trkpt>
      <trkpt lat="43.64527" lon="3.4582">
        <ele>63.1</ele>
        <time>2011-10-09T15:11:19Z</time>
      </trkpt>
      <trkpt lat="43.64517" lon="3.45913">
        <ele>64.55</ele>
        <time>2011-10-09T15:11:27Z</time>
      </trkpt>
      <trkpt lat="43.64511" lon="3.45925">
        <ele>65.03</ele>
        <time>2011-10-09T15:11:28Z</time>
      </trkpt>
      <trkpt lat="43.64504" lon="3.45936">
        <ele>65.51</ele>
        <time>2011-10-09T15:11:29Z</time>
      </trkpt>
      <trkpt lat="43.64472" lon="3.4599">
        <ele>65.03</ele>
        <time>2011-10-09T15:11:34Z</time>
      </trkpt>
      <trkpt lat="43.64468" lon="3.46003">
        <ele>65.03</ele>
        <time>2011-10-09T15:11:35Z</time>
      </trkpt>
      <trkpt lat="43.64464" lon="3.46015">
        <ele>65.03</ele>
        <time>2011-10-09T15:11:36Z</time>
      </trkpt>
      <trkpt lat="43.64462" lon="3.46029">
        <ele>64.55</ele>
        <time>2011-10-09T15:11:37Z</time>
      </trkpt>
      <trkpt lat="43.6446" lon="3.46044">
        <ele>64.55</ele>
        <time>2011-10-09T15:11:38Z</time>
      </trkpt>
      <trkpt lat="43.64434" lon="3.46237">
        <ele>63.58</ele>
        <time>2011-10-09T15:11:50Z</time>
      </trkpt>
      <trkpt lat="43.64398" lon="3.46506">
        <ele>61.66</ele>
        <time>2011-10-09T15:12:03Z</time>
      </trkpt>
      <trkpt lat="43.64366" lon="3.46741">
        <ele>61.18</ele>
        <time>2011-10-09T15:12:13Z</time>
      </trkpt>
      <trkpt lat="43.6436" lon="3.46976">
        <ele>60.7</ele>
        <time>2011-10-09T15:12:22Z</time>
      </trkpt>
      <trkpt lat="43.64395" lon="3.47202">
        <ele>61.66</ele>
        <time>2011-10-09T15:12:31Z</time>
      </trkpt>
      <trkpt lat="43.64422" lon="3.47364">
        <ele>64.55</ele>
        <time>2011-10-09T15:12:36Z</time>
      </trkpt>
      <trkpt lat="43.64499" lon="3.47842">
        <ele>69.35</ele>
        <time>2011-10-09T15:12:49Z</time>
      </trkpt>
      <trkpt lat="43.646" lon="3.48461">
        <ele>67.43</ele>
        <time>2011-10-09T15:13:04Z</time>
      </trkpt>
      <trkpt lat="43.64642" lon="3.48715">
        <ele>66.47</ele>
        <time>2011-10-09T15:13:11Z</time>
      </trkpt>
      <trkpt lat="43.64696" lon="3.4905">
        <ele>67.91</ele>
        <time>2011-10-09T15:13:20Z</time>
      </trkpt>
      <trkpt lat="43.6478" lon="3.49385">
        <ele>69.35</ele>
        <time>2011-10-09T15:13:29Z</time>
      </trkpt>
      <trkpt lat="43.64812" lon="3.49481">
        <ele>69.83</ele>
        <time>2011-10-09T15:13:33Z</time>
      </trkpt>
      <trkpt lat="43.64844" lon="3.49602">
        <ele>70.31</ele>
        <time>2011-10-09T15:13:40Z</time>
      </trkpt>
      <trkpt lat="43.64851" lon="3.49615">
        <ele>70.31</ele>
        <time>2011-10-09T15:13:41Z</time>
      </trkpt>
      <trkpt lat="43.64866" lon="3.49642">
        <ele>70.79</ele>
        <time>2011-10-09T15:13:43Z</time>
      </trkpt>
      <trkpt lat="43.64871" lon="3.4966">
        <ele>70.79</ele>
        <time>2011-10-09T15:13:44Z</time>
      </trkpt>
      <trkpt lat="43.64908" lon="3.49783">
        <ele>70.79</ele>
        <time>2011-10-09T15:13:49Z</time>
      </trkpt>
      <trkpt lat="43.65" lon="3.50071">
        <ele>66.95</ele>
        <time>2011-10-09T15:14:02Z</time>
      </trkpt>
      <trkpt lat="43.6504" lon="3.50213">
        <ele>66.47</ele>
        <time>2011-10-09T15:14:11Z</time>
      </trkpt>
      <trkpt lat="43.65045" lon="3.50229">
        <ele>66.47</ele>
        <time>2011-10-09T15:14:18Z</time>
      </trkpt>
      <trkpt lat="43.65044" lon="3.50238">
        <ele>68.87</ele>
        <time>2011-10-09T15:14:27Z</time>
      </trkpt>
      <trkpt lat="43.65042" lon="3.50249">
        <ele>68.87</ele>
        <time>2011-10-09T15:14:28Z</time>
      </trkpt>
      <trkpt lat="43.65023" lon="3.50366">
        <ele>70.79</ele>
        <time>2011-10-09T15:14:36Z</time>
      </trkpt>
      <trkpt lat="43.65008" lon="3.50451">
        <ele>72.24</ele>
        <time>2011-10-09T15:14:42Z</time>
      </trkpt>
      <trkpt lat="43.65008" lon="3.50464">
        <ele>72.24</ele>
        <time>2011-10-09T15:14:43Z</time>
      </trkpt>
      <trkpt lat="43.65019" lon="3.50623">
        <ele>73.2</ele>
        <time>2011-10-09T15:14:55Z</time>
      </trkpt>
      <trkpt lat="43.65035" lon="3.50743">
        <ele>71.76</ele>
        <time>2011-10-09T15:15:04Z</time>
      </trkpt>
      <trkpt lat="43.65076" lon="3.5096">
        <ele>68.39</ele>
        <time>2011-10-09T15:15:19Z</time>
      </trkpt>
      <trkpt lat="43.65081" lon="3.50983">
        <ele>67.91</ele>
        <time>2011-10-09T15:15:25Z</time>
      </trkpt>
      <trkpt lat="43.65092" lon="3.51038">
        <ele>67.43</ele>
        <time>2011-10-09T15:15:33Z</time>
      </trkpt>
      <trkpt lat="43.65095" lon="3.51079">
        <ele>68.39</ele>
        <time>2011-10-09T15:15:39Z</time>
      </trkpt>
      <trkpt lat="43.65092" lon="3.51095">
        <ele>68.39</ele>
        <time>2011-10-09T15:15:41Z</time>
      </trkpt>
      <trkpt lat="43.65093" lon="3.51104">
        <ele>67.91</ele>
        <time>2011-10-09T15:15:42Z</time>
      </trkpt>
      <trkpt lat="43.65097" lon="3.51114">
        <ele>67.91</ele>
        <time>2011-10-09T15:15:43Z</time>
      </trkpt>
      <trkpt lat="43.65109" lon="3.51142">
        <ele>67.43</ele>
        <time>2011-10-09T15:15:45Z</time>
      </trkpt>
      <trkpt lat="43.65114" lon="3.51163">
        <ele>67.43</ele>
        <time>2011-10-09T15:15:46Z</time>
      </trkpt>
      <trkpt lat="43.65118" lon="3.51188">
        <ele>67.43</ele>
        <time>2011-10-09T15:15:47Z</time>
      </trkpt>
      <trkpt lat="43.65154" lon="3.51367">
        <ele>65.99</ele>
        <time>2011-10-09T15:15:53Z</time>
      </trkpt>
      <trkpt lat="43.65221" lon="3.51713">
        <ele>65.03</ele>
        <time>2011-10-09T15:16:03Z</time>
      </trkpt>
      <trkpt lat="43.65273" lon="3.51987">
        <ele>64.55</ele>
        <time>2011-10-09T15:16:12Z</time>
      </trkpt>
      <trkpt lat="43.65306" lon="3.52117">
        <ele>64.07</ele>
        <time>2011-10-09T15:16:19Z</time>
      </trkpt>
      <trkpt lat="43.65306" lon="3.52137">
        <ele>64.55</ele>
        <time>2011-10-09T15:16:23Z</time>
      </trkpt>
      <trkpt lat="43.65303" lon="3.52161">
        <ele>64.55</ele>
        <time>2011-10-09T15:16:25Z</time>
      </trkpt>
      <trkpt lat="43.65304" lon="3.52174">
        <ele>64.55</ele>
        <time>2011-10-09T15:16:26Z</time>
      </trkpt>
      <trkpt lat="43.65308" lon="3.52188">
        <ele>64.55</ele>
        <time>2011-10-09T15:16:27Z</time>
      </trkpt>
      <trkpt lat="43.65315" lon="3.52199">
        <ele>64.55</ele>
        <time>2011-10-09T15:16:28Z</time>
      </trkpt>
      <trkpt lat="43.65324" lon="3.52206">
        <ele>64.55</ele>
        <time>2011-10-09T15:16:29Z</time>
      </trkpt>
      <trkpt lat="43.65336" lon="3.52207">
        <ele>65.03</ele>
        <time>2011-10-09T15:16:30Z</time>
      </trkpt>
      <trkpt lat="43.65347" lon="3.52206">
        <ele>65.03</ele>
        <time>2011-10-09T15:16:31Z</time>
      </trkpt>
      <trkpt lat="43.65358" lon="3.52205">
        <ele>65.03</ele>
        <time>2011-10-09T15:16:32Z</time>
      </trkpt>
      <trkpt lat="43.6537" lon="3.52209">
        <ele>65.03</ele>
        <time>2011-10-09T15:16:33Z</time>
      </trkpt>
      <trkpt lat="43.65381" lon="3.52216">
        <ele>64.55</ele>
        <time>2011-10-09T15:16:34Z</time>
      </trkpt>
      <trkpt lat="43.65393" lon="3.52224">
        <ele>64.55</ele>
        <time>2011-10-09T15:16:35Z</time>
      </trkpt>
      <trkpt lat="43.65405" lon="3.52234">
        <ele>64.07</ele>
        <time>2011-10-09T15:16:36Z</time>
      </trkpt>
      <trkpt lat="43.65416" lon="3.52245">
        <ele>64.07</ele>
        <time>2011-10-09T15:16:37Z</time>
      </trkpt>
      <trkpt lat="43.65427" lon="3.52261">
        <ele>63.58</ele>
        <time>2011-10-09T15:16:38Z</time>
      </trkpt>
      <trkpt lat="43.65435" lon="3.52282">
        <ele>63.1</ele>
        <time>2011-10-09T15:16:39Z</time>
      </trkpt>
      <trkpt lat="43.6544" lon="3.52306">
        <ele>63.1</ele>
        <time>2011-10-09T15:16:40Z</time>
      </trkpt>
      <trkpt lat="43.65441" lon="3.52333">
        <ele>62.62</ele>
        <time>2011-10-09T15:16:41Z</time>
      </trkpt>
      <trkpt lat="43.65438" lon="3.5236">
        <ele>62.62</ele>
        <time>2011-10-09T15:16:42Z</time>
      </trkpt>
      <trkpt lat="43.65433" lon="3.52387">
        <ele>62.62</ele>
        <time>2011-10-09T15:16:43Z</time>
      </trkpt>
      <trkpt lat="43.65425" lon="3.52415">
        <ele>62.62</ele>
        <time>2011-10-09T15:16:44Z</time>
      </trkpt>
      <trkpt lat="43.65414" lon="3.52444">
        <ele>62.14</ele>
        <time>2011-10-09T15:16:45Z</time>
      </trkpt>
      <trkpt lat="43.65403" lon="3.52474">
        <ele>62.14</ele>
        <time>2011-10-09T15:16:46Z</time>
      </trkpt>
      <trkpt lat="43.65327" lon="3.52696">
        <ele>58.78</ele>
        <time>2011-10-09T15:16:52Z</time>
      </trkpt>
      <trkpt lat="43.65252" lon="3.52986">
        <ele>56.86</ele>
        <time>2011-10-09T15:16:58Z</time>
      </trkpt>
      <trkpt lat="43.65197" lon="3.53374">
        <ele>52.53</ele>
        <time>2011-10-09T15:17:05Z</time>
      </trkpt>
      <trkpt lat="43.65159" lon="3.53731">
        <ele>51.57</ele>
        <time>2011-10-09T15:17:12Z</time>
      </trkpt>
      <trkpt lat="43.65101" lon="3.5405">
        <ele>51.57</ele>
        <time>2011-10-09T15:17:19Z</time>
      </trkpt>
      <trkpt lat="43.64995" lon="3.54313">
        <ele>53.49</ele>
        <time>2011-10-09T15:17:25Z</time>
      </trkpt>
      <trkpt lat="43.64839" lon="3.54538">
        <ele>55.41</ele>
        <time>2011-10-09T15:17:31Z</time>
      </trkpt>
      <trkpt lat="43.64692" lon="3.54738">
        <ele>62.62</ele>
        <time>2011-10-09T15:17:37Z</time>
      </trkpt>
      <trkpt lat="43.64581" lon="3.54977">
        <ele>70.31</ele>
        <time>2011-10-09T15:17:43Z</time>
      </trkpt>
      <trkpt lat="43.64514" lon="3.55243">
        <ele>74.64</ele>
        <time>2011-10-09T15:17:49Z</time>
      </trkpt>
      <trkpt lat="43.64485" lon="3.55552">
        <ele>78.97</ele>
        <time>2011-10-09T15:17:56Z</time>
      </trkpt>
      <trkpt lat="43.64452" lon="3.5599">
        <ele>90.98</ele>
        <time>2011-10-09T15:18:07Z</time>
      </trkpt>
      <trkpt lat="43.64413" lon="3.56294">
        <ele>101.08</ele>
        <time>2011-10-09T15:18:14Z</time>
      </trkpt>
      <trkpt lat="43.64329" lon="3.56568">
        <ele>106.36</ele>
        <time>2011-10-09T15:18:20Z</time>
      </trkpt>
      <trkpt lat="43.64172" lon="3.56951">
        <ele>112.13</ele>
        <time>2011-10-09T15:18:29Z</time>
      </trkpt>
      <trkpt lat="43.64072" lon="3.57296">
        <ele>117.9</ele>
        <time>2011-10-09T15:18:37Z</time>
      </trkpt>
      <trkpt lat="43.63915" lon="3.57808">
        <ele>118.86</ele>
        <time>2011-10-09T15:18:48Z</time>
      </trkpt>
      <trkpt lat="43.63781" lon="3.58058">
        <ele>117.9</ele>
        <time>2011-10-09T15:18:54Z</time>
      </trkpt>
      <trkpt lat="43.63579" lon="3.58332">
        <ele>118.86</ele>
        <time>2011-10-09T15:19:02Z</time>
      </trkpt>
      <trkpt lat="43.63203" lon="3.58838">
        <ele>132.8</ele>
        <time>2011-10-09T15:19:16Z</time>
      </trkpt>
      <trkpt lat="43.62956" lon="3.59174">
        <ele>148.18</ele>
        <time>2011-10-09T15:19:24Z</time>
      </trkpt>
      <trkpt lat="43.6283" lon="3.59397">
        <ele>159.72</ele>
        <time>2011-10-09T15:19:29Z</time>
      </trkpt>
      <trkpt lat="43.62739" lon="3.59645">
        <ele>170.29</ele>
        <time>2011-10-09T15:19:35Z</time>
      </trkpt>
      <trkpt lat="43.62683" lon="3.59923">
        <ele>177.5</ele>
        <time>2011-10-09T15:19:41Z</time>
      </trkpt>
      <trkpt lat="43.62666" lon="3.60223">
        <ele>185.19</ele>
        <time>2011-10-09T15:19:47Z</time>
      </trkpt>
      <trkpt lat="43.62665" lon="3.60623">
        <ele>199.13</ele>
        <time>2011-10-09T15:19:55Z</time>
      </trkpt>
      <trkpt lat="43.62613" lon="3.6092">
        <ele>208.74</ele>
        <time>2011-10-09T15:20:01Z</time>
      </trkpt>
      <trkpt lat="43.62558" lon="3.61241">
        <ele>219.32</ele>
        <time>2011-10-09T15:20:08Z</time>
      </trkpt>
      <trkpt lat="43.62531" lon="3.61579">
        <ele>227.49</ele>
        <time>2011-10-09T15:20:15Z</time>
      </trkpt>
      <trkpt lat="43.62468" lon="3.61951">
        <ele>229.41</ele>
        <time>2011-10-09T15:20:22Z</time>
      </trkpt>
      <trkpt lat="43.62368" lon="3.62356">
        <ele>224.61</ele>
        <time>2011-10-09T15:20:30Z</time>
      </trkpt>
      <trkpt lat="43.6233" lon="3.62657">
        <ele>220.76</ele>
        <time>2011-10-09T15:20:36Z</time>
      </trkpt>
      <trkpt lat="43.62331" lon="3.62983">
        <ele>216.43</ele>
        <time>2011-10-09T15:20:43Z</time>
      </trkpt>
      <trkpt lat="43.62371" lon="3.63325">
        <ele>212.11</ele>
        <time>2011-10-09T15:20:50Z</time>
      </trkpt>
      <trkpt lat="43.62487" lon="3.6424">
        <ele>200.09</ele>
        <time>2011-10-09T15:21:08Z</time>
      </trkpt>
      <trkpt lat="43.62558" lon="3.64901">
        <ele>183.27</ele>
        <time>2011-10-09T15:21:21Z</time>
      </trkpt>
      <trkpt lat="43.62552" lon="3.65272">
        <ele>173.17</ele>
        <time>2011-10-09T15:21:28Z</time>
      </trkpt>
      <trkpt lat="43.62586" lon="3.65532">
        <ele>165</ele>
        <time>2011-10-09T15:21:33Z</time>
      </trkpt>
      <trkpt lat="43.62663" lon="3.65883">
        <ele>155.87</ele>
        <time>2011-10-09T15:21:40Z</time>
      </trkpt>
      <trkpt lat="43.6267" lon="3.66148">
        <ele>155.39</ele>
        <time>2011-10-09T15:21:45Z</time>
      </trkpt>
      <trkpt lat="43.62678" lon="3.66525">
        <ele>163.08</ele>
        <time>2011-10-09T15:21:52Z</time>
      </trkpt>
      <trkpt lat="43.62733" lon="3.6684">
        <ele>174.14</ele>
        <time>2011-10-09T15:21:58Z</time>
      </trkpt>
      <trkpt lat="43.62813" lon="3.67215">
        <ele>184.71</ele>
        <time>2011-10-09T15:22:06Z</time>
      </trkpt>
      <trkpt lat="43.62918" lon="3.67617">
        <ele>187.59</ele>
        <time>2011-10-09T15:22:14Z</time>
      </trkpt>
      <trkpt lat="43.63045" lon="3.67951">
        <ele>181.83</ele>
        <time>2011-10-09T15:22:21Z</time>
      </trkpt>
      <trkpt lat="43.63104" lon="3.68248">
        <ele>171.73</ele>
        <time>2011-10-09T15:22:27Z</time>
      </trkpt>
      <trkpt lat="43.63102" lon="3.6856">
        <ele>159.24</ele>
        <time>2011-10-09T15:22:33Z</time>
      </trkpt>
      <trkpt lat="43.63043" lon="3.68869">
        <ele>146.74</ele>
        <time>2011-10-09T15:22:39Z</time>
      </trkpt>
      <trkpt lat="43.62983" lon="3.69141">
        <ele>139.53</ele>
        <time>2011-10-09T15:22:45Z</time>
      </trkpt>
      <trkpt lat="43.62902" lon="3.69508">
        <ele>139.05</ele>
        <time>2011-10-09T15:22:55Z</time>
      </trkpt>
      <trkpt lat="43.62818" lon="3.69947">
        <ele>141.93</ele>
        <time>2011-10-09T15:23:07Z</time>
      </trkpt>
      <trkpt lat="43.62794" lon="3.70343">
        <ele>144.34</ele>
        <time>2011-10-09T15:23:17Z</time>
      </trkpt>
      <trkpt lat="43.6282" lon="3.70719">
        <ele>146.26</ele>
        <time>2011-10-09T15:23:26Z</time>
      </trkpt>
      <trkpt lat="43.6289" lon="3.7108">
        <ele>148.18</ele>
        <time>2011-10-09T15:23:34Z</time>
      </trkpt>
      <trkpt lat="43.63015" lon="3.71582">
        <ele>151.06</ele>
        <time>2011-10-09T15:23:45Z</time>
      </trkpt>
      <trkpt lat="43.63136" lon="3.7206">
        <ele>154.43</ele>
        <time>2011-10-09T15:23:55Z</time>
      </trkpt>
      <trkpt lat="43.63253" lon="3.72568">
        <ele>157.31</ele>
        <time>2011-10-09T15:24:05Z</time>
      </trkpt>
      <trkpt lat="43.63295" lon="3.72965">
        <ele>159.72</ele>
        <time>2011-10-09T15:24:12Z</time>
      </trkpt>
      <trkpt lat="43.63294" lon="3.73283">
        <ele>161.64</ele>
        <time>2011-10-09T15:24:18Z</time>
      </trkpt>
      <trkpt lat="43.63269" lon="3.7371">
        <ele>161.64</ele>
        <time>2011-10-09T15:24:27Z</time>
      </trkpt>
      <trkpt lat="43.63246" lon="3.74075">
        <ele>160.2</ele>
        <time>2011-10-09T15:24:34Z</time>
      </trkpt>
      <trkpt lat="43.63246" lon="3.74449">
        <ele>156.83</ele>
        <time>2011-10-09T15:24:41Z</time>
      </trkpt>
      <trkpt lat="43.63294" lon="3.74763">
        <ele>152.99</ele>
        <time>2011-10-09T15:24:47Z</time>
      </trkpt>
      <trkpt lat="43.6338" lon="3.7513">
        <ele>145.3</ele>
        <time>2011-10-09T15:24:55Z</time>
      </trkpt>
      <trkpt lat="43.63404" lon="3.75417">
        <ele>139.05</ele>
        <time>2011-10-09T15:25:01Z</time>
      </trkpt>
      <trkpt lat="43.63373" lon="3.75706">
        <ele>132.8</ele>
        <time>2011-10-09T15:25:07Z</time>
      </trkpt>
      <trkpt lat="43.63287" lon="3.75981">
        <ele>127.51</ele>
        <time>2011-10-09T15:25:13Z</time>
      </trkpt>
      <trkpt lat="43.63161" lon="3.76298">
        <ele>122.22</ele>
        <time>2011-10-09T15:25:21Z</time>
      </trkpt>
      <trkpt lat="43.63066" lon="3.76648">
        <ele>116.46</ele>
        <time>2011-10-09T15:25:30Z</time>
      </trkpt>
      <trkpt lat="43.62949" lon="3.7715">
        <ele>104.92</ele>
        <time>2011-10-09T15:25:41Z</time>
      </trkpt>
      <trkpt lat="43.62885" lon="3.77493">
        <ele>101.56</ele>
        <time>2011-10-09T15:25:49Z</time>
      </trkpt>
      <trkpt lat="43.62894" lon="3.77701">
        <ele>101.56</ele>
        <time>2011-10-09T15:25:54Z</time>
      </trkpt>
      <trkpt lat="43.62901" lon="3.77965">
        <ele>101.56</ele>
        <time>2011-10-09T15:26:00Z</time>
      </trkpt>
      <trkpt lat="43.62893" lon="3.78008">
        <ele>101.56</ele>
        <time>2011-10-09T15:26:01Z</time>
      </trkpt>
      <trkpt lat="43.62883" lon="3.78052">
        <ele>101.08</ele>
        <time>2011-10-09T15:26:02Z</time>
      </trkpt>
      <trkpt lat="43.6287" lon="3.78094">
        <ele>101.08</ele>
        <time>2011-10-09T15:26:03Z</time>
      </trkpt>
      <trkpt lat="43.62851" lon="3.78133">
        <ele>100.6</ele>
        <time>2011-10-09T15:26:04Z</time>
      </trkpt>
      <trkpt lat="43.62831" lon="3.78171">
        <ele>100.6</ele>
        <time>2011-10-09T15:26:05Z</time>
      </trkpt>
      <trkpt lat="43.62809" lon="3.78208">
        <ele>100.11</ele>
        <time>2011-10-09T15:26:06Z</time>
      </trkpt>
      <trkpt lat="43.62786" lon="3.78244">
        <ele>99.63</ele>
        <time>2011-10-09T15:26:07Z</time>
      </trkpt>
      <trkpt lat="43.6263" lon="3.78466">
        <ele>95.79</ele>
        <time>2011-10-09T15:26:14Z</time>
      </trkpt>
      <trkpt lat="43.62427" lon="3.78719">
        <ele>89.06</ele>
        <time>2011-10-09T15:26:24Z</time>
      </trkpt>
      <trkpt lat="43.6226" lon="3.78936">
        <ele>81.85</ele>
        <time>2011-10-09T15:26:33Z</time>
      </trkpt>
      <trkpt lat="43.62111" lon="3.79059">
        <ele>75.6</ele>
        <time>2011-10-09T15:26:39Z</time>
      </trkpt>
      <trkpt lat="43.61902" lon="3.79244">
        <ele>71.27</ele>
        <time>2011-10-09T15:26:49Z</time>
      </trkpt>
      <trkpt lat="43.61805" lon="3.79401">
        <ele>66.95</ele>
        <time>2011-10-09T15:26:55Z</time>
      </trkpt>
      <trkpt lat="43.6161" lon="3.79776">
        <ele>63.58</ele>
        <time>2011-10-09T15:27:08Z</time>
      </trkpt>
      <trkpt lat="43.61491" lon="3.79897">
        <ele>65.51</ele>
        <time>2011-10-09T15:27:14Z</time>
      </trkpt>
      <trkpt lat="43.61277" lon="3.80034">
        <ele>62.62</ele>
        <time>2011-10-09T15:27:23Z</time>
      </trkpt>
      <trkpt lat="43.61154" lon="3.80173">
        <ele>55.89</ele>
        <time>2011-10-09T15:27:29Z</time>
      </trkpt>
      <trkpt lat="43.6093" lon="3.80474">
        <ele>41.95</ele>
        <time>2011-10-09T15:27:40Z</time>
      </trkpt>
      <trkpt lat="43.60799" lon="3.80672">
        <ele>39.07</ele>
        <time>2011-10-09T15:27:47Z</time>
      </trkpt>
      <trkpt lat="43.60728" lon="3.80885">
        <ele>37.15</ele>
        <time>2011-10-09T15:27:53Z</time>
      </trkpt>
      <trkpt lat="43.60636" lon="3.81066">
        <ele>35.71</ele>
        <time>2011-10-09T15:27:59Z</time>
      </trkpt>
      <trkpt lat="43.60552" lon="3.81232">
        <ele>34.26</ele>
        <time>2011-10-09T15:28:04Z</time>
      </trkpt>
      <trkpt lat="43.6054" lon="3.81269">
        <ele>34.26</ele>
        <time>2011-10-09T15:28:05Z</time>
      </trkpt>
      <trkpt lat="43.60531" lon="3.81307">
        <ele>33.78</ele>
        <time>2011-10-09T15:28:06Z</time>
      </trkpt>
      <trkpt lat="43.60524" lon="3.81346">
        <ele>33.78</ele>
        <time>2011-10-09T15:28:07Z</time>
      </trkpt>
      <trkpt lat="43.6052" lon="3.81386">
        <ele>33.78</ele>
        <time>2011-10-09T15:28:08Z</time>
      </trkpt>
      <trkpt lat="43.60518" lon="3.81425">
        <ele>33.3</ele>
        <time>2011-10-09T15:28:09Z</time>
      </trkpt>
      <trkpt lat="43.60519" lon="3.81466">
        <ele>33.3</ele>
        <time>2011-10-09T15:28:10Z</time>
      </trkpt>
      <trkpt lat="43.60523" lon="3.81506">
        <ele>32.82</ele>
        <time>2011-10-09T15:28:11Z</time>
      </trkpt>
      <trkpt lat="43.6053" lon="3.81546">
        <ele>33.3</ele>
        <time>2011-10-09T15:28:12Z</time>
      </trkpt>
      <trkpt lat="43.60539" lon="3.81585">
        <ele>33.3</ele>
        <time>2011-10-09T15:28:13Z</time>
      </trkpt>
      <trkpt lat="43.60551" lon="3.81622">
        <ele>33.3</ele>
        <time>2011-10-09T15:28:14Z</time>
      </trkpt>
      <trkpt lat="43.60565" lon="3.81658">
        <ele>33.78</ele>
        <time>2011-10-09T15:28:15Z</time>
      </trkpt>
      <trkpt lat="43.60581" lon="3.81693">
        <ele>33.78</ele>
        <time>2011-10-09T15:28:16Z</time>
      </trkpt>
      <trkpt lat="43.60598" lon="3.81727">
        <ele>34.26</ele>
        <time>2011-10-09T15:28:17Z</time>
      </trkpt>
      <trkpt lat="43.60808" lon="3.82104">
        <ele>37.63</ele>
        <time>2011-10-09T15:28:29Z</time>
      </trkpt>
      <trkpt lat="43.60933" lon="3.82222">
        <ele>37.63</ele>
        <time>2011-10-09T15:28:35Z</time>
      </trkpt>
      <trkpt lat="43.61061" lon="3.82273">
        <ele>36.67</ele>
        <time>2011-10-09T15:28:41Z</time>
      </trkpt>
      <trkpt lat="43.61206" lon="3.82299">
        <ele>34.74</ele>
        <time>2011-10-09T15:28:49Z</time>
      </trkpt>
      <trkpt lat="43.61236" lon="3.82317">
        <ele>34.74</ele>
        <time>2011-10-09T15:28:51Z</time>
      </trkpt>
      <trkpt lat="43.6125" lon="3.82328">
        <ele>34.74</ele>
        <time>2011-10-09T15:28:52Z</time>
      </trkpt>
      <trkpt lat="43.61281" lon="3.82368">
        <ele>35.23</ele>
        <time>2011-10-09T15:28:55Z</time>
      </trkpt>
      <trkpt lat="43.61286" lon="3.82386">
        <ele>35.71</ele>
        <time>2011-10-09T15:28:56Z</time>
      </trkpt>
      <trkpt lat="43.61289" lon="3.82404">
        <ele>35.71</ele>
        <time>2011-10-09T15:28:57Z</time>
      </trkpt>
      <trkpt lat="43.6129" lon="3.82422">
        <ele>36.19</ele>
        <time>2011-10-09T15:28:58Z</time>
      </trkpt>
      <trkpt lat="43.61288" lon="3.8244">
        <ele>38.11</ele>
        <time>2011-10-09T15:28:59Z</time>
      </trkpt>
      <trkpt lat="43.61281" lon="3.82456">
        <ele>38.59</ele>
        <time>2011-10-09T15:29:00Z</time>
      </trkpt>
      <trkpt lat="43.61271" lon="3.82469">
        <ele>39.55</ele>
        <time>2011-10-09T15:29:01Z</time>
      </trkpt>
      <trkpt lat="43.6126" lon="3.82477">
        <ele>40.51</ele>
        <time>2011-10-09T15:29:02Z</time>
      </trkpt>
      <trkpt lat="43.61248" lon="3.82479">
        <ele>40.99</ele>
        <time>2011-10-09T15:29:03Z</time>
      </trkpt>
      <trkpt lat="43.61237" lon="3.82475">
        <ele>41.47</ele>
        <time>2011-10-09T15:29:04Z</time>
      </trkpt>
      <trkpt lat="43.61226" lon="3.82467">
        <ele>43.88</ele>
        <time>2011-10-09T15:29:05Z</time>
      </trkpt>
      <trkpt lat="43.6122" lon="3.82453">
        <ele>45.32</ele>
        <time>2011-10-09T15:29:06Z</time>
      </trkpt>
      <trkpt lat="43.61218" lon="3.82437">
        <ele>45.32</ele>
        <time>2011-10-09T15:29:07Z</time>
      </trkpt>
      <trkpt lat="43.6122" lon="3.82422">
        <ele>45.32</ele>
        <time>2011-10-09T15:29:08Z</time>
      </trkpt>
      <trkpt lat="43.61225" lon="3.82406">
        <ele>44.36</ele>
        <time>2011-10-09T15:29:09Z</time>
      </trkpt>
      <trkpt lat="43.61232" lon="3.8239">
        <ele>43.4</ele>
        <time>2011-10-09T15:29:10Z</time>
      </trkpt>
      <trkpt lat="43.6124" lon="3.82373">
        <ele>42.92</ele>
        <time>2011-10-09T15:29:11Z</time>
      </trkpt>
      <trkpt lat="43.6129" lon="3.82288">
        <ele>41.47</ele>
        <time>2011-10-09T15:29:15Z</time>
      </trkpt>
      <trkpt lat="43.61308" lon="3.82266">
        <ele>41.47</ele>
        <time>2011-10-09T15:29:16Z</time>
      </trkpt>
      <trkpt lat="43.61328" lon="3.82247">
        <ele>41.47</ele>
        <time>2011-10-09T15:29:17Z</time>
      </trkpt>
      <trkpt lat="43.61349" lon="3.8223">
        <ele>41.47</ele>
        <time>2011-10-09T15:29:18Z</time>
      </trkpt>
      <trkpt lat="43.6137" lon="3.82214">
        <ele>41.47</ele>
        <time>2011-10-09T15:29:19Z</time>
      </trkpt>
      <trkpt lat="43.6147" lon="3.82141">
        <ele>45.32</ele>
        <time>2011-10-09T15:29:24Z</time>
      </trkpt>
      <trkpt lat="43.61629" lon="3.82033">
        <ele>46.76</ele>
        <time>2011-10-09T15:29:32Z</time>
      </trkpt>
      <trkpt lat="43.61666" lon="3.82019">
        <ele>46.76</ele>
        <time>2011-10-09T15:29:34Z</time>
      </trkpt>
      <trkpt lat="43.61685" lon="3.82017">
        <ele>46.28</ele>
        <time>2011-10-09T15:29:35Z</time>
      </trkpt>
      <trkpt lat="43.61704" lon="3.82018">
        <ele>45.8</ele>
        <time>2011-10-09T15:29:36Z</time>
      </trkpt>
      <trkpt lat="43.61723" lon="3.82022">
        <ele>45.32</ele>
        <time>2011-10-09T15:29:37Z</time>
      </trkpt>
      <trkpt lat="43.61742" lon="3.8203">
        <ele>44.84</ele>
        <time>2011-10-09T15:29:38Z</time>
      </trkpt>
      <trkpt lat="43.61759" lon="3.82042">
        <ele>44.84</ele>
        <time>2011-10-09T15:29:39Z</time>
      </trkpt>
      <trkpt lat="43.61777" lon="3.82056">
        <ele>44.36</ele>
        <time>2011-10-09T15:29:40Z</time>
      </trkpt>
      <trkpt lat="43.61873" lon="3.82139">
        <ele>43.88</ele>
        <time>2011-10-09T15:29:47Z</time>
      </trkpt>
      <trkpt lat="43.61976" lon="3.82216">
        <ele>46.76</ele>
        <time>2011-10-09T15:29:55Z</time>
      </trkpt>
      <trkpt lat="43.62093" lon="3.82268">
        <ele>49.16</ele>
        <time>2011-10-09T15:30:05Z</time>
      </trkpt>
      <trkpt lat="43.62176" lon="3.82283">
        <ele>47.72</ele>
        <time>2011-10-09T15:30:14Z</time>
      </trkpt>
      <trkpt lat="43.62182" lon="3.82285">
        <ele>47.72</ele>
        <time>2011-10-09T15:30:15Z</time>
      </trkpt>
      <trkpt lat="43.62187" lon="3.82288">
        <ele>47.72</ele>
        <time>2011-10-09T15:30:16Z</time>
      </trkpt>
      <trkpt lat="43.62193" lon="3.82294">
        <ele>48.2</ele>
        <time>2011-10-09T15:30:17Z</time>
      </trkpt>
      <trkpt lat="43.622" lon="3.823">
        <ele>48.2</ele>
        <time>2011-10-09T15:30:18Z</time>
      </trkpt>
      <trkpt lat="43.62208" lon="3.82302">
        <ele>48.68</ele>
        <time>2011-10-09T15:30:19Z</time>
      </trkpt>
      <trkpt lat="43.62217" lon="3.82301">
        <ele>48.68</ele>
        <time>2011-10-09T15:30:20Z</time>
      </trkpt>
      <trkpt lat="43.62226" lon="3.82299">
        <ele>48.68</ele>
        <time>2011-10-09T15:30:21Z</time>
      </trkpt>
      <trkpt lat="43.62234" lon="3.82298">
        <ele>48.68</ele>
        <time>2011-10-09T15:30:22Z</time>
      </trkpt>
      <trkpt lat="43.62243" lon="3.82299">
        <ele>48.68</ele>
        <time>2011-10-09T15:30:23Z</time>
      </trkpt>
      <trkpt lat="43.62252" lon="3.82304">
        <ele>49.16</ele>
        <time>2011-10-09T15:30:24Z</time>
      </trkpt>
      <trkpt lat="43.62262" lon="3.82312">
        <ele>49.65</ele>
        <time>2011-10-09T15:30:25Z</time>
      </trkpt>
      <trkpt lat="43.62272" lon="3.82322">
        <ele>50.13</ele>
        <time>2011-10-09T15:30:26Z</time>
      </trkpt>
      <trkpt lat="43.62282" lon="3.82334">
        <ele>50.61</ele>
        <time>2011-10-09T15:30:27Z</time>
      </trkpt>
      <trkpt lat="43.62291" lon="3.82347">
        <ele>51.09</ele>
        <time>2011-10-09T15:30:28Z</time>
      </trkpt>
      <trkpt lat="43.62372" lon="3.82462">
        <ele>55.41</ele>
        <time>2011-10-09T15:30:38Z</time>
      </trkpt>
      <trkpt lat="43.62443" lon="3.82582">
        <ele>56.86</ele>
        <time>2011-10-09T15:30:48Z</time>
      </trkpt>
      <trkpt lat="43.62452" lon="3.82615">
        <ele>57.34</ele>
        <time>2011-10-09T15:30:52Z</time>
      </trkpt>
      <trkpt lat="43.62453" lon="3.82624">
        <ele>57.34</ele>
        <time>2011-10-09T15:30:53Z</time>
      </trkpt>
      <trkpt lat="43.62453" lon="3.82634">
        <ele>57.82</ele>
        <time>2011-10-09T15:30:54Z</time>
      </trkpt>
      <trkpt lat="43.62453" lon="3.82658">
        <ele>58.78</ele>
        <time>2011-10-09T15:30:56Z</time>
      </trkpt>
      <trkpt lat="43.62457" lon="3.82669">
        <ele>59.26</ele>
        <time>2011-10-09T15:30:57Z</time>
      </trkpt>
      <trkpt lat="43.62462" lon="3.8268">
        <ele>59.26</ele>
        <time>2011-10-09T15:30:58Z</time>
      </trkpt>
      <trkpt lat="43.62468" lon="3.82691">
        <ele>59.26</ele>
        <time>2011-10-09T15:30:59Z</time>
      </trkpt>
      <trkpt lat="43.62472" lon="3.82705">
        <ele>59.26</ele>
        <time>2011-10-09T15:31:00Z</time>
      </trkpt>
      <trkpt lat="43.62473" lon="3.82723">
        <ele>59.74</ele>
        <time>2011-10-09T15:31:01Z</time>
      </trkpt>
      <trkpt lat="43.6247" lon="3.82742">
        <ele>59.74</ele>
        <time>2011-10-09T15:31:02Z</time>
      </trkpt>
      <trkpt lat="43.62462" lon="3.82762">
        <ele>60.22</ele>
        <time>2011-10-09T15:31:03Z</time>
      </trkpt>
      <trkpt lat="43.62451" lon="3.82783">
        <ele>60.7</ele>
        <time>2011-10-09T15:31:04Z</time>
      </trkpt>
      <trkpt lat="43.62439" lon="3.82808">
        <ele>61.18</ele>
        <time>2011-10-09T15:31:05Z</time>
      </trkpt>
      <trkpt lat="43.62426" lon="3.82835">
        <ele>61.66</ele>
        <time>2011-10-09T15:31:06Z</time>
      </trkpt>
      <trkpt lat="43.62333" lon="3.83073">
        <ele>65.51</ele>
        <time>2011-10-09T15:31:14Z</time>
      </trkpt>
      <trkpt lat="43.62298" lon="3.8321">
        <ele>67.43</ele>
        <time>2011-10-09T15:31:19Z</time>
      </trkpt>
      <trkpt lat="43.62296" lon="3.83236">
        <ele>67.43</ele>
        <time>2011-10-09T15:31:20Z</time>
      </trkpt>
      <trkpt lat="43.62297" lon="3.8326">
        <ele>67.91</ele>
        <time>2011-10-09T15:31:21Z</time>
      </trkpt>
      <trkpt lat="43.62301" lon="3.83315">
        <ele>69.83</ele>
        <time>2011-10-09T15:31:24Z</time>
      </trkpt>
      <trkpt lat="43.62299" lon="3.83329">
        <ele>70.31</ele>
        <time>2011-10-09T15:31:25Z</time>
      </trkpt>
      <trkpt lat="43.62295" lon="3.83343">
        <ele>71.27</ele>
        <time>2011-10-09T15:31:26Z</time>
      </trkpt>
      <trkpt lat="43.6229" lon="3.83357">
        <ele>71.76</ele>
        <time>2011-10-09T15:31:27Z</time>
      </trkpt>
      <trkpt lat="43.62288" lon="3.83371">
        <ele>72.24</ele>
        <time>2011-10-09T15:31:28Z</time>
      </trkpt>
      <trkpt lat="43.62289" lon="3.83385">
        <ele>72.72</ele>
        <time>2011-10-09T15:31:29Z</time>
      </trkpt>
      <trkpt lat="43.62294" lon="3.83396">
        <ele>73.2</ele>
        <time>2011-10-09T15:31:30Z</time>
      </trkpt>
      <trkpt lat="43.62304" lon="3.83403">
        <ele>73.2</ele>
        <time>2011-10-09T15:31:31Z</time>
      </trkpt>
      <trkpt lat="43.62315" lon="3.83406">
        <ele>73.2</ele>
        <time>2011-10-09T15:31:32Z</time>
      </trkpt>
      <trkpt lat="43.62379" lon="3.83405">
        <ele>70.79</ele>
        <time>2011-10-09T15:31:37Z</time>
      </trkpt>
      <trkpt lat="43.62392" lon="3.83412">
        <ele>70.79</ele>
        <time>2011-10-09T15:31:38Z</time>
      </trkpt>
      <trkpt lat="43.62438" lon="3.83448">
        <ele>70.79</ele>
        <time>2011-10-09T15:31:42Z</time>
      </trkpt>
      <trkpt lat="43.62457" lon="3.83472">
        <ele>70.79</ele>
        <time>2011-10-09T15:31:44Z</time>
      </trkpt>
      <trkpt lat="43.62466" lon="3.83486">
        <ele>71.27</ele>
        <time>2011-10-09T15:31:45Z</time>
      </trkpt>
      <trkpt lat="43.62498" lon="3.8356">
        <ele>71.27</ele>
        <time>2011-10-09T15:31:51Z</time>
      </trkpt>
      <trkpt lat="43.62499" lon="3.83567">
        <ele>71.27</ele>
        <time>2011-10-09T15:31:52Z</time>
      </trkpt>
      <trkpt lat="43.62499" lon="3.83573">
        <ele>71.27</ele>
        <time>2011-10-09T15:31:53Z</time>
      </trkpt>
      <trkpt lat="43.62495" lon="3.83587">
        <ele>71.76</ele>
        <time>2011-10-09T15:31:55Z</time>
      </trkpt>
      <trkpt lat="43.6249" lon="3.83596">
        <ele>71.76</ele>
        <time>2011-10-09T15:31:56Z</time>
      </trkpt>
      <trkpt lat="43.62485" lon="3.83606">
        <ele>71.27</ele>
        <time>2011-10-09T15:31:57Z</time>
      </trkpt>
      <trkpt lat="43.6248" lon="3.83617">
        <ele>71.27</ele>
        <time>2011-10-09T15:31:58Z</time>
      </trkpt>
      <trkpt lat="43.62477" lon="3.83627">
        <ele>71.27</ele>
        <time>2011-10-09T15:31:59Z</time>
      </trkpt>
      <trkpt lat="43.62471" lon="3.83637">
        <ele>70.79</ele>
        <time>2011-10-09T15:32:00Z</time>
      </trkpt>
      <trkpt lat="43.62463" lon="3.83644">
        <ele>70.79</ele>
        <time>2011-10-09T15:32:01Z</time>
      </trkpt>
      <trkpt lat="43.62455" lon="3.83648">
        <ele>70.79</ele>
        <time>2011-10-09T15:32:02Z</time>
      </trkpt>
      <trkpt lat="43.62447" lon="3.83649">
        <ele>71.27</ele>
        <time>2011-10-09T15:32:03Z</time>
      </trkpt>
      <trkpt lat="43.62442" lon="3.83649">
        <ele>71.27</ele>
        <time>2011-10-09T15:32:04Z</time>
      </trkpt>
      <trkpt lat="43.62437" lon="3.83649">
        <ele>71.76</ele>
        <time>2011-10-09T15:32:05Z</time>
      </trkpt>
      <trkpt lat="43.62425" lon="3.83649">
        <ele>72.24</ele>
        <time>2011-10-09T15:32:07Z</time>
      </trkpt>
      <trkpt lat="43.62418" lon="3.83652">
        <ele>72.24</ele>
        <time>2011-10-09T15:32:08Z</time>
      </trkpt>
      <trkpt lat="43.62413" lon="3.83657">
        <ele>72.72</ele>
        <time>2011-10-09T15:32:09Z</time>
      </trkpt>
      <trkpt lat="43.6241" lon="3.83662">
        <ele>72.72</ele>
        <time>2011-10-09T15:32:10Z</time>
      </trkpt>
      <trkpt lat="43.62409" lon="3.83667">
        <ele>73.2</ele>
        <time>2011-10-09T15:32:11Z</time>
      </trkpt>
      <trkpt lat="43.62408" lon="3.83672">
        <ele>73.2</ele>
        <time>2011-10-09T15:32:12Z</time>
      </trkpt>
      <trkpt lat="43.62408" lon="3.83677">
        <ele>72.72</ele>
        <time>2011-10-09T15:32:13Z</time>
      </trkpt>
      <trkpt lat="43.62409" lon="3.83682">
        <ele>72.72</ele>
        <time>2011-10-09T15:32:14Z</time>
      </trkpt>
      <trkpt lat="43.62411" lon="3.83688">
        <ele>72.72</ele>
        <time>2011-10-09T15:32:15Z</time>
      </trkpt>
      <trkpt lat="43.62415" lon="3.83693">
        <ele>72.72</ele>
        <time>2011-10-09T15:32:16Z</time>
      </trkpt>
      <trkpt lat="43.62419" lon="3.83696">
        <ele>72.24</ele>
        <time>2011-10-09T15:32:17Z</time>
      </trkpt>
      <trkpt lat="43.62422" lon="3.837">
        <ele>72.24</ele>
        <time>2011-10-09T15:32:18Z</time>
      </trkpt>
      <trkpt lat="43.62425" lon="3.83706">
        <ele>71.76</ele>
        <time>2011-10-09T15:32:19Z</time>
      </trkpt>
      <trkpt lat="43.62428" lon="3.83714">
        <ele>71.27</ele>
        <time>2011-10-09T15:32:20Z</time>
      </trkpt>
      <trkpt lat="43.6243" lon="3.83724">
        <ele>71.27</ele>
        <time>2011-10-09T15:32:21Z</time>
      </trkpt>
      <trkpt lat="43.62432" lon="3.83735">
        <ele>71.27</ele>
        <time>2011-10-09T15:32:22Z</time>
      </trkpt>
      <trkpt lat="43.62437" lon="3.83766">
        <ele>71.76</ele>
        <time>2011-10-09T15:32:25Z</time>
      </trkpt>
      <trkpt lat="43.62436" lon="3.83774">
        <ele>72.24</ele>
        <time>2011-10-09T15:32:26Z</time>
      </trkpt>
      <trkpt lat="43.62431" lon="3.83786">
        <ele>72.72</ele>
        <time>2011-10-09T15:32:28Z</time>
      </trkpt>
      <trkpt lat="43.62428" lon="3.83793">
        <ele>73.68</ele>
        <time>2011-10-09T15:32:30Z</time>
      </trkpt>
      <trkpt lat="43.62431" lon="3.838">
        <ele>77.04</ele>
        <time>2011-10-09T15:32:42Z</time>
      </trkpt>
      <trkpt lat="43.62432" lon="3.83797">
        <ele>83.29</ele>
        <time>2011-10-09T15:32:57Z</time>
      </trkpt>
    </trkseg>
  </trk>
</gpx>